<?xml version="1.0" encoding="UTF-8" standalone="no" ?>
<gpx xmlns="http://www.topografix.com/GPX/1/1" xmlns:xsi="http://www.w3.org/2001/XMLSchema-instance" xsi:schemaLocation="http://www.topografix.com/GPX/1/1 http://www.topografix.com/GPX/1/1/gpx.xsd" version="1.1" creator="VisuGPX - https://www.visugpx.com">
  <metadata>
    <name>Super boucle single tarck dans les forets autour de Barbazan</name>
    <desc><![CDATA[Single track dans les bois autour de Barbazan.
Suivre l'itinéraire VTT n°9.]]></desc>
  </metadata>
  <trk>
    <name><![CDATA[Super boucle single tarck dans les forets autour de Barbazan_1]]></name>
    <trkseg>
      <trkpt lat="43.03876" lon="0.61507">
        <ele>457</ele>
        <time>2023-09-23T07:35:53Z</time>
      </trkpt>
      <trkpt lat="43.03872" lon="0.61505">
        <ele>457</ele>
        <time>2023-09-23T07:35:54Z</time>
      </trkpt>
      <trkpt lat="43.03868" lon="0.61504">
        <ele>457</ele>
        <time>2023-09-23T07:35:55Z</time>
      </trkpt>
      <trkpt lat="43.03864" lon="0.61502">
        <ele>456.8</ele>
        <time>2023-09-23T07:35:56Z</time>
      </trkpt>
      <trkpt lat="43.0386" lon="0.615">
        <ele>456.8</ele>
        <time>2023-09-23T07:35:57Z</time>
      </trkpt>
      <trkpt lat="43.03857" lon="0.61497">
        <ele>456.8</ele>
        <time>2023-09-23T07:35:58Z</time>
      </trkpt>
      <trkpt lat="43.03853" lon="0.61494">
        <ele>456.8</ele>
        <time>2023-09-23T07:35:59Z</time>
      </trkpt>
      <trkpt lat="43.03849" lon="0.61491">
        <ele>456</ele>
        <time>2023-09-23T07:36:00Z</time>
      </trkpt>
      <trkpt lat="43.03845" lon="0.61488">
        <ele>456</ele>
        <time>2023-09-23T07:36:01Z</time>
      </trkpt>
      <trkpt lat="43.03841" lon="0.61484">
        <ele>456</ele>
        <time>2023-09-23T07:36:02Z</time>
      </trkpt>
      <trkpt lat="43.03837" lon="0.6148">
        <ele>456</ele>
        <time>2023-09-23T07:36:03Z</time>
      </trkpt>
      <trkpt lat="43.03834" lon="0.61477">
        <ele>456.6</ele>
        <time>2023-09-23T07:36:04Z</time>
      </trkpt>
      <trkpt lat="43.0383" lon="0.61473">
        <ele>456.6</ele>
        <time>2023-09-23T07:36:05Z</time>
      </trkpt>
      <trkpt lat="43.03827" lon="0.61469">
        <ele>456.6</ele>
        <time>2023-09-23T07:36:06Z</time>
      </trkpt>
      <trkpt lat="43.03825" lon="0.61465">
        <ele>456.6</ele>
        <time>2023-09-23T07:36:07Z</time>
      </trkpt>
      <trkpt lat="43.03823" lon="0.6146">
        <ele>456.2</ele>
        <time>2023-09-23T07:36:08Z</time>
      </trkpt>
      <trkpt lat="43.03821" lon="0.61456">
        <ele>456.2</ele>
        <time>2023-09-23T07:36:09Z</time>
      </trkpt>
      <trkpt lat="43.03818" lon="0.61452">
        <ele>456.2</ele>
        <time>2023-09-23T07:36:10Z</time>
      </trkpt>
      <trkpt lat="43.03815" lon="0.61449">
        <ele>456.2</ele>
        <time>2023-09-23T07:36:11Z</time>
      </trkpt>
      <trkpt lat="43.03813" lon="0.61445">
        <ele>456.4</ele>
        <time>2023-09-23T07:36:12Z</time>
      </trkpt>
      <trkpt lat="43.03812" lon="0.61441">
        <ele>456.4</ele>
        <time>2023-09-23T07:36:13Z</time>
      </trkpt>
      <trkpt lat="43.03812" lon="0.61438">
        <ele>456.4</ele>
        <time>2023-09-23T07:36:14Z</time>
      </trkpt>
      <trkpt lat="43.03814" lon="0.61434">
        <ele>456.4</ele>
        <time>2023-09-23T07:36:15Z</time>
      </trkpt>
      <trkpt lat="43.03816" lon="0.61432">
        <ele>456.6</ele>
        <time>2023-09-23T07:36:16Z</time>
      </trkpt>
      <trkpt lat="43.03819" lon="0.6143">
        <ele>456.6</ele>
        <time>2023-09-23T07:36:17Z</time>
      </trkpt>
      <trkpt lat="43.03822" lon="0.61428">
        <ele>456.6</ele>
        <time>2023-09-23T07:36:18Z</time>
      </trkpt>
      <trkpt lat="43.03826" lon="0.61426">
        <ele>456.6</ele>
        <time>2023-09-23T07:36:19Z</time>
      </trkpt>
      <trkpt lat="43.03829" lon="0.61424">
        <ele>456.4</ele>
        <time>2023-09-23T07:36:20Z</time>
      </trkpt>
      <trkpt lat="43.03833" lon="0.61422">
        <ele>456.4</ele>
        <time>2023-09-23T07:36:21Z</time>
      </trkpt>
      <trkpt lat="43.03836" lon="0.61419">
        <ele>456.4</ele>
        <time>2023-09-23T07:36:22Z</time>
      </trkpt>
      <trkpt lat="43.0384" lon="0.61417">
        <ele>456.6</ele>
        <time>2023-09-23T07:36:23Z</time>
      </trkpt>
      <trkpt lat="43.03844" lon="0.61414">
        <ele>456.8</ele>
        <time>2023-09-23T07:36:24Z</time>
      </trkpt>
      <trkpt lat="43.03847" lon="0.61412">
        <ele>456.8</ele>
        <time>2023-09-23T07:36:25Z</time>
      </trkpt>
      <trkpt lat="43.0385" lon="0.6141">
        <ele>456.8</ele>
        <time>2023-09-23T07:36:26Z</time>
      </trkpt>
      <trkpt lat="43.03853" lon="0.61408">
        <ele>456.8</ele>
        <time>2023-09-23T07:36:27Z</time>
      </trkpt>
      <trkpt lat="43.03856" lon="0.61406">
        <ele>458.2</ele>
        <time>2023-09-23T07:36:28Z</time>
      </trkpt>
      <trkpt lat="43.03859" lon="0.61404">
        <ele>458.2</ele>
        <time>2023-09-23T07:36:29Z</time>
      </trkpt>
      <trkpt lat="43.03861" lon="0.61403">
        <ele>458.2</ele>
        <time>2023-09-23T07:36:30Z</time>
      </trkpt>
      <trkpt lat="43.03864" lon="0.61402">
        <ele>458.2</ele>
        <time>2023-09-23T07:36:31Z</time>
      </trkpt>
      <trkpt lat="43.03866" lon="0.614">
        <ele>459</ele>
        <time>2023-09-23T07:36:32Z</time>
      </trkpt>
      <trkpt lat="43.03869" lon="0.61399">
        <ele>459</ele>
        <time>2023-09-23T07:36:33Z</time>
      </trkpt>
      <trkpt lat="43.03872" lon="0.61397">
        <ele>459</ele>
        <time>2023-09-23T07:36:34Z</time>
      </trkpt>
      <trkpt lat="43.03874" lon="0.61394">
        <ele>459</ele>
        <time>2023-09-23T07:36:35Z</time>
      </trkpt>
      <trkpt lat="43.03876" lon="0.61392">
        <ele>459.8</ele>
        <time>2023-09-23T07:36:36Z</time>
      </trkpt>
      <trkpt lat="43.03879" lon="0.6139">
        <ele>459.8</ele>
        <time>2023-09-23T07:36:37Z</time>
      </trkpt>
      <trkpt lat="43.03881" lon="0.61388">
        <ele>459.8</ele>
        <time>2023-09-23T07:36:38Z</time>
      </trkpt>
      <trkpt lat="43.03884" lon="0.61387">
        <ele>459.8</ele>
        <time>2023-09-23T07:36:39Z</time>
      </trkpt>
      <trkpt lat="43.03886" lon="0.61386">
        <ele>460.8</ele>
        <time>2023-09-23T07:36:40Z</time>
      </trkpt>
      <trkpt lat="43.03888" lon="0.61386">
        <ele>460.8</ele>
        <time>2023-09-23T07:36:41Z</time>
      </trkpt>
      <trkpt lat="43.03889" lon="0.61388">
        <ele>460.8</ele>
        <time>2023-09-23T07:36:42Z</time>
      </trkpt>
      <trkpt lat="43.0389" lon="0.61389">
        <ele>461.8</ele>
        <time>2023-09-23T07:36:43Z</time>
      </trkpt>
      <trkpt lat="43.03891" lon="0.61392">
        <ele>462.6</ele>
        <time>2023-09-23T07:36:44Z</time>
      </trkpt>
      <trkpt lat="43.03891" lon="0.61394">
        <ele>462.6</ele>
        <time>2023-09-23T07:36:45Z</time>
      </trkpt>
      <trkpt lat="43.03892" lon="0.61397">
        <ele>462.6</ele>
        <time>2023-09-23T07:36:46Z</time>
      </trkpt>
      <trkpt lat="43.03893" lon="0.61399">
        <ele>462.6</ele>
        <time>2023-09-23T07:36:47Z</time>
      </trkpt>
      <trkpt lat="43.03893" lon="0.61401">
        <ele>462.4</ele>
        <time>2023-09-23T07:36:48Z</time>
      </trkpt>
      <trkpt lat="43.03894" lon="0.61404">
        <ele>462.4</ele>
        <time>2023-09-23T07:36:49Z</time>
      </trkpt>
      <trkpt lat="43.03896" lon="0.61406">
        <ele>462.4</ele>
        <time>2023-09-23T07:36:50Z</time>
      </trkpt>
      <trkpt lat="43.03898" lon="0.61408">
        <ele>462.4</ele>
        <time>2023-09-23T07:36:51Z</time>
      </trkpt>
      <trkpt lat="43.03899" lon="0.61412">
        <ele>462</ele>
        <time>2023-09-23T07:36:52Z</time>
      </trkpt>
      <trkpt lat="43.03901" lon="0.61414">
        <ele>462</ele>
        <time>2023-09-23T07:36:53Z</time>
      </trkpt>
      <trkpt lat="43.03903" lon="0.61416">
        <ele>462</ele>
        <time>2023-09-23T07:36:54Z</time>
      </trkpt>
      <trkpt lat="43.03904" lon="0.61417">
        <ele>462</ele>
        <time>2023-09-23T07:36:55Z</time>
      </trkpt>
      <trkpt lat="43.03905" lon="0.61421">
        <ele>461.4</ele>
        <time>2023-09-23T07:36:56Z</time>
      </trkpt>
      <trkpt lat="43.03906" lon="0.61424">
        <ele>461.4</ele>
        <time>2023-09-23T07:36:57Z</time>
      </trkpt>
      <trkpt lat="43.03907" lon="0.61428">
        <ele>461.4</ele>
        <time>2023-09-23T07:36:58Z</time>
      </trkpt>
      <trkpt lat="43.03908" lon="0.61431">
        <ele>461.8</ele>
        <time>2023-09-23T07:36:59Z</time>
      </trkpt>
      <trkpt lat="43.0391" lon="0.61435">
        <ele>462.6</ele>
        <time>2023-09-23T07:37:00Z</time>
      </trkpt>
      <trkpt lat="43.03911" lon="0.61438">
        <ele>462.6</ele>
        <time>2023-09-23T07:37:01Z</time>
      </trkpt>
      <trkpt lat="43.03912" lon="0.61441">
        <ele>462.6</ele>
        <time>2023-09-23T07:37:02Z</time>
      </trkpt>
      <trkpt lat="43.03913" lon="0.61444">
        <ele>463.4</ele>
        <time>2023-09-23T07:37:03Z</time>
      </trkpt>
      <trkpt lat="43.03915" lon="0.61446">
        <ele>463.2</ele>
        <time>2023-09-23T07:37:04Z</time>
      </trkpt>
      <trkpt lat="43.03916" lon="0.61448">
        <ele>463.2</ele>
        <time>2023-09-23T07:37:05Z</time>
      </trkpt>
      <trkpt lat="43.03917" lon="0.6145">
        <ele>463.2</ele>
        <time>2023-09-23T07:37:06Z</time>
      </trkpt>
      <trkpt lat="43.03919" lon="0.61453">
        <ele>463.4</ele>
        <time>2023-09-23T07:37:07Z</time>
      </trkpt>
      <trkpt lat="43.03921" lon="0.61457">
        <ele>464.4</ele>
        <time>2023-09-23T07:37:08Z</time>
      </trkpt>
      <trkpt lat="43.03922" lon="0.6146">
        <ele>464.4</ele>
        <time>2023-09-23T07:37:09Z</time>
      </trkpt>
      <trkpt lat="43.03924" lon="0.61463">
        <ele>464.4</ele>
        <time>2023-09-23T07:37:10Z</time>
      </trkpt>
      <trkpt lat="43.03925" lon="0.61467">
        <ele>464.4</ele>
        <time>2023-09-23T07:37:11Z</time>
      </trkpt>
      <trkpt lat="43.03927" lon="0.6147">
        <ele>464.4</ele>
        <time>2023-09-23T07:37:12Z</time>
      </trkpt>
      <trkpt lat="43.03928" lon="0.61474">
        <ele>464.4</ele>
        <time>2023-09-23T07:37:13Z</time>
      </trkpt>
      <trkpt lat="43.0393" lon="0.61478">
        <ele>464.4</ele>
        <time>2023-09-23T07:37:14Z</time>
      </trkpt>
      <trkpt lat="43.03932" lon="0.61481">
        <ele>464</ele>
        <time>2023-09-23T07:37:15Z</time>
      </trkpt>
      <trkpt lat="43.03934" lon="0.61485">
        <ele>464</ele>
        <time>2023-09-23T07:37:16Z</time>
      </trkpt>
      <trkpt lat="43.03934" lon="0.61489">
        <ele>464</ele>
        <time>2023-09-23T07:37:17Z</time>
      </trkpt>
      <trkpt lat="43.03936" lon="0.61492">
        <ele>464</ele>
        <time>2023-09-23T07:37:18Z</time>
      </trkpt>
      <trkpt lat="43.03935" lon="0.61495">
        <ele>464</ele>
        <time>2023-09-23T07:37:19Z</time>
      </trkpt>
      <trkpt lat="43.03936" lon="0.61498">
        <ele>464.4</ele>
        <time>2023-09-23T07:37:20Z</time>
      </trkpt>
      <trkpt lat="43.03937" lon="0.61501">
        <ele>464.4</ele>
        <time>2023-09-23T07:37:21Z</time>
      </trkpt>
      <trkpt lat="43.03938" lon="0.61504">
        <ele>464.4</ele>
        <time>2023-09-23T07:37:22Z</time>
      </trkpt>
      <trkpt lat="43.03938" lon="0.61508">
        <ele>464.4</ele>
        <time>2023-09-23T07:37:23Z</time>
      </trkpt>
      <trkpt lat="43.03938" lon="0.61511">
        <ele>464.4</ele>
        <time>2023-09-23T07:37:24Z</time>
      </trkpt>
      <trkpt lat="43.03939" lon="0.61514">
        <ele>464.4</ele>
        <time>2023-09-23T07:37:25Z</time>
      </trkpt>
      <trkpt lat="43.0394" lon="0.61517">
        <ele>464.4</ele>
        <time>2023-09-23T07:37:26Z</time>
      </trkpt>
      <trkpt lat="43.0394" lon="0.6152">
        <ele>464.4</ele>
        <time>2023-09-23T07:37:27Z</time>
      </trkpt>
      <trkpt lat="43.03941" lon="0.61523">
        <ele>465</ele>
        <time>2023-09-23T07:37:28Z</time>
      </trkpt>
      <trkpt lat="43.03941" lon="0.61525">
        <ele>465</ele>
        <time>2023-09-23T07:37:29Z</time>
      </trkpt>
      <trkpt lat="43.03941" lon="0.61527">
        <ele>465</ele>
        <time>2023-09-23T07:37:30Z</time>
      </trkpt>
      <trkpt lat="43.03941" lon="0.6153">
        <ele>465.6</ele>
        <time>2023-09-23T07:37:31Z</time>
      </trkpt>
      <trkpt lat="43.03941" lon="0.61533">
        <ele>466.2</ele>
        <time>2023-09-23T07:37:32Z</time>
      </trkpt>
      <trkpt lat="43.03942" lon="0.61536">
        <ele>466.2</ele>
        <time>2023-09-23T07:37:33Z</time>
      </trkpt>
      <trkpt lat="43.03941" lon="0.61539">
        <ele>466.2</ele>
        <time>2023-09-23T07:37:34Z</time>
      </trkpt>
      <trkpt lat="43.03941" lon="0.61542">
        <ele>465.6</ele>
        <time>2023-09-23T07:37:35Z</time>
      </trkpt>
      <trkpt lat="43.03941" lon="0.61545">
        <ele>466.2</ele>
        <time>2023-09-23T07:37:36Z</time>
      </trkpt>
      <trkpt lat="43.03941" lon="0.61549">
        <ele>466.2</ele>
        <time>2023-09-23T07:37:37Z</time>
      </trkpt>
      <trkpt lat="43.03941" lon="0.61552">
        <ele>466.2</ele>
        <time>2023-09-23T07:37:38Z</time>
      </trkpt>
      <trkpt lat="43.03942" lon="0.61556">
        <ele>466.2</ele>
        <time>2023-09-23T07:37:39Z</time>
      </trkpt>
      <trkpt lat="43.03942" lon="0.6156">
        <ele>466.2</ele>
        <time>2023-09-23T07:37:40Z</time>
      </trkpt>
      <trkpt lat="43.03942" lon="0.61563">
        <ele>466.2</ele>
        <time>2023-09-23T07:37:41Z</time>
      </trkpt>
      <trkpt lat="43.03942" lon="0.61567">
        <ele>466.2</ele>
        <time>2023-09-23T07:37:42Z</time>
      </trkpt>
      <trkpt lat="43.03942" lon="0.6157">
        <ele>466.8</ele>
        <time>2023-09-23T07:37:43Z</time>
      </trkpt>
      <trkpt lat="43.03942" lon="0.61573">
        <ele>466.4</ele>
        <time>2023-09-23T07:37:44Z</time>
      </trkpt>
      <trkpt lat="43.03941" lon="0.61576">
        <ele>466.4</ele>
        <time>2023-09-23T07:37:45Z</time>
      </trkpt>
      <trkpt lat="43.03941" lon="0.61579">
        <ele>466.4</ele>
        <time>2023-09-23T07:37:46Z</time>
      </trkpt>
      <trkpt lat="43.03942" lon="0.61583">
        <ele>466.8</ele>
        <time>2023-09-23T07:37:47Z</time>
      </trkpt>
      <trkpt lat="43.03942" lon="0.61587">
        <ele>467.2</ele>
        <time>2023-09-23T07:37:48Z</time>
      </trkpt>
      <trkpt lat="43.03941" lon="0.6159">
        <ele>467.2</ele>
        <time>2023-09-23T07:37:49Z</time>
      </trkpt>
      <trkpt lat="43.03941" lon="0.61595">
        <ele>467.2</ele>
        <time>2023-09-23T07:37:50Z</time>
      </trkpt>
      <trkpt lat="43.03942" lon="0.61598">
        <ele>467.4</ele>
        <time>2023-09-23T07:37:51Z</time>
      </trkpt>
      <trkpt lat="43.03943" lon="0.61601">
        <ele>468.4</ele>
        <time>2023-09-23T07:37:52Z</time>
      </trkpt>
      <trkpt lat="43.03943" lon="0.61605">
        <ele>468.4</ele>
        <time>2023-09-23T07:37:53Z</time>
      </trkpt>
      <trkpt lat="43.03943" lon="0.61608">
        <ele>468.4</ele>
        <time>2023-09-23T07:37:54Z</time>
      </trkpt>
      <trkpt lat="43.03943" lon="0.61611">
        <ele>468.8</ele>
        <time>2023-09-23T07:37:55Z</time>
      </trkpt>
      <trkpt lat="43.03943" lon="0.61615">
        <ele>469.6</ele>
        <time>2023-09-23T07:37:56Z</time>
      </trkpt>
      <trkpt lat="43.03944" lon="0.61619">
        <ele>469.6</ele>
        <time>2023-09-23T07:37:57Z</time>
      </trkpt>
      <trkpt lat="43.03944" lon="0.61622">
        <ele>469.6</ele>
        <time>2023-09-23T07:37:58Z</time>
      </trkpt>
      <trkpt lat="43.03944" lon="0.61626">
        <ele>469.2</ele>
        <time>2023-09-23T07:37:59Z</time>
      </trkpt>
      <trkpt lat="43.03944" lon="0.61629">
        <ele>469</ele>
        <time>2023-09-23T07:38:00Z</time>
      </trkpt>
      <trkpt lat="43.03944" lon="0.61632">
        <ele>469</ele>
        <time>2023-09-23T07:38:01Z</time>
      </trkpt>
      <trkpt lat="43.03945" lon="0.61636">
        <ele>469</ele>
        <time>2023-09-23T07:38:02Z</time>
      </trkpt>
      <trkpt lat="43.03945" lon="0.61639">
        <ele>469.4</ele>
        <time>2023-09-23T07:38:03Z</time>
      </trkpt>
      <trkpt lat="43.03945" lon="0.61642">
        <ele>469.2</ele>
        <time>2023-09-23T07:38:04Z</time>
      </trkpt>
      <trkpt lat="43.03945" lon="0.61645">
        <ele>469.2</ele>
        <time>2023-09-23T07:38:05Z</time>
      </trkpt>
      <trkpt lat="43.03946" lon="0.61649">
        <ele>469.2</ele>
        <time>2023-09-23T07:38:06Z</time>
      </trkpt>
      <trkpt lat="43.03946" lon="0.61652">
        <ele>470.2</ele>
        <time>2023-09-23T07:38:07Z</time>
      </trkpt>
      <trkpt lat="43.03946" lon="0.61656">
        <ele>470.2</ele>
        <time>2023-09-23T07:38:08Z</time>
      </trkpt>
      <trkpt lat="43.03947" lon="0.61658">
        <ele>470.2</ele>
        <time>2023-09-23T07:38:09Z</time>
      </trkpt>
      <trkpt lat="43.03947" lon="0.61661">
        <ele>470.2</ele>
        <time>2023-09-23T07:38:10Z</time>
      </trkpt>
      <trkpt lat="43.03947" lon="0.61665">
        <ele>470.4</ele>
        <time>2023-09-23T07:38:11Z</time>
      </trkpt>
      <trkpt lat="43.03948" lon="0.61668">
        <ele>471.2</ele>
        <time>2023-09-23T07:38:12Z</time>
      </trkpt>
      <trkpt lat="43.03948" lon="0.61671">
        <ele>471.2</ele>
        <time>2023-09-23T07:38:13Z</time>
      </trkpt>
      <trkpt lat="43.03949" lon="0.61674">
        <ele>471.2</ele>
        <time>2023-09-23T07:38:14Z</time>
      </trkpt>
      <trkpt lat="43.03949" lon="0.61676">
        <ele>471.2</ele>
        <time>2023-09-23T07:38:15Z</time>
      </trkpt>
      <trkpt lat="43.0395" lon="0.61678">
        <ele>472.2</ele>
        <time>2023-09-23T07:38:16Z</time>
      </trkpt>
      <trkpt lat="43.0395" lon="0.61681">
        <ele>472.2</ele>
        <time>2023-09-23T07:38:17Z</time>
      </trkpt>
      <trkpt lat="43.03951" lon="0.61683">
        <ele>472.2</ele>
        <time>2023-09-23T07:38:18Z</time>
      </trkpt>
      <trkpt lat="43.03952" lon="0.61686">
        <ele>472.2</ele>
        <time>2023-09-23T07:38:19Z</time>
      </trkpt>
      <trkpt lat="43.03953" lon="0.61689">
        <ele>472.6</ele>
        <time>2023-09-23T07:38:20Z</time>
      </trkpt>
      <trkpt lat="43.03953" lon="0.61691">
        <ele>472.6</ele>
        <time>2023-09-23T07:38:21Z</time>
      </trkpt>
      <trkpt lat="43.03954" lon="0.61694">
        <ele>472.6</ele>
        <time>2023-09-23T07:38:22Z</time>
      </trkpt>
      <trkpt lat="43.03955" lon="0.61696">
        <ele>472.6</ele>
        <time>2023-09-23T07:38:23Z</time>
      </trkpt>
      <trkpt lat="43.03955" lon="0.61699">
        <ele>472.4</ele>
        <time>2023-09-23T07:38:24Z</time>
      </trkpt>
      <trkpt lat="43.03955" lon="0.61702">
        <ele>472.4</ele>
        <time>2023-09-23T07:38:25Z</time>
      </trkpt>
      <trkpt lat="43.03956" lon="0.61705">
        <ele>472.4</ele>
        <time>2023-09-23T07:38:26Z</time>
      </trkpt>
      <trkpt lat="43.03956" lon="0.61707">
        <ele>473.4</ele>
        <time>2023-09-23T07:38:27Z</time>
      </trkpt>
      <trkpt lat="43.03956" lon="0.6171">
        <ele>474.2</ele>
        <time>2023-09-23T07:38:28Z</time>
      </trkpt>
      <trkpt lat="43.03957" lon="0.61713">
        <ele>474.2</ele>
        <time>2023-09-23T07:38:29Z</time>
      </trkpt>
      <trkpt lat="43.03958" lon="0.61715">
        <ele>474.2</ele>
        <time>2023-09-23T07:38:30Z</time>
      </trkpt>
      <trkpt lat="43.03959" lon="0.61717">
        <ele>474.2</ele>
        <time>2023-09-23T07:38:31Z</time>
      </trkpt>
      <trkpt lat="43.0396" lon="0.6172">
        <ele>474.2</ele>
        <time>2023-09-23T07:38:32Z</time>
      </trkpt>
      <trkpt lat="43.0396" lon="0.61723">
        <ele>474.2</ele>
        <time>2023-09-23T07:38:33Z</time>
      </trkpt>
      <trkpt lat="43.03961" lon="0.61726">
        <ele>474.2</ele>
        <time>2023-09-23T07:38:34Z</time>
      </trkpt>
      <trkpt lat="43.03961" lon="0.61729">
        <ele>474.2</ele>
        <time>2023-09-23T07:38:35Z</time>
      </trkpt>
      <trkpt lat="43.03962" lon="0.61732">
        <ele>475.2</ele>
        <time>2023-09-23T07:38:36Z</time>
      </trkpt>
      <trkpt lat="43.03963" lon="0.61735">
        <ele>475.2</ele>
        <time>2023-09-23T07:38:37Z</time>
      </trkpt>
      <trkpt lat="43.03963" lon="0.61738">
        <ele>475.2</ele>
        <time>2023-09-23T07:38:38Z</time>
      </trkpt>
      <trkpt lat="43.03964" lon="0.6174">
        <ele>476.2</ele>
        <time>2023-09-23T07:38:39Z</time>
      </trkpt>
      <trkpt lat="43.03964" lon="0.61742">
        <ele>476.6</ele>
        <time>2023-09-23T07:38:40Z</time>
      </trkpt>
      <trkpt lat="43.03964" lon="0.61744">
        <ele>476.6</ele>
        <time>2023-09-23T07:38:41Z</time>
      </trkpt>
      <trkpt lat="43.03965" lon="0.61746">
        <ele>476.6</ele>
        <time>2023-09-23T07:38:42Z</time>
      </trkpt>
      <trkpt lat="43.03966" lon="0.61749">
        <ele>476.8</ele>
        <time>2023-09-23T07:38:43Z</time>
      </trkpt>
      <trkpt lat="43.03967" lon="0.61752">
        <ele>476.6</ele>
        <time>2023-09-23T07:38:44Z</time>
      </trkpt>
      <trkpt lat="43.03968" lon="0.61756">
        <ele>476.6</ele>
        <time>2023-09-23T07:38:45Z</time>
      </trkpt>
      <trkpt lat="43.03968" lon="0.61758">
        <ele>476.6</ele>
        <time>2023-09-23T07:38:46Z</time>
      </trkpt>
      <trkpt lat="43.03969" lon="0.61761">
        <ele>477.2</ele>
        <time>2023-09-23T07:38:47Z</time>
      </trkpt>
      <trkpt lat="43.0397" lon="0.61765">
        <ele>477.6</ele>
        <time>2023-09-23T07:38:48Z</time>
      </trkpt>
      <trkpt lat="43.03971" lon="0.61768">
        <ele>477.6</ele>
        <time>2023-09-23T07:38:49Z</time>
      </trkpt>
      <trkpt lat="43.03972" lon="0.61771">
        <ele>477.6</ele>
        <time>2023-09-23T07:38:50Z</time>
      </trkpt>
      <trkpt lat="43.03973" lon="0.61775">
        <ele>478.4</ele>
        <time>2023-09-23T07:38:51Z</time>
      </trkpt>
      <trkpt lat="43.03974" lon="0.61779">
        <ele>478.6</ele>
        <time>2023-09-23T07:38:52Z</time>
      </trkpt>
      <trkpt lat="43.03974" lon="0.61783">
        <ele>478.6</ele>
        <time>2023-09-23T07:38:53Z</time>
      </trkpt>
      <trkpt lat="43.03975" lon="0.61786">
        <ele>478.6</ele>
        <time>2023-09-23T07:38:54Z</time>
      </trkpt>
      <trkpt lat="43.03976" lon="0.6179">
        <ele>479.2</ele>
        <time>2023-09-23T07:38:55Z</time>
      </trkpt>
      <trkpt lat="43.03978" lon="0.61795">
        <ele>479</ele>
        <time>2023-09-23T07:38:56Z</time>
      </trkpt>
      <trkpt lat="43.03979" lon="0.618">
        <ele>479</ele>
        <time>2023-09-23T07:38:57Z</time>
      </trkpt>
      <trkpt lat="43.0398" lon="0.61805">
        <ele>479</ele>
        <time>2023-09-23T07:38:58Z</time>
      </trkpt>
      <trkpt lat="43.03981" lon="0.61809">
        <ele>479</ele>
        <time>2023-09-23T07:38:59Z</time>
      </trkpt>
      <trkpt lat="43.03982" lon="0.61814">
        <ele>478.4</ele>
        <time>2023-09-23T07:39:00Z</time>
      </trkpt>
      <trkpt lat="43.03983" lon="0.61819">
        <ele>478.4</ele>
        <time>2023-09-23T07:39:01Z</time>
      </trkpt>
      <trkpt lat="43.03984" lon="0.61823">
        <ele>478.4</ele>
        <time>2023-09-23T07:39:02Z</time>
      </trkpt>
      <trkpt lat="43.03986" lon="0.61829">
        <ele>478.6</ele>
        <time>2023-09-23T07:39:03Z</time>
      </trkpt>
      <trkpt lat="43.03988" lon="0.61835">
        <ele>478</ele>
        <time>2023-09-23T07:39:04Z</time>
      </trkpt>
      <trkpt lat="43.03989" lon="0.61841">
        <ele>478</ele>
        <time>2023-09-23T07:39:05Z</time>
      </trkpt>
      <trkpt lat="43.03991" lon="0.61847">
        <ele>478</ele>
        <time>2023-09-23T07:39:06Z</time>
      </trkpt>
      <trkpt lat="43.03993" lon="0.61852">
        <ele>478</ele>
        <time>2023-09-23T07:39:07Z</time>
      </trkpt>
      <trkpt lat="43.03994" lon="0.61858">
        <ele>478.2</ele>
        <time>2023-09-23T07:39:08Z</time>
      </trkpt>
      <trkpt lat="43.03996" lon="0.61864">
        <ele>478.2</ele>
        <time>2023-09-23T07:39:09Z</time>
      </trkpt>
      <trkpt lat="43.03998" lon="0.61871">
        <ele>478.2</ele>
        <time>2023-09-23T07:39:10Z</time>
      </trkpt>
      <trkpt lat="43.04" lon="0.61878">
        <ele>478.2</ele>
        <time>2023-09-23T07:39:11Z</time>
      </trkpt>
      <trkpt lat="43.04002" lon="0.61885">
        <ele>477.8</ele>
        <time>2023-09-23T07:39:12Z</time>
      </trkpt>
      <trkpt lat="43.04004" lon="0.61892">
        <ele>477.8</ele>
        <time>2023-09-23T07:39:13Z</time>
      </trkpt>
      <trkpt lat="43.04007" lon="0.61899">
        <ele>477.8</ele>
        <time>2023-09-23T07:39:14Z</time>
      </trkpt>
      <trkpt lat="43.0401" lon="0.61906">
        <ele>477.8</ele>
        <time>2023-09-23T07:39:15Z</time>
      </trkpt>
      <trkpt lat="43.04012" lon="0.61914">
        <ele>477.6</ele>
        <time>2023-09-23T07:39:16Z</time>
      </trkpt>
      <trkpt lat="43.04015" lon="0.61921">
        <ele>477.6</ele>
        <time>2023-09-23T07:39:17Z</time>
      </trkpt>
      <trkpt lat="43.04017" lon="0.61929">
        <ele>477.6</ele>
        <time>2023-09-23T07:39:18Z</time>
      </trkpt>
      <trkpt lat="43.0402" lon="0.61937">
        <ele>477.6</ele>
        <time>2023-09-23T07:39:19Z</time>
      </trkpt>
      <trkpt lat="43.04024" lon="0.61944">
        <ele>478</ele>
        <time>2023-09-23T07:39:20Z</time>
      </trkpt>
      <trkpt lat="43.04027" lon="0.61951">
        <ele>478</ele>
        <time>2023-09-23T07:39:21Z</time>
      </trkpt>
      <trkpt lat="43.0403" lon="0.61958">
        <ele>478</ele>
        <time>2023-09-23T07:39:22Z</time>
      </trkpt>
      <trkpt lat="43.04033" lon="0.61965">
        <ele>477</ele>
        <time>2023-09-23T07:39:23Z</time>
      </trkpt>
      <trkpt lat="43.04036" lon="0.61972">
        <ele>477.2</ele>
        <time>2023-09-23T07:39:24Z</time>
      </trkpt>
      <trkpt lat="43.0404" lon="0.61978">
        <ele>477.2</ele>
        <time>2023-09-23T07:39:25Z</time>
      </trkpt>
      <trkpt lat="43.04043" lon="0.61982">
        <ele>477.2</ele>
        <time>2023-09-23T07:39:26Z</time>
      </trkpt>
      <trkpt lat="43.04044" lon="0.61986">
        <ele>478.2</ele>
        <time>2023-09-23T07:39:27Z</time>
      </trkpt>
      <trkpt lat="43.04045" lon="0.61987">
        <ele>478.6</ele>
        <time>2023-09-23T07:39:28Z</time>
      </trkpt>
      <trkpt lat="43.04045" lon="0.61988">
        <ele>478.6</ele>
        <time>2023-09-23T07:39:29Z</time>
      </trkpt>
      <trkpt lat="43.04045" lon="0.61991">
        <ele>478.6</ele>
        <time>2023-09-23T07:39:30Z</time>
      </trkpt>
      <trkpt lat="43.04045" lon="0.61994">
        <ele>478.4</ele>
        <time>2023-09-23T07:39:31Z</time>
      </trkpt>
      <trkpt lat="43.04045" lon="0.61997">
        <ele>478.4</ele>
        <time>2023-09-23T07:39:32Z</time>
      </trkpt>
      <trkpt lat="43.04044" lon="0.62001">
        <ele>478.4</ele>
        <time>2023-09-23T07:39:33Z</time>
      </trkpt>
      <trkpt lat="43.04042" lon="0.62005">
        <ele>478.4</ele>
        <time>2023-09-23T07:39:34Z</time>
      </trkpt>
      <trkpt lat="43.0404" lon="0.62008">
        <ele>477.8</ele>
        <time>2023-09-23T07:39:35Z</time>
      </trkpt>
      <trkpt lat="43.04039" lon="0.62012">
        <ele>476.6</ele>
        <time>2023-09-23T07:39:36Z</time>
      </trkpt>
      <trkpt lat="43.04037" lon="0.62017">
        <ele>476.6</ele>
        <time>2023-09-23T07:39:37Z</time>
      </trkpt>
      <trkpt lat="43.04035" lon="0.62022">
        <ele>476.6</ele>
        <time>2023-09-23T07:39:38Z</time>
      </trkpt>
      <trkpt lat="43.04032" lon="0.62025">
        <ele>476.6</ele>
        <time>2023-09-23T07:39:39Z</time>
      </trkpt>
      <trkpt lat="43.04029" lon="0.62029">
        <ele>476.4</ele>
        <time>2023-09-23T07:39:40Z</time>
      </trkpt>
      <trkpt lat="43.04026" lon="0.62032">
        <ele>476.4</ele>
        <time>2023-09-23T07:39:41Z</time>
      </trkpt>
      <trkpt lat="43.04022" lon="0.62035">
        <ele>476.4</ele>
        <time>2023-09-23T07:39:42Z</time>
      </trkpt>
      <trkpt lat="43.04018" lon="0.62037">
        <ele>476.4</ele>
        <time>2023-09-23T07:39:43Z</time>
      </trkpt>
      <trkpt lat="43.04014" lon="0.62038">
        <ele>476.4</ele>
        <time>2023-09-23T07:39:44Z</time>
      </trkpt>
      <trkpt lat="43.0401" lon="0.6204">
        <ele>476.4</ele>
        <time>2023-09-23T07:39:45Z</time>
      </trkpt>
      <trkpt lat="43.04007" lon="0.62042">
        <ele>476.4</ele>
        <time>2023-09-23T07:39:46Z</time>
      </trkpt>
      <trkpt lat="43.04003" lon="0.62045">
        <ele>476.4</ele>
        <time>2023-09-23T07:39:47Z</time>
      </trkpt>
      <trkpt lat="43.04" lon="0.62047">
        <ele>475.8</ele>
        <time>2023-09-23T07:39:48Z</time>
      </trkpt>
      <trkpt lat="43.03996" lon="0.62048">
        <ele>475.8</ele>
        <time>2023-09-23T07:39:49Z</time>
      </trkpt>
      <trkpt lat="43.03992" lon="0.62049">
        <ele>475.8</ele>
        <time>2023-09-23T07:39:50Z</time>
      </trkpt>
      <trkpt lat="43.03989" lon="0.62052">
        <ele>475.8</ele>
        <time>2023-09-23T07:39:51Z</time>
      </trkpt>
      <trkpt lat="43.03986" lon="0.62055">
        <ele>474.4</ele>
        <time>2023-09-23T07:39:52Z</time>
      </trkpt>
      <trkpt lat="43.03983" lon="0.62057">
        <ele>474.4</ele>
        <time>2023-09-23T07:39:53Z</time>
      </trkpt>
      <trkpt lat="43.03981" lon="0.62058">
        <ele>474.4</ele>
        <time>2023-09-23T07:39:54Z</time>
      </trkpt>
      <trkpt lat="43.03978" lon="0.62059">
        <ele>475.4</ele>
        <time>2023-09-23T07:39:55Z</time>
      </trkpt>
      <trkpt lat="43.03975" lon="0.6206">
        <ele>476</ele>
        <time>2023-09-23T07:39:56Z</time>
      </trkpt>
      <trkpt lat="43.03973" lon="0.62061">
        <ele>476</ele>
        <time>2023-09-23T07:39:57Z</time>
      </trkpt>
      <trkpt lat="43.0397" lon="0.62062">
        <ele>476</ele>
        <time>2023-09-23T07:39:58Z</time>
      </trkpt>
      <trkpt lat="43.03968" lon="0.62063">
        <ele>476</ele>
        <time>2023-09-23T07:39:59Z</time>
      </trkpt>
      <trkpt lat="43.03966" lon="0.62064">
        <ele>476.4</ele>
        <time>2023-09-23T07:40:00Z</time>
      </trkpt>
      <trkpt lat="43.03964" lon="0.62066">
        <ele>476.4</ele>
        <time>2023-09-23T07:40:01Z</time>
      </trkpt>
      <trkpt lat="43.03962" lon="0.62068">
        <ele>476.4</ele>
        <time>2023-09-23T07:40:02Z</time>
      </trkpt>
      <trkpt lat="43.0396" lon="0.62069">
        <ele>477.4</ele>
        <time>2023-09-23T07:40:03Z</time>
      </trkpt>
      <trkpt lat="43.03959" lon="0.62071">
        <ele>478.8</ele>
        <time>2023-09-23T07:40:04Z</time>
      </trkpt>
      <trkpt lat="43.03957" lon="0.62074">
        <ele>478.8</ele>
        <time>2023-09-23T07:40:05Z</time>
      </trkpt>
      <trkpt lat="43.03956" lon="0.62076">
        <ele>478.8</ele>
        <time>2023-09-23T07:40:06Z</time>
      </trkpt>
      <trkpt lat="43.03955" lon="0.62079">
        <ele>478.8</ele>
        <time>2023-09-23T07:40:07Z</time>
      </trkpt>
      <trkpt lat="43.03955" lon="0.62082">
        <ele>478.8</ele>
        <time>2023-09-23T07:40:08Z</time>
      </trkpt>
      <trkpt lat="43.03954" lon="0.62087">
        <ele>478.8</ele>
        <time>2023-09-23T07:40:09Z</time>
      </trkpt>
      <trkpt lat="43.03953" lon="0.62091">
        <ele>478.8</ele>
        <time>2023-09-23T07:40:10Z</time>
      </trkpt>
      <trkpt lat="43.03952" lon="0.62096">
        <ele>478.8</ele>
        <time>2023-09-23T07:40:11Z</time>
      </trkpt>
      <trkpt lat="43.03951" lon="0.62101">
        <ele>479.8</ele>
        <time>2023-09-23T07:40:12Z</time>
      </trkpt>
      <trkpt lat="43.0395" lon="0.62106">
        <ele>479.8</ele>
        <time>2023-09-23T07:40:13Z</time>
      </trkpt>
      <trkpt lat="43.0395" lon="0.6211">
        <ele>479.8</ele>
        <time>2023-09-23T07:40:14Z</time>
      </trkpt>
      <trkpt lat="43.03949" lon="0.62115">
        <ele>479.2</ele>
        <time>2023-09-23T07:40:15Z</time>
      </trkpt>
      <trkpt lat="43.03949" lon="0.6212">
        <ele>479.8</ele>
        <time>2023-09-23T07:40:16Z</time>
      </trkpt>
      <trkpt lat="43.03948" lon="0.62125">
        <ele>479.8</ele>
        <time>2023-09-23T07:40:17Z</time>
      </trkpt>
      <trkpt lat="43.03947" lon="0.62129">
        <ele>479.8</ele>
        <time>2023-09-23T07:40:18Z</time>
      </trkpt>
      <trkpt lat="43.03946" lon="0.62134">
        <ele>479.8</ele>
        <time>2023-09-23T07:40:19Z</time>
      </trkpt>
      <trkpt lat="43.03945" lon="0.62139">
        <ele>479.8</ele>
        <time>2023-09-23T07:40:20Z</time>
      </trkpt>
      <trkpt lat="43.03944" lon="0.62144">
        <ele>479.8</ele>
        <time>2023-09-23T07:40:21Z</time>
      </trkpt>
      <trkpt lat="43.03944" lon="0.62149">
        <ele>479.8</ele>
        <time>2023-09-23T07:40:22Z</time>
      </trkpt>
      <trkpt lat="43.03943" lon="0.62154">
        <ele>479.8</ele>
        <time>2023-09-23T07:40:23Z</time>
      </trkpt>
      <trkpt lat="43.03943" lon="0.62158">
        <ele>480.4</ele>
        <time>2023-09-23T07:40:24Z</time>
      </trkpt>
      <trkpt lat="43.03942" lon="0.62163">
        <ele>480.4</ele>
        <time>2023-09-23T07:40:25Z</time>
      </trkpt>
      <trkpt lat="43.03942" lon="0.62168">
        <ele>480.4</ele>
        <time>2023-09-23T07:40:26Z</time>
      </trkpt>
      <trkpt lat="43.03943" lon="0.62172">
        <ele>480.8</ele>
        <time>2023-09-23T07:40:27Z</time>
      </trkpt>
      <trkpt lat="43.03943" lon="0.62176">
        <ele>480.6</ele>
        <time>2023-09-23T07:40:28Z</time>
      </trkpt>
      <trkpt lat="43.03943" lon="0.62181">
        <ele>480.6</ele>
        <time>2023-09-23T07:40:29Z</time>
      </trkpt>
      <trkpt lat="43.03942" lon="0.62185">
        <ele>480.6</ele>
        <time>2023-09-23T07:40:30Z</time>
      </trkpt>
      <trkpt lat="43.03942" lon="0.62189">
        <ele>480.6</ele>
        <time>2023-09-23T07:40:31Z</time>
      </trkpt>
      <trkpt lat="43.03942" lon="0.62194">
        <ele>481.2</ele>
        <time>2023-09-23T07:40:32Z</time>
      </trkpt>
      <trkpt lat="43.03942" lon="0.62198">
        <ele>481.2</ele>
        <time>2023-09-23T07:40:33Z</time>
      </trkpt>
      <trkpt lat="43.03942" lon="0.62202">
        <ele>481.2</ele>
        <time>2023-09-23T07:40:34Z</time>
      </trkpt>
      <trkpt lat="43.03941" lon="0.62206">
        <ele>482</ele>
        <time>2023-09-23T07:40:35Z</time>
      </trkpt>
      <trkpt lat="43.03941" lon="0.6221">
        <ele>482.4</ele>
        <time>2023-09-23T07:40:36Z</time>
      </trkpt>
      <trkpt lat="43.03941" lon="0.62214">
        <ele>482.4</ele>
        <time>2023-09-23T07:40:37Z</time>
      </trkpt>
      <trkpt lat="43.03941" lon="0.62217">
        <ele>482.4</ele>
        <time>2023-09-23T07:40:38Z</time>
      </trkpt>
      <trkpt lat="43.03941" lon="0.6222">
        <ele>481.8</ele>
        <time>2023-09-23T07:40:39Z</time>
      </trkpt>
      <trkpt lat="43.03943" lon="0.62223">
        <ele>482.4</ele>
        <time>2023-09-23T07:40:40Z</time>
      </trkpt>
      <trkpt lat="43.03945" lon="0.62225">
        <ele>482.4</ele>
        <time>2023-09-23T07:40:41Z</time>
      </trkpt>
      <trkpt lat="43.03948" lon="0.62226">
        <ele>482.4</ele>
        <time>2023-09-23T07:40:42Z</time>
      </trkpt>
      <trkpt lat="43.03951" lon="0.62226">
        <ele>482.4</ele>
        <time>2023-09-23T07:40:43Z</time>
      </trkpt>
      <trkpt lat="43.03953" lon="0.62226">
        <ele>482.4</ele>
        <time>2023-09-23T07:40:44Z</time>
      </trkpt>
      <trkpt lat="43.03955" lon="0.62229">
        <ele>482.4</ele>
        <time>2023-09-23T07:40:45Z</time>
      </trkpt>
      <trkpt lat="43.03955" lon="0.62231">
        <ele>482.4</ele>
        <time>2023-09-23T07:40:46Z</time>
      </trkpt>
      <trkpt lat="43.03954" lon="0.62233">
        <ele>482.4</ele>
        <time>2023-09-23T07:40:47Z</time>
      </trkpt>
      <trkpt lat="43.03954" lon="0.62234">
        <ele>482.6</ele>
        <time>2023-09-23T07:40:48Z</time>
      </trkpt>
      <trkpt lat="43.03953" lon="0.62235">
        <ele>482.6</ele>
        <time>2023-09-23T07:40:49Z</time>
      </trkpt>
      <trkpt lat="43.03952" lon="0.62237">
        <ele>482.6</ele>
        <time>2023-09-23T07:40:50Z</time>
      </trkpt>
      <trkpt lat="43.0395" lon="0.62237">
        <ele>483.6</ele>
        <time>2023-09-23T07:40:51Z</time>
      </trkpt>
      <trkpt lat="43.03949" lon="0.62237">
        <ele>484</ele>
        <time>2023-09-23T07:40:52Z</time>
      </trkpt>
      <trkpt lat="43.03948" lon="0.62237">
        <ele>484</ele>
        <time>2023-09-23T07:40:53Z</time>
      </trkpt>
      <trkpt lat="43.03946" lon="0.62238">
        <ele>484</ele>
        <time>2023-09-23T07:40:54Z</time>
      </trkpt>
      <trkpt lat="43.03945" lon="0.6224">
        <ele>484</ele>
        <time>2023-09-23T07:40:55Z</time>
      </trkpt>
      <trkpt lat="43.03944" lon="0.62242">
        <ele>485.2</ele>
        <time>2023-09-23T07:40:56Z</time>
      </trkpt>
      <trkpt lat="43.03944" lon="0.62244">
        <ele>485.2</ele>
        <time>2023-09-23T07:40:57Z</time>
      </trkpt>
      <trkpt lat="43.03944" lon="0.62244">
        <ele>485.2</ele>
        <time>2023-09-23T07:40:58Z</time>
      </trkpt>
      <trkpt lat="43.03946" lon="0.62244">
        <ele>486.2</ele>
        <time>2023-09-23T07:40:59Z</time>
      </trkpt>
      <trkpt lat="43.03948" lon="0.62244">
        <ele>486.4</ele>
        <time>2023-09-23T07:41:00Z</time>
      </trkpt>
      <trkpt lat="43.0395" lon="0.62244">
        <ele>486.4</ele>
        <time>2023-09-23T07:41:01Z</time>
      </trkpt>
      <trkpt lat="43.03953" lon="0.62244">
        <ele>486.4</ele>
        <time>2023-09-23T07:41:02Z</time>
      </trkpt>
      <trkpt lat="43.03957" lon="0.62244">
        <ele>486.2</ele>
        <time>2023-09-23T07:41:03Z</time>
      </trkpt>
      <trkpt lat="43.0396" lon="0.62244">
        <ele>486.4</ele>
        <time>2023-09-23T07:41:04Z</time>
      </trkpt>
      <trkpt lat="43.03963" lon="0.62246">
        <ele>486.4</ele>
        <time>2023-09-23T07:41:05Z</time>
      </trkpt>
      <trkpt lat="43.03966" lon="0.62247">
        <ele>486.4</ele>
        <time>2023-09-23T07:41:06Z</time>
      </trkpt>
      <trkpt lat="43.0397" lon="0.62249">
        <ele>486.4</ele>
        <time>2023-09-23T07:41:07Z</time>
      </trkpt>
      <trkpt lat="43.03973" lon="0.62251">
        <ele>486.2</ele>
        <time>2023-09-23T07:41:08Z</time>
      </trkpt>
      <trkpt lat="43.03976" lon="0.62252">
        <ele>486.2</ele>
        <time>2023-09-23T07:41:09Z</time>
      </trkpt>
      <trkpt lat="43.03979" lon="0.62255">
        <ele>486.2</ele>
        <time>2023-09-23T07:41:10Z</time>
      </trkpt>
      <trkpt lat="43.03982" lon="0.62259">
        <ele>486.8</ele>
        <time>2023-09-23T07:41:11Z</time>
      </trkpt>
      <trkpt lat="43.03985" lon="0.62262">
        <ele>486.2</ele>
        <time>2023-09-23T07:41:12Z</time>
      </trkpt>
      <trkpt lat="43.03988" lon="0.62265">
        <ele>486.2</ele>
        <time>2023-09-23T07:41:13Z</time>
      </trkpt>
      <trkpt lat="43.0399" lon="0.62268">
        <ele>486.2</ele>
        <time>2023-09-23T07:41:14Z</time>
      </trkpt>
      <trkpt lat="43.03993" lon="0.62271">
        <ele>486.2</ele>
        <time>2023-09-23T07:41:15Z</time>
      </trkpt>
      <trkpt lat="43.03997" lon="0.62274">
        <ele>487</ele>
        <time>2023-09-23T07:41:16Z</time>
      </trkpt>
      <trkpt lat="43.04" lon="0.62277">
        <ele>487</ele>
        <time>2023-09-23T07:41:17Z</time>
      </trkpt>
      <trkpt lat="43.04003" lon="0.62278">
        <ele>487</ele>
        <time>2023-09-23T07:41:18Z</time>
      </trkpt>
      <trkpt lat="43.04007" lon="0.62281">
        <ele>486.8</ele>
        <time>2023-09-23T07:41:19Z</time>
      </trkpt>
      <trkpt lat="43.04011" lon="0.62285">
        <ele>487</ele>
        <time>2023-09-23T07:41:20Z</time>
      </trkpt>
      <trkpt lat="43.04014" lon="0.62287">
        <ele>487</ele>
        <time>2023-09-23T07:41:21Z</time>
      </trkpt>
      <trkpt lat="43.04018" lon="0.6229">
        <ele>487</ele>
        <time>2023-09-23T07:41:22Z</time>
      </trkpt>
      <trkpt lat="43.04021" lon="0.62292">
        <ele>487</ele>
        <time>2023-09-23T07:41:23Z</time>
      </trkpt>
      <trkpt lat="43.04025" lon="0.62294">
        <ele>488.2</ele>
        <time>2023-09-23T07:41:24Z</time>
      </trkpt>
      <trkpt lat="43.04028" lon="0.62297">
        <ele>488.2</ele>
        <time>2023-09-23T07:41:25Z</time>
      </trkpt>
      <trkpt lat="43.04031" lon="0.62299">
        <ele>488.2</ele>
        <time>2023-09-23T07:41:26Z</time>
      </trkpt>
      <trkpt lat="43.04034" lon="0.62302">
        <ele>488.2</ele>
        <time>2023-09-23T07:41:27Z</time>
      </trkpt>
      <trkpt lat="43.04038" lon="0.62304">
        <ele>488.4</ele>
        <time>2023-09-23T07:41:28Z</time>
      </trkpt>
      <trkpt lat="43.04042" lon="0.62307">
        <ele>488.4</ele>
        <time>2023-09-23T07:41:29Z</time>
      </trkpt>
      <trkpt lat="43.04046" lon="0.6231">
        <ele>488.4</ele>
        <time>2023-09-23T07:41:30Z</time>
      </trkpt>
      <trkpt lat="43.0405" lon="0.62312">
        <ele>488.4</ele>
        <time>2023-09-23T07:41:31Z</time>
      </trkpt>
      <trkpt lat="43.04053" lon="0.62314">
        <ele>488.6</ele>
        <time>2023-09-23T07:41:32Z</time>
      </trkpt>
      <trkpt lat="43.04056" lon="0.62316">
        <ele>488.6</ele>
        <time>2023-09-23T07:41:33Z</time>
      </trkpt>
      <trkpt lat="43.04059" lon="0.62318">
        <ele>488.6</ele>
        <time>2023-09-23T07:41:34Z</time>
      </trkpt>
      <trkpt lat="43.04061" lon="0.62322">
        <ele>488.6</ele>
        <time>2023-09-23T07:41:35Z</time>
      </trkpt>
      <trkpt lat="43.04064" lon="0.62325">
        <ele>489.4</ele>
        <time>2023-09-23T07:41:36Z</time>
      </trkpt>
      <trkpt lat="43.04066" lon="0.62327">
        <ele>489.4</ele>
        <time>2023-09-23T07:41:37Z</time>
      </trkpt>
      <trkpt lat="43.04068" lon="0.62329">
        <ele>489.4</ele>
        <time>2023-09-23T07:41:38Z</time>
      </trkpt>
      <trkpt lat="43.04069" lon="0.62332">
        <ele>489.4</ele>
        <time>2023-09-23T07:41:39Z</time>
      </trkpt>
      <trkpt lat="43.04071" lon="0.62333">
        <ele>489.2</ele>
        <time>2023-09-23T07:41:40Z</time>
      </trkpt>
      <trkpt lat="43.04073" lon="0.62335">
        <ele>489.2</ele>
        <time>2023-09-23T07:41:41Z</time>
      </trkpt>
      <trkpt lat="43.04073" lon="0.62337">
        <ele>489.2</ele>
        <time>2023-09-23T07:41:42Z</time>
      </trkpt>
      <trkpt lat="43.04075" lon="0.62339">
        <ele>490.2</ele>
        <time>2023-09-23T07:41:43Z</time>
      </trkpt>
      <trkpt lat="43.04076" lon="0.62341">
        <ele>490.6</ele>
        <time>2023-09-23T07:41:44Z</time>
      </trkpt>
      <trkpt lat="43.04077" lon="0.62343">
        <ele>490.6</ele>
        <time>2023-09-23T07:41:45Z</time>
      </trkpt>
      <trkpt lat="43.04079" lon="0.62345">
        <ele>490.6</ele>
        <time>2023-09-23T07:41:46Z</time>
      </trkpt>
      <trkpt lat="43.0408" lon="0.62348">
        <ele>491.2</ele>
        <time>2023-09-23T07:41:47Z</time>
      </trkpt>
      <trkpt lat="43.04081" lon="0.6235">
        <ele>491.2</ele>
        <time>2023-09-23T07:41:48Z</time>
      </trkpt>
      <trkpt lat="43.04082" lon="0.62352">
        <ele>491.2</ele>
        <time>2023-09-23T07:41:49Z</time>
      </trkpt>
      <trkpt lat="43.04084" lon="0.62354">
        <ele>491.2</ele>
        <time>2023-09-23T07:41:50Z</time>
      </trkpt>
      <trkpt lat="43.04085" lon="0.62358">
        <ele>491.8</ele>
        <time>2023-09-23T07:41:51Z</time>
      </trkpt>
      <trkpt lat="43.04085" lon="0.62361">
        <ele>492.4</ele>
        <time>2023-09-23T07:41:52Z</time>
      </trkpt>
      <trkpt lat="43.04086" lon="0.62364">
        <ele>492.4</ele>
        <time>2023-09-23T07:41:53Z</time>
      </trkpt>
      <trkpt lat="43.04087" lon="0.62366">
        <ele>492.4</ele>
        <time>2023-09-23T07:41:54Z</time>
      </trkpt>
      <trkpt lat="43.04088" lon="0.62368">
        <ele>492.6</ele>
        <time>2023-09-23T07:41:55Z</time>
      </trkpt>
      <trkpt lat="43.04089" lon="0.62371">
        <ele>492.8</ele>
        <time>2023-09-23T07:41:56Z</time>
      </trkpt>
      <trkpt lat="43.0409" lon="0.62373">
        <ele>492.8</ele>
        <time>2023-09-23T07:41:57Z</time>
      </trkpt>
      <trkpt lat="43.04092" lon="0.62376">
        <ele>492.8</ele>
        <time>2023-09-23T07:41:58Z</time>
      </trkpt>
      <trkpt lat="43.04093" lon="0.62379">
        <ele>492.8</ele>
        <time>2023-09-23T07:41:59Z</time>
      </trkpt>
      <trkpt lat="43.04094" lon="0.62382">
        <ele>494.2</ele>
        <time>2023-09-23T07:42:00Z</time>
      </trkpt>
      <trkpt lat="43.04095" lon="0.62385">
        <ele>494.2</ele>
        <time>2023-09-23T07:42:01Z</time>
      </trkpt>
      <trkpt lat="43.04096" lon="0.62388">
        <ele>494.2</ele>
        <time>2023-09-23T07:42:02Z</time>
      </trkpt>
      <trkpt lat="43.04096" lon="0.6239">
        <ele>494.2</ele>
        <time>2023-09-23T07:42:03Z</time>
      </trkpt>
      <trkpt lat="43.04096" lon="0.62392">
        <ele>494.8</ele>
        <time>2023-09-23T07:42:04Z</time>
      </trkpt>
      <trkpt lat="43.04097" lon="0.62395">
        <ele>494.8</ele>
        <time>2023-09-23T07:42:05Z</time>
      </trkpt>
      <trkpt lat="43.04098" lon="0.62397">
        <ele>494.8</ele>
        <time>2023-09-23T07:42:06Z</time>
      </trkpt>
      <trkpt lat="43.041" lon="0.624">
        <ele>495.8</ele>
        <time>2023-09-23T07:42:07Z</time>
      </trkpt>
      <trkpt lat="43.04101" lon="0.62402">
        <ele>496.2</ele>
        <time>2023-09-23T07:42:08Z</time>
      </trkpt>
      <trkpt lat="43.04101" lon="0.62403">
        <ele>496.2</ele>
        <time>2023-09-23T07:42:09Z</time>
      </trkpt>
      <trkpt lat="43.04102" lon="0.62405">
        <ele>496.2</ele>
        <time>2023-09-23T07:42:10Z</time>
      </trkpt>
      <trkpt lat="43.04104" lon="0.62407">
        <ele>497.2</ele>
        <time>2023-09-23T07:42:11Z</time>
      </trkpt>
      <trkpt lat="43.04105" lon="0.6241">
        <ele>498</ele>
        <time>2023-09-23T07:42:12Z</time>
      </trkpt>
      <trkpt lat="43.04107" lon="0.62411">
        <ele>498</ele>
        <time>2023-09-23T07:42:13Z</time>
      </trkpt>
      <trkpt lat="43.04107" lon="0.62413">
        <ele>498</ele>
        <time>2023-09-23T07:42:14Z</time>
      </trkpt>
      <trkpt lat="43.04108" lon="0.62415">
        <ele>498.2</ele>
        <time>2023-09-23T07:42:15Z</time>
      </trkpt>
      <trkpt lat="43.04109" lon="0.62417">
        <ele>498.8</ele>
        <time>2023-09-23T07:42:16Z</time>
      </trkpt>
      <trkpt lat="43.04109" lon="0.62419">
        <ele>498.8</ele>
        <time>2023-09-23T07:42:17Z</time>
      </trkpt>
      <trkpt lat="43.0411" lon="0.6242">
        <ele>498.8</ele>
        <time>2023-09-23T07:42:18Z</time>
      </trkpt>
      <trkpt lat="43.04111" lon="0.62422">
        <ele>499.8</ele>
        <time>2023-09-23T07:42:19Z</time>
      </trkpt>
      <trkpt lat="43.04114" lon="0.62425">
        <ele>500.2</ele>
        <time>2023-09-23T07:42:20Z</time>
      </trkpt>
      <trkpt lat="43.04114" lon="0.62427">
        <ele>500.2</ele>
        <time>2023-09-23T07:42:21Z</time>
      </trkpt>
      <trkpt lat="43.04115" lon="0.62429">
        <ele>500.2</ele>
        <time>2023-09-23T07:42:22Z</time>
      </trkpt>
      <trkpt lat="43.04116" lon="0.62431">
        <ele>501.2</ele>
        <time>2023-09-23T07:42:23Z</time>
      </trkpt>
      <trkpt lat="43.04117" lon="0.62434">
        <ele>500.4</ele>
        <time>2023-09-23T07:42:24Z</time>
      </trkpt>
      <trkpt lat="43.04119" lon="0.62435">
        <ele>500.4</ele>
        <time>2023-09-23T07:42:25Z</time>
      </trkpt>
      <trkpt lat="43.04121" lon="0.62438">
        <ele>500.4</ele>
        <time>2023-09-23T07:42:26Z</time>
      </trkpt>
      <trkpt lat="43.04121" lon="0.6244">
        <ele>501.4</ele>
        <time>2023-09-23T07:42:27Z</time>
      </trkpt>
      <trkpt lat="43.04121" lon="0.62443">
        <ele>503.2</ele>
        <time>2023-09-23T07:42:28Z</time>
      </trkpt>
      <trkpt lat="43.04123" lon="0.62445">
        <ele>503.2</ele>
        <time>2023-09-23T07:42:29Z</time>
      </trkpt>
      <trkpt lat="43.04123" lon="0.62447">
        <ele>503.2</ele>
        <time>2023-09-23T07:42:30Z</time>
      </trkpt>
      <trkpt lat="43.04124" lon="0.62449">
        <ele>503.2</ele>
        <time>2023-09-23T07:42:31Z</time>
      </trkpt>
      <trkpt lat="43.04125" lon="0.62451">
        <ele>503.8</ele>
        <time>2023-09-23T07:42:32Z</time>
      </trkpt>
      <trkpt lat="43.04126" lon="0.62453">
        <ele>503.8</ele>
        <time>2023-09-23T07:42:33Z</time>
      </trkpt>
      <trkpt lat="43.04127" lon="0.62456">
        <ele>503.8</ele>
        <time>2023-09-23T07:42:34Z</time>
      </trkpt>
      <trkpt lat="43.04128" lon="0.62458">
        <ele>503.8</ele>
        <time>2023-09-23T07:42:35Z</time>
      </trkpt>
      <trkpt lat="43.04129" lon="0.6246">
        <ele>505.2</ele>
        <time>2023-09-23T07:42:36Z</time>
      </trkpt>
      <trkpt lat="43.0413" lon="0.62463">
        <ele>505.2</ele>
        <time>2023-09-23T07:42:37Z</time>
      </trkpt>
      <trkpt lat="43.04131" lon="0.62465">
        <ele>505.2</ele>
        <time>2023-09-23T07:42:38Z</time>
      </trkpt>
      <trkpt lat="43.04132" lon="0.62467">
        <ele>505.8</ele>
        <time>2023-09-23T07:42:39Z</time>
      </trkpt>
      <trkpt lat="43.04132" lon="0.62469">
        <ele>505.6</ele>
        <time>2023-09-23T07:42:40Z</time>
      </trkpt>
      <trkpt lat="43.04134" lon="0.62471">
        <ele>505.6</ele>
        <time>2023-09-23T07:42:41Z</time>
      </trkpt>
      <trkpt lat="43.04135" lon="0.62473">
        <ele>505.6</ele>
        <time>2023-09-23T07:42:42Z</time>
      </trkpt>
      <trkpt lat="43.04135" lon="0.62475">
        <ele>505.6</ele>
        <time>2023-09-23T07:42:43Z</time>
      </trkpt>
      <trkpt lat="43.04136" lon="0.62477">
        <ele>506.2</ele>
        <time>2023-09-23T07:42:44Z</time>
      </trkpt>
      <trkpt lat="43.04137" lon="0.6248">
        <ele>506.2</ele>
        <time>2023-09-23T07:42:45Z</time>
      </trkpt>
      <trkpt lat="43.04137" lon="0.62483">
        <ele>506.2</ele>
        <time>2023-09-23T07:42:46Z</time>
      </trkpt>
      <trkpt lat="43.04138" lon="0.62486">
        <ele>507.2</ele>
        <time>2023-09-23T07:42:47Z</time>
      </trkpt>
      <trkpt lat="43.04138" lon="0.62488">
        <ele>508.2</ele>
        <time>2023-09-23T07:42:48Z</time>
      </trkpt>
      <trkpt lat="43.04138" lon="0.62491">
        <ele>508.2</ele>
        <time>2023-09-23T07:42:49Z</time>
      </trkpt>
      <trkpt lat="43.04138" lon="0.62493">
        <ele>508.2</ele>
        <time>2023-09-23T07:42:50Z</time>
      </trkpt>
      <trkpt lat="43.04139" lon="0.62496">
        <ele>508.2</ele>
        <time>2023-09-23T07:42:51Z</time>
      </trkpt>
      <trkpt lat="43.0414" lon="0.62499">
        <ele>508.4</ele>
        <time>2023-09-23T07:42:52Z</time>
      </trkpt>
      <trkpt lat="43.04141" lon="0.62502">
        <ele>508.4</ele>
        <time>2023-09-23T07:42:53Z</time>
      </trkpt>
      <trkpt lat="43.04142" lon="0.62505">
        <ele>508.4</ele>
        <time>2023-09-23T07:42:54Z</time>
      </trkpt>
      <trkpt lat="43.04142" lon="0.62508">
        <ele>509</ele>
        <time>2023-09-23T07:42:55Z</time>
      </trkpt>
      <trkpt lat="43.04142" lon="0.62511">
        <ele>509.8</ele>
        <time>2023-09-23T07:42:56Z</time>
      </trkpt>
      <trkpt lat="43.04142" lon="0.62514">
        <ele>509.8</ele>
        <time>2023-09-23T07:42:57Z</time>
      </trkpt>
      <trkpt lat="43.04142" lon="0.62516">
        <ele>509.8</ele>
        <time>2023-09-23T07:42:58Z</time>
      </trkpt>
      <trkpt lat="43.04143" lon="0.62519">
        <ele>509.8</ele>
        <time>2023-09-23T07:42:59Z</time>
      </trkpt>
      <trkpt lat="43.04144" lon="0.6252">
        <ele>511.4</ele>
        <time>2023-09-23T07:43:00Z</time>
      </trkpt>
      <trkpt lat="43.04144" lon="0.62522">
        <ele>511.4</ele>
        <time>2023-09-23T07:43:01Z</time>
      </trkpt>
      <trkpt lat="43.04143" lon="0.62524">
        <ele>511.4</ele>
        <time>2023-09-23T07:43:02Z</time>
      </trkpt>
      <trkpt lat="43.04143" lon="0.62526">
        <ele>511.4</ele>
        <time>2023-09-23T07:43:03Z</time>
      </trkpt>
      <trkpt lat="43.04143" lon="0.62527">
        <ele>511.6</ele>
        <time>2023-09-23T07:43:04Z</time>
      </trkpt>
      <trkpt lat="43.04142" lon="0.62528">
        <ele>511.6</ele>
        <time>2023-09-23T07:43:05Z</time>
      </trkpt>
      <trkpt lat="43.04142" lon="0.62529">
        <ele>511.6</ele>
        <time>2023-09-23T07:43:06Z</time>
      </trkpt>
      <trkpt lat="43.04142" lon="0.62529">
        <ele>512</ele>
        <time>2023-09-23T07:43:07Z</time>
      </trkpt>
      <trkpt lat="43.04133" lon="0.62582">
        <ele>519.4</ele>
        <time>2023-09-23T07:44:10Z</time>
      </trkpt>
      <trkpt lat="43.04132" lon="0.62585">
        <ele>519.4</ele>
        <time>2023-09-23T07:44:11Z</time>
      </trkpt>
      <trkpt lat="43.04131" lon="0.62588">
        <ele>520</ele>
        <time>2023-09-23T07:44:12Z</time>
      </trkpt>
      <trkpt lat="43.0413" lon="0.6259">
        <ele>520</ele>
        <time>2023-09-23T07:44:13Z</time>
      </trkpt>
      <trkpt lat="43.0413" lon="0.62592">
        <ele>520</ele>
        <time>2023-09-23T07:44:14Z</time>
      </trkpt>
      <trkpt lat="43.04128" lon="0.62594">
        <ele>520</ele>
        <time>2023-09-23T07:44:15Z</time>
      </trkpt>
      <trkpt lat="43.04128" lon="0.62596">
        <ele>520</ele>
        <time>2023-09-23T07:44:16Z</time>
      </trkpt>
      <trkpt lat="43.04129" lon="0.62599">
        <ele>520</ele>
        <time>2023-09-23T07:44:17Z</time>
      </trkpt>
      <trkpt lat="43.0413" lon="0.62601">
        <ele>520</ele>
        <time>2023-09-23T07:44:18Z</time>
      </trkpt>
      <trkpt lat="43.04129" lon="0.62604">
        <ele>520.2</ele>
        <time>2023-09-23T07:44:19Z</time>
      </trkpt>
      <trkpt lat="43.04129" lon="0.62607">
        <ele>520.8</ele>
        <time>2023-09-23T07:44:20Z</time>
      </trkpt>
      <trkpt lat="43.04129" lon="0.62609">
        <ele>520.8</ele>
        <time>2023-09-23T07:44:21Z</time>
      </trkpt>
      <trkpt lat="43.04129" lon="0.6261">
        <ele>520.8</ele>
        <time>2023-09-23T07:44:22Z</time>
      </trkpt>
      <trkpt lat="43.04128" lon="0.62612">
        <ele>521.2</ele>
        <time>2023-09-23T07:44:23Z</time>
      </trkpt>
      <trkpt lat="43.04129" lon="0.62615">
        <ele>522</ele>
        <time>2023-09-23T07:44:24Z</time>
      </trkpt>
      <trkpt lat="43.04129" lon="0.62618">
        <ele>522</ele>
        <time>2023-09-23T07:44:25Z</time>
      </trkpt>
      <trkpt lat="43.0413" lon="0.6262">
        <ele>522</ele>
        <time>2023-09-23T07:44:26Z</time>
      </trkpt>
      <trkpt lat="43.0413" lon="0.62623">
        <ele>522</ele>
        <time>2023-09-23T07:44:27Z</time>
      </trkpt>
      <trkpt lat="43.0413" lon="0.62626">
        <ele>522.4</ele>
        <time>2023-09-23T07:44:28Z</time>
      </trkpt>
      <trkpt lat="43.0413" lon="0.62629">
        <ele>522.4</ele>
        <time>2023-09-23T07:44:29Z</time>
      </trkpt>
      <trkpt lat="43.04129" lon="0.62632">
        <ele>522.4</ele>
        <time>2023-09-23T07:44:30Z</time>
      </trkpt>
      <trkpt lat="43.04128" lon="0.62635">
        <ele>523.2</ele>
        <time>2023-09-23T07:44:31Z</time>
      </trkpt>
      <trkpt lat="43.04129" lon="0.62638">
        <ele>523.4</ele>
        <time>2023-09-23T07:44:32Z</time>
      </trkpt>
      <trkpt lat="43.04129" lon="0.62641">
        <ele>523.4</ele>
        <time>2023-09-23T07:44:33Z</time>
      </trkpt>
      <trkpt lat="43.04128" lon="0.62643">
        <ele>523.4</ele>
        <time>2023-09-23T07:44:34Z</time>
      </trkpt>
      <trkpt lat="43.04127" lon="0.62645">
        <ele>524.4</ele>
        <time>2023-09-23T07:44:35Z</time>
      </trkpt>
      <trkpt lat="43.04127" lon="0.62647">
        <ele>525</ele>
        <time>2023-09-23T07:44:36Z</time>
      </trkpt>
      <trkpt lat="43.04128" lon="0.6265">
        <ele>525</ele>
        <time>2023-09-23T07:44:37Z</time>
      </trkpt>
      <trkpt lat="43.04128" lon="0.62652">
        <ele>525</ele>
        <time>2023-09-23T07:44:38Z</time>
      </trkpt>
      <trkpt lat="43.04128" lon="0.62655">
        <ele>525</ele>
        <time>2023-09-23T07:44:39Z</time>
      </trkpt>
      <trkpt lat="43.04127" lon="0.62658">
        <ele>525.6</ele>
        <time>2023-09-23T07:44:40Z</time>
      </trkpt>
      <trkpt lat="43.04127" lon="0.62661">
        <ele>525.6</ele>
        <time>2023-09-23T07:44:41Z</time>
      </trkpt>
      <trkpt lat="43.04127" lon="0.62664">
        <ele>525.6</ele>
        <time>2023-09-23T07:44:42Z</time>
      </trkpt>
      <trkpt lat="43.04128" lon="0.62668">
        <ele>525.6</ele>
        <time>2023-09-23T07:44:43Z</time>
      </trkpt>
      <trkpt lat="43.04128" lon="0.62671">
        <ele>525.4</ele>
        <time>2023-09-23T07:44:44Z</time>
      </trkpt>
      <trkpt lat="43.04128" lon="0.62673">
        <ele>525.4</ele>
        <time>2023-09-23T07:44:45Z</time>
      </trkpt>
      <trkpt lat="43.04127" lon="0.62675">
        <ele>525.4</ele>
        <time>2023-09-23T07:44:46Z</time>
      </trkpt>
      <trkpt lat="43.04127" lon="0.62677">
        <ele>525.6</ele>
        <time>2023-09-23T07:44:47Z</time>
      </trkpt>
      <trkpt lat="43.04128" lon="0.62679">
        <ele>525.6</ele>
        <time>2023-09-23T07:44:48Z</time>
      </trkpt>
      <trkpt lat="43.04127" lon="0.62681">
        <ele>525.6</ele>
        <time>2023-09-23T07:44:49Z</time>
      </trkpt>
      <trkpt lat="43.04127" lon="0.62683">
        <ele>525.6</ele>
        <time>2023-09-23T07:44:50Z</time>
      </trkpt>
      <trkpt lat="43.04127" lon="0.62686">
        <ele>525.2</ele>
        <time>2023-09-23T07:44:51Z</time>
      </trkpt>
      <trkpt lat="43.04127" lon="0.62689">
        <ele>524.6</ele>
        <time>2023-09-23T07:44:52Z</time>
      </trkpt>
      <trkpt lat="43.04127" lon="0.62692">
        <ele>524.6</ele>
        <time>2023-09-23T07:44:53Z</time>
      </trkpt>
      <trkpt lat="43.04127" lon="0.62695">
        <ele>524.6</ele>
        <time>2023-09-23T07:44:54Z</time>
      </trkpt>
      <trkpt lat="43.04127" lon="0.62699">
        <ele>525.6</ele>
        <time>2023-09-23T07:44:55Z</time>
      </trkpt>
      <trkpt lat="43.04126" lon="0.62702">
        <ele>525.8</ele>
        <time>2023-09-23T07:44:56Z</time>
      </trkpt>
      <trkpt lat="43.04125" lon="0.62705">
        <ele>525.8</ele>
        <time>2023-09-23T07:44:57Z</time>
      </trkpt>
      <trkpt lat="43.04125" lon="0.62708">
        <ele>525.8</ele>
        <time>2023-09-23T07:44:58Z</time>
      </trkpt>
      <trkpt lat="43.04125" lon="0.6271">
        <ele>525.8</ele>
        <time>2023-09-23T07:44:59Z</time>
      </trkpt>
      <trkpt lat="43.04126" lon="0.62713">
        <ele>526.2</ele>
        <time>2023-09-23T07:45:00Z</time>
      </trkpt>
      <trkpt lat="43.04126" lon="0.62715">
        <ele>526.2</ele>
        <time>2023-09-23T07:45:01Z</time>
      </trkpt>
      <trkpt lat="43.04126" lon="0.62718">
        <ele>526.2</ele>
        <time>2023-09-23T07:45:02Z</time>
      </trkpt>
      <trkpt lat="43.04126" lon="0.62722">
        <ele>526.2</ele>
        <time>2023-09-23T07:45:03Z</time>
      </trkpt>
      <trkpt lat="43.04127" lon="0.62725">
        <ele>524.6</ele>
        <time>2023-09-23T07:45:04Z</time>
      </trkpt>
      <trkpt lat="43.04126" lon="0.62727">
        <ele>524.6</ele>
        <time>2023-09-23T07:45:05Z</time>
      </trkpt>
      <trkpt lat="43.04126" lon="0.62729">
        <ele>524.6</ele>
        <time>2023-09-23T07:45:06Z</time>
      </trkpt>
      <trkpt lat="43.04127" lon="0.62732">
        <ele>524.6</ele>
        <time>2023-09-23T07:45:07Z</time>
      </trkpt>
      <trkpt lat="43.04127" lon="0.62734">
        <ele>523.4</ele>
        <time>2023-09-23T07:45:08Z</time>
      </trkpt>
      <trkpt lat="43.04128" lon="0.62736">
        <ele>523.4</ele>
        <time>2023-09-23T07:45:09Z</time>
      </trkpt>
      <trkpt lat="43.04128" lon="0.6274">
        <ele>523.4</ele>
        <time>2023-09-23T07:45:10Z</time>
      </trkpt>
      <trkpt lat="43.04128" lon="0.62743">
        <ele>522.4</ele>
        <time>2023-09-23T07:45:11Z</time>
      </trkpt>
      <trkpt lat="43.04128" lon="0.62747">
        <ele>520.6</ele>
        <time>2023-09-23T07:45:12Z</time>
      </trkpt>
      <trkpt lat="43.0413" lon="0.6275">
        <ele>520.6</ele>
        <time>2023-09-23T07:45:13Z</time>
      </trkpt>
      <trkpt lat="43.0413" lon="0.62754">
        <ele>520.6</ele>
        <time>2023-09-23T07:45:14Z</time>
      </trkpt>
      <trkpt lat="43.04132" lon="0.62757">
        <ele>519.6</ele>
        <time>2023-09-23T07:45:15Z</time>
      </trkpt>
      <trkpt lat="43.04135" lon="0.62761">
        <ele>518</ele>
        <time>2023-09-23T07:45:16Z</time>
      </trkpt>
      <trkpt lat="43.04138" lon="0.62764">
        <ele>518</ele>
        <time>2023-09-23T07:45:17Z</time>
      </trkpt>
      <trkpt lat="43.04142" lon="0.62763">
        <ele>518</ele>
        <time>2023-09-23T07:45:18Z</time>
      </trkpt>
      <trkpt lat="43.04146" lon="0.62763">
        <ele>518</ele>
        <time>2023-09-23T07:45:19Z</time>
      </trkpt>
      <trkpt lat="43.0415" lon="0.62761">
        <ele>517.2</ele>
        <time>2023-09-23T07:45:20Z</time>
      </trkpt>
      <trkpt lat="43.04154" lon="0.62761">
        <ele>517.2</ele>
        <time>2023-09-23T07:45:21Z</time>
      </trkpt>
      <trkpt lat="43.04159" lon="0.6276">
        <ele>517.2</ele>
        <time>2023-09-23T07:45:22Z</time>
      </trkpt>
      <trkpt lat="43.04163" lon="0.62759">
        <ele>516.2</ele>
        <time>2023-09-23T07:45:23Z</time>
      </trkpt>
      <trkpt lat="43.04166" lon="0.62757">
        <ele>515.6</ele>
        <time>2023-09-23T07:45:24Z</time>
      </trkpt>
      <trkpt lat="43.04169" lon="0.62753">
        <ele>515.6</ele>
        <time>2023-09-23T07:45:25Z</time>
      </trkpt>
      <trkpt lat="43.04172" lon="0.62751">
        <ele>515.6</ele>
        <time>2023-09-23T07:45:26Z</time>
      </trkpt>
      <trkpt lat="43.04175" lon="0.62749">
        <ele>515.6</ele>
        <time>2023-09-23T07:45:27Z</time>
      </trkpt>
      <trkpt lat="43.04179" lon="0.62749">
        <ele>515.2</ele>
        <time>2023-09-23T07:45:28Z</time>
      </trkpt>
      <trkpt lat="43.04182" lon="0.6275">
        <ele>515.2</ele>
        <time>2023-09-23T07:45:29Z</time>
      </trkpt>
      <trkpt lat="43.04185" lon="0.62753">
        <ele>515.2</ele>
        <time>2023-09-23T07:45:30Z</time>
      </trkpt>
      <trkpt lat="43.04188" lon="0.62756">
        <ele>515.4</ele>
        <time>2023-09-23T07:45:31Z</time>
      </trkpt>
      <trkpt lat="43.04191" lon="0.62759">
        <ele>515.4</ele>
        <time>2023-09-23T07:45:32Z</time>
      </trkpt>
      <trkpt lat="43.04193" lon="0.62761">
        <ele>515.4</ele>
        <time>2023-09-23T07:45:33Z</time>
      </trkpt>
      <trkpt lat="43.04196" lon="0.62763">
        <ele>515.4</ele>
        <time>2023-09-23T07:45:34Z</time>
      </trkpt>
      <trkpt lat="43.04198" lon="0.62764">
        <ele>516.4</ele>
        <time>2023-09-23T07:45:35Z</time>
      </trkpt>
      <trkpt lat="43.042" lon="0.62766">
        <ele>515.6</ele>
        <time>2023-09-23T07:45:36Z</time>
      </trkpt>
      <trkpt lat="43.04202" lon="0.62768">
        <ele>515.6</ele>
        <time>2023-09-23T07:45:37Z</time>
      </trkpt>
      <trkpt lat="43.04205" lon="0.62771">
        <ele>515.6</ele>
        <time>2023-09-23T07:45:38Z</time>
      </trkpt>
      <trkpt lat="43.04207" lon="0.62773">
        <ele>515.6</ele>
        <time>2023-09-23T07:45:39Z</time>
      </trkpt>
      <trkpt lat="43.0421" lon="0.62775">
        <ele>515.8</ele>
        <time>2023-09-23T07:45:40Z</time>
      </trkpt>
      <trkpt lat="43.04212" lon="0.62777">
        <ele>515.8</ele>
        <time>2023-09-23T07:45:41Z</time>
      </trkpt>
      <trkpt lat="43.04215" lon="0.62779">
        <ele>515.8</ele>
        <time>2023-09-23T07:45:42Z</time>
      </trkpt>
      <trkpt lat="43.04218" lon="0.62781">
        <ele>516.8</ele>
        <time>2023-09-23T07:45:43Z</time>
      </trkpt>
      <trkpt lat="43.04221" lon="0.62783">
        <ele>517.2</ele>
        <time>2023-09-23T07:45:44Z</time>
      </trkpt>
      <trkpt lat="43.04224" lon="0.62784">
        <ele>517.2</ele>
        <time>2023-09-23T07:45:45Z</time>
      </trkpt>
      <trkpt lat="43.04227" lon="0.62786">
        <ele>517.2</ele>
        <time>2023-09-23T07:45:46Z</time>
      </trkpt>
      <trkpt lat="43.04229" lon="0.62787">
        <ele>517.2</ele>
        <time>2023-09-23T07:45:47Z</time>
      </trkpt>
      <trkpt lat="43.04232" lon="0.62789">
        <ele>517</ele>
        <time>2023-09-23T07:45:48Z</time>
      </trkpt>
      <trkpt lat="43.04234" lon="0.6279">
        <ele>517</ele>
        <time>2023-09-23T07:45:49Z</time>
      </trkpt>
      <trkpt lat="43.04237" lon="0.62792">
        <ele>517</ele>
        <time>2023-09-23T07:45:50Z</time>
      </trkpt>
      <trkpt lat="43.04239" lon="0.62794">
        <ele>518</ele>
        <time>2023-09-23T07:45:51Z</time>
      </trkpt>
      <trkpt lat="43.04241" lon="0.62796">
        <ele>518.2</ele>
        <time>2023-09-23T07:45:52Z</time>
      </trkpt>
      <trkpt lat="43.04243" lon="0.62797">
        <ele>518.2</ele>
        <time>2023-09-23T07:45:53Z</time>
      </trkpt>
      <trkpt lat="43.04244" lon="0.62798">
        <ele>518.2</ele>
        <time>2023-09-23T07:45:54Z</time>
      </trkpt>
      <trkpt lat="43.04244" lon="0.62799">
        <ele>518.2</ele>
        <time>2023-09-23T07:45:55Z</time>
      </trkpt>
      <trkpt lat="43.04246" lon="0.628">
        <ele>519.6</ele>
        <time>2023-09-23T07:45:56Z</time>
      </trkpt>
      <trkpt lat="43.04247" lon="0.62802">
        <ele>519.6</ele>
        <time>2023-09-23T07:45:57Z</time>
      </trkpt>
      <trkpt lat="43.04247" lon="0.62803">
        <ele>519.6</ele>
        <time>2023-09-23T07:45:58Z</time>
      </trkpt>
      <trkpt lat="43.04247" lon="0.62804">
        <ele>519.6</ele>
        <time>2023-09-23T07:45:59Z</time>
      </trkpt>
      <trkpt lat="43.04248" lon="0.62805">
        <ele>520</ele>
        <time>2023-09-23T07:46:00Z</time>
      </trkpt>
      <trkpt lat="43.04249" lon="0.62806">
        <ele>520</ele>
        <time>2023-09-23T07:46:01Z</time>
      </trkpt>
      <trkpt lat="43.0425" lon="0.62808">
        <ele>520</ele>
        <time>2023-09-23T07:46:02Z</time>
      </trkpt>
      <trkpt lat="43.04251" lon="0.6281">
        <ele>521</ele>
        <time>2023-09-23T07:46:03Z</time>
      </trkpt>
      <trkpt lat="43.04251" lon="0.62812">
        <ele>521.4</ele>
        <time>2023-09-23T07:46:04Z</time>
      </trkpt>
      <trkpt lat="43.04251" lon="0.62813">
        <ele>521.4</ele>
        <time>2023-09-23T07:46:05Z</time>
      </trkpt>
      <trkpt lat="43.0425" lon="0.62815">
        <ele>521.4</ele>
        <time>2023-09-23T07:46:06Z</time>
      </trkpt>
      <trkpt lat="43.04249" lon="0.62817">
        <ele>522</ele>
        <time>2023-09-23T07:46:07Z</time>
      </trkpt>
      <trkpt lat="43.04249" lon="0.62818">
        <ele>522.4</ele>
        <time>2023-09-23T07:46:08Z</time>
      </trkpt>
      <trkpt lat="43.04249" lon="0.6282">
        <ele>522.4</ele>
        <time>2023-09-23T07:46:09Z</time>
      </trkpt>
      <trkpt lat="43.04249" lon="0.62821">
        <ele>522.4</ele>
        <time>2023-09-23T07:46:10Z</time>
      </trkpt>
      <trkpt lat="43.04249" lon="0.62821">
        <ele>522.4</ele>
        <time>2023-09-23T07:46:11Z</time>
      </trkpt>
      <trkpt lat="43.04249" lon="0.62821">
        <ele>523</ele>
        <time>2023-09-23T07:46:12Z</time>
      </trkpt>
      <trkpt lat="43.04251" lon="0.62964">
        <ele>543</ele>
        <time>2023-09-23T07:48:43Z</time>
      </trkpt>
      <trkpt lat="43.04262" lon="0.63099">
        <ele>562</ele>
        <time>2023-09-23T07:50:13Z</time>
      </trkpt>
      <trkpt lat="43.04262" lon="0.63101">
        <ele>562</ele>
        <time>2023-09-23T07:50:14Z</time>
      </trkpt>
      <trkpt lat="43.04262" lon="0.63103">
        <ele>563</ele>
        <time>2023-09-23T07:50:15Z</time>
      </trkpt>
      <trkpt lat="43.04262" lon="0.63105">
        <ele>562.6</ele>
        <time>2023-09-23T07:50:16Z</time>
      </trkpt>
      <trkpt lat="43.04262" lon="0.63106">
        <ele>562.6</ele>
        <time>2023-09-23T07:50:17Z</time>
      </trkpt>
      <trkpt lat="43.04262" lon="0.63108">
        <ele>562.6</ele>
        <time>2023-09-23T07:50:18Z</time>
      </trkpt>
      <trkpt lat="43.04262" lon="0.6311">
        <ele>563.2</ele>
        <time>2023-09-23T07:50:19Z</time>
      </trkpt>
      <trkpt lat="43.04262" lon="0.63113">
        <ele>563.4</ele>
        <time>2023-09-23T07:50:20Z</time>
      </trkpt>
      <trkpt lat="43.04262" lon="0.63115">
        <ele>563.4</ele>
        <time>2023-09-23T07:50:21Z</time>
      </trkpt>
      <trkpt lat="43.04262" lon="0.63117">
        <ele>563.4</ele>
        <time>2023-09-23T07:50:22Z</time>
      </trkpt>
      <trkpt lat="43.04261" lon="0.63119">
        <ele>563.4</ele>
        <time>2023-09-23T07:50:23Z</time>
      </trkpt>
      <trkpt lat="43.04262" lon="0.63119">
        <ele>563.6</ele>
        <time>2023-09-23T07:50:24Z</time>
      </trkpt>
      <trkpt lat="43.04262" lon="0.63119">
        <ele>563.6</ele>
        <time>2023-09-23T07:50:25Z</time>
      </trkpt>
      <trkpt lat="43.04262" lon="0.63119">
        <ele>563.6</ele>
        <time>2023-09-23T07:50:26Z</time>
      </trkpt>
      <trkpt lat="43.04261" lon="0.6313">
        <ele>563</ele>
        <time>2023-09-23T07:50:37Z</time>
      </trkpt>
      <trkpt lat="43.04261" lon="0.63133">
        <ele>563</ele>
        <time>2023-09-23T07:50:38Z</time>
      </trkpt>
      <trkpt lat="43.0426" lon="0.63137">
        <ele>563</ele>
        <time>2023-09-23T07:50:39Z</time>
      </trkpt>
      <trkpt lat="43.04259" lon="0.63142">
        <ele>562.2</ele>
        <time>2023-09-23T07:50:40Z</time>
      </trkpt>
      <trkpt lat="43.04259" lon="0.63146">
        <ele>562.2</ele>
        <time>2023-09-23T07:50:41Z</time>
      </trkpt>
      <trkpt lat="43.04257" lon="0.63151">
        <ele>562.2</ele>
        <time>2023-09-23T07:50:42Z</time>
      </trkpt>
      <trkpt lat="43.04256" lon="0.63155">
        <ele>562.2</ele>
        <time>2023-09-23T07:50:43Z</time>
      </trkpt>
      <trkpt lat="43.04255" lon="0.63159">
        <ele>562.6</ele>
        <time>2023-09-23T07:50:44Z</time>
      </trkpt>
      <trkpt lat="43.04255" lon="0.63163">
        <ele>562.6</ele>
        <time>2023-09-23T07:50:45Z</time>
      </trkpt>
      <trkpt lat="43.04254" lon="0.63167">
        <ele>562.6</ele>
        <time>2023-09-23T07:50:46Z</time>
      </trkpt>
      <trkpt lat="43.04252" lon="0.6317">
        <ele>562.6</ele>
        <time>2023-09-23T07:50:47Z</time>
      </trkpt>
      <trkpt lat="43.04251" lon="0.63174">
        <ele>562.8</ele>
        <time>2023-09-23T07:50:48Z</time>
      </trkpt>
      <trkpt lat="43.04249" lon="0.63176">
        <ele>562.8</ele>
        <time>2023-09-23T07:50:49Z</time>
      </trkpt>
      <trkpt lat="43.04249" lon="0.63179">
        <ele>562.8</ele>
        <time>2023-09-23T07:50:50Z</time>
      </trkpt>
      <trkpt lat="43.04247" lon="0.63181">
        <ele>563</ele>
        <time>2023-09-23T07:50:51Z</time>
      </trkpt>
      <trkpt lat="43.04245" lon="0.63185">
        <ele>563</ele>
        <time>2023-09-23T07:50:52Z</time>
      </trkpt>
      <trkpt lat="43.04243" lon="0.63187">
        <ele>563</ele>
        <time>2023-09-23T07:50:53Z</time>
      </trkpt>
      <trkpt lat="43.04241" lon="0.6319">
        <ele>563</ele>
        <time>2023-09-23T07:50:54Z</time>
      </trkpt>
      <trkpt lat="43.04238" lon="0.63194">
        <ele>562</ele>
        <time>2023-09-23T07:50:55Z</time>
      </trkpt>
      <trkpt lat="43.04235" lon="0.63197">
        <ele>560.8</ele>
        <time>2023-09-23T07:50:56Z</time>
      </trkpt>
      <trkpt lat="43.04232" lon="0.632">
        <ele>560.8</ele>
        <time>2023-09-23T07:50:57Z</time>
      </trkpt>
      <trkpt lat="43.04228" lon="0.63204">
        <ele>560.8</ele>
        <time>2023-09-23T07:50:58Z</time>
      </trkpt>
      <trkpt lat="43.04226" lon="0.63207">
        <ele>561.8</ele>
        <time>2023-09-23T07:50:59Z</time>
      </trkpt>
      <trkpt lat="43.04222" lon="0.6321">
        <ele>562.4</ele>
        <time>2023-09-23T07:51:00Z</time>
      </trkpt>
      <trkpt lat="43.0422" lon="0.63212">
        <ele>562.4</ele>
        <time>2023-09-23T07:51:01Z</time>
      </trkpt>
      <trkpt lat="43.04218" lon="0.63215">
        <ele>562.4</ele>
        <time>2023-09-23T07:51:02Z</time>
      </trkpt>
      <trkpt lat="43.04216" lon="0.63218">
        <ele>562.4</ele>
        <time>2023-09-23T07:51:03Z</time>
      </trkpt>
      <trkpt lat="43.04214" lon="0.6322">
        <ele>563.2</ele>
        <time>2023-09-23T07:51:04Z</time>
      </trkpt>
      <trkpt lat="43.04211" lon="0.63223">
        <ele>563.2</ele>
        <time>2023-09-23T07:51:05Z</time>
      </trkpt>
      <trkpt lat="43.0421" lon="0.63225">
        <ele>563.2</ele>
        <time>2023-09-23T07:51:06Z</time>
      </trkpt>
      <trkpt lat="43.04208" lon="0.63227">
        <ele>564</ele>
        <time>2023-09-23T07:51:07Z</time>
      </trkpt>
      <trkpt lat="43.04206" lon="0.63228">
        <ele>564.2</ele>
        <time>2023-09-23T07:51:08Z</time>
      </trkpt>
      <trkpt lat="43.04203" lon="0.63231">
        <ele>564.2</ele>
        <time>2023-09-23T07:51:09Z</time>
      </trkpt>
      <trkpt lat="43.04201" lon="0.63233">
        <ele>564.2</ele>
        <time>2023-09-23T07:51:10Z</time>
      </trkpt>
      <trkpt lat="43.042" lon="0.63236">
        <ele>564.2</ele>
        <time>2023-09-23T07:51:11Z</time>
      </trkpt>
      <trkpt lat="43.04198" lon="0.63238">
        <ele>565</ele>
        <time>2023-09-23T07:51:12Z</time>
      </trkpt>
      <trkpt lat="43.04196" lon="0.63241">
        <ele>565</ele>
        <time>2023-09-23T07:51:13Z</time>
      </trkpt>
      <trkpt lat="43.04194" lon="0.63244">
        <ele>565</ele>
        <time>2023-09-23T07:51:14Z</time>
      </trkpt>
      <trkpt lat="43.04193" lon="0.63247">
        <ele>565.6</ele>
        <time>2023-09-23T07:51:15Z</time>
      </trkpt>
      <trkpt lat="43.04192" lon="0.63249">
        <ele>565.8</ele>
        <time>2023-09-23T07:51:16Z</time>
      </trkpt>
      <trkpt lat="43.04191" lon="0.63251">
        <ele>565.8</ele>
        <time>2023-09-23T07:51:17Z</time>
      </trkpt>
      <trkpt lat="43.04189" lon="0.63253">
        <ele>565.8</ele>
        <time>2023-09-23T07:51:18Z</time>
      </trkpt>
      <trkpt lat="43.04188" lon="0.63255">
        <ele>566.6</ele>
        <time>2023-09-23T07:51:19Z</time>
      </trkpt>
      <trkpt lat="43.04187" lon="0.63258">
        <ele>566.4</ele>
        <time>2023-09-23T07:51:20Z</time>
      </trkpt>
      <trkpt lat="43.04185" lon="0.63261">
        <ele>566.4</ele>
        <time>2023-09-23T07:51:21Z</time>
      </trkpt>
      <trkpt lat="43.04184" lon="0.63263">
        <ele>566.4</ele>
        <time>2023-09-23T07:51:22Z</time>
      </trkpt>
      <trkpt lat="43.04182" lon="0.63266">
        <ele>567.4</ele>
        <time>2023-09-23T07:51:23Z</time>
      </trkpt>
      <trkpt lat="43.04181" lon="0.6327">
        <ele>567.8</ele>
        <time>2023-09-23T07:51:24Z</time>
      </trkpt>
      <trkpt lat="43.04179" lon="0.63272">
        <ele>567.8</ele>
        <time>2023-09-23T07:51:25Z</time>
      </trkpt>
      <trkpt lat="43.04177" lon="0.63274">
        <ele>567.8</ele>
        <time>2023-09-23T07:51:26Z</time>
      </trkpt>
      <trkpt lat="43.04176" lon="0.63276">
        <ele>568.4</ele>
        <time>2023-09-23T07:51:27Z</time>
      </trkpt>
      <trkpt lat="43.04174" lon="0.63278">
        <ele>569.4</ele>
        <time>2023-09-23T07:51:28Z</time>
      </trkpt>
      <trkpt lat="43.04173" lon="0.6328">
        <ele>569.4</ele>
        <time>2023-09-23T07:51:29Z</time>
      </trkpt>
      <trkpt lat="43.04171" lon="0.63284">
        <ele>569.4</ele>
        <time>2023-09-23T07:51:30Z</time>
      </trkpt>
      <trkpt lat="43.04169" lon="0.63287">
        <ele>569.4</ele>
        <time>2023-09-23T07:51:31Z</time>
      </trkpt>
      <trkpt lat="43.04168" lon="0.6329">
        <ele>570</ele>
        <time>2023-09-23T07:51:32Z</time>
      </trkpt>
      <trkpt lat="43.04167" lon="0.63292">
        <ele>570</ele>
        <time>2023-09-23T07:51:33Z</time>
      </trkpt>
      <trkpt lat="43.04166" lon="0.63294">
        <ele>570</ele>
        <time>2023-09-23T07:51:34Z</time>
      </trkpt>
      <trkpt lat="43.04164" lon="0.63296">
        <ele>571</ele>
        <time>2023-09-23T07:51:35Z</time>
      </trkpt>
      <trkpt lat="43.04163" lon="0.63298">
        <ele>570.4</ele>
        <time>2023-09-23T07:51:36Z</time>
      </trkpt>
      <trkpt lat="43.04162" lon="0.63301">
        <ele>570.4</ele>
        <time>2023-09-23T07:51:37Z</time>
      </trkpt>
      <trkpt lat="43.0416" lon="0.63303">
        <ele>570.4</ele>
        <time>2023-09-23T07:51:38Z</time>
      </trkpt>
      <trkpt lat="43.04158" lon="0.63305">
        <ele>570.4</ele>
        <time>2023-09-23T07:51:39Z</time>
      </trkpt>
      <trkpt lat="43.04156" lon="0.63307">
        <ele>571</ele>
        <time>2023-09-23T07:51:40Z</time>
      </trkpt>
      <trkpt lat="43.04155" lon="0.63309">
        <ele>571</ele>
        <time>2023-09-23T07:51:41Z</time>
      </trkpt>
      <trkpt lat="43.04152" lon="0.63312">
        <ele>571</ele>
        <time>2023-09-23T07:51:42Z</time>
      </trkpt>
      <trkpt lat="43.0415" lon="0.63313">
        <ele>570</ele>
        <time>2023-09-23T07:51:43Z</time>
      </trkpt>
      <trkpt lat="43.04149" lon="0.63315">
        <ele>570</ele>
        <time>2023-09-23T07:51:44Z</time>
      </trkpt>
      <trkpt lat="43.04146" lon="0.63318">
        <ele>570</ele>
        <time>2023-09-23T07:51:45Z</time>
      </trkpt>
      <trkpt lat="43.04143" lon="0.63322">
        <ele>570</ele>
        <time>2023-09-23T07:51:46Z</time>
      </trkpt>
      <trkpt lat="43.0414" lon="0.63325">
        <ele>570</ele>
        <time>2023-09-23T07:51:47Z</time>
      </trkpt>
      <trkpt lat="43.04138" lon="0.63329">
        <ele>569.8</ele>
        <time>2023-09-23T07:51:48Z</time>
      </trkpt>
      <trkpt lat="43.04136" lon="0.63333">
        <ele>569.8</ele>
        <time>2023-09-23T07:51:49Z</time>
      </trkpt>
      <trkpt lat="43.04134" lon="0.63338">
        <ele>569.8</ele>
        <time>2023-09-23T07:51:50Z</time>
      </trkpt>
      <trkpt lat="43.04132" lon="0.63341">
        <ele>569.8</ele>
        <time>2023-09-23T07:51:51Z</time>
      </trkpt>
      <trkpt lat="43.04129" lon="0.63345">
        <ele>570</ele>
        <time>2023-09-23T07:51:52Z</time>
      </trkpt>
      <trkpt lat="43.04127" lon="0.63348">
        <ele>570</ele>
        <time>2023-09-23T07:51:53Z</time>
      </trkpt>
      <trkpt lat="43.04123" lon="0.63351">
        <ele>570</ele>
        <time>2023-09-23T07:51:54Z</time>
      </trkpt>
      <trkpt lat="43.0412" lon="0.63352">
        <ele>569</ele>
        <time>2023-09-23T07:51:55Z</time>
      </trkpt>
      <trkpt lat="43.04117" lon="0.63354">
        <ele>568.8</ele>
        <time>2023-09-23T07:51:56Z</time>
      </trkpt>
      <trkpt lat="43.04112" lon="0.63355">
        <ele>568.8</ele>
        <time>2023-09-23T07:51:57Z</time>
      </trkpt>
      <trkpt lat="43.04108" lon="0.63356">
        <ele>568.8</ele>
        <time>2023-09-23T07:51:58Z</time>
      </trkpt>
      <trkpt lat="43.04104" lon="0.63359">
        <ele>568.4</ele>
        <time>2023-09-23T07:51:59Z</time>
      </trkpt>
      <trkpt lat="43.041" lon="0.6336">
        <ele>568.4</ele>
        <time>2023-09-23T07:52:00Z</time>
      </trkpt>
      <trkpt lat="43.04096" lon="0.63362">
        <ele>568.4</ele>
        <time>2023-09-23T07:52:01Z</time>
      </trkpt>
      <trkpt lat="43.04093" lon="0.63365">
        <ele>568.4</ele>
        <time>2023-09-23T07:52:02Z</time>
      </trkpt>
      <trkpt lat="43.04092" lon="0.63368">
        <ele>568.4</ele>
        <time>2023-09-23T07:52:03Z</time>
      </trkpt>
      <trkpt lat="43.0409" lon="0.63372">
        <ele>569.8</ele>
        <time>2023-09-23T07:52:04Z</time>
      </trkpt>
      <trkpt lat="43.04091" lon="0.63374">
        <ele>569.8</ele>
        <time>2023-09-23T07:52:05Z</time>
      </trkpt>
      <trkpt lat="43.04091" lon="0.63376">
        <ele>569.8</ele>
        <time>2023-09-23T07:52:06Z</time>
      </trkpt>
      <trkpt lat="43.04093" lon="0.63377">
        <ele>569.8</ele>
        <time>2023-09-23T07:52:07Z</time>
      </trkpt>
      <trkpt lat="43.04094" lon="0.63378">
        <ele>570.2</ele>
        <time>2023-09-23T07:52:08Z</time>
      </trkpt>
      <trkpt lat="43.04094" lon="0.63379">
        <ele>570.2</ele>
        <time>2023-09-23T07:52:09Z</time>
      </trkpt>
      <trkpt lat="43.04094" lon="0.6338">
        <ele>570.2</ele>
        <time>2023-09-23T07:52:10Z</time>
      </trkpt>
      <trkpt lat="43.04095" lon="0.63382">
        <ele>570.2</ele>
        <time>2023-09-23T07:52:11Z</time>
      </trkpt>
      <trkpt lat="43.04096" lon="0.63382">
        <ele>571</ele>
        <time>2023-09-23T07:52:12Z</time>
      </trkpt>
      <trkpt lat="43.04097" lon="0.63383">
        <ele>571</ele>
        <time>2023-09-23T07:52:13Z</time>
      </trkpt>
      <trkpt lat="43.04097" lon="0.63384">
        <ele>571</ele>
        <time>2023-09-23T07:52:14Z</time>
      </trkpt>
      <trkpt lat="43.04098" lon="0.63385">
        <ele>571</ele>
        <time>2023-09-23T07:52:15Z</time>
      </trkpt>
      <trkpt lat="43.041" lon="0.63386">
        <ele>570.4</ele>
        <time>2023-09-23T07:52:16Z</time>
      </trkpt>
      <trkpt lat="43.04101" lon="0.63387">
        <ele>570.4</ele>
        <time>2023-09-23T07:52:17Z</time>
      </trkpt>
      <trkpt lat="43.04102" lon="0.63388">
        <ele>570.4</ele>
        <time>2023-09-23T07:52:18Z</time>
      </trkpt>
      <trkpt lat="43.04104" lon="0.6339">
        <ele>571.4</ele>
        <time>2023-09-23T07:52:19Z</time>
      </trkpt>
      <trkpt lat="43.04105" lon="0.63392">
        <ele>573</ele>
        <time>2023-09-23T07:52:20Z</time>
      </trkpt>
      <trkpt lat="43.04106" lon="0.63393">
        <ele>573</ele>
        <time>2023-09-23T07:52:21Z</time>
      </trkpt>
      <trkpt lat="43.04107" lon="0.63393">
        <ele>573</ele>
        <time>2023-09-23T07:52:22Z</time>
      </trkpt>
      <trkpt lat="43.04108" lon="0.63394">
        <ele>574</ele>
        <time>2023-09-23T07:52:23Z</time>
      </trkpt>
      <trkpt lat="43.04109" lon="0.63395">
        <ele>575.4</ele>
        <time>2023-09-23T07:52:24Z</time>
      </trkpt>
      <trkpt lat="43.0411" lon="0.63397">
        <ele>575.4</ele>
        <time>2023-09-23T07:52:25Z</time>
      </trkpt>
      <trkpt lat="43.04112" lon="0.63397">
        <ele>575.4</ele>
        <time>2023-09-23T07:52:26Z</time>
      </trkpt>
      <trkpt lat="43.04113" lon="0.63398">
        <ele>575.4</ele>
        <time>2023-09-23T07:52:27Z</time>
      </trkpt>
      <trkpt lat="43.04114" lon="0.63398">
        <ele>576.2</ele>
        <time>2023-09-23T07:52:28Z</time>
      </trkpt>
      <trkpt lat="43.04115" lon="0.63399">
        <ele>576.2</ele>
        <time>2023-09-23T07:52:29Z</time>
      </trkpt>
      <trkpt lat="43.04117" lon="0.63399">
        <ele>576.2</ele>
        <time>2023-09-23T07:52:30Z</time>
      </trkpt>
      <trkpt lat="43.04119" lon="0.63399">
        <ele>576.2</ele>
        <time>2023-09-23T07:52:31Z</time>
      </trkpt>
      <trkpt lat="43.0412" lon="0.63398">
        <ele>576.6</ele>
        <time>2023-09-23T07:52:32Z</time>
      </trkpt>
      <trkpt lat="43.04122" lon="0.63397">
        <ele>576.6</ele>
        <time>2023-09-23T07:52:33Z</time>
      </trkpt>
      <trkpt lat="43.04124" lon="0.63397">
        <ele>576.6</ele>
        <time>2023-09-23T07:52:34Z</time>
      </trkpt>
      <trkpt lat="43.04125" lon="0.63396">
        <ele>577.2</ele>
        <time>2023-09-23T07:52:35Z</time>
      </trkpt>
      <trkpt lat="43.04126" lon="0.63394">
        <ele>577.4</ele>
        <time>2023-09-23T07:52:36Z</time>
      </trkpt>
      <trkpt lat="43.04127" lon="0.63393">
        <ele>577.4</ele>
        <time>2023-09-23T07:52:37Z</time>
      </trkpt>
      <trkpt lat="43.04129" lon="0.63391">
        <ele>577.4</ele>
        <time>2023-09-23T07:52:38Z</time>
      </trkpt>
      <trkpt lat="43.04131" lon="0.6339">
        <ele>577.4</ele>
        <time>2023-09-23T07:52:39Z</time>
      </trkpt>
      <trkpt lat="43.04132" lon="0.63388">
        <ele>577.4</ele>
        <time>2023-09-23T07:52:40Z</time>
      </trkpt>
      <trkpt lat="43.04134" lon="0.63387">
        <ele>577.4</ele>
        <time>2023-09-23T07:52:41Z</time>
      </trkpt>
      <trkpt lat="43.04136" lon="0.63386">
        <ele>577.4</ele>
        <time>2023-09-23T07:52:42Z</time>
      </trkpt>
      <trkpt lat="43.04137" lon="0.63384">
        <ele>577.8</ele>
        <time>2023-09-23T07:52:43Z</time>
      </trkpt>
      <trkpt lat="43.04139" lon="0.63383">
        <ele>578</ele>
        <time>2023-09-23T07:52:44Z</time>
      </trkpt>
      <trkpt lat="43.04141" lon="0.63381">
        <ele>578</ele>
        <time>2023-09-23T07:52:45Z</time>
      </trkpt>
      <trkpt lat="43.04144" lon="0.63379">
        <ele>578</ele>
        <time>2023-09-23T07:52:46Z</time>
      </trkpt>
      <trkpt lat="43.04146" lon="0.63377">
        <ele>577.2</ele>
        <time>2023-09-23T07:52:47Z</time>
      </trkpt>
      <trkpt lat="43.04148" lon="0.63374">
        <ele>577.2</ele>
        <time>2023-09-23T07:52:48Z</time>
      </trkpt>
      <trkpt lat="43.0415" lon="0.63371">
        <ele>577.2</ele>
        <time>2023-09-23T07:52:49Z</time>
      </trkpt>
      <trkpt lat="43.04151" lon="0.63368">
        <ele>577.2</ele>
        <time>2023-09-23T07:52:50Z</time>
      </trkpt>
      <trkpt lat="43.04154" lon="0.63365">
        <ele>577.2</ele>
        <time>2023-09-23T07:52:51Z</time>
      </trkpt>
      <trkpt lat="43.04156" lon="0.63361">
        <ele>576.2</ele>
        <time>2023-09-23T07:52:52Z</time>
      </trkpt>
      <trkpt lat="43.04158" lon="0.63357">
        <ele>576.2</ele>
        <time>2023-09-23T07:52:53Z</time>
      </trkpt>
      <trkpt lat="43.04161" lon="0.63353">
        <ele>576.2</ele>
        <time>2023-09-23T07:52:54Z</time>
      </trkpt>
      <trkpt lat="43.04164" lon="0.63349">
        <ele>575.2</ele>
        <time>2023-09-23T07:52:55Z</time>
      </trkpt>
      <trkpt lat="43.04168" lon="0.63345">
        <ele>575</ele>
        <time>2023-09-23T07:52:56Z</time>
      </trkpt>
      <trkpt lat="43.04171" lon="0.63341">
        <ele>575</ele>
        <time>2023-09-23T07:52:57Z</time>
      </trkpt>
      <trkpt lat="43.04175" lon="0.63338">
        <ele>575</ele>
        <time>2023-09-23T07:52:58Z</time>
      </trkpt>
      <trkpt lat="43.04177" lon="0.63336">
        <ele>574</ele>
        <time>2023-09-23T07:52:59Z</time>
      </trkpt>
      <trkpt lat="43.0418" lon="0.63334">
        <ele>574.6</ele>
        <time>2023-09-23T07:53:00Z</time>
      </trkpt>
      <trkpt lat="43.04182" lon="0.63332">
        <ele>574.6</ele>
        <time>2023-09-23T07:53:01Z</time>
      </trkpt>
      <trkpt lat="43.04184" lon="0.63328">
        <ele>574.6</ele>
        <time>2023-09-23T07:53:02Z</time>
      </trkpt>
      <trkpt lat="43.04186" lon="0.63325">
        <ele>575.6</ele>
        <time>2023-09-23T07:53:03Z</time>
      </trkpt>
      <trkpt lat="43.04189" lon="0.63323">
        <ele>575.4</ele>
        <time>2023-09-23T07:53:04Z</time>
      </trkpt>
      <trkpt lat="43.04192" lon="0.63322">
        <ele>575.4</ele>
        <time>2023-09-23T07:53:05Z</time>
      </trkpt>
      <trkpt lat="43.04194" lon="0.6332">
        <ele>575.4</ele>
        <time>2023-09-23T07:53:06Z</time>
      </trkpt>
      <trkpt lat="43.04197" lon="0.63319">
        <ele>575.4</ele>
        <time>2023-09-23T07:53:07Z</time>
      </trkpt>
      <trkpt lat="43.04199" lon="0.63317">
        <ele>575</ele>
        <time>2023-09-23T07:53:08Z</time>
      </trkpt>
      <trkpt lat="43.04202" lon="0.63316">
        <ele>575</ele>
        <time>2023-09-23T07:53:09Z</time>
      </trkpt>
      <trkpt lat="43.04205" lon="0.63314">
        <ele>575</ele>
        <time>2023-09-23T07:53:10Z</time>
      </trkpt>
      <trkpt lat="43.04208" lon="0.63313">
        <ele>575</ele>
        <time>2023-09-23T07:53:11Z</time>
      </trkpt>
      <trkpt lat="43.0421" lon="0.63312">
        <ele>575</ele>
        <time>2023-09-23T07:53:12Z</time>
      </trkpt>
      <trkpt lat="43.04213" lon="0.63311">
        <ele>575</ele>
        <time>2023-09-23T07:53:13Z</time>
      </trkpt>
      <trkpt lat="43.04216" lon="0.63311">
        <ele>575</ele>
        <time>2023-09-23T07:53:14Z</time>
      </trkpt>
      <trkpt lat="43.04219" lon="0.6331">
        <ele>574.8</ele>
        <time>2023-09-23T07:53:15Z</time>
      </trkpt>
      <trkpt lat="43.04222" lon="0.63309">
        <ele>573.2</ele>
        <time>2023-09-23T07:53:16Z</time>
      </trkpt>
      <trkpt lat="43.04227" lon="0.63308">
        <ele>573.2</ele>
        <time>2023-09-23T07:53:17Z</time>
      </trkpt>
      <trkpt lat="43.0423" lon="0.63307">
        <ele>573.2</ele>
        <time>2023-09-23T07:53:18Z</time>
      </trkpt>
      <trkpt lat="43.04234" lon="0.63306">
        <ele>572.2</ele>
        <time>2023-09-23T07:53:19Z</time>
      </trkpt>
      <trkpt lat="43.04239" lon="0.63304">
        <ele>570.8</ele>
        <time>2023-09-23T07:53:20Z</time>
      </trkpt>
      <trkpt lat="43.04242" lon="0.63305">
        <ele>570.8</ele>
        <time>2023-09-23T07:53:21Z</time>
      </trkpt>
      <trkpt lat="43.04246" lon="0.63306">
        <ele>570.8</ele>
        <time>2023-09-23T07:53:22Z</time>
      </trkpt>
      <trkpt lat="43.04251" lon="0.63306">
        <ele>570.8</ele>
        <time>2023-09-23T07:53:23Z</time>
      </trkpt>
      <trkpt lat="43.04256" lon="0.63309">
        <ele>567.8</ele>
        <time>2023-09-23T07:53:24Z</time>
      </trkpt>
      <trkpt lat="43.04262" lon="0.63311">
        <ele>567.8</ele>
        <time>2023-09-23T07:53:25Z</time>
      </trkpt>
      <trkpt lat="43.04268" lon="0.63314">
        <ele>567.8</ele>
        <time>2023-09-23T07:53:26Z</time>
      </trkpt>
      <trkpt lat="43.04273" lon="0.63318">
        <ele>567.8</ele>
        <time>2023-09-23T07:53:27Z</time>
      </trkpt>
      <trkpt lat="43.04278" lon="0.6332">
        <ele>566.6</ele>
        <time>2023-09-23T07:53:28Z</time>
      </trkpt>
      <trkpt lat="43.04282" lon="0.63322">
        <ele>566.6</ele>
        <time>2023-09-23T07:53:29Z</time>
      </trkpt>
      <trkpt lat="43.04287" lon="0.63324">
        <ele>566.6</ele>
        <time>2023-09-23T07:53:30Z</time>
      </trkpt>
      <trkpt lat="43.04291" lon="0.63328">
        <ele>566.6</ele>
        <time>2023-09-23T07:53:31Z</time>
      </trkpt>
      <trkpt lat="43.04294" lon="0.63331">
        <ele>566.8</ele>
        <time>2023-09-23T07:53:32Z</time>
      </trkpt>
      <trkpt lat="43.04297" lon="0.63332">
        <ele>566.8</ele>
        <time>2023-09-23T07:53:33Z</time>
      </trkpt>
      <trkpt lat="43.04298" lon="0.63333">
        <ele>566.8</ele>
        <time>2023-09-23T07:53:34Z</time>
      </trkpt>
      <trkpt lat="43.04299" lon="0.63334">
        <ele>567</ele>
        <time>2023-09-23T07:53:35Z</time>
      </trkpt>
      <trkpt lat="43.04301" lon="0.63336">
        <ele>566.8</ele>
        <time>2023-09-23T07:53:36Z</time>
      </trkpt>
      <trkpt lat="43.04303" lon="0.63336">
        <ele>566.8</ele>
        <time>2023-09-23T07:53:37Z</time>
      </trkpt>
      <trkpt lat="43.04303" lon="0.63336">
        <ele>566.8</ele>
        <time>2023-09-23T07:53:38Z</time>
      </trkpt>
      <trkpt lat="43.04303" lon="0.63336">
        <ele>566.8</ele>
        <time>2023-09-23T07:53:39Z</time>
      </trkpt>
      <trkpt lat="43.04304" lon="0.63335">
        <ele>566.4</ele>
        <time>2023-09-23T07:53:40Z</time>
      </trkpt>
      <trkpt lat="43.04309" lon="0.63336">
        <ele>566.4</ele>
        <time>2023-09-23T07:53:41Z</time>
      </trkpt>
      <trkpt lat="43.04314" lon="0.63337">
        <ele>566.4</ele>
        <time>2023-09-23T07:53:42Z</time>
      </trkpt>
      <trkpt lat="43.04317" lon="0.63338">
        <ele>565.4</ele>
        <time>2023-09-23T07:53:43Z</time>
      </trkpt>
      <trkpt lat="43.04323" lon="0.63342">
        <ele>565</ele>
        <time>2023-09-23T07:53:44Z</time>
      </trkpt>
      <trkpt lat="43.04328" lon="0.63346">
        <ele>565</ele>
        <time>2023-09-23T07:53:45Z</time>
      </trkpt>
      <trkpt lat="43.04332" lon="0.63349">
        <ele>565</ele>
        <time>2023-09-23T07:53:46Z</time>
      </trkpt>
      <trkpt lat="43.04336" lon="0.63353">
        <ele>564.2</ele>
        <time>2023-09-23T07:53:47Z</time>
      </trkpt>
      <trkpt lat="43.04341" lon="0.63358">
        <ele>563.2</ele>
        <time>2023-09-23T07:53:48Z</time>
      </trkpt>
      <trkpt lat="43.04345" lon="0.63363">
        <ele>563.2</ele>
        <time>2023-09-23T07:53:49Z</time>
      </trkpt>
      <trkpt lat="43.0435" lon="0.63367">
        <ele>563.2</ele>
        <time>2023-09-23T07:53:50Z</time>
      </trkpt>
      <trkpt lat="43.04353" lon="0.63371">
        <ele>562.4</ele>
        <time>2023-09-23T07:53:51Z</time>
      </trkpt>
      <trkpt lat="43.04357" lon="0.63376">
        <ele>562.8</ele>
        <time>2023-09-23T07:53:52Z</time>
      </trkpt>
      <trkpt lat="43.0436" lon="0.63381">
        <ele>562.8</ele>
        <time>2023-09-23T07:53:53Z</time>
      </trkpt>
      <trkpt lat="43.04363" lon="0.63384">
        <ele>562.8</ele>
        <time>2023-09-23T07:53:54Z</time>
      </trkpt>
      <trkpt lat="43.04365" lon="0.63387">
        <ele>563.4</ele>
        <time>2023-09-23T07:53:55Z</time>
      </trkpt>
      <trkpt lat="43.04367" lon="0.63389">
        <ele>563.4</ele>
        <time>2023-09-23T07:53:56Z</time>
      </trkpt>
      <trkpt lat="43.04368" lon="0.63392">
        <ele>563.4</ele>
        <time>2023-09-23T07:53:57Z</time>
      </trkpt>
      <trkpt lat="43.04369" lon="0.63393">
        <ele>563.4</ele>
        <time>2023-09-23T07:53:58Z</time>
      </trkpt>
      <trkpt lat="43.0437" lon="0.63396">
        <ele>563.4</ele>
        <time>2023-09-23T07:53:59Z</time>
      </trkpt>
      <trkpt lat="43.04373" lon="0.63399">
        <ele>564</ele>
        <time>2023-09-23T07:54:00Z</time>
      </trkpt>
      <trkpt lat="43.04374" lon="0.63402">
        <ele>564</ele>
        <time>2023-09-23T07:54:01Z</time>
      </trkpt>
      <trkpt lat="43.04375" lon="0.63404">
        <ele>564</ele>
        <time>2023-09-23T07:54:02Z</time>
      </trkpt>
      <trkpt lat="43.04376" lon="0.63406">
        <ele>563.8</ele>
        <time>2023-09-23T07:54:03Z</time>
      </trkpt>
      <trkpt lat="43.04377" lon="0.63408">
        <ele>563</ele>
        <time>2023-09-23T07:54:04Z</time>
      </trkpt>
      <trkpt lat="43.0438" lon="0.6341">
        <ele>563</ele>
        <time>2023-09-23T07:54:05Z</time>
      </trkpt>
      <trkpt lat="43.04382" lon="0.63412">
        <ele>563</ele>
        <time>2023-09-23T07:54:06Z</time>
      </trkpt>
      <trkpt lat="43.04383" lon="0.63413">
        <ele>563</ele>
        <time>2023-09-23T07:54:07Z</time>
      </trkpt>
      <trkpt lat="43.04385" lon="0.63416">
        <ele>562.4</ele>
        <time>2023-09-23T07:54:08Z</time>
      </trkpt>
      <trkpt lat="43.04388" lon="0.63419">
        <ele>562.4</ele>
        <time>2023-09-23T07:54:09Z</time>
      </trkpt>
      <trkpt lat="43.04391" lon="0.63421">
        <ele>562.4</ele>
        <time>2023-09-23T07:54:10Z</time>
      </trkpt>
      <trkpt lat="43.04393" lon="0.63423">
        <ele>562.4</ele>
        <time>2023-09-23T07:54:11Z</time>
      </trkpt>
      <trkpt lat="43.04395" lon="0.63424">
        <ele>561.8</ele>
        <time>2023-09-23T07:54:12Z</time>
      </trkpt>
      <trkpt lat="43.04397" lon="0.63426">
        <ele>561.8</ele>
        <time>2023-09-23T07:54:13Z</time>
      </trkpt>
      <trkpt lat="43.044" lon="0.63428">
        <ele>561.8</ele>
        <time>2023-09-23T07:54:14Z</time>
      </trkpt>
      <trkpt lat="43.04401" lon="0.63431">
        <ele>561.8</ele>
        <time>2023-09-23T07:54:15Z</time>
      </trkpt>
      <trkpt lat="43.04403" lon="0.63432">
        <ele>561</ele>
        <time>2023-09-23T07:54:16Z</time>
      </trkpt>
      <trkpt lat="43.04404" lon="0.63433">
        <ele>561</ele>
        <time>2023-09-23T07:54:17Z</time>
      </trkpt>
      <trkpt lat="43.04406" lon="0.63435">
        <ele>561</ele>
        <time>2023-09-23T07:54:18Z</time>
      </trkpt>
      <trkpt lat="43.04407" lon="0.63438">
        <ele>561</ele>
        <time>2023-09-23T07:54:19Z</time>
      </trkpt>
      <trkpt lat="43.04409" lon="0.6344">
        <ele>560.2</ele>
        <time>2023-09-23T07:54:20Z</time>
      </trkpt>
      <trkpt lat="43.04411" lon="0.63442">
        <ele>560.2</ele>
        <time>2023-09-23T07:54:21Z</time>
      </trkpt>
      <trkpt lat="43.04413" lon="0.63444">
        <ele>560.2</ele>
        <time>2023-09-23T07:54:22Z</time>
      </trkpt>
      <trkpt lat="43.04416" lon="0.63447">
        <ele>560.2</ele>
        <time>2023-09-23T07:54:23Z</time>
      </trkpt>
      <trkpt lat="43.04419" lon="0.63451">
        <ele>559.6</ele>
        <time>2023-09-23T07:54:24Z</time>
      </trkpt>
      <trkpt lat="43.04423" lon="0.63455">
        <ele>559.6</ele>
        <time>2023-09-23T07:54:25Z</time>
      </trkpt>
      <trkpt lat="43.04427" lon="0.63458">
        <ele>559.6</ele>
        <time>2023-09-23T07:54:26Z</time>
      </trkpt>
      <trkpt lat="43.0443" lon="0.63464">
        <ele>558.6</ele>
        <time>2023-09-23T07:54:27Z</time>
      </trkpt>
      <trkpt lat="43.04433" lon="0.63468">
        <ele>557</ele>
        <time>2023-09-23T07:54:28Z</time>
      </trkpt>
      <trkpt lat="43.04437" lon="0.63471">
        <ele>557</ele>
        <time>2023-09-23T07:54:29Z</time>
      </trkpt>
      <trkpt lat="43.04442" lon="0.63475">
        <ele>557</ele>
        <time>2023-09-23T07:54:30Z</time>
      </trkpt>
      <trkpt lat="43.04447" lon="0.63479">
        <ele>556</ele>
        <time>2023-09-23T07:54:31Z</time>
      </trkpt>
      <trkpt lat="43.04452" lon="0.63483">
        <ele>554.2</ele>
        <time>2023-09-23T07:54:32Z</time>
      </trkpt>
      <trkpt lat="43.04456" lon="0.63486">
        <ele>554.2</ele>
        <time>2023-09-23T07:54:33Z</time>
      </trkpt>
      <trkpt lat="43.0446" lon="0.63486">
        <ele>554.2</ele>
        <time>2023-09-23T07:54:34Z</time>
      </trkpt>
      <trkpt lat="43.04463" lon="0.63487">
        <ele>553.2</ele>
        <time>2023-09-23T07:54:35Z</time>
      </trkpt>
      <trkpt lat="43.04467" lon="0.63488">
        <ele>551.8</ele>
        <time>2023-09-23T07:54:36Z</time>
      </trkpt>
      <trkpt lat="43.04471" lon="0.6349">
        <ele>551.8</ele>
        <time>2023-09-23T07:54:37Z</time>
      </trkpt>
      <trkpt lat="43.04473" lon="0.63492">
        <ele>551.8</ele>
        <time>2023-09-23T07:54:38Z</time>
      </trkpt>
      <trkpt lat="43.04475" lon="0.63493">
        <ele>550.8</ele>
        <time>2023-09-23T07:54:39Z</time>
      </trkpt>
      <trkpt lat="43.04477" lon="0.63492">
        <ele>549.4</ele>
        <time>2023-09-23T07:54:40Z</time>
      </trkpt>
      <trkpt lat="43.0448" lon="0.63493">
        <ele>549.4</ele>
        <time>2023-09-23T07:54:41Z</time>
      </trkpt>
      <trkpt lat="43.04483" lon="0.63495">
        <ele>549.4</ele>
        <time>2023-09-23T07:54:42Z</time>
      </trkpt>
      <trkpt lat="43.04485" lon="0.63497">
        <ele>549.4</ele>
        <time>2023-09-23T07:54:43Z</time>
      </trkpt>
      <trkpt lat="43.04488" lon="0.63501">
        <ele>549.6</ele>
        <time>2023-09-23T07:54:44Z</time>
      </trkpt>
      <trkpt lat="43.04489" lon="0.63506">
        <ele>549.6</ele>
        <time>2023-09-23T07:54:45Z</time>
      </trkpt>
      <trkpt lat="43.04492" lon="0.63511">
        <ele>549.6</ele>
        <time>2023-09-23T07:54:46Z</time>
      </trkpt>
      <trkpt lat="43.04495" lon="0.63516">
        <ele>548.6</ele>
        <time>2023-09-23T07:54:47Z</time>
      </trkpt>
      <trkpt lat="43.04501" lon="0.6352">
        <ele>546.6</ele>
        <time>2023-09-23T07:54:48Z</time>
      </trkpt>
      <trkpt lat="43.04502" lon="0.63524">
        <ele>546.6</ele>
        <time>2023-09-23T07:54:49Z</time>
      </trkpt>
      <trkpt lat="43.04504" lon="0.63527">
        <ele>546.6</ele>
        <time>2023-09-23T07:54:50Z</time>
      </trkpt>
      <trkpt lat="43.04505" lon="0.63531">
        <ele>546.2</ele>
        <time>2023-09-23T07:54:51Z</time>
      </trkpt>
      <trkpt lat="43.04506" lon="0.63535">
        <ele>545.8</ele>
        <time>2023-09-23T07:54:52Z</time>
      </trkpt>
      <trkpt lat="43.04506" lon="0.63539">
        <ele>545.8</ele>
        <time>2023-09-23T07:54:53Z</time>
      </trkpt>
      <trkpt lat="43.04507" lon="0.63543">
        <ele>545.8</ele>
        <time>2023-09-23T07:54:54Z</time>
      </trkpt>
      <trkpt lat="43.04507" lon="0.63547">
        <ele>544.8</ele>
        <time>2023-09-23T07:54:55Z</time>
      </trkpt>
      <trkpt lat="43.04508" lon="0.63551">
        <ele>543.6</ele>
        <time>2023-09-23T07:54:56Z</time>
      </trkpt>
      <trkpt lat="43.04508" lon="0.63553">
        <ele>543.6</ele>
        <time>2023-09-23T07:54:57Z</time>
      </trkpt>
      <trkpt lat="43.0451" lon="0.63558">
        <ele>543.6</ele>
        <time>2023-09-23T07:54:58Z</time>
      </trkpt>
      <trkpt lat="43.04511" lon="0.6356">
        <ele>542.6</ele>
        <time>2023-09-23T07:54:59Z</time>
      </trkpt>
      <trkpt lat="43.04512" lon="0.63562">
        <ele>542.6</ele>
        <time>2023-09-23T07:55:00Z</time>
      </trkpt>
      <trkpt lat="43.04513" lon="0.63563">
        <ele>542.6</ele>
        <time>2023-09-23T07:55:01Z</time>
      </trkpt>
      <trkpt lat="43.04513" lon="0.63564">
        <ele>542.6</ele>
        <time>2023-09-23T07:55:02Z</time>
      </trkpt>
      <trkpt lat="43.04514" lon="0.63566">
        <ele>542</ele>
        <time>2023-09-23T07:55:03Z</time>
      </trkpt>
      <trkpt lat="43.04514" lon="0.63566">
        <ele>541.8</ele>
        <time>2023-09-23T07:55:04Z</time>
      </trkpt>
      <trkpt lat="43.04514" lon="0.63566">
        <ele>541.8</ele>
        <time>2023-09-23T07:55:05Z</time>
      </trkpt>
      <trkpt lat="43.04514" lon="0.63566">
        <ele>541.8</ele>
        <time>2023-09-23T07:55:06Z</time>
      </trkpt>
      <trkpt lat="43.04531" lon="0.63605">
        <ele>534.8</ele>
        <time>2023-09-23T07:55:34Z</time>
      </trkpt>
      <trkpt lat="43.04532" lon="0.63607">
        <ele>533.8</ele>
        <time>2023-09-23T07:55:35Z</time>
      </trkpt>
      <trkpt lat="43.04532" lon="0.63608">
        <ele>533</ele>
        <time>2023-09-23T07:55:36Z</time>
      </trkpt>
      <trkpt lat="43.04532" lon="0.6361">
        <ele>533</ele>
        <time>2023-09-23T07:55:37Z</time>
      </trkpt>
      <trkpt lat="43.04532" lon="0.63612">
        <ele>533</ele>
        <time>2023-09-23T07:55:38Z</time>
      </trkpt>
      <trkpt lat="43.04533" lon="0.63614">
        <ele>532</ele>
        <time>2023-09-23T07:55:39Z</time>
      </trkpt>
      <trkpt lat="43.04533" lon="0.63616">
        <ele>531.6</ele>
        <time>2023-09-23T07:55:40Z</time>
      </trkpt>
      <trkpt lat="43.04534" lon="0.63618">
        <ele>531.6</ele>
        <time>2023-09-23T07:55:41Z</time>
      </trkpt>
      <trkpt lat="43.04534" lon="0.63621">
        <ele>531.6</ele>
        <time>2023-09-23T07:55:42Z</time>
      </trkpt>
      <trkpt lat="43.04534" lon="0.63623">
        <ele>530.6</ele>
        <time>2023-09-23T07:55:43Z</time>
      </trkpt>
      <trkpt lat="43.04535" lon="0.63625">
        <ele>529.4</ele>
        <time>2023-09-23T07:55:44Z</time>
      </trkpt>
      <trkpt lat="43.04535" lon="0.63628">
        <ele>529.4</ele>
        <time>2023-09-23T07:55:45Z</time>
      </trkpt>
      <trkpt lat="43.04535" lon="0.6363">
        <ele>529.4</ele>
        <time>2023-09-23T07:55:46Z</time>
      </trkpt>
      <trkpt lat="43.04535" lon="0.63632">
        <ele>528.4</ele>
        <time>2023-09-23T07:55:47Z</time>
      </trkpt>
      <trkpt lat="43.04534" lon="0.63634">
        <ele>526.4</ele>
        <time>2023-09-23T07:55:48Z</time>
      </trkpt>
      <trkpt lat="43.04533" lon="0.63637">
        <ele>526.4</ele>
        <time>2023-09-23T07:55:49Z</time>
      </trkpt>
      <trkpt lat="43.04533" lon="0.6364">
        <ele>526.4</ele>
        <time>2023-09-23T07:55:50Z</time>
      </trkpt>
      <trkpt lat="43.04534" lon="0.63643">
        <ele>526.4</ele>
        <time>2023-09-23T07:55:51Z</time>
      </trkpt>
      <trkpt lat="43.04535" lon="0.63646">
        <ele>524.6</ele>
        <time>2023-09-23T07:55:52Z</time>
      </trkpt>
      <trkpt lat="43.04535" lon="0.63651">
        <ele>524.6</ele>
        <time>2023-09-23T07:55:53Z</time>
      </trkpt>
      <trkpt lat="43.04536" lon="0.63656">
        <ele>524.6</ele>
        <time>2023-09-23T07:55:54Z</time>
      </trkpt>
      <trkpt lat="43.04537" lon="0.63661">
        <ele>523.6</ele>
        <time>2023-09-23T07:55:55Z</time>
      </trkpt>
      <trkpt lat="43.04539" lon="0.63668">
        <ele>519.8</ele>
        <time>2023-09-23T07:55:56Z</time>
      </trkpt>
      <trkpt lat="43.0454" lon="0.63674">
        <ele>519.8</ele>
        <time>2023-09-23T07:55:57Z</time>
      </trkpt>
      <trkpt lat="43.04542" lon="0.63679">
        <ele>519.8</ele>
        <time>2023-09-23T07:55:58Z</time>
      </trkpt>
      <trkpt lat="43.04542" lon="0.63684">
        <ele>519.8</ele>
        <time>2023-09-23T07:55:59Z</time>
      </trkpt>
      <trkpt lat="43.04543" lon="0.63687">
        <ele>518.8</ele>
        <time>2023-09-23T07:56:00Z</time>
      </trkpt>
      <trkpt lat="43.04543" lon="0.63689">
        <ele>518.8</ele>
        <time>2023-09-23T07:56:01Z</time>
      </trkpt>
      <trkpt lat="43.04544" lon="0.63691">
        <ele>518.8</ele>
        <time>2023-09-23T07:56:02Z</time>
      </trkpt>
      <trkpt lat="43.04544" lon="0.63695">
        <ele>517.8</ele>
        <time>2023-09-23T07:56:03Z</time>
      </trkpt>
      <trkpt lat="43.04544" lon="0.63698">
        <ele>515.2</ele>
        <time>2023-09-23T07:56:04Z</time>
      </trkpt>
      <trkpt lat="43.04546" lon="0.63703">
        <ele>515.2</ele>
        <time>2023-09-23T07:56:05Z</time>
      </trkpt>
      <trkpt lat="43.04547" lon="0.63705">
        <ele>515.2</ele>
        <time>2023-09-23T07:56:06Z</time>
      </trkpt>
      <trkpt lat="43.0455" lon="0.63707">
        <ele>515.4</ele>
        <time>2023-09-23T07:56:07Z</time>
      </trkpt>
      <trkpt lat="43.04553" lon="0.6371">
        <ele>515.8</ele>
        <time>2023-09-23T07:56:08Z</time>
      </trkpt>
      <trkpt lat="43.04556" lon="0.63713">
        <ele>515.8</ele>
        <time>2023-09-23T07:56:09Z</time>
      </trkpt>
      <trkpt lat="43.0456" lon="0.63717">
        <ele>515.8</ele>
        <time>2023-09-23T07:56:10Z</time>
      </trkpt>
      <trkpt lat="43.04562" lon="0.63721">
        <ele>514.8</ele>
        <time>2023-09-23T07:56:11Z</time>
      </trkpt>
      <trkpt lat="43.04564" lon="0.63726">
        <ele>514.2</ele>
        <time>2023-09-23T07:56:12Z</time>
      </trkpt>
      <trkpt lat="43.04564" lon="0.63731">
        <ele>514.2</ele>
        <time>2023-09-23T07:56:13Z</time>
      </trkpt>
      <trkpt lat="43.04565" lon="0.63736">
        <ele>514.2</ele>
        <time>2023-09-23T07:56:14Z</time>
      </trkpt>
      <trkpt lat="43.04566" lon="0.63743">
        <ele>513.2</ele>
        <time>2023-09-23T07:56:15Z</time>
      </trkpt>
      <trkpt lat="43.04567" lon="0.63749">
        <ele>511.6</ele>
        <time>2023-09-23T07:56:16Z</time>
      </trkpt>
      <trkpt lat="43.04568" lon="0.63753">
        <ele>511.6</ele>
        <time>2023-09-23T07:56:17Z</time>
      </trkpt>
      <trkpt lat="43.04567" lon="0.63756">
        <ele>511.6</ele>
        <time>2023-09-23T07:56:18Z</time>
      </trkpt>
      <trkpt lat="43.04569" lon="0.63762">
        <ele>510.6</ele>
        <time>2023-09-23T07:56:19Z</time>
      </trkpt>
      <trkpt lat="43.0457" lon="0.63769">
        <ele>509</ele>
        <time>2023-09-23T07:56:20Z</time>
      </trkpt>
      <trkpt lat="43.04571" lon="0.63775">
        <ele>509</ele>
        <time>2023-09-23T07:56:21Z</time>
      </trkpt>
      <trkpt lat="43.04572" lon="0.63782">
        <ele>509</ele>
        <time>2023-09-23T07:56:22Z</time>
      </trkpt>
      <trkpt lat="43.04573" lon="0.63788">
        <ele>508</ele>
        <time>2023-09-23T07:56:23Z</time>
      </trkpt>
      <trkpt lat="43.04574" lon="0.63794">
        <ele>507.8</ele>
        <time>2023-09-23T07:56:24Z</time>
      </trkpt>
      <trkpt lat="43.04577" lon="0.63802">
        <ele>507.8</ele>
        <time>2023-09-23T07:56:25Z</time>
      </trkpt>
      <trkpt lat="43.04579" lon="0.63809">
        <ele>507.8</ele>
        <time>2023-09-23T07:56:26Z</time>
      </trkpt>
      <trkpt lat="43.04581" lon="0.63815">
        <ele>507.6</ele>
        <time>2023-09-23T07:56:27Z</time>
      </trkpt>
      <trkpt lat="43.04584" lon="0.63824">
        <ele>507.2</ele>
        <time>2023-09-23T07:56:28Z</time>
      </trkpt>
      <trkpt lat="43.04585" lon="0.6383">
        <ele>507.2</ele>
        <time>2023-09-23T07:56:29Z</time>
      </trkpt>
      <trkpt lat="43.04584" lon="0.63835">
        <ele>507.2</ele>
        <time>2023-09-23T07:56:30Z</time>
      </trkpt>
      <trkpt lat="43.04584" lon="0.6384">
        <ele>506.2</ele>
        <time>2023-09-23T07:56:31Z</time>
      </trkpt>
      <trkpt lat="43.04583" lon="0.63844">
        <ele>505.6</ele>
        <time>2023-09-23T07:56:32Z</time>
      </trkpt>
      <trkpt lat="43.04581" lon="0.63851">
        <ele>505.6</ele>
        <time>2023-09-23T07:56:33Z</time>
      </trkpt>
      <trkpt lat="43.0458" lon="0.63855">
        <ele>505.6</ele>
        <time>2023-09-23T07:56:34Z</time>
      </trkpt>
      <trkpt lat="43.04579" lon="0.63862">
        <ele>504.6</ele>
        <time>2023-09-23T07:56:35Z</time>
      </trkpt>
      <trkpt lat="43.04577" lon="0.63868">
        <ele>500.8</ele>
        <time>2023-09-23T07:56:36Z</time>
      </trkpt>
      <trkpt lat="43.04575" lon="0.63874">
        <ele>500.8</ele>
        <time>2023-09-23T07:56:37Z</time>
      </trkpt>
      <trkpt lat="43.04572" lon="0.6388">
        <ele>500.8</ele>
        <time>2023-09-23T07:56:38Z</time>
      </trkpt>
      <trkpt lat="43.04571" lon="0.63888">
        <ele>500.8</ele>
        <time>2023-09-23T07:56:39Z</time>
      </trkpt>
      <trkpt lat="43.0457" lon="0.63898">
        <ele>499.4</ele>
        <time>2023-09-23T07:56:40Z</time>
      </trkpt>
      <trkpt lat="43.04568" lon="0.63907">
        <ele>499.4</ele>
        <time>2023-09-23T07:56:41Z</time>
      </trkpt>
      <trkpt lat="43.04566" lon="0.63915">
        <ele>499.4</ele>
        <time>2023-09-23T07:56:42Z</time>
      </trkpt>
      <trkpt lat="43.04563" lon="0.63923">
        <ele>499.4</ele>
        <time>2023-09-23T07:56:43Z</time>
      </trkpt>
      <trkpt lat="43.04561" lon="0.63929">
        <ele>497.8</ele>
        <time>2023-09-23T07:56:44Z</time>
      </trkpt>
      <trkpt lat="43.04558" lon="0.63937">
        <ele>497.8</ele>
        <time>2023-09-23T07:56:45Z</time>
      </trkpt>
      <trkpt lat="43.04556" lon="0.63947">
        <ele>497.8</ele>
        <time>2023-09-23T07:56:46Z</time>
      </trkpt>
      <trkpt lat="43.04555" lon="0.63955">
        <ele>497.8</ele>
        <time>2023-09-23T07:56:47Z</time>
      </trkpt>
      <trkpt lat="43.04553" lon="0.63963">
        <ele>496.2</ele>
        <time>2023-09-23T07:56:48Z</time>
      </trkpt>
      <trkpt lat="43.04551" lon="0.63973">
        <ele>496.2</ele>
        <time>2023-09-23T07:56:49Z</time>
      </trkpt>
      <trkpt lat="43.0455" lon="0.63983">
        <ele>496.2</ele>
        <time>2023-09-23T07:56:50Z</time>
      </trkpt>
      <trkpt lat="43.04548" lon="0.63992">
        <ele>496.2</ele>
        <time>2023-09-23T07:56:51Z</time>
      </trkpt>
      <trkpt lat="43.04546" lon="0.64001">
        <ele>495.6</ele>
        <time>2023-09-23T07:56:52Z</time>
      </trkpt>
      <trkpt lat="43.04545" lon="0.64008">
        <ele>495.6</ele>
        <time>2023-09-23T07:56:53Z</time>
      </trkpt>
      <trkpt lat="43.04546" lon="0.64015">
        <ele>495.6</ele>
        <time>2023-09-23T07:56:54Z</time>
      </trkpt>
      <trkpt lat="43.04546" lon="0.64022">
        <ele>495.6</ele>
        <time>2023-09-23T07:56:55Z</time>
      </trkpt>
      <trkpt lat="43.04547" lon="0.64024">
        <ele>497.4</ele>
        <time>2023-09-23T07:56:56Z</time>
      </trkpt>
      <trkpt lat="43.04547" lon="0.64026">
        <ele>497.4</ele>
        <time>2023-09-23T07:56:57Z</time>
      </trkpt>
      <trkpt lat="43.04547" lon="0.64026">
        <ele>497.4</ele>
        <time>2023-09-23T07:56:58Z</time>
      </trkpt>
      <trkpt lat="43.04547" lon="0.64026">
        <ele>497.8</ele>
        <time>2023-09-23T07:56:59Z</time>
      </trkpt>
      <trkpt lat="43.04554" lon="0.64057">
        <ele>499</ele>
        <time>2023-09-23T07:57:18Z</time>
      </trkpt>
      <trkpt lat="43.04555" lon="0.64059">
        <ele>499</ele>
        <time>2023-09-23T07:57:19Z</time>
      </trkpt>
      <trkpt lat="43.04556" lon="0.64061">
        <ele>500</ele>
        <time>2023-09-23T07:57:20Z</time>
      </trkpt>
      <trkpt lat="43.04557" lon="0.64062">
        <ele>500</ele>
        <time>2023-09-23T07:57:21Z</time>
      </trkpt>
      <trkpt lat="43.04558" lon="0.64065">
        <ele>500</ele>
        <time>2023-09-23T07:57:22Z</time>
      </trkpt>
      <trkpt lat="43.04558" lon="0.64066">
        <ele>500</ele>
        <time>2023-09-23T07:57:23Z</time>
      </trkpt>
      <trkpt lat="43.04556" lon="0.64088">
        <ele>499.4</ele>
        <time>2023-09-23T07:57:35Z</time>
      </trkpt>
      <trkpt lat="43.04555" lon="0.64091">
        <ele>498.8</ele>
        <time>2023-09-23T07:57:36Z</time>
      </trkpt>
      <trkpt lat="43.04554" lon="0.64095">
        <ele>498.8</ele>
        <time>2023-09-23T07:57:37Z</time>
      </trkpt>
      <trkpt lat="43.04554" lon="0.64099">
        <ele>498.8</ele>
        <time>2023-09-23T07:57:38Z</time>
      </trkpt>
      <trkpt lat="43.04553" lon="0.64102">
        <ele>498.4</ele>
        <time>2023-09-23T07:57:39Z</time>
      </trkpt>
      <trkpt lat="43.04553" lon="0.64105">
        <ele>499.4</ele>
        <time>2023-09-23T07:57:40Z</time>
      </trkpt>
      <trkpt lat="43.04552" lon="0.64107">
        <ele>499.4</ele>
        <time>2023-09-23T07:57:41Z</time>
      </trkpt>
      <trkpt lat="43.04552" lon="0.6411">
        <ele>499.4</ele>
        <time>2023-09-23T07:57:42Z</time>
      </trkpt>
      <trkpt lat="43.04553" lon="0.64113">
        <ele>499.4</ele>
        <time>2023-09-23T07:57:43Z</time>
      </trkpt>
      <trkpt lat="43.04555" lon="0.64117">
        <ele>500</ele>
        <time>2023-09-23T07:57:44Z</time>
      </trkpt>
      <trkpt lat="43.04555" lon="0.6412">
        <ele>500</ele>
        <time>2023-09-23T07:57:45Z</time>
      </trkpt>
      <trkpt lat="43.04556" lon="0.64123">
        <ele>500</ele>
        <time>2023-09-23T07:57:46Z</time>
      </trkpt>
      <trkpt lat="43.04558" lon="0.64127">
        <ele>500</ele>
        <time>2023-09-23T07:57:47Z</time>
      </trkpt>
      <trkpt lat="43.04559" lon="0.64131">
        <ele>500</ele>
        <time>2023-09-23T07:57:48Z</time>
      </trkpt>
      <trkpt lat="43.0456" lon="0.64135">
        <ele>500</ele>
        <time>2023-09-23T07:57:49Z</time>
      </trkpt>
      <trkpt lat="43.04561" lon="0.64137">
        <ele>500</ele>
        <time>2023-09-23T07:57:50Z</time>
      </trkpt>
      <trkpt lat="43.04562" lon="0.6414">
        <ele>501</ele>
        <time>2023-09-23T07:57:51Z</time>
      </trkpt>
      <trkpt lat="43.04563" lon="0.64143">
        <ele>501.4</ele>
        <time>2023-09-23T07:57:52Z</time>
      </trkpt>
      <trkpt lat="43.04564" lon="0.64145">
        <ele>501.4</ele>
        <time>2023-09-23T07:57:53Z</time>
      </trkpt>
      <trkpt lat="43.04565" lon="0.64148">
        <ele>501.4</ele>
        <time>2023-09-23T07:57:54Z</time>
      </trkpt>
      <trkpt lat="43.04567" lon="0.6415">
        <ele>502.2</ele>
        <time>2023-09-23T07:57:55Z</time>
      </trkpt>
      <trkpt lat="43.04568" lon="0.64152">
        <ele>502.2</ele>
        <time>2023-09-23T07:57:56Z</time>
      </trkpt>
      <trkpt lat="43.04568" lon="0.64155">
        <ele>502.2</ele>
        <time>2023-09-23T07:57:57Z</time>
      </trkpt>
      <trkpt lat="43.04569" lon="0.64157">
        <ele>502.2</ele>
        <time>2023-09-23T07:57:58Z</time>
      </trkpt>
      <trkpt lat="43.04571" lon="0.6416">
        <ele>502.8</ele>
        <time>2023-09-23T07:57:59Z</time>
      </trkpt>
      <trkpt lat="43.04572" lon="0.64164">
        <ele>502.8</ele>
        <time>2023-09-23T07:58:00Z</time>
      </trkpt>
      <trkpt lat="43.04573" lon="0.64168">
        <ele>502.8</ele>
        <time>2023-09-23T07:58:01Z</time>
      </trkpt>
      <trkpt lat="43.04573" lon="0.64171">
        <ele>502.8</ele>
        <time>2023-09-23T07:58:02Z</time>
      </trkpt>
      <trkpt lat="43.04574" lon="0.64174">
        <ele>502.8</ele>
        <time>2023-09-23T07:58:03Z</time>
      </trkpt>
      <trkpt lat="43.04575" lon="0.64178">
        <ele>503.6</ele>
        <time>2023-09-23T07:58:04Z</time>
      </trkpt>
      <trkpt lat="43.04576" lon="0.64182">
        <ele>503.6</ele>
        <time>2023-09-23T07:58:05Z</time>
      </trkpt>
      <trkpt lat="43.04577" lon="0.64185">
        <ele>503.6</ele>
        <time>2023-09-23T07:58:06Z</time>
      </trkpt>
      <trkpt lat="43.04578" lon="0.64187">
        <ele>503.6</ele>
        <time>2023-09-23T07:58:07Z</time>
      </trkpt>
      <trkpt lat="43.04578" lon="0.6419">
        <ele>503.4</ele>
        <time>2023-09-23T07:58:08Z</time>
      </trkpt>
      <trkpt lat="43.04579" lon="0.64193">
        <ele>503.4</ele>
        <time>2023-09-23T07:58:09Z</time>
      </trkpt>
      <trkpt lat="43.0458" lon="0.64196">
        <ele>503.4</ele>
        <time>2023-09-23T07:58:10Z</time>
      </trkpt>
      <trkpt lat="43.04582" lon="0.64199">
        <ele>503.8</ele>
        <time>2023-09-23T07:58:11Z</time>
      </trkpt>
      <trkpt lat="43.04584" lon="0.64203">
        <ele>503.8</ele>
        <time>2023-09-23T07:58:12Z</time>
      </trkpt>
      <trkpt lat="43.04586" lon="0.64205">
        <ele>503.8</ele>
        <time>2023-09-23T07:58:13Z</time>
      </trkpt>
      <trkpt lat="43.04588" lon="0.64208">
        <ele>503.8</ele>
        <time>2023-09-23T07:58:14Z</time>
      </trkpt>
      <trkpt lat="43.0459" lon="0.6421">
        <ele>504.8</ele>
        <time>2023-09-23T07:58:15Z</time>
      </trkpt>
      <trkpt lat="43.04592" lon="0.64213">
        <ele>504.6</ele>
        <time>2023-09-23T07:58:16Z</time>
      </trkpt>
      <trkpt lat="43.04593" lon="0.64214">
        <ele>504.6</ele>
        <time>2023-09-23T07:58:17Z</time>
      </trkpt>
      <trkpt lat="43.04595" lon="0.64216">
        <ele>504.6</ele>
        <time>2023-09-23T07:58:18Z</time>
      </trkpt>
      <trkpt lat="43.04597" lon="0.64217">
        <ele>504.6</ele>
        <time>2023-09-23T07:58:19Z</time>
      </trkpt>
      <trkpt lat="43.04598" lon="0.64218">
        <ele>505.8</ele>
        <time>2023-09-23T07:58:20Z</time>
      </trkpt>
      <trkpt lat="43.04599" lon="0.6422">
        <ele>505.8</ele>
        <time>2023-09-23T07:58:21Z</time>
      </trkpt>
      <trkpt lat="43.04601" lon="0.64221">
        <ele>505.8</ele>
        <time>2023-09-23T07:58:22Z</time>
      </trkpt>
      <trkpt lat="43.04603" lon="0.64222">
        <ele>506.8</ele>
        <time>2023-09-23T07:58:23Z</time>
      </trkpt>
      <trkpt lat="43.04605" lon="0.64223">
        <ele>507.4</ele>
        <time>2023-09-23T07:58:24Z</time>
      </trkpt>
      <trkpt lat="43.04606" lon="0.64225">
        <ele>507.4</ele>
        <time>2023-09-23T07:58:25Z</time>
      </trkpt>
      <trkpt lat="43.04608" lon="0.64227">
        <ele>507.4</ele>
        <time>2023-09-23T07:58:26Z</time>
      </trkpt>
      <trkpt lat="43.04609" lon="0.64229">
        <ele>507.4</ele>
        <time>2023-09-23T07:58:27Z</time>
      </trkpt>
      <trkpt lat="43.04611" lon="0.64231">
        <ele>507.6</ele>
        <time>2023-09-23T07:58:28Z</time>
      </trkpt>
      <trkpt lat="43.04612" lon="0.64233">
        <ele>507.6</ele>
        <time>2023-09-23T07:58:29Z</time>
      </trkpt>
      <trkpt lat="43.04614" lon="0.64235">
        <ele>507.6</ele>
        <time>2023-09-23T07:58:30Z</time>
      </trkpt>
      <trkpt lat="43.04615" lon="0.64238">
        <ele>507.8</ele>
        <time>2023-09-23T07:58:31Z</time>
      </trkpt>
      <trkpt lat="43.04615" lon="0.64241">
        <ele>507.8</ele>
        <time>2023-09-23T07:58:32Z</time>
      </trkpt>
      <trkpt lat="43.04616" lon="0.64244">
        <ele>507.8</ele>
        <time>2023-09-23T07:58:33Z</time>
      </trkpt>
      <trkpt lat="43.04615" lon="0.64247">
        <ele>507.8</ele>
        <time>2023-09-23T07:58:34Z</time>
      </trkpt>
      <trkpt lat="43.04615" lon="0.64249">
        <ele>507.8</ele>
        <time>2023-09-23T07:58:35Z</time>
      </trkpt>
      <trkpt lat="43.04615" lon="0.64252">
        <ele>507</ele>
        <time>2023-09-23T07:58:36Z</time>
      </trkpt>
      <trkpt lat="43.04616" lon="0.64256">
        <ele>507</ele>
        <time>2023-09-23T07:58:37Z</time>
      </trkpt>
      <trkpt lat="43.04615" lon="0.6426">
        <ele>507</ele>
        <time>2023-09-23T07:58:38Z</time>
      </trkpt>
      <trkpt lat="43.04614" lon="0.64262">
        <ele>506</ele>
        <time>2023-09-23T07:58:39Z</time>
      </trkpt>
      <trkpt lat="43.04613" lon="0.64263">
        <ele>505.4</ele>
        <time>2023-09-23T07:58:40Z</time>
      </trkpt>
      <trkpt lat="43.04611" lon="0.64263">
        <ele>505.4</ele>
        <time>2023-09-23T07:58:41Z</time>
      </trkpt>
      <trkpt lat="43.04608" lon="0.64264">
        <ele>505.4</ele>
        <time>2023-09-23T07:58:42Z</time>
      </trkpt>
      <trkpt lat="43.04604" lon="0.64264">
        <ele>505.4</ele>
        <time>2023-09-23T07:58:43Z</time>
      </trkpt>
      <trkpt lat="43.046" lon="0.64264">
        <ele>502.4</ele>
        <time>2023-09-23T07:58:44Z</time>
      </trkpt>
      <trkpt lat="43.04596" lon="0.64264">
        <ele>502.4</ele>
        <time>2023-09-23T07:58:45Z</time>
      </trkpt>
      <trkpt lat="43.0459" lon="0.64264">
        <ele>502.4</ele>
        <time>2023-09-23T07:58:46Z</time>
      </trkpt>
      <trkpt lat="43.04583" lon="0.64264">
        <ele>501.4</ele>
        <time>2023-09-23T07:58:47Z</time>
      </trkpt>
      <trkpt lat="43.04577" lon="0.64265">
        <ele>500</ele>
        <time>2023-09-23T07:58:48Z</time>
      </trkpt>
      <trkpt lat="43.0457" lon="0.64265">
        <ele>500</ele>
        <time>2023-09-23T07:58:49Z</time>
      </trkpt>
      <trkpt lat="43.04564" lon="0.64265">
        <ele>500</ele>
        <time>2023-09-23T07:58:50Z</time>
      </trkpt>
      <trkpt lat="43.04556" lon="0.64265">
        <ele>499</ele>
        <time>2023-09-23T07:58:51Z</time>
      </trkpt>
      <trkpt lat="43.04548" lon="0.64265">
        <ele>497.6</ele>
        <time>2023-09-23T07:58:52Z</time>
      </trkpt>
      <trkpt lat="43.04541" lon="0.64265">
        <ele>497.6</ele>
        <time>2023-09-23T07:58:53Z</time>
      </trkpt>
      <trkpt lat="43.04534" lon="0.64264">
        <ele>497.6</ele>
        <time>2023-09-23T07:58:54Z</time>
      </trkpt>
      <trkpt lat="43.04528" lon="0.64264">
        <ele>496.6</ele>
        <time>2023-09-23T07:58:55Z</time>
      </trkpt>
      <trkpt lat="43.04522" lon="0.64263">
        <ele>492.4</ele>
        <time>2023-09-23T07:58:56Z</time>
      </trkpt>
      <trkpt lat="43.04515" lon="0.64263">
        <ele>492.4</ele>
        <time>2023-09-23T07:58:57Z</time>
      </trkpt>
      <trkpt lat="43.04508" lon="0.64263">
        <ele>492.4</ele>
        <time>2023-09-23T07:58:58Z</time>
      </trkpt>
      <trkpt lat="43.04501" lon="0.64263">
        <ele>491.4</ele>
        <time>2023-09-23T07:58:59Z</time>
      </trkpt>
      <trkpt lat="43.04495" lon="0.64263">
        <ele>491</ele>
        <time>2023-09-23T07:59:00Z</time>
      </trkpt>
      <trkpt lat="43.04487" lon="0.64263">
        <ele>491</ele>
        <time>2023-09-23T07:59:01Z</time>
      </trkpt>
      <trkpt lat="43.0448" lon="0.64265">
        <ele>491</ele>
        <time>2023-09-23T07:59:02Z</time>
      </trkpt>
      <trkpt lat="43.04473" lon="0.64269">
        <ele>490</ele>
        <time>2023-09-23T07:59:03Z</time>
      </trkpt>
      <trkpt lat="43.04467" lon="0.64276">
        <ele>488.4</ele>
        <time>2023-09-23T07:59:04Z</time>
      </trkpt>
      <trkpt lat="43.04462" lon="0.64284">
        <ele>488.4</ele>
        <time>2023-09-23T07:59:05Z</time>
      </trkpt>
      <trkpt lat="43.04459" lon="0.64292">
        <ele>488.4</ele>
        <time>2023-09-23T07:59:06Z</time>
      </trkpt>
      <trkpt lat="43.04455" lon="0.64299">
        <ele>487.8</ele>
        <time>2023-09-23T07:59:07Z</time>
      </trkpt>
      <trkpt lat="43.0445" lon="0.64306">
        <ele>487.4</ele>
        <time>2023-09-23T07:59:08Z</time>
      </trkpt>
      <trkpt lat="43.04445" lon="0.64311">
        <ele>487.4</ele>
        <time>2023-09-23T07:59:09Z</time>
      </trkpt>
      <trkpt lat="43.0444" lon="0.64316">
        <ele>487.4</ele>
        <time>2023-09-23T07:59:10Z</time>
      </trkpt>
      <trkpt lat="43.04436" lon="0.64322">
        <ele>487.4</ele>
        <time>2023-09-23T07:59:11Z</time>
      </trkpt>
      <trkpt lat="43.04432" lon="0.64327">
        <ele>487</ele>
        <time>2023-09-23T07:59:12Z</time>
      </trkpt>
      <trkpt lat="43.04428" lon="0.64332">
        <ele>487</ele>
        <time>2023-09-23T07:59:13Z</time>
      </trkpt>
      <trkpt lat="43.04423" lon="0.64337">
        <ele>487</ele>
        <time>2023-09-23T07:59:14Z</time>
      </trkpt>
      <trkpt lat="43.04419" lon="0.64342">
        <ele>486.2</ele>
        <time>2023-09-23T07:59:15Z</time>
      </trkpt>
      <trkpt lat="43.04416" lon="0.64348">
        <ele>486.2</ele>
        <time>2023-09-23T07:59:16Z</time>
      </trkpt>
      <trkpt lat="43.04413" lon="0.64353">
        <ele>486.2</ele>
        <time>2023-09-23T07:59:17Z</time>
      </trkpt>
      <trkpt lat="43.04409" lon="0.64359">
        <ele>486.2</ele>
        <time>2023-09-23T07:59:18Z</time>
      </trkpt>
      <trkpt lat="43.04406" lon="0.64364">
        <ele>486.2</ele>
        <time>2023-09-23T07:59:19Z</time>
      </trkpt>
      <trkpt lat="43.04402" lon="0.64369">
        <ele>485.2</ele>
        <time>2023-09-23T07:59:20Z</time>
      </trkpt>
      <trkpt lat="43.044" lon="0.64375">
        <ele>485.2</ele>
        <time>2023-09-23T07:59:21Z</time>
      </trkpt>
      <trkpt lat="43.04396" lon="0.6438">
        <ele>485.2</ele>
        <time>2023-09-23T07:59:22Z</time>
      </trkpt>
      <trkpt lat="43.04394" lon="0.64385">
        <ele>485.2</ele>
        <time>2023-09-23T07:59:23Z</time>
      </trkpt>
      <trkpt lat="43.0439" lon="0.6439">
        <ele>485</ele>
        <time>2023-09-23T07:59:24Z</time>
      </trkpt>
      <trkpt lat="43.04387" lon="0.64396">
        <ele>485</ele>
        <time>2023-09-23T07:59:25Z</time>
      </trkpt>
      <trkpt lat="43.04384" lon="0.64402">
        <ele>485</ele>
        <time>2023-09-23T07:59:26Z</time>
      </trkpt>
      <trkpt lat="43.04381" lon="0.64407">
        <ele>485.2</ele>
        <time>2023-09-23T07:59:27Z</time>
      </trkpt>
      <trkpt lat="43.04378" lon="0.64413">
        <ele>485.2</ele>
        <time>2023-09-23T07:59:28Z</time>
      </trkpt>
      <trkpt lat="43.04375" lon="0.64421">
        <ele>485.2</ele>
        <time>2023-09-23T07:59:29Z</time>
      </trkpt>
      <trkpt lat="43.04373" lon="0.64428">
        <ele>485.2</ele>
        <time>2023-09-23T07:59:30Z</time>
      </trkpt>
      <trkpt lat="43.04371" lon="0.64437">
        <ele>486</ele>
        <time>2023-09-23T07:59:31Z</time>
      </trkpt>
      <trkpt lat="43.04368" lon="0.64445">
        <ele>486</ele>
        <time>2023-09-23T07:59:32Z</time>
      </trkpt>
      <trkpt lat="43.04366" lon="0.64451">
        <ele>486</ele>
        <time>2023-09-23T07:59:33Z</time>
      </trkpt>
      <trkpt lat="43.04364" lon="0.64457">
        <ele>486</ele>
        <time>2023-09-23T07:59:34Z</time>
      </trkpt>
      <trkpt lat="43.04362" lon="0.64464">
        <ele>486</ele>
        <time>2023-09-23T07:59:35Z</time>
      </trkpt>
      <trkpt lat="43.04361" lon="0.64471">
        <ele>485.8</ele>
        <time>2023-09-23T07:59:36Z</time>
      </trkpt>
      <trkpt lat="43.04359" lon="0.64477">
        <ele>485.8</ele>
        <time>2023-09-23T07:59:37Z</time>
      </trkpt>
      <trkpt lat="43.04358" lon="0.64484">
        <ele>485.8</ele>
        <time>2023-09-23T07:59:38Z</time>
      </trkpt>
      <trkpt lat="43.04355" lon="0.6449">
        <ele>484.8</ele>
        <time>2023-09-23T07:59:39Z</time>
      </trkpt>
      <trkpt lat="43.04353" lon="0.64495">
        <ele>485</ele>
        <time>2023-09-23T07:59:40Z</time>
      </trkpt>
      <trkpt lat="43.04351" lon="0.64499">
        <ele>485</ele>
        <time>2023-09-23T07:59:41Z</time>
      </trkpt>
      <trkpt lat="43.0435" lon="0.64502">
        <ele>485</ele>
        <time>2023-09-23T07:59:42Z</time>
      </trkpt>
      <trkpt lat="43.04348" lon="0.64505">
        <ele>484.6</ele>
        <time>2023-09-23T07:59:43Z</time>
      </trkpt>
      <trkpt lat="43.04347" lon="0.64506">
        <ele>485</ele>
        <time>2023-09-23T07:59:44Z</time>
      </trkpt>
      <trkpt lat="43.04345" lon="0.64508">
        <ele>485</ele>
        <time>2023-09-23T07:59:45Z</time>
      </trkpt>
      <trkpt lat="43.04345" lon="0.64508">
        <ele>485</ele>
        <time>2023-09-23T07:59:46Z</time>
      </trkpt>
      <trkpt lat="43.04338" lon="0.64516">
        <ele>484.2</ele>
        <time>2023-09-23T07:59:51Z</time>
      </trkpt>
      <trkpt lat="43.04334" lon="0.64521">
        <ele>484</ele>
        <time>2023-09-23T07:59:52Z</time>
      </trkpt>
      <trkpt lat="43.0433" lon="0.64525">
        <ele>484</ele>
        <time>2023-09-23T07:59:53Z</time>
      </trkpt>
      <trkpt lat="43.04326" lon="0.6453">
        <ele>484</ele>
        <time>2023-09-23T07:59:54Z</time>
      </trkpt>
      <trkpt lat="43.0432" lon="0.64536">
        <ele>484</ele>
        <time>2023-09-23T07:59:55Z</time>
      </trkpt>
      <trkpt lat="43.04315" lon="0.64544">
        <ele>482.8</ele>
        <time>2023-09-23T07:59:56Z</time>
      </trkpt>
      <trkpt lat="43.0431" lon="0.64551">
        <ele>482.8</ele>
        <time>2023-09-23T07:59:57Z</time>
      </trkpt>
      <trkpt lat="43.04305" lon="0.64559">
        <ele>482.8</ele>
        <time>2023-09-23T07:59:58Z</time>
      </trkpt>
      <trkpt lat="43.043" lon="0.64566">
        <ele>481.8</ele>
        <time>2023-09-23T07:59:59Z</time>
      </trkpt>
      <trkpt lat="43.04295" lon="0.64573">
        <ele>481.4</ele>
        <time>2023-09-23T08:00:00Z</time>
      </trkpt>
      <trkpt lat="43.04289" lon="0.64579">
        <ele>481.4</ele>
        <time>2023-09-23T08:00:01Z</time>
      </trkpt>
      <trkpt lat="43.04283" lon="0.64585">
        <ele>481.4</ele>
        <time>2023-09-23T08:00:02Z</time>
      </trkpt>
      <trkpt lat="43.04277" lon="0.64592">
        <ele>481.4</ele>
        <time>2023-09-23T08:00:03Z</time>
      </trkpt>
      <trkpt lat="43.04272" lon="0.64599">
        <ele>480.6</ele>
        <time>2023-09-23T08:00:04Z</time>
      </trkpt>
      <trkpt lat="43.04266" lon="0.64606">
        <ele>480.6</ele>
        <time>2023-09-23T08:00:05Z</time>
      </trkpt>
      <trkpt lat="43.04261" lon="0.64613">
        <ele>480.6</ele>
        <time>2023-09-23T08:00:06Z</time>
      </trkpt>
      <trkpt lat="43.04256" lon="0.64619">
        <ele>480.6</ele>
        <time>2023-09-23T08:00:07Z</time>
      </trkpt>
      <trkpt lat="43.0425" lon="0.64624">
        <ele>480.6</ele>
        <time>2023-09-23T08:00:08Z</time>
      </trkpt>
      <trkpt lat="43.04245" lon="0.6463">
        <ele>480.6</ele>
        <time>2023-09-23T08:00:09Z</time>
      </trkpt>
      <trkpt lat="43.04239" lon="0.64636">
        <ele>480.6</ele>
        <time>2023-09-23T08:00:10Z</time>
      </trkpt>
      <trkpt lat="43.04233" lon="0.64641">
        <ele>479.6</ele>
        <time>2023-09-23T08:00:11Z</time>
      </trkpt>
      <trkpt lat="43.04226" lon="0.64644">
        <ele>479.2</ele>
        <time>2023-09-23T08:00:12Z</time>
      </trkpt>
      <trkpt lat="43.0422" lon="0.64646">
        <ele>479.2</ele>
        <time>2023-09-23T08:00:13Z</time>
      </trkpt>
      <trkpt lat="43.04214" lon="0.64648">
        <ele>479.2</ele>
        <time>2023-09-23T08:00:14Z</time>
      </trkpt>
      <trkpt lat="43.04208" lon="0.6465">
        <ele>479.2</ele>
        <time>2023-09-23T08:00:15Z</time>
      </trkpt>
      <trkpt lat="43.04201" lon="0.64653">
        <ele>480</ele>
        <time>2023-09-23T08:00:16Z</time>
      </trkpt>
      <trkpt lat="43.04196" lon="0.64656">
        <ele>480</ele>
        <time>2023-09-23T08:00:17Z</time>
      </trkpt>
      <trkpt lat="43.04191" lon="0.6466">
        <ele>480</ele>
        <time>2023-09-23T08:00:18Z</time>
      </trkpt>
      <trkpt lat="43.04186" lon="0.64666">
        <ele>479.6</ele>
        <time>2023-09-23T08:00:19Z</time>
      </trkpt>
      <trkpt lat="43.04182" lon="0.64672">
        <ele>478.8</ele>
        <time>2023-09-23T08:00:20Z</time>
      </trkpt>
      <trkpt lat="43.04178" lon="0.64679">
        <ele>478.8</ele>
        <time>2023-09-23T08:00:21Z</time>
      </trkpt>
      <trkpt lat="43.04175" lon="0.64686">
        <ele>478.8</ele>
        <time>2023-09-23T08:00:22Z</time>
      </trkpt>
      <trkpt lat="43.04171" lon="0.64693">
        <ele>479.2</ele>
        <time>2023-09-23T08:00:23Z</time>
      </trkpt>
      <trkpt lat="43.04168" lon="0.647">
        <ele>479.2</ele>
        <time>2023-09-23T08:00:24Z</time>
      </trkpt>
      <trkpt lat="43.04164" lon="0.64707">
        <ele>479.2</ele>
        <time>2023-09-23T08:00:25Z</time>
      </trkpt>
      <trkpt lat="43.0416" lon="0.64714">
        <ele>479.2</ele>
        <time>2023-09-23T08:00:26Z</time>
      </trkpt>
      <trkpt lat="43.04157" lon="0.64721">
        <ele>479.2</ele>
        <time>2023-09-23T08:00:27Z</time>
      </trkpt>
      <trkpt lat="43.04153" lon="0.64728">
        <ele>479.6</ele>
        <time>2023-09-23T08:00:28Z</time>
      </trkpt>
      <trkpt lat="43.0415" lon="0.64734">
        <ele>479.6</ele>
        <time>2023-09-23T08:00:29Z</time>
      </trkpt>
      <trkpt lat="43.04146" lon="0.64741">
        <ele>479.6</ele>
        <time>2023-09-23T08:00:30Z</time>
      </trkpt>
      <trkpt lat="43.04143" lon="0.64747">
        <ele>479.2</ele>
        <time>2023-09-23T08:00:31Z</time>
      </trkpt>
      <trkpt lat="43.0414" lon="0.64753">
        <ele>479.6</ele>
        <time>2023-09-23T08:00:32Z</time>
      </trkpt>
      <trkpt lat="43.04137" lon="0.64759">
        <ele>479.6</ele>
        <time>2023-09-23T08:00:33Z</time>
      </trkpt>
      <trkpt lat="43.04134" lon="0.64765">
        <ele>479.6</ele>
        <time>2023-09-23T08:00:34Z</time>
      </trkpt>
      <trkpt lat="43.04132" lon="0.6477">
        <ele>479.6</ele>
        <time>2023-09-23T08:00:35Z</time>
      </trkpt>
      <trkpt lat="43.0413" lon="0.64775">
        <ele>478.4</ele>
        <time>2023-09-23T08:00:36Z</time>
      </trkpt>
      <trkpt lat="43.04129" lon="0.64779">
        <ele>478.4</ele>
        <time>2023-09-23T08:00:37Z</time>
      </trkpt>
      <trkpt lat="43.04128" lon="0.6478">
        <ele>478.4</ele>
        <time>2023-09-23T08:00:38Z</time>
      </trkpt>
      <trkpt lat="43.04128" lon="0.64781">
        <ele>479</ele>
        <time>2023-09-23T08:00:39Z</time>
      </trkpt>
      <trkpt lat="43.04128" lon="0.64781">
        <ele>478.6</ele>
        <time>2023-09-23T08:00:40Z</time>
      </trkpt>
      <trkpt lat="43.04129" lon="0.64787">
        <ele>478.2</ele>
        <time>2023-09-23T08:01:19Z</time>
      </trkpt>
      <trkpt lat="43.0413" lon="0.64792">
        <ele>477.8</ele>
        <time>2023-09-23T08:01:20Z</time>
      </trkpt>
      <trkpt lat="43.04131" lon="0.64797">
        <ele>477.8</ele>
        <time>2023-09-23T08:01:21Z</time>
      </trkpt>
      <trkpt lat="43.04132" lon="0.64803">
        <ele>477.8</ele>
        <time>2023-09-23T08:01:22Z</time>
      </trkpt>
      <trkpt lat="43.04133" lon="0.64809">
        <ele>478.2</ele>
        <time>2023-09-23T08:01:23Z</time>
      </trkpt>
      <trkpt lat="43.04134" lon="0.64814">
        <ele>478</ele>
        <time>2023-09-23T08:01:24Z</time>
      </trkpt>
      <trkpt lat="43.04135" lon="0.6482">
        <ele>478</ele>
        <time>2023-09-23T08:01:25Z</time>
      </trkpt>
      <trkpt lat="43.04137" lon="0.64826">
        <ele>478</ele>
        <time>2023-09-23T08:01:26Z</time>
      </trkpt>
      <trkpt lat="43.04138" lon="0.64831">
        <ele>478</ele>
        <time>2023-09-23T08:01:27Z</time>
      </trkpt>
      <trkpt lat="43.0414" lon="0.64837">
        <ele>478.2</ele>
        <time>2023-09-23T08:01:28Z</time>
      </trkpt>
      <trkpt lat="43.04141" lon="0.64843">
        <ele>478.2</ele>
        <time>2023-09-23T08:01:29Z</time>
      </trkpt>
      <trkpt lat="43.04143" lon="0.64849">
        <ele>478.2</ele>
        <time>2023-09-23T08:01:30Z</time>
      </trkpt>
      <trkpt lat="43.04145" lon="0.64856">
        <ele>478</ele>
        <time>2023-09-23T08:01:31Z</time>
      </trkpt>
      <trkpt lat="43.04147" lon="0.64862">
        <ele>477.8</ele>
        <time>2023-09-23T08:01:32Z</time>
      </trkpt>
      <trkpt lat="43.04149" lon="0.64869">
        <ele>477.8</ele>
        <time>2023-09-23T08:01:33Z</time>
      </trkpt>
      <trkpt lat="43.0415" lon="0.64875">
        <ele>477.8</ele>
        <time>2023-09-23T08:01:34Z</time>
      </trkpt>
      <trkpt lat="43.04152" lon="0.64881">
        <ele>477.4</ele>
        <time>2023-09-23T08:01:35Z</time>
      </trkpt>
      <trkpt lat="43.04154" lon="0.64888">
        <ele>477.4</ele>
        <time>2023-09-23T08:01:36Z</time>
      </trkpt>
      <trkpt lat="43.04156" lon="0.64894">
        <ele>477.4</ele>
        <time>2023-09-23T08:01:37Z</time>
      </trkpt>
      <trkpt lat="43.04158" lon="0.64901">
        <ele>477.4</ele>
        <time>2023-09-23T08:01:38Z</time>
      </trkpt>
      <trkpt lat="43.0416" lon="0.64907">
        <ele>476.8</ele>
        <time>2023-09-23T08:01:39Z</time>
      </trkpt>
      <trkpt lat="43.04163" lon="0.64914">
        <ele>476.6</ele>
        <time>2023-09-23T08:01:40Z</time>
      </trkpt>
      <trkpt lat="43.04165" lon="0.6492">
        <ele>476.6</ele>
        <time>2023-09-23T08:01:41Z</time>
      </trkpt>
      <trkpt lat="43.04167" lon="0.64927">
        <ele>476.6</ele>
        <time>2023-09-23T08:01:42Z</time>
      </trkpt>
      <trkpt lat="43.04169" lon="0.64934">
        <ele>476.6</ele>
        <time>2023-09-23T08:01:43Z</time>
      </trkpt>
      <trkpt lat="43.04172" lon="0.64941">
        <ele>476.8</ele>
        <time>2023-09-23T08:01:44Z</time>
      </trkpt>
      <trkpt lat="43.04174" lon="0.64948">
        <ele>476.8</ele>
        <time>2023-09-23T08:01:45Z</time>
      </trkpt>
      <trkpt lat="43.04176" lon="0.64955">
        <ele>476.8</ele>
        <time>2023-09-23T08:01:46Z</time>
      </trkpt>
      <trkpt lat="43.04179" lon="0.64962">
        <ele>476.8</ele>
        <time>2023-09-23T08:01:47Z</time>
      </trkpt>
      <trkpt lat="43.04181" lon="0.64968">
        <ele>474.8</ele>
        <time>2023-09-23T08:01:48Z</time>
      </trkpt>
      <trkpt lat="43.04184" lon="0.64975">
        <ele>474.8</ele>
        <time>2023-09-23T08:01:49Z</time>
      </trkpt>
      <trkpt lat="43.04186" lon="0.64982">
        <ele>474.8</ele>
        <time>2023-09-23T08:01:50Z</time>
      </trkpt>
      <trkpt lat="43.04189" lon="0.64988">
        <ele>475.8</ele>
        <time>2023-09-23T08:01:51Z</time>
      </trkpt>
      <trkpt lat="43.04191" lon="0.64994">
        <ele>476.6</ele>
        <time>2023-09-23T08:01:52Z</time>
      </trkpt>
      <trkpt lat="43.04193" lon="0.65001">
        <ele>476.6</ele>
        <time>2023-09-23T08:01:53Z</time>
      </trkpt>
      <trkpt lat="43.04196" lon="0.65007">
        <ele>476.6</ele>
        <time>2023-09-23T08:01:54Z</time>
      </trkpt>
      <trkpt lat="43.04198" lon="0.65012">
        <ele>475.8</ele>
        <time>2023-09-23T08:01:55Z</time>
      </trkpt>
      <trkpt lat="43.042" lon="0.65018">
        <ele>477.2</ele>
        <time>2023-09-23T08:01:56Z</time>
      </trkpt>
      <trkpt lat="43.04202" lon="0.65024">
        <ele>477.2</ele>
        <time>2023-09-23T08:01:57Z</time>
      </trkpt>
      <trkpt lat="43.04204" lon="0.65029">
        <ele>477.2</ele>
        <time>2023-09-23T08:01:58Z</time>
      </trkpt>
      <trkpt lat="43.04206" lon="0.65034">
        <ele>477.2</ele>
        <time>2023-09-23T08:01:59Z</time>
      </trkpt>
      <trkpt lat="43.04209" lon="0.65037">
        <ele>477.4</ele>
        <time>2023-09-23T08:02:00Z</time>
      </trkpt>
      <trkpt lat="43.04211" lon="0.65042">
        <ele>477.4</ele>
        <time>2023-09-23T08:02:01Z</time>
      </trkpt>
      <trkpt lat="43.04213" lon="0.65047">
        <ele>477.4</ele>
        <time>2023-09-23T08:02:02Z</time>
      </trkpt>
      <trkpt lat="43.04215" lon="0.65052">
        <ele>477.4</ele>
        <time>2023-09-23T08:02:03Z</time>
      </trkpt>
      <trkpt lat="43.04217" lon="0.65058">
        <ele>477.4</ele>
        <time>2023-09-23T08:02:04Z</time>
      </trkpt>
      <trkpt lat="43.04219" lon="0.65064">
        <ele>477.4</ele>
        <time>2023-09-23T08:02:05Z</time>
      </trkpt>
      <trkpt lat="43.04221" lon="0.6507">
        <ele>477.4</ele>
        <time>2023-09-23T08:02:06Z</time>
      </trkpt>
      <trkpt lat="43.04223" lon="0.65077">
        <ele>477.4</ele>
        <time>2023-09-23T08:02:07Z</time>
      </trkpt>
      <trkpt lat="43.04225" lon="0.65084">
        <ele>476.8</ele>
        <time>2023-09-23T08:02:08Z</time>
      </trkpt>
      <trkpt lat="43.04227" lon="0.65091">
        <ele>476.8</ele>
        <time>2023-09-23T08:02:09Z</time>
      </trkpt>
      <trkpt lat="43.04229" lon="0.65098">
        <ele>476.8</ele>
        <time>2023-09-23T08:02:10Z</time>
      </trkpt>
      <trkpt lat="43.0423" lon="0.65105">
        <ele>476.8</ele>
        <time>2023-09-23T08:02:11Z</time>
      </trkpt>
      <trkpt lat="43.04231" lon="0.65111">
        <ele>476.8</ele>
        <time>2023-09-23T08:02:12Z</time>
      </trkpt>
      <trkpt lat="43.04233" lon="0.65118">
        <ele>476.8</ele>
        <time>2023-09-23T08:02:13Z</time>
      </trkpt>
      <trkpt lat="43.04235" lon="0.65124">
        <ele>476.8</ele>
        <time>2023-09-23T08:02:14Z</time>
      </trkpt>
      <trkpt lat="43.04236" lon="0.65129">
        <ele>476.8</ele>
        <time>2023-09-23T08:02:15Z</time>
      </trkpt>
      <trkpt lat="43.04238" lon="0.65135">
        <ele>476.4</ele>
        <time>2023-09-23T08:02:16Z</time>
      </trkpt>
      <trkpt lat="43.0424" lon="0.65141">
        <ele>476.4</ele>
        <time>2023-09-23T08:02:17Z</time>
      </trkpt>
      <trkpt lat="43.04241" lon="0.65147">
        <ele>476.4</ele>
        <time>2023-09-23T08:02:18Z</time>
      </trkpt>
      <trkpt lat="43.04243" lon="0.65152">
        <ele>476.4</ele>
        <time>2023-09-23T08:02:19Z</time>
      </trkpt>
      <trkpt lat="43.04244" lon="0.65158">
        <ele>476.2</ele>
        <time>2023-09-23T08:02:20Z</time>
      </trkpt>
      <trkpt lat="43.04245" lon="0.65163">
        <ele>476.2</ele>
        <time>2023-09-23T08:02:21Z</time>
      </trkpt>
      <trkpt lat="43.04247" lon="0.65169">
        <ele>476.2</ele>
        <time>2023-09-23T08:02:22Z</time>
      </trkpt>
      <trkpt lat="43.04249" lon="0.65175">
        <ele>476.2</ele>
        <time>2023-09-23T08:02:23Z</time>
      </trkpt>
      <trkpt lat="43.04251" lon="0.65181">
        <ele>475.8</ele>
        <time>2023-09-23T08:02:24Z</time>
      </trkpt>
      <trkpt lat="43.04252" lon="0.65188">
        <ele>475.8</ele>
        <time>2023-09-23T08:02:25Z</time>
      </trkpt>
      <trkpt lat="43.04254" lon="0.65195">
        <ele>475.8</ele>
        <time>2023-09-23T08:02:26Z</time>
      </trkpt>
      <trkpt lat="43.04256" lon="0.65202">
        <ele>475.6</ele>
        <time>2023-09-23T08:02:27Z</time>
      </trkpt>
      <trkpt lat="43.04258" lon="0.65209">
        <ele>474.8</ele>
        <time>2023-09-23T08:02:28Z</time>
      </trkpt>
      <trkpt lat="43.0426" lon="0.65217">
        <ele>474.8</ele>
        <time>2023-09-23T08:02:29Z</time>
      </trkpt>
      <trkpt lat="43.04262" lon="0.65224">
        <ele>474.8</ele>
        <time>2023-09-23T08:02:30Z</time>
      </trkpt>
      <trkpt lat="43.04264" lon="0.65232">
        <ele>474.8</ele>
        <time>2023-09-23T08:02:31Z</time>
      </trkpt>
      <trkpt lat="43.04266" lon="0.65239">
        <ele>474.8</ele>
        <time>2023-09-23T08:02:32Z</time>
      </trkpt>
      <trkpt lat="43.04267" lon="0.65247">
        <ele>474.8</ele>
        <time>2023-09-23T08:02:33Z</time>
      </trkpt>
      <trkpt lat="43.04269" lon="0.65255">
        <ele>474.8</ele>
        <time>2023-09-23T08:02:34Z</time>
      </trkpt>
      <trkpt lat="43.04271" lon="0.65262">
        <ele>474.6</ele>
        <time>2023-09-23T08:02:35Z</time>
      </trkpt>
      <trkpt lat="43.04273" lon="0.6527">
        <ele>474.4</ele>
        <time>2023-09-23T08:02:36Z</time>
      </trkpt>
      <trkpt lat="43.04275" lon="0.65277">
        <ele>474.4</ele>
        <time>2023-09-23T08:02:37Z</time>
      </trkpt>
      <trkpt lat="43.04276" lon="0.65285">
        <ele>474.4</ele>
        <time>2023-09-23T08:02:38Z</time>
      </trkpt>
      <trkpt lat="43.04277" lon="0.65291">
        <ele>474.4</ele>
        <time>2023-09-23T08:02:39Z</time>
      </trkpt>
      <trkpt lat="43.04279" lon="0.65297">
        <ele>474.4</ele>
        <time>2023-09-23T08:02:40Z</time>
      </trkpt>
      <trkpt lat="43.04279" lon="0.65304">
        <ele>474.4</ele>
        <time>2023-09-23T08:02:41Z</time>
      </trkpt>
      <trkpt lat="43.04281" lon="0.65311">
        <ele>474.4</ele>
        <time>2023-09-23T08:02:42Z</time>
      </trkpt>
      <trkpt lat="43.04283" lon="0.65318">
        <ele>474.4</ele>
        <time>2023-09-23T08:02:43Z</time>
      </trkpt>
      <trkpt lat="43.04285" lon="0.65326">
        <ele>473.6</ele>
        <time>2023-09-23T08:02:44Z</time>
      </trkpt>
      <trkpt lat="43.04287" lon="0.65333">
        <ele>473.6</ele>
        <time>2023-09-23T08:02:45Z</time>
      </trkpt>
      <trkpt lat="43.04291" lon="0.6534">
        <ele>473.6</ele>
        <time>2023-09-23T08:02:46Z</time>
      </trkpt>
      <trkpt lat="43.04293" lon="0.65348">
        <ele>473.6</ele>
        <time>2023-09-23T08:02:47Z</time>
      </trkpt>
      <trkpt lat="43.04296" lon="0.65356">
        <ele>475</ele>
        <time>2023-09-23T08:02:48Z</time>
      </trkpt>
      <trkpt lat="43.04298" lon="0.65364">
        <ele>475</ele>
        <time>2023-09-23T08:02:49Z</time>
      </trkpt>
      <trkpt lat="43.043" lon="0.65371">
        <ele>475</ele>
        <time>2023-09-23T08:02:50Z</time>
      </trkpt>
      <trkpt lat="43.04302" lon="0.65379">
        <ele>474.4</ele>
        <time>2023-09-23T08:02:51Z</time>
      </trkpt>
      <trkpt lat="43.04304" lon="0.65387">
        <ele>473.8</ele>
        <time>2023-09-23T08:02:52Z</time>
      </trkpt>
      <trkpt lat="43.04306" lon="0.65396">
        <ele>473.8</ele>
        <time>2023-09-23T08:02:53Z</time>
      </trkpt>
      <trkpt lat="43.04308" lon="0.65404">
        <ele>473.8</ele>
        <time>2023-09-23T08:02:54Z</time>
      </trkpt>
      <trkpt lat="43.04309" lon="0.65413">
        <ele>473.8</ele>
        <time>2023-09-23T08:02:55Z</time>
      </trkpt>
      <trkpt lat="43.04311" lon="0.65422">
        <ele>473</ele>
        <time>2023-09-23T08:02:56Z</time>
      </trkpt>
      <trkpt lat="43.04313" lon="0.65432">
        <ele>473</ele>
        <time>2023-09-23T08:02:57Z</time>
      </trkpt>
      <trkpt lat="43.04315" lon="0.65441">
        <ele>473</ele>
        <time>2023-09-23T08:02:58Z</time>
      </trkpt>
      <trkpt lat="43.04316" lon="0.6545">
        <ele>473</ele>
        <time>2023-09-23T08:02:59Z</time>
      </trkpt>
      <trkpt lat="43.04318" lon="0.65459">
        <ele>471.8</ele>
        <time>2023-09-23T08:03:00Z</time>
      </trkpt>
      <trkpt lat="43.0432" lon="0.65467">
        <ele>471.8</ele>
        <time>2023-09-23T08:03:01Z</time>
      </trkpt>
      <trkpt lat="43.04321" lon="0.65476">
        <ele>471.8</ele>
        <time>2023-09-23T08:03:02Z</time>
      </trkpt>
      <trkpt lat="43.04323" lon="0.65485">
        <ele>472.4</ele>
        <time>2023-09-23T08:03:03Z</time>
      </trkpt>
      <trkpt lat="43.04324" lon="0.65493">
        <ele>472.2</ele>
        <time>2023-09-23T08:03:04Z</time>
      </trkpt>
      <trkpt lat="43.04325" lon="0.65502">
        <ele>472.2</ele>
        <time>2023-09-23T08:03:05Z</time>
      </trkpt>
      <trkpt lat="43.04327" lon="0.65511">
        <ele>472.2</ele>
        <time>2023-09-23T08:03:06Z</time>
      </trkpt>
      <trkpt lat="43.04328" lon="0.6552">
        <ele>471.8</ele>
        <time>2023-09-23T08:03:07Z</time>
      </trkpt>
      <trkpt lat="43.0433" lon="0.65528">
        <ele>472.6</ele>
        <time>2023-09-23T08:03:08Z</time>
      </trkpt>
      <trkpt lat="43.04331" lon="0.65537">
        <ele>472.6</ele>
        <time>2023-09-23T08:03:09Z</time>
      </trkpt>
      <trkpt lat="43.04332" lon="0.65546">
        <ele>472.6</ele>
        <time>2023-09-23T08:03:10Z</time>
      </trkpt>
      <trkpt lat="43.04333" lon="0.65554">
        <ele>471.6</ele>
        <time>2023-09-23T08:03:11Z</time>
      </trkpt>
      <trkpt lat="43.04335" lon="0.65562">
        <ele>471.8</ele>
        <time>2023-09-23T08:03:12Z</time>
      </trkpt>
      <trkpt lat="43.04337" lon="0.6557">
        <ele>471.8</ele>
        <time>2023-09-23T08:03:13Z</time>
      </trkpt>
      <trkpt lat="43.04339" lon="0.65578">
        <ele>471.8</ele>
        <time>2023-09-23T08:03:14Z</time>
      </trkpt>
      <trkpt lat="43.04342" lon="0.65586">
        <ele>471.2</ele>
        <time>2023-09-23T08:03:15Z</time>
      </trkpt>
      <trkpt lat="43.04344" lon="0.65594">
        <ele>472</ele>
        <time>2023-09-23T08:03:16Z</time>
      </trkpt>
      <trkpt lat="43.04347" lon="0.65602">
        <ele>472</ele>
        <time>2023-09-23T08:03:17Z</time>
      </trkpt>
      <trkpt lat="43.04349" lon="0.65609">
        <ele>472</ele>
        <time>2023-09-23T08:03:18Z</time>
      </trkpt>
      <trkpt lat="43.04352" lon="0.65616">
        <ele>472</ele>
        <time>2023-09-23T08:03:19Z</time>
      </trkpt>
      <trkpt lat="43.04354" lon="0.65624">
        <ele>471.8</ele>
        <time>2023-09-23T08:03:20Z</time>
      </trkpt>
      <trkpt lat="43.04357" lon="0.65631">
        <ele>471.8</ele>
        <time>2023-09-23T08:03:21Z</time>
      </trkpt>
      <trkpt lat="43.04359" lon="0.65639">
        <ele>471.8</ele>
        <time>2023-09-23T08:03:22Z</time>
      </trkpt>
      <trkpt lat="43.04361" lon="0.65646">
        <ele>472.8</ele>
        <time>2023-09-23T08:03:23Z</time>
      </trkpt>
      <trkpt lat="43.04364" lon="0.65653">
        <ele>473</ele>
        <time>2023-09-23T08:03:24Z</time>
      </trkpt>
      <trkpt lat="43.04366" lon="0.6566">
        <ele>473</ele>
        <time>2023-09-23T08:03:25Z</time>
      </trkpt>
      <trkpt lat="43.04368" lon="0.65667">
        <ele>473</ele>
        <time>2023-09-23T08:03:26Z</time>
      </trkpt>
      <trkpt lat="43.04371" lon="0.65673">
        <ele>473</ele>
        <time>2023-09-23T08:03:27Z</time>
      </trkpt>
      <trkpt lat="43.04374" lon="0.65679">
        <ele>473</ele>
        <time>2023-09-23T08:03:28Z</time>
      </trkpt>
      <trkpt lat="43.04377" lon="0.65685">
        <ele>473</ele>
        <time>2023-09-23T08:03:29Z</time>
      </trkpt>
      <trkpt lat="43.04381" lon="0.6569">
        <ele>473</ele>
        <time>2023-09-23T08:03:30Z</time>
      </trkpt>
      <trkpt lat="43.04385" lon="0.65695">
        <ele>473.6</ele>
        <time>2023-09-23T08:03:31Z</time>
      </trkpt>
      <trkpt lat="43.04388" lon="0.657">
        <ele>473.8</ele>
        <time>2023-09-23T08:03:32Z</time>
      </trkpt>
      <trkpt lat="43.04391" lon="0.65705">
        <ele>473.8</ele>
        <time>2023-09-23T08:03:33Z</time>
      </trkpt>
      <trkpt lat="43.04394" lon="0.6571">
        <ele>473.8</ele>
        <time>2023-09-23T08:03:34Z</time>
      </trkpt>
      <trkpt lat="43.04397" lon="0.65715">
        <ele>474.6</ele>
        <time>2023-09-23T08:03:35Z</time>
      </trkpt>
      <trkpt lat="43.04399" lon="0.65721">
        <ele>474.2</ele>
        <time>2023-09-23T08:03:36Z</time>
      </trkpt>
      <trkpt lat="43.044" lon="0.65727">
        <ele>474.2</ele>
        <time>2023-09-23T08:03:37Z</time>
      </trkpt>
      <trkpt lat="43.044" lon="0.65732">
        <ele>474.2</ele>
        <time>2023-09-23T08:03:38Z</time>
      </trkpt>
      <trkpt lat="43.04399" lon="0.65736">
        <ele>473.2</ele>
        <time>2023-09-23T08:03:39Z</time>
      </trkpt>
      <trkpt lat="43.04396" lon="0.6574">
        <ele>471.6</ele>
        <time>2023-09-23T08:03:40Z</time>
      </trkpt>
      <trkpt lat="43.04393" lon="0.65744">
        <ele>471.6</ele>
        <time>2023-09-23T08:03:41Z</time>
      </trkpt>
      <trkpt lat="43.0439" lon="0.65748">
        <ele>471.6</ele>
        <time>2023-09-23T08:03:42Z</time>
      </trkpt>
      <trkpt lat="43.04387" lon="0.65752">
        <ele>471.6</ele>
        <time>2023-09-23T08:03:43Z</time>
      </trkpt>
      <trkpt lat="43.04382" lon="0.65755">
        <ele>471.2</ele>
        <time>2023-09-23T08:03:44Z</time>
      </trkpt>
      <trkpt lat="43.04378" lon="0.65758">
        <ele>471.2</ele>
        <time>2023-09-23T08:03:45Z</time>
      </trkpt>
      <trkpt lat="43.04373" lon="0.6576">
        <ele>471.2</ele>
        <time>2023-09-23T08:03:46Z</time>
      </trkpt>
      <trkpt lat="43.04367" lon="0.65764">
        <ele>471.2</ele>
        <time>2023-09-23T08:03:47Z</time>
      </trkpt>
      <trkpt lat="43.04364" lon="0.65768">
        <ele>468.8</ele>
        <time>2023-09-23T08:03:48Z</time>
      </trkpt>
      <trkpt lat="43.0436" lon="0.65772">
        <ele>468.8</ele>
        <time>2023-09-23T08:03:49Z</time>
      </trkpt>
      <trkpt lat="43.04359" lon="0.65776">
        <ele>468.8</ele>
        <time>2023-09-23T08:03:50Z</time>
      </trkpt>
      <trkpt lat="43.04357" lon="0.65781">
        <ele>467.8</ele>
        <time>2023-09-23T08:03:51Z</time>
      </trkpt>
      <trkpt lat="43.04357" lon="0.65784">
        <ele>467.4</ele>
        <time>2023-09-23T08:03:52Z</time>
      </trkpt>
      <trkpt lat="43.04357" lon="0.65788">
        <ele>467.4</ele>
        <time>2023-09-23T08:03:53Z</time>
      </trkpt>
      <trkpt lat="43.04358" lon="0.65793">
        <ele>467.4</ele>
        <time>2023-09-23T08:03:54Z</time>
      </trkpt>
      <trkpt lat="43.04358" lon="0.65796">
        <ele>466.8</ele>
        <time>2023-09-23T08:03:55Z</time>
      </trkpt>
      <trkpt lat="43.04359" lon="0.658">
        <ele>466.8</ele>
        <time>2023-09-23T08:03:56Z</time>
      </trkpt>
      <trkpt lat="43.04359" lon="0.65804">
        <ele>466.8</ele>
        <time>2023-09-23T08:03:57Z</time>
      </trkpt>
      <trkpt lat="43.0436" lon="0.65808">
        <ele>466.8</ele>
        <time>2023-09-23T08:03:58Z</time>
      </trkpt>
      <trkpt lat="43.0436" lon="0.65812">
        <ele>466.8</ele>
        <time>2023-09-23T08:03:59Z</time>
      </trkpt>
      <trkpt lat="43.0436" lon="0.65817">
        <ele>466.4</ele>
        <time>2023-09-23T08:04:00Z</time>
      </trkpt>
      <trkpt lat="43.04361" lon="0.65821">
        <ele>466.4</ele>
        <time>2023-09-23T08:04:01Z</time>
      </trkpt>
      <trkpt lat="43.04361" lon="0.65825">
        <ele>466.4</ele>
        <time>2023-09-23T08:04:02Z</time>
      </trkpt>
      <trkpt lat="43.04361" lon="0.65826">
        <ele>466.8</ele>
        <time>2023-09-23T08:04:03Z</time>
      </trkpt>
      <trkpt lat="43.04361" lon="0.65827">
        <ele>467.2</ele>
        <time>2023-09-23T08:04:04Z</time>
      </trkpt>
      <trkpt lat="43.04361" lon="0.65827">
        <ele>467.2</ele>
        <time>2023-09-23T08:04:05Z</time>
      </trkpt>
      <trkpt lat="43.04362" lon="0.65838">
        <ele>466.2</ele>
        <time>2023-09-23T08:04:15Z</time>
      </trkpt>
      <trkpt lat="43.04362" lon="0.65842">
        <ele>466.4</ele>
        <time>2023-09-23T08:04:16Z</time>
      </trkpt>
      <trkpt lat="43.04363" lon="0.65848">
        <ele>466.4</ele>
        <time>2023-09-23T08:04:17Z</time>
      </trkpt>
      <trkpt lat="43.04364" lon="0.65854">
        <ele>466.4</ele>
        <time>2023-09-23T08:04:18Z</time>
      </trkpt>
      <trkpt lat="43.04366" lon="0.65859">
        <ele>466.4</ele>
        <time>2023-09-23T08:04:19Z</time>
      </trkpt>
      <trkpt lat="43.04367" lon="0.65863">
        <ele>466.8</ele>
        <time>2023-09-23T08:04:20Z</time>
      </trkpt>
      <trkpt lat="43.04369" lon="0.65868">
        <ele>466.8</ele>
        <time>2023-09-23T08:04:21Z</time>
      </trkpt>
      <trkpt lat="43.0437" lon="0.65872">
        <ele>466.8</ele>
        <time>2023-09-23T08:04:22Z</time>
      </trkpt>
      <trkpt lat="43.04371" lon="0.65876">
        <ele>465.8</ele>
        <time>2023-09-23T08:04:23Z</time>
      </trkpt>
      <trkpt lat="43.04372" lon="0.65881">
        <ele>464.6</ele>
        <time>2023-09-23T08:04:24Z</time>
      </trkpt>
      <trkpt lat="43.04372" lon="0.65885">
        <ele>464.6</ele>
        <time>2023-09-23T08:04:25Z</time>
      </trkpt>
      <trkpt lat="43.04372" lon="0.65889">
        <ele>464.6</ele>
        <time>2023-09-23T08:04:26Z</time>
      </trkpt>
      <trkpt lat="43.04372" lon="0.65894">
        <ele>464.6</ele>
        <time>2023-09-23T08:04:27Z</time>
      </trkpt>
      <trkpt lat="43.04372" lon="0.65898">
        <ele>463.8</ele>
        <time>2023-09-23T08:04:28Z</time>
      </trkpt>
      <trkpt lat="43.04371" lon="0.65902">
        <ele>463.8</ele>
        <time>2023-09-23T08:04:29Z</time>
      </trkpt>
      <trkpt lat="43.04371" lon="0.65904">
        <ele>463.8</ele>
        <time>2023-09-23T08:04:30Z</time>
      </trkpt>
      <trkpt lat="43.0437" lon="0.65908">
        <ele>463.8</ele>
        <time>2023-09-23T08:04:31Z</time>
      </trkpt>
      <trkpt lat="43.04369" lon="0.65909">
        <ele>463.4</ele>
        <time>2023-09-23T08:04:32Z</time>
      </trkpt>
      <trkpt lat="43.04368" lon="0.65911">
        <ele>463.4</ele>
        <time>2023-09-23T08:04:33Z</time>
      </trkpt>
      <trkpt lat="43.04367" lon="0.65914">
        <ele>463.4</ele>
        <time>2023-09-23T08:04:34Z</time>
      </trkpt>
      <trkpt lat="43.04366" lon="0.65916">
        <ele>462.4</ele>
        <time>2023-09-23T08:04:35Z</time>
      </trkpt>
      <trkpt lat="43.04365" lon="0.65918">
        <ele>462.2</ele>
        <time>2023-09-23T08:04:36Z</time>
      </trkpt>
      <trkpt lat="43.04365" lon="0.6592">
        <ele>462.2</ele>
        <time>2023-09-23T08:04:37Z</time>
      </trkpt>
      <trkpt lat="43.04364" lon="0.65922">
        <ele>462.2</ele>
        <time>2023-09-23T08:04:38Z</time>
      </trkpt>
      <trkpt lat="43.04364" lon="0.65924">
        <ele>461.4</ele>
        <time>2023-09-23T08:04:39Z</time>
      </trkpt>
      <trkpt lat="43.04365" lon="0.65926">
        <ele>461.8</ele>
        <time>2023-09-23T08:04:40Z</time>
      </trkpt>
      <trkpt lat="43.04365" lon="0.65927">
        <ele>461.8</ele>
        <time>2023-09-23T08:04:41Z</time>
      </trkpt>
      <trkpt lat="43.04365" lon="0.65929">
        <ele>461.8</ele>
        <time>2023-09-23T08:04:42Z</time>
      </trkpt>
      <trkpt lat="43.04366" lon="0.65931">
        <ele>461.8</ele>
        <time>2023-09-23T08:04:43Z</time>
      </trkpt>
      <trkpt lat="43.04366" lon="0.65935">
        <ele>461.2</ele>
        <time>2023-09-23T08:04:44Z</time>
      </trkpt>
      <trkpt lat="43.04365" lon="0.65938">
        <ele>461.2</ele>
        <time>2023-09-23T08:04:45Z</time>
      </trkpt>
      <trkpt lat="43.04365" lon="0.6594">
        <ele>461.2</ele>
        <time>2023-09-23T08:04:46Z</time>
      </trkpt>
      <trkpt lat="43.04364" lon="0.65943">
        <ele>461.4</ele>
        <time>2023-09-23T08:04:47Z</time>
      </trkpt>
      <trkpt lat="43.04363" lon="0.6595">
        <ele>461.2</ele>
        <time>2023-09-23T08:04:48Z</time>
      </trkpt>
      <trkpt lat="43.04362" lon="0.65954">
        <ele>461.2</ele>
        <time>2023-09-23T08:04:49Z</time>
      </trkpt>
      <trkpt lat="43.04361" lon="0.65957">
        <ele>461.2</ele>
        <time>2023-09-23T08:04:50Z</time>
      </trkpt>
      <trkpt lat="43.04359" lon="0.6596">
        <ele>462.2</ele>
        <time>2023-09-23T08:04:51Z</time>
      </trkpt>
      <trkpt lat="43.04358" lon="0.65964">
        <ele>462</ele>
        <time>2023-09-23T08:04:52Z</time>
      </trkpt>
      <trkpt lat="43.04358" lon="0.65967">
        <ele>462</ele>
        <time>2023-09-23T08:04:53Z</time>
      </trkpt>
      <trkpt lat="43.04358" lon="0.65969">
        <ele>462</ele>
        <time>2023-09-23T08:04:54Z</time>
      </trkpt>
      <trkpt lat="43.04358" lon="0.65972">
        <ele>462.2</ele>
        <time>2023-09-23T08:04:55Z</time>
      </trkpt>
      <trkpt lat="43.04357" lon="0.65976">
        <ele>463.2</ele>
        <time>2023-09-23T08:04:56Z</time>
      </trkpt>
      <trkpt lat="43.04357" lon="0.65979">
        <ele>463.2</ele>
        <time>2023-09-23T08:04:57Z</time>
      </trkpt>
      <trkpt lat="43.04357" lon="0.65982">
        <ele>463.2</ele>
        <time>2023-09-23T08:04:58Z</time>
      </trkpt>
      <trkpt lat="43.04357" lon="0.65984">
        <ele>463.2</ele>
        <time>2023-09-23T08:04:59Z</time>
      </trkpt>
      <trkpt lat="43.04356" lon="0.65987">
        <ele>464</ele>
        <time>2023-09-23T08:05:00Z</time>
      </trkpt>
      <trkpt lat="43.04357" lon="0.6599">
        <ele>464</ele>
        <time>2023-09-23T08:05:01Z</time>
      </trkpt>
      <trkpt lat="43.04358" lon="0.65994">
        <ele>464</ele>
        <time>2023-09-23T08:05:02Z</time>
      </trkpt>
      <trkpt lat="43.04359" lon="0.65999">
        <ele>463.2</ele>
        <time>2023-09-23T08:05:03Z</time>
      </trkpt>
      <trkpt lat="43.0436" lon="0.66004">
        <ele>462.8</ele>
        <time>2023-09-23T08:05:04Z</time>
      </trkpt>
      <trkpt lat="43.0436" lon="0.66009">
        <ele>462.8</ele>
        <time>2023-09-23T08:05:05Z</time>
      </trkpt>
      <trkpt lat="43.04362" lon="0.66014">
        <ele>462.8</ele>
        <time>2023-09-23T08:05:06Z</time>
      </trkpt>
      <trkpt lat="43.04363" lon="0.66018">
        <ele>462.8</ele>
        <time>2023-09-23T08:05:07Z</time>
      </trkpt>
      <trkpt lat="43.04364" lon="0.66022">
        <ele>462</ele>
        <time>2023-09-23T08:05:08Z</time>
      </trkpt>
      <trkpt lat="43.04365" lon="0.66026">
        <ele>462</ele>
        <time>2023-09-23T08:05:09Z</time>
      </trkpt>
      <trkpt lat="43.04366" lon="0.66031">
        <ele>462</ele>
        <time>2023-09-23T08:05:10Z</time>
      </trkpt>
      <trkpt lat="43.04367" lon="0.66035">
        <ele>462</ele>
        <time>2023-09-23T08:05:11Z</time>
      </trkpt>
      <trkpt lat="43.04367" lon="0.66036">
        <ele>462.4</ele>
        <time>2023-09-23T08:05:12Z</time>
      </trkpt>
      <trkpt lat="43.04367" lon="0.66036">
        <ele>462.4</ele>
        <time>2023-09-23T08:05:13Z</time>
      </trkpt>
      <trkpt lat="43.04371" lon="0.66064">
        <ele>462</ele>
        <time>2023-09-23T08:07:19Z</time>
      </trkpt>
      <trkpt lat="43.04372" lon="0.66067">
        <ele>462</ele>
        <time>2023-09-23T08:07:20Z</time>
      </trkpt>
      <trkpt lat="43.04372" lon="0.66071">
        <ele>462</ele>
        <time>2023-09-23T08:07:21Z</time>
      </trkpt>
      <trkpt lat="43.04371" lon="0.66073">
        <ele>462</ele>
        <time>2023-09-23T08:07:22Z</time>
      </trkpt>
      <trkpt lat="43.04371" lon="0.66076">
        <ele>462.4</ele>
        <time>2023-09-23T08:07:23Z</time>
      </trkpt>
      <trkpt lat="43.0437" lon="0.66079">
        <ele>463</ele>
        <time>2023-09-23T08:07:24Z</time>
      </trkpt>
      <trkpt lat="43.04369" lon="0.66082">
        <ele>463</ele>
        <time>2023-09-23T08:07:25Z</time>
      </trkpt>
      <trkpt lat="43.04369" lon="0.66085">
        <ele>463</ele>
        <time>2023-09-23T08:07:26Z</time>
      </trkpt>
      <trkpt lat="43.04369" lon="0.66088">
        <ele>463</ele>
        <time>2023-09-23T08:07:27Z</time>
      </trkpt>
      <trkpt lat="43.0437" lon="0.66091">
        <ele>463.4</ele>
        <time>2023-09-23T08:07:28Z</time>
      </trkpt>
      <trkpt lat="43.0437" lon="0.66094">
        <ele>463.4</ele>
        <time>2023-09-23T08:07:29Z</time>
      </trkpt>
      <trkpt lat="43.04371" lon="0.66097">
        <ele>463.4</ele>
        <time>2023-09-23T08:07:30Z</time>
      </trkpt>
      <trkpt lat="43.04371" lon="0.661">
        <ele>463.4</ele>
        <time>2023-09-23T08:07:31Z</time>
      </trkpt>
      <trkpt lat="43.04371" lon="0.66104">
        <ele>463.2</ele>
        <time>2023-09-23T08:07:32Z</time>
      </trkpt>
      <trkpt lat="43.04371" lon="0.66107">
        <ele>463.2</ele>
        <time>2023-09-23T08:07:33Z</time>
      </trkpt>
      <trkpt lat="43.04371" lon="0.66111">
        <ele>463.2</ele>
        <time>2023-09-23T08:07:34Z</time>
      </trkpt>
      <trkpt lat="43.0437" lon="0.66115">
        <ele>463.2</ele>
        <time>2023-09-23T08:07:35Z</time>
      </trkpt>
      <trkpt lat="43.0437" lon="0.66118">
        <ele>463</ele>
        <time>2023-09-23T08:07:36Z</time>
      </trkpt>
      <trkpt lat="43.04369" lon="0.66122">
        <ele>463</ele>
        <time>2023-09-23T08:07:37Z</time>
      </trkpt>
      <trkpt lat="43.04368" lon="0.66125">
        <ele>463</ele>
        <time>2023-09-23T08:07:38Z</time>
      </trkpt>
      <trkpt lat="43.04368" lon="0.66128">
        <ele>464</ele>
        <time>2023-09-23T08:07:39Z</time>
      </trkpt>
      <trkpt lat="43.04369" lon="0.66131">
        <ele>464.2</ele>
        <time>2023-09-23T08:07:40Z</time>
      </trkpt>
      <trkpt lat="43.0437" lon="0.66134">
        <ele>464.2</ele>
        <time>2023-09-23T08:07:41Z</time>
      </trkpt>
      <trkpt lat="43.0437" lon="0.66137">
        <ele>464.2</ele>
        <time>2023-09-23T08:07:42Z</time>
      </trkpt>
      <trkpt lat="43.0437" lon="0.6614">
        <ele>464.6</ele>
        <time>2023-09-23T08:07:43Z</time>
      </trkpt>
      <trkpt lat="43.04371" lon="0.66143">
        <ele>464.8</ele>
        <time>2023-09-23T08:07:44Z</time>
      </trkpt>
      <trkpt lat="43.04372" lon="0.66146">
        <ele>464.8</ele>
        <time>2023-09-23T08:07:45Z</time>
      </trkpt>
      <trkpt lat="43.04373" lon="0.66149">
        <ele>464.8</ele>
        <time>2023-09-23T08:07:46Z</time>
      </trkpt>
      <trkpt lat="43.04374" lon="0.66151">
        <ele>464.6</ele>
        <time>2023-09-23T08:07:47Z</time>
      </trkpt>
      <trkpt lat="43.04376" lon="0.66156">
        <ele>464.4</ele>
        <time>2023-09-23T08:07:48Z</time>
      </trkpt>
      <trkpt lat="43.04377" lon="0.6616">
        <ele>464.4</ele>
        <time>2023-09-23T08:07:49Z</time>
      </trkpt>
      <trkpt lat="43.04378" lon="0.66165">
        <ele>464.4</ele>
        <time>2023-09-23T08:07:50Z</time>
      </trkpt>
      <trkpt lat="43.04379" lon="0.6617">
        <ele>464.4</ele>
        <time>2023-09-23T08:07:51Z</time>
      </trkpt>
      <trkpt lat="43.0438" lon="0.66175">
        <ele>464.2</ele>
        <time>2023-09-23T08:07:52Z</time>
      </trkpt>
      <trkpt lat="43.04381" lon="0.66179">
        <ele>464.2</ele>
        <time>2023-09-23T08:07:53Z</time>
      </trkpt>
      <trkpt lat="43.0438" lon="0.66184">
        <ele>464.2</ele>
        <time>2023-09-23T08:07:54Z</time>
      </trkpt>
      <trkpt lat="43.0438" lon="0.6619">
        <ele>464.2</ele>
        <time>2023-09-23T08:07:55Z</time>
      </trkpt>
      <trkpt lat="43.0438" lon="0.66195">
        <ele>464.2</ele>
        <time>2023-09-23T08:07:56Z</time>
      </trkpt>
      <trkpt lat="43.0438" lon="0.662">
        <ele>464.2</ele>
        <time>2023-09-23T08:07:57Z</time>
      </trkpt>
      <trkpt lat="43.04381" lon="0.66207">
        <ele>464.2</ele>
        <time>2023-09-23T08:07:58Z</time>
      </trkpt>
      <trkpt lat="43.04382" lon="0.66212">
        <ele>464</ele>
        <time>2023-09-23T08:07:59Z</time>
      </trkpt>
      <trkpt lat="43.04383" lon="0.66218">
        <ele>464.4</ele>
        <time>2023-09-23T08:08:00Z</time>
      </trkpt>
      <trkpt lat="43.04383" lon="0.66223">
        <ele>464.4</ele>
        <time>2023-09-23T08:08:01Z</time>
      </trkpt>
      <trkpt lat="43.04383" lon="0.66227">
        <ele>464.4</ele>
        <time>2023-09-23T08:08:02Z</time>
      </trkpt>
      <trkpt lat="43.04383" lon="0.66229">
        <ele>464.4</ele>
        <time>2023-09-23T08:08:03Z</time>
      </trkpt>
      <trkpt lat="43.04383" lon="0.66229">
        <ele>464.4</ele>
        <time>2023-09-23T08:08:04Z</time>
      </trkpt>
      <trkpt lat="43.04383" lon="0.66229">
        <ele>464.4</ele>
        <time>2023-09-23T08:08:05Z</time>
      </trkpt>
      <trkpt lat="43.04383" lon="0.66244">
        <ele>464.2</ele>
        <time>2023-09-23T08:08:14Z</time>
      </trkpt>
      <trkpt lat="43.04382" lon="0.66249">
        <ele>464.2</ele>
        <time>2023-09-23T08:08:15Z</time>
      </trkpt>
      <trkpt lat="43.04382" lon="0.66254">
        <ele>464.2</ele>
        <time>2023-09-23T08:08:16Z</time>
      </trkpt>
      <trkpt lat="43.04381" lon="0.66259">
        <ele>464.2</ele>
        <time>2023-09-23T08:08:17Z</time>
      </trkpt>
      <trkpt lat="43.04381" lon="0.66264">
        <ele>464.2</ele>
        <time>2023-09-23T08:08:18Z</time>
      </trkpt>
      <trkpt lat="43.0438" lon="0.66269">
        <ele>464.4</ele>
        <time>2023-09-23T08:08:19Z</time>
      </trkpt>
      <trkpt lat="43.04379" lon="0.66273">
        <ele>464.6</ele>
        <time>2023-09-23T08:08:20Z</time>
      </trkpt>
      <trkpt lat="43.04379" lon="0.66277">
        <ele>464.6</ele>
        <time>2023-09-23T08:08:21Z</time>
      </trkpt>
      <trkpt lat="43.04378" lon="0.66281">
        <ele>464.6</ele>
        <time>2023-09-23T08:08:22Z</time>
      </trkpt>
      <trkpt lat="43.04378" lon="0.66285">
        <ele>464.8</ele>
        <time>2023-09-23T08:08:23Z</time>
      </trkpt>
      <trkpt lat="43.04377" lon="0.66289">
        <ele>466</ele>
        <time>2023-09-23T08:08:24Z</time>
      </trkpt>
      <trkpt lat="43.04376" lon="0.66291">
        <ele>466</ele>
        <time>2023-09-23T08:08:25Z</time>
      </trkpt>
      <trkpt lat="43.04376" lon="0.66294">
        <ele>466</ele>
        <time>2023-09-23T08:08:26Z</time>
      </trkpt>
      <trkpt lat="43.04374" lon="0.66296">
        <ele>465</ele>
        <time>2023-09-23T08:08:27Z</time>
      </trkpt>
      <trkpt lat="43.04374" lon="0.66298">
        <ele>465.2</ele>
        <time>2023-09-23T08:08:28Z</time>
      </trkpt>
      <trkpt lat="43.04373" lon="0.66301">
        <ele>465.2</ele>
        <time>2023-09-23T08:08:29Z</time>
      </trkpt>
      <trkpt lat="43.04372" lon="0.66304">
        <ele>465.2</ele>
        <time>2023-09-23T08:08:30Z</time>
      </trkpt>
      <trkpt lat="43.0437" lon="0.66307">
        <ele>465.2</ele>
        <time>2023-09-23T08:08:31Z</time>
      </trkpt>
      <trkpt lat="43.04369" lon="0.66309">
        <ele>466.2</ele>
        <time>2023-09-23T08:08:32Z</time>
      </trkpt>
      <trkpt lat="43.04368" lon="0.66312">
        <ele>466.2</ele>
        <time>2023-09-23T08:08:33Z</time>
      </trkpt>
      <trkpt lat="43.04367" lon="0.66316">
        <ele>466.2</ele>
        <time>2023-09-23T08:08:34Z</time>
      </trkpt>
      <trkpt lat="43.04366" lon="0.6632">
        <ele>466.2</ele>
        <time>2023-09-23T08:08:35Z</time>
      </trkpt>
      <trkpt lat="43.04366" lon="0.66324">
        <ele>465.4</ele>
        <time>2023-09-23T08:08:36Z</time>
      </trkpt>
      <trkpt lat="43.04365" lon="0.66329">
        <ele>465.4</ele>
        <time>2023-09-23T08:08:37Z</time>
      </trkpt>
      <trkpt lat="43.04365" lon="0.66335">
        <ele>465.4</ele>
        <time>2023-09-23T08:08:38Z</time>
      </trkpt>
      <trkpt lat="43.04364" lon="0.66339">
        <ele>465.4</ele>
        <time>2023-09-23T08:08:39Z</time>
      </trkpt>
      <trkpt lat="43.04364" lon="0.66343">
        <ele>465.6</ele>
        <time>2023-09-23T08:08:40Z</time>
      </trkpt>
      <trkpt lat="43.04362" lon="0.66349">
        <ele>465.6</ele>
        <time>2023-09-23T08:08:41Z</time>
      </trkpt>
      <trkpt lat="43.04362" lon="0.66354">
        <ele>465.6</ele>
        <time>2023-09-23T08:08:42Z</time>
      </trkpt>
      <trkpt lat="43.04361" lon="0.66359">
        <ele>465</ele>
        <time>2023-09-23T08:08:43Z</time>
      </trkpt>
      <trkpt lat="43.0436" lon="0.66364">
        <ele>465.4</ele>
        <time>2023-09-23T08:08:44Z</time>
      </trkpt>
      <trkpt lat="43.04359" lon="0.66369">
        <ele>465.4</ele>
        <time>2023-09-23T08:08:45Z</time>
      </trkpt>
      <trkpt lat="43.04358" lon="0.66373">
        <ele>465.4</ele>
        <time>2023-09-23T08:08:46Z</time>
      </trkpt>
      <trkpt lat="43.04357" lon="0.66377">
        <ele>465.4</ele>
        <time>2023-09-23T08:08:47Z</time>
      </trkpt>
      <trkpt lat="43.04356" lon="0.66381">
        <ele>465.2</ele>
        <time>2023-09-23T08:08:48Z</time>
      </trkpt>
      <trkpt lat="43.04355" lon="0.66386">
        <ele>465.2</ele>
        <time>2023-09-23T08:08:49Z</time>
      </trkpt>
      <trkpt lat="43.04354" lon="0.66391">
        <ele>465.2</ele>
        <time>2023-09-23T08:08:50Z</time>
      </trkpt>
      <trkpt lat="43.04352" lon="0.66395">
        <ele>465.2</ele>
        <time>2023-09-23T08:08:51Z</time>
      </trkpt>
      <trkpt lat="43.0435" lon="0.66399">
        <ele>465.8</ele>
        <time>2023-09-23T08:08:52Z</time>
      </trkpt>
      <trkpt lat="43.04349" lon="0.66403">
        <ele>465.8</ele>
        <time>2023-09-23T08:08:53Z</time>
      </trkpt>
      <trkpt lat="43.04347" lon="0.66408">
        <ele>465.8</ele>
        <time>2023-09-23T08:08:54Z</time>
      </trkpt>
      <trkpt lat="43.04346" lon="0.66411">
        <ele>465.8</ele>
        <time>2023-09-23T08:08:55Z</time>
      </trkpt>
      <trkpt lat="43.04345" lon="0.66415">
        <ele>466.2</ele>
        <time>2023-09-23T08:08:56Z</time>
      </trkpt>
      <trkpt lat="43.04343" lon="0.66417">
        <ele>466.2</ele>
        <time>2023-09-23T08:08:57Z</time>
      </trkpt>
      <trkpt lat="43.04341" lon="0.66419">
        <ele>466.2</ele>
        <time>2023-09-23T08:08:58Z</time>
      </trkpt>
      <trkpt lat="43.0434" lon="0.66421">
        <ele>466.2</ele>
        <time>2023-09-23T08:08:59Z</time>
      </trkpt>
      <trkpt lat="43.04338" lon="0.66424">
        <ele>466.4</ele>
        <time>2023-09-23T08:09:00Z</time>
      </trkpt>
      <trkpt lat="43.04336" lon="0.66425">
        <ele>466.4</ele>
        <time>2023-09-23T08:09:01Z</time>
      </trkpt>
      <trkpt lat="43.04334" lon="0.66427">
        <ele>466.4</ele>
        <time>2023-09-23T08:09:02Z</time>
      </trkpt>
      <trkpt lat="43.04331" lon="0.66429">
        <ele>466.4</ele>
        <time>2023-09-23T08:09:03Z</time>
      </trkpt>
      <trkpt lat="43.04329" lon="0.66433">
        <ele>467</ele>
        <time>2023-09-23T08:09:04Z</time>
      </trkpt>
      <trkpt lat="43.04327" lon="0.66436">
        <ele>467</ele>
        <time>2023-09-23T08:09:05Z</time>
      </trkpt>
      <trkpt lat="43.04325" lon="0.66437">
        <ele>467</ele>
        <time>2023-09-23T08:09:06Z</time>
      </trkpt>
      <trkpt lat="43.04323" lon="0.66439">
        <ele>467.6</ele>
        <time>2023-09-23T08:09:07Z</time>
      </trkpt>
      <trkpt lat="43.04321" lon="0.66442">
        <ele>467.6</ele>
        <time>2023-09-23T08:09:08Z</time>
      </trkpt>
      <trkpt lat="43.04319" lon="0.66445">
        <ele>467.6</ele>
        <time>2023-09-23T08:09:09Z</time>
      </trkpt>
      <trkpt lat="43.04318" lon="0.66447">
        <ele>467.6</ele>
        <time>2023-09-23T08:09:10Z</time>
      </trkpt>
      <trkpt lat="43.04316" lon="0.6645">
        <ele>467.6</ele>
        <time>2023-09-23T08:09:11Z</time>
      </trkpt>
      <trkpt lat="43.04315" lon="0.66452">
        <ele>467.4</ele>
        <time>2023-09-23T08:09:12Z</time>
      </trkpt>
      <trkpt lat="43.04315" lon="0.66454">
        <ele>467.4</ele>
        <time>2023-09-23T08:09:13Z</time>
      </trkpt>
      <trkpt lat="43.04314" lon="0.66456">
        <ele>467.4</ele>
        <time>2023-09-23T08:09:14Z</time>
      </trkpt>
      <trkpt lat="43.04313" lon="0.66458">
        <ele>467.4</ele>
        <time>2023-09-23T08:09:15Z</time>
      </trkpt>
      <trkpt lat="43.04312" lon="0.6646">
        <ele>468.2</ele>
        <time>2023-09-23T08:09:16Z</time>
      </trkpt>
      <trkpt lat="43.04311" lon="0.66462">
        <ele>468.2</ele>
        <time>2023-09-23T08:09:17Z</time>
      </trkpt>
      <trkpt lat="43.0431" lon="0.66464">
        <ele>468.2</ele>
        <time>2023-09-23T08:09:18Z</time>
      </trkpt>
      <trkpt lat="43.04309" lon="0.66466">
        <ele>468.2</ele>
        <time>2023-09-23T08:09:19Z</time>
      </trkpt>
      <trkpt lat="43.04307" lon="0.66469">
        <ele>467.8</ele>
        <time>2023-09-23T08:09:20Z</time>
      </trkpt>
      <trkpt lat="43.04306" lon="0.66472">
        <ele>467.8</ele>
        <time>2023-09-23T08:09:21Z</time>
      </trkpt>
      <trkpt lat="43.04305" lon="0.66475">
        <ele>467.8</ele>
        <time>2023-09-23T08:09:22Z</time>
      </trkpt>
      <trkpt lat="43.04304" lon="0.66478">
        <ele>467.6</ele>
        <time>2023-09-23T08:09:23Z</time>
      </trkpt>
      <trkpt lat="43.04302" lon="0.66481">
        <ele>468</ele>
        <time>2023-09-23T08:09:24Z</time>
      </trkpt>
      <trkpt lat="43.04301" lon="0.66485">
        <ele>468</ele>
        <time>2023-09-23T08:09:25Z</time>
      </trkpt>
      <trkpt lat="43.043" lon="0.66489">
        <ele>468</ele>
        <time>2023-09-23T08:09:26Z</time>
      </trkpt>
      <trkpt lat="43.04299" lon="0.66492">
        <ele>467.6</ele>
        <time>2023-09-23T08:09:27Z</time>
      </trkpt>
      <trkpt lat="43.04298" lon="0.66495">
        <ele>468.6</ele>
        <time>2023-09-23T08:09:28Z</time>
      </trkpt>
      <trkpt lat="43.04297" lon="0.66498">
        <ele>468.6</ele>
        <time>2023-09-23T08:09:29Z</time>
      </trkpt>
      <trkpt lat="43.04296" lon="0.665">
        <ele>468.6</ele>
        <time>2023-09-23T08:09:30Z</time>
      </trkpt>
      <trkpt lat="43.04294" lon="0.66503">
        <ele>467.6</ele>
        <time>2023-09-23T08:09:31Z</time>
      </trkpt>
      <trkpt lat="43.04291" lon="0.66505">
        <ele>467.6</ele>
        <time>2023-09-23T08:09:32Z</time>
      </trkpt>
      <trkpt lat="43.04288" lon="0.66508">
        <ele>467.6</ele>
        <time>2023-09-23T08:09:33Z</time>
      </trkpt>
      <trkpt lat="43.04285" lon="0.6651">
        <ele>467.6</ele>
        <time>2023-09-23T08:09:34Z</time>
      </trkpt>
      <trkpt lat="43.04282" lon="0.66512">
        <ele>467.6</ele>
        <time>2023-09-23T08:09:35Z</time>
      </trkpt>
      <trkpt lat="43.04278" lon="0.66514">
        <ele>467</ele>
        <time>2023-09-23T08:09:36Z</time>
      </trkpt>
      <trkpt lat="43.04274" lon="0.66515">
        <ele>467</ele>
        <time>2023-09-23T08:09:37Z</time>
      </trkpt>
      <trkpt lat="43.04269" lon="0.66517">
        <ele>467</ele>
        <time>2023-09-23T08:09:38Z</time>
      </trkpt>
      <trkpt lat="43.04264" lon="0.66519">
        <ele>467</ele>
        <time>2023-09-23T08:09:39Z</time>
      </trkpt>
      <trkpt lat="43.0426" lon="0.66521">
        <ele>467.2</ele>
        <time>2023-09-23T08:09:40Z</time>
      </trkpt>
      <trkpt lat="43.04255" lon="0.66524">
        <ele>467.2</ele>
        <time>2023-09-23T08:09:41Z</time>
      </trkpt>
      <trkpt lat="43.04249" lon="0.66526">
        <ele>467.2</ele>
        <time>2023-09-23T08:09:42Z</time>
      </trkpt>
      <trkpt lat="43.04243" lon="0.66529">
        <ele>466.2</ele>
        <time>2023-09-23T08:09:43Z</time>
      </trkpt>
      <trkpt lat="43.04238" lon="0.66532">
        <ele>465.6</ele>
        <time>2023-09-23T08:09:44Z</time>
      </trkpt>
      <trkpt lat="43.04233" lon="0.66535">
        <ele>465.6</ele>
        <time>2023-09-23T08:09:45Z</time>
      </trkpt>
      <trkpt lat="43.04227" lon="0.66537">
        <ele>465.6</ele>
        <time>2023-09-23T08:09:46Z</time>
      </trkpt>
      <trkpt lat="43.04223" lon="0.6654">
        <ele>465.6</ele>
        <time>2023-09-23T08:09:47Z</time>
      </trkpt>
      <trkpt lat="43.04218" lon="0.66543">
        <ele>464.2</ele>
        <time>2023-09-23T08:09:48Z</time>
      </trkpt>
      <trkpt lat="43.04213" lon="0.66546">
        <ele>464.2</ele>
        <time>2023-09-23T08:09:49Z</time>
      </trkpt>
      <trkpt lat="43.04209" lon="0.66549">
        <ele>464.2</ele>
        <time>2023-09-23T08:09:50Z</time>
      </trkpt>
      <trkpt lat="43.04205" lon="0.66551">
        <ele>464.4</ele>
        <time>2023-09-23T08:09:51Z</time>
      </trkpt>
      <trkpt lat="43.042" lon="0.66554">
        <ele>465</ele>
        <time>2023-09-23T08:09:52Z</time>
      </trkpt>
      <trkpt lat="43.04196" lon="0.66557">
        <ele>465</ele>
        <time>2023-09-23T08:09:53Z</time>
      </trkpt>
      <trkpt lat="43.04191" lon="0.6656">
        <ele>465</ele>
        <time>2023-09-23T08:09:54Z</time>
      </trkpt>
      <trkpt lat="43.04185" lon="0.66563">
        <ele>465</ele>
        <time>2023-09-23T08:09:55Z</time>
      </trkpt>
      <trkpt lat="43.0418" lon="0.66567">
        <ele>465</ele>
        <time>2023-09-23T08:09:56Z</time>
      </trkpt>
      <trkpt lat="43.04175" lon="0.6657">
        <ele>465</ele>
        <time>2023-09-23T08:09:57Z</time>
      </trkpt>
      <trkpt lat="43.04171" lon="0.66573">
        <ele>465</ele>
        <time>2023-09-23T08:09:58Z</time>
      </trkpt>
      <trkpt lat="43.04166" lon="0.66575">
        <ele>465</ele>
        <time>2023-09-23T08:09:59Z</time>
      </trkpt>
      <trkpt lat="43.04162" lon="0.66577">
        <ele>464.4</ele>
        <time>2023-09-23T08:10:00Z</time>
      </trkpt>
      <trkpt lat="43.04158" lon="0.66582">
        <ele>464.4</ele>
        <time>2023-09-23T08:10:01Z</time>
      </trkpt>
      <trkpt lat="43.04154" lon="0.66584">
        <ele>464.4</ele>
        <time>2023-09-23T08:10:02Z</time>
      </trkpt>
      <trkpt lat="43.04149" lon="0.66587">
        <ele>465.4</ele>
        <time>2023-09-23T08:10:03Z</time>
      </trkpt>
      <trkpt lat="43.04145" lon="0.66591">
        <ele>464.8</ele>
        <time>2023-09-23T08:10:04Z</time>
      </trkpt>
      <trkpt lat="43.04141" lon="0.66593">
        <ele>464.8</ele>
        <time>2023-09-23T08:10:05Z</time>
      </trkpt>
      <trkpt lat="43.04138" lon="0.66595">
        <ele>464.8</ele>
        <time>2023-09-23T08:10:06Z</time>
      </trkpt>
      <trkpt lat="43.04133" lon="0.66598">
        <ele>464.8</ele>
        <time>2023-09-23T08:10:07Z</time>
      </trkpt>
      <trkpt lat="43.04128" lon="0.666">
        <ele>465</ele>
        <time>2023-09-23T08:10:08Z</time>
      </trkpt>
      <trkpt lat="43.04123" lon="0.66602">
        <ele>465</ele>
        <time>2023-09-23T08:10:09Z</time>
      </trkpt>
      <trkpt lat="43.04118" lon="0.66603">
        <ele>465</ele>
        <time>2023-09-23T08:10:10Z</time>
      </trkpt>
      <trkpt lat="43.04113" lon="0.66604">
        <ele>465.8</ele>
        <time>2023-09-23T08:10:11Z</time>
      </trkpt>
      <trkpt lat="43.04109" lon="0.66606">
        <ele>465.6</ele>
        <time>2023-09-23T08:10:12Z</time>
      </trkpt>
      <trkpt lat="43.04105" lon="0.66608">
        <ele>465.6</ele>
        <time>2023-09-23T08:10:13Z</time>
      </trkpt>
      <trkpt lat="43.04101" lon="0.66609">
        <ele>465.6</ele>
        <time>2023-09-23T08:10:14Z</time>
      </trkpt>
      <trkpt lat="43.04096" lon="0.6661">
        <ele>465.8</ele>
        <time>2023-09-23T08:10:15Z</time>
      </trkpt>
      <trkpt lat="43.04092" lon="0.6661">
        <ele>466.4</ele>
        <time>2023-09-23T08:10:16Z</time>
      </trkpt>
      <trkpt lat="43.04089" lon="0.66611">
        <ele>466.4</ele>
        <time>2023-09-23T08:10:17Z</time>
      </trkpt>
      <trkpt lat="43.04085" lon="0.66611">
        <ele>466.4</ele>
        <time>2023-09-23T08:10:18Z</time>
      </trkpt>
      <trkpt lat="43.04082" lon="0.66614">
        <ele>466.4</ele>
        <time>2023-09-23T08:10:19Z</time>
      </trkpt>
      <trkpt lat="43.04079" lon="0.66616">
        <ele>467.2</ele>
        <time>2023-09-23T08:10:20Z</time>
      </trkpt>
      <trkpt lat="43.04076" lon="0.66617">
        <ele>467.2</ele>
        <time>2023-09-23T08:10:21Z</time>
      </trkpt>
      <trkpt lat="43.04072" lon="0.66618">
        <ele>467.2</ele>
        <time>2023-09-23T08:10:22Z</time>
      </trkpt>
      <trkpt lat="43.04069" lon="0.66619">
        <ele>467.2</ele>
        <time>2023-09-23T08:10:23Z</time>
      </trkpt>
      <trkpt lat="43.04067" lon="0.66621">
        <ele>467.2</ele>
        <time>2023-09-23T08:10:24Z</time>
      </trkpt>
      <trkpt lat="43.04065" lon="0.66621">
        <ele>467.2</ele>
        <time>2023-09-23T08:10:25Z</time>
      </trkpt>
      <trkpt lat="43.04063" lon="0.66623">
        <ele>467.2</ele>
        <time>2023-09-23T08:10:26Z</time>
      </trkpt>
      <trkpt lat="43.04061" lon="0.66623">
        <ele>468</ele>
        <time>2023-09-23T08:10:27Z</time>
      </trkpt>
      <trkpt lat="43.04059" lon="0.66624">
        <ele>468.4</ele>
        <time>2023-09-23T08:10:28Z</time>
      </trkpt>
      <trkpt lat="43.04058" lon="0.66627">
        <ele>468.4</ele>
        <time>2023-09-23T08:10:29Z</time>
      </trkpt>
      <trkpt lat="43.04057" lon="0.66628">
        <ele>468.4</ele>
        <time>2023-09-23T08:10:30Z</time>
      </trkpt>
      <trkpt lat="43.04055" lon="0.6663">
        <ele>468.4</ele>
        <time>2023-09-23T08:10:31Z</time>
      </trkpt>
      <trkpt lat="43.04053" lon="0.66632">
        <ele>469.6</ele>
        <time>2023-09-23T08:10:32Z</time>
      </trkpt>
      <trkpt lat="43.04052" lon="0.66633">
        <ele>469.6</ele>
        <time>2023-09-23T08:10:33Z</time>
      </trkpt>
      <trkpt lat="43.0405" lon="0.66635">
        <ele>469.6</ele>
        <time>2023-09-23T08:10:34Z</time>
      </trkpt>
      <trkpt lat="43.04048" lon="0.66637">
        <ele>469.6</ele>
        <time>2023-09-23T08:10:35Z</time>
      </trkpt>
      <trkpt lat="43.04047" lon="0.66638">
        <ele>470.4</ele>
        <time>2023-09-23T08:10:36Z</time>
      </trkpt>
      <trkpt lat="43.04046" lon="0.6664">
        <ele>470.4</ele>
        <time>2023-09-23T08:10:37Z</time>
      </trkpt>
      <trkpt lat="43.04044" lon="0.66643">
        <ele>470.4</ele>
        <time>2023-09-23T08:10:38Z</time>
      </trkpt>
      <trkpt lat="43.04043" lon="0.66645">
        <ele>471.4</ele>
        <time>2023-09-23T08:10:39Z</time>
      </trkpt>
      <trkpt lat="43.04042" lon="0.66647">
        <ele>471</ele>
        <time>2023-09-23T08:10:40Z</time>
      </trkpt>
      <trkpt lat="43.04041" lon="0.6665">
        <ele>471</ele>
        <time>2023-09-23T08:10:41Z</time>
      </trkpt>
      <trkpt lat="43.0404" lon="0.66652">
        <ele>471</ele>
        <time>2023-09-23T08:10:42Z</time>
      </trkpt>
      <trkpt lat="43.04038" lon="0.66654">
        <ele>472</ele>
        <time>2023-09-23T08:10:43Z</time>
      </trkpt>
      <trkpt lat="43.04037" lon="0.66656">
        <ele>471.8</ele>
        <time>2023-09-23T08:10:44Z</time>
      </trkpt>
      <trkpt lat="43.04036" lon="0.66657">
        <ele>471.8</ele>
        <time>2023-09-23T08:10:45Z</time>
      </trkpt>
      <trkpt lat="43.04035" lon="0.66659">
        <ele>471.8</ele>
        <time>2023-09-23T08:10:46Z</time>
      </trkpt>
      <trkpt lat="43.04033" lon="0.66661">
        <ele>472.6</ele>
        <time>2023-09-23T08:10:47Z</time>
      </trkpt>
      <trkpt lat="43.04032" lon="0.66662">
        <ele>473</ele>
        <time>2023-09-23T08:10:48Z</time>
      </trkpt>
      <trkpt lat="43.0403" lon="0.66663">
        <ele>473</ele>
        <time>2023-09-23T08:10:49Z</time>
      </trkpt>
      <trkpt lat="43.04029" lon="0.66664">
        <ele>473</ele>
        <time>2023-09-23T08:10:50Z</time>
      </trkpt>
      <trkpt lat="43.04027" lon="0.66665">
        <ele>473.4</ele>
        <time>2023-09-23T08:10:51Z</time>
      </trkpt>
      <trkpt lat="43.04025" lon="0.66665">
        <ele>472.8</ele>
        <time>2023-09-23T08:10:52Z</time>
      </trkpt>
      <trkpt lat="43.04023" lon="0.66665">
        <ele>472.8</ele>
        <time>2023-09-23T08:10:53Z</time>
      </trkpt>
      <trkpt lat="43.04022" lon="0.66664">
        <ele>472.8</ele>
        <time>2023-09-23T08:10:54Z</time>
      </trkpt>
      <trkpt lat="43.0402" lon="0.66664">
        <ele>473.8</ele>
        <time>2023-09-23T08:10:55Z</time>
      </trkpt>
      <trkpt lat="43.04019" lon="0.66664">
        <ele>474.2</ele>
        <time>2023-09-23T08:10:56Z</time>
      </trkpt>
      <trkpt lat="43.04017" lon="0.66663">
        <ele>474.2</ele>
        <time>2023-09-23T08:10:57Z</time>
      </trkpt>
      <trkpt lat="43.04016" lon="0.66663">
        <ele>474.2</ele>
        <time>2023-09-23T08:10:58Z</time>
      </trkpt>
      <trkpt lat="43.04014" lon="0.66662">
        <ele>474.2</ele>
        <time>2023-09-23T08:10:59Z</time>
      </trkpt>
      <trkpt lat="43.04012" lon="0.66661">
        <ele>475</ele>
        <time>2023-09-23T08:11:00Z</time>
      </trkpt>
      <trkpt lat="43.04011" lon="0.6666">
        <ele>475</ele>
        <time>2023-09-23T08:11:01Z</time>
      </trkpt>
      <trkpt lat="43.0401" lon="0.6666">
        <ele>475</ele>
        <time>2023-09-23T08:11:02Z</time>
      </trkpt>
      <trkpt lat="43.04008" lon="0.66659">
        <ele>476</ele>
        <time>2023-09-23T08:11:03Z</time>
      </trkpt>
      <trkpt lat="43.04005" lon="0.66658">
        <ele>476</ele>
        <time>2023-09-23T08:11:04Z</time>
      </trkpt>
      <trkpt lat="43.04004" lon="0.66657">
        <ele>476</ele>
        <time>2023-09-23T08:11:05Z</time>
      </trkpt>
      <trkpt lat="43.04002" lon="0.66656">
        <ele>476</ele>
        <time>2023-09-23T08:11:06Z</time>
      </trkpt>
      <trkpt lat="43.03999" lon="0.66655">
        <ele>476.6</ele>
        <time>2023-09-23T08:11:07Z</time>
      </trkpt>
      <trkpt lat="43.03996" lon="0.66653">
        <ele>477.4</ele>
        <time>2023-09-23T08:11:08Z</time>
      </trkpt>
      <trkpt lat="43.03994" lon="0.66652">
        <ele>477.4</ele>
        <time>2023-09-23T08:11:09Z</time>
      </trkpt>
      <trkpt lat="43.03992" lon="0.66651">
        <ele>477.4</ele>
        <time>2023-09-23T08:11:10Z</time>
      </trkpt>
      <trkpt lat="43.0399" lon="0.6665">
        <ele>477.4</ele>
        <time>2023-09-23T08:11:11Z</time>
      </trkpt>
      <trkpt lat="43.03988" lon="0.66649">
        <ele>478.4</ele>
        <time>2023-09-23T08:11:12Z</time>
      </trkpt>
      <trkpt lat="43.03986" lon="0.66648">
        <ele>478.4</ele>
        <time>2023-09-23T08:11:13Z</time>
      </trkpt>
      <trkpt lat="43.03984" lon="0.66647">
        <ele>478.4</ele>
        <time>2023-09-23T08:11:14Z</time>
      </trkpt>
      <trkpt lat="43.03982" lon="0.66646">
        <ele>478.4</ele>
        <time>2023-09-23T08:11:15Z</time>
      </trkpt>
      <trkpt lat="43.0398" lon="0.66645">
        <ele>478.4</ele>
        <time>2023-09-23T08:11:16Z</time>
      </trkpt>
      <trkpt lat="43.03978" lon="0.66644">
        <ele>478.4</ele>
        <time>2023-09-23T08:11:17Z</time>
      </trkpt>
      <trkpt lat="43.03976" lon="0.66642">
        <ele>478.4</ele>
        <time>2023-09-23T08:11:18Z</time>
      </trkpt>
      <trkpt lat="43.03974" lon="0.66641">
        <ele>479.4</ele>
        <time>2023-09-23T08:11:19Z</time>
      </trkpt>
      <trkpt lat="43.03973" lon="0.6664">
        <ele>480.4</ele>
        <time>2023-09-23T08:11:20Z</time>
      </trkpt>
      <trkpt lat="43.03971" lon="0.66639">
        <ele>480.4</ele>
        <time>2023-09-23T08:11:21Z</time>
      </trkpt>
      <trkpt lat="43.03969" lon="0.66639">
        <ele>480.4</ele>
        <time>2023-09-23T08:11:22Z</time>
      </trkpt>
      <trkpt lat="43.03967" lon="0.66639">
        <ele>480.4</ele>
        <time>2023-09-23T08:11:23Z</time>
      </trkpt>
      <trkpt lat="43.03965" lon="0.66638">
        <ele>481.4</ele>
        <time>2023-09-23T08:11:24Z</time>
      </trkpt>
      <trkpt lat="43.03963" lon="0.66636">
        <ele>481.4</ele>
        <time>2023-09-23T08:11:25Z</time>
      </trkpt>
      <trkpt lat="43.0396" lon="0.66635">
        <ele>481.4</ele>
        <time>2023-09-23T08:11:26Z</time>
      </trkpt>
      <trkpt lat="43.03958" lon="0.66634">
        <ele>481.4</ele>
        <time>2023-09-23T08:11:27Z</time>
      </trkpt>
      <trkpt lat="43.03955" lon="0.66633">
        <ele>481.6</ele>
        <time>2023-09-23T08:11:28Z</time>
      </trkpt>
      <trkpt lat="43.03953" lon="0.66632">
        <ele>481.6</ele>
        <time>2023-09-23T08:11:29Z</time>
      </trkpt>
      <trkpt lat="43.03951" lon="0.66631">
        <ele>481.6</ele>
        <time>2023-09-23T08:11:30Z</time>
      </trkpt>
      <trkpt lat="43.03948" lon="0.66629">
        <ele>481.6</ele>
        <time>2023-09-23T08:11:31Z</time>
      </trkpt>
      <trkpt lat="43.03946" lon="0.66627">
        <ele>482.6</ele>
        <time>2023-09-23T08:11:32Z</time>
      </trkpt>
      <trkpt lat="43.03943" lon="0.66626">
        <ele>482.6</ele>
        <time>2023-09-23T08:11:33Z</time>
      </trkpt>
      <trkpt lat="43.03941" lon="0.66624">
        <ele>482.6</ele>
        <time>2023-09-23T08:11:34Z</time>
      </trkpt>
      <trkpt lat="43.03938" lon="0.66623">
        <ele>483.6</ele>
        <time>2023-09-23T08:11:35Z</time>
      </trkpt>
      <trkpt lat="43.03935" lon="0.66622">
        <ele>483.6</ele>
        <time>2023-09-23T08:11:36Z</time>
      </trkpt>
      <trkpt lat="43.03932" lon="0.66621">
        <ele>483.6</ele>
        <time>2023-09-23T08:11:37Z</time>
      </trkpt>
      <trkpt lat="43.0393" lon="0.66621">
        <ele>483.6</ele>
        <time>2023-09-23T08:11:38Z</time>
      </trkpt>
      <trkpt lat="43.03927" lon="0.6662">
        <ele>484.2</ele>
        <time>2023-09-23T08:11:39Z</time>
      </trkpt>
      <trkpt lat="43.03924" lon="0.66619">
        <ele>484.4</ele>
        <time>2023-09-23T08:11:40Z</time>
      </trkpt>
      <trkpt lat="43.03921" lon="0.66618">
        <ele>484.4</ele>
        <time>2023-09-23T08:11:41Z</time>
      </trkpt>
      <trkpt lat="43.03918" lon="0.66617">
        <ele>484.4</ele>
        <time>2023-09-23T08:11:42Z</time>
      </trkpt>
      <trkpt lat="43.03915" lon="0.66616">
        <ele>485</ele>
        <time>2023-09-23T08:11:43Z</time>
      </trkpt>
      <trkpt lat="43.03913" lon="0.66615">
        <ele>485.2</ele>
        <time>2023-09-23T08:11:44Z</time>
      </trkpt>
      <trkpt lat="43.0391" lon="0.66614">
        <ele>485.2</ele>
        <time>2023-09-23T08:11:45Z</time>
      </trkpt>
      <trkpt lat="43.03907" lon="0.66613">
        <ele>485.2</ele>
        <time>2023-09-23T08:11:46Z</time>
      </trkpt>
      <trkpt lat="43.03904" lon="0.66613">
        <ele>485.2</ele>
        <time>2023-09-23T08:11:47Z</time>
      </trkpt>
      <trkpt lat="43.03901" lon="0.66612">
        <ele>485.4</ele>
        <time>2023-09-23T08:11:48Z</time>
      </trkpt>
      <trkpt lat="43.03899" lon="0.66611">
        <ele>485.4</ele>
        <time>2023-09-23T08:11:49Z</time>
      </trkpt>
      <trkpt lat="43.03896" lon="0.6661">
        <ele>485.4</ele>
        <time>2023-09-23T08:11:50Z</time>
      </trkpt>
      <trkpt lat="43.03893" lon="0.66609">
        <ele>486</ele>
        <time>2023-09-23T08:11:51Z</time>
      </trkpt>
      <trkpt lat="43.03891" lon="0.66609">
        <ele>485.8</ele>
        <time>2023-09-23T08:11:52Z</time>
      </trkpt>
      <trkpt lat="43.03888" lon="0.66609">
        <ele>485.8</ele>
        <time>2023-09-23T08:11:53Z</time>
      </trkpt>
      <trkpt lat="43.03885" lon="0.66608">
        <ele>485.8</ele>
        <time>2023-09-23T08:11:54Z</time>
      </trkpt>
      <trkpt lat="43.03883" lon="0.66607">
        <ele>485.8</ele>
        <time>2023-09-23T08:11:55Z</time>
      </trkpt>
      <trkpt lat="43.0388" lon="0.66606">
        <ele>486.2</ele>
        <time>2023-09-23T08:11:56Z</time>
      </trkpt>
      <trkpt lat="43.03877" lon="0.66605">
        <ele>486.2</ele>
        <time>2023-09-23T08:11:57Z</time>
      </trkpt>
      <trkpt lat="43.03874" lon="0.66604">
        <ele>486.2</ele>
        <time>2023-09-23T08:11:58Z</time>
      </trkpt>
      <trkpt lat="43.03871" lon="0.66603">
        <ele>487.2</ele>
        <time>2023-09-23T08:11:59Z</time>
      </trkpt>
      <trkpt lat="43.03868" lon="0.66602">
        <ele>487</ele>
        <time>2023-09-23T08:12:00Z</time>
      </trkpt>
      <trkpt lat="43.03865" lon="0.66601">
        <ele>487</ele>
        <time>2023-09-23T08:12:01Z</time>
      </trkpt>
      <trkpt lat="43.03862" lon="0.66601">
        <ele>487</ele>
        <time>2023-09-23T08:12:02Z</time>
      </trkpt>
      <trkpt lat="43.03859" lon="0.666">
        <ele>487.8</ele>
        <time>2023-09-23T08:12:03Z</time>
      </trkpt>
      <trkpt lat="43.03856" lon="0.666">
        <ele>487.6</ele>
        <time>2023-09-23T08:12:04Z</time>
      </trkpt>
      <trkpt lat="43.03854" lon="0.666">
        <ele>487.6</ele>
        <time>2023-09-23T08:12:05Z</time>
      </trkpt>
      <trkpt lat="43.03851" lon="0.666">
        <ele>487.6</ele>
        <time>2023-09-23T08:12:06Z</time>
      </trkpt>
      <trkpt lat="43.03847" lon="0.666">
        <ele>488.2</ele>
        <time>2023-09-23T08:12:07Z</time>
      </trkpt>
      <trkpt lat="43.03844" lon="0.666">
        <ele>488.6</ele>
        <time>2023-09-23T08:12:08Z</time>
      </trkpt>
      <trkpt lat="43.03841" lon="0.666">
        <ele>488.6</ele>
        <time>2023-09-23T08:12:09Z</time>
      </trkpt>
      <trkpt lat="43.03838" lon="0.666">
        <ele>488.6</ele>
        <time>2023-09-23T08:12:10Z</time>
      </trkpt>
      <trkpt lat="43.03835" lon="0.66601">
        <ele>488</ele>
        <time>2023-09-23T08:12:11Z</time>
      </trkpt>
      <trkpt lat="43.03832" lon="0.66602">
        <ele>488.2</ele>
        <time>2023-09-23T08:12:12Z</time>
      </trkpt>
      <trkpt lat="43.03828" lon="0.66603">
        <ele>488.2</ele>
        <time>2023-09-23T08:12:13Z</time>
      </trkpt>
      <trkpt lat="43.03825" lon="0.66604">
        <ele>488.2</ele>
        <time>2023-09-23T08:12:14Z</time>
      </trkpt>
      <trkpt lat="43.03821" lon="0.66606">
        <ele>488.2</ele>
        <time>2023-09-23T08:12:15Z</time>
      </trkpt>
      <trkpt lat="43.03818" lon="0.66608">
        <ele>488.6</ele>
        <time>2023-09-23T08:12:16Z</time>
      </trkpt>
      <trkpt lat="43.03815" lon="0.66609">
        <ele>488.6</ele>
        <time>2023-09-23T08:12:17Z</time>
      </trkpt>
      <trkpt lat="43.03812" lon="0.6661">
        <ele>488.6</ele>
        <time>2023-09-23T08:12:18Z</time>
      </trkpt>
      <trkpt lat="43.0381" lon="0.6661">
        <ele>488.2</ele>
        <time>2023-09-23T08:12:19Z</time>
      </trkpt>
      <trkpt lat="43.03809" lon="0.66611">
        <ele>488.6</ele>
        <time>2023-09-23T08:12:20Z</time>
      </trkpt>
      <trkpt lat="43.03807" lon="0.66612">
        <ele>488.6</ele>
        <time>2023-09-23T08:12:21Z</time>
      </trkpt>
      <trkpt lat="43.03806" lon="0.66612">
        <ele>488.6</ele>
        <time>2023-09-23T08:12:22Z</time>
      </trkpt>
      <trkpt lat="43.03804" lon="0.66614">
        <ele>487.6</ele>
        <time>2023-09-23T08:12:23Z</time>
      </trkpt>
      <trkpt lat="43.03803" lon="0.66617">
        <ele>487.6</ele>
        <time>2023-09-23T08:12:24Z</time>
      </trkpt>
      <trkpt lat="43.03801" lon="0.66622">
        <ele>487.6</ele>
        <time>2023-09-23T08:12:25Z</time>
      </trkpt>
      <trkpt lat="43.03799" lon="0.66626">
        <ele>487.6</ele>
        <time>2023-09-23T08:12:26Z</time>
      </trkpt>
      <trkpt lat="43.03796" lon="0.66631">
        <ele>487.6</ele>
        <time>2023-09-23T08:12:27Z</time>
      </trkpt>
      <trkpt lat="43.03793" lon="0.66637">
        <ele>485.8</ele>
        <time>2023-09-23T08:12:28Z</time>
      </trkpt>
      <trkpt lat="43.03791" lon="0.66643">
        <ele>485.8</ele>
        <time>2023-09-23T08:12:29Z</time>
      </trkpt>
      <trkpt lat="43.03788" lon="0.6665">
        <ele>485.8</ele>
        <time>2023-09-23T08:12:30Z</time>
      </trkpt>
      <trkpt lat="43.03784" lon="0.66657">
        <ele>484.8</ele>
        <time>2023-09-23T08:12:31Z</time>
      </trkpt>
      <trkpt lat="43.0378" lon="0.66664">
        <ele>483.6</ele>
        <time>2023-09-23T08:12:32Z</time>
      </trkpt>
      <trkpt lat="43.03775" lon="0.66669">
        <ele>483.6</ele>
        <time>2023-09-23T08:12:33Z</time>
      </trkpt>
      <trkpt lat="43.03771" lon="0.66673">
        <ele>483.6</ele>
        <time>2023-09-23T08:12:34Z</time>
      </trkpt>
      <trkpt lat="43.03767" lon="0.66676">
        <ele>482.6</ele>
        <time>2023-09-23T08:12:35Z</time>
      </trkpt>
      <trkpt lat="43.03765" lon="0.66681">
        <ele>482.8</ele>
        <time>2023-09-23T08:12:36Z</time>
      </trkpt>
      <trkpt lat="43.03763" lon="0.66685">
        <ele>482.8</ele>
        <time>2023-09-23T08:12:37Z</time>
      </trkpt>
      <trkpt lat="43.03762" lon="0.66687">
        <ele>482.8</ele>
        <time>2023-09-23T08:12:38Z</time>
      </trkpt>
      <trkpt lat="43.03762" lon="0.66689">
        <ele>483.2</ele>
        <time>2023-09-23T08:12:39Z</time>
      </trkpt>
      <trkpt lat="43.03763" lon="0.6669">
        <ele>483.4</ele>
        <time>2023-09-23T08:12:40Z</time>
      </trkpt>
      <trkpt lat="43.03763" lon="0.66689">
        <ele>483.4</ele>
        <time>2023-09-23T08:12:41Z</time>
      </trkpt>
      <trkpt lat="43.03764" lon="0.66687">
        <ele>483.4</ele>
        <time>2023-09-23T08:12:42Z</time>
      </trkpt>
      <trkpt lat="43.03763" lon="0.66685">
        <ele>482.4</ele>
        <time>2023-09-23T08:12:43Z</time>
      </trkpt>
      <trkpt lat="43.03762" lon="0.66683">
        <ele>482.6</ele>
        <time>2023-09-23T08:12:44Z</time>
      </trkpt>
      <trkpt lat="43.03761" lon="0.6668">
        <ele>482.6</ele>
        <time>2023-09-23T08:12:45Z</time>
      </trkpt>
      <trkpt lat="43.03759" lon="0.66675">
        <ele>482.6</ele>
        <time>2023-09-23T08:12:46Z</time>
      </trkpt>
      <trkpt lat="43.03756" lon="0.6667">
        <ele>481.6</ele>
        <time>2023-09-23T08:12:47Z</time>
      </trkpt>
      <trkpt lat="43.03753" lon="0.66664">
        <ele>479.6</ele>
        <time>2023-09-23T08:12:48Z</time>
      </trkpt>
      <trkpt lat="43.0375" lon="0.66657">
        <ele>479.6</ele>
        <time>2023-09-23T08:12:49Z</time>
      </trkpt>
      <trkpt lat="43.03747" lon="0.6665">
        <ele>479.6</ele>
        <time>2023-09-23T08:12:50Z</time>
      </trkpt>
      <trkpt lat="43.03743" lon="0.66642">
        <ele>478.6</ele>
        <time>2023-09-23T08:12:51Z</time>
      </trkpt>
      <trkpt lat="43.03739" lon="0.66633">
        <ele>475.6</ele>
        <time>2023-09-23T08:12:52Z</time>
      </trkpt>
      <trkpt lat="43.03735" lon="0.66625">
        <ele>475.6</ele>
        <time>2023-09-23T08:12:53Z</time>
      </trkpt>
      <trkpt lat="43.0373" lon="0.66618">
        <ele>475.6</ele>
        <time>2023-09-23T08:12:54Z</time>
      </trkpt>
      <trkpt lat="43.03723" lon="0.66611">
        <ele>475.6</ele>
        <time>2023-09-23T08:12:55Z</time>
      </trkpt>
      <trkpt lat="43.03716" lon="0.66604">
        <ele>473</ele>
        <time>2023-09-23T08:12:56Z</time>
      </trkpt>
      <trkpt lat="43.03709" lon="0.66597">
        <ele>473</ele>
        <time>2023-09-23T08:12:57Z</time>
      </trkpt>
      <trkpt lat="43.03702" lon="0.66589">
        <ele>473</ele>
        <time>2023-09-23T08:12:58Z</time>
      </trkpt>
      <trkpt lat="43.03694" lon="0.66582">
        <ele>472</ele>
        <time>2023-09-23T08:12:59Z</time>
      </trkpt>
      <trkpt lat="43.03685" lon="0.66577">
        <ele>470</ele>
        <time>2023-09-23T08:13:00Z</time>
      </trkpt>
      <trkpt lat="43.03676" lon="0.66574">
        <ele>470</ele>
        <time>2023-09-23T08:13:01Z</time>
      </trkpt>
      <trkpt lat="43.03666" lon="0.66575">
        <ele>470</ele>
        <time>2023-09-23T08:13:02Z</time>
      </trkpt>
      <trkpt lat="43.03655" lon="0.66577">
        <ele>469</ele>
        <time>2023-09-23T08:13:03Z</time>
      </trkpt>
      <trkpt lat="43.03645" lon="0.66582">
        <ele>465</ele>
        <time>2023-09-23T08:13:04Z</time>
      </trkpt>
      <trkpt lat="43.03634" lon="0.66587">
        <ele>465</ele>
        <time>2023-09-23T08:13:05Z</time>
      </trkpt>
      <trkpt lat="43.03624" lon="0.66592">
        <ele>465</ele>
        <time>2023-09-23T08:13:06Z</time>
      </trkpt>
      <trkpt lat="43.03613" lon="0.66598">
        <ele>464</ele>
        <time>2023-09-23T08:13:07Z</time>
      </trkpt>
      <trkpt lat="43.03602" lon="0.66604">
        <ele>461.6</ele>
        <time>2023-09-23T08:13:08Z</time>
      </trkpt>
      <trkpt lat="43.03591" lon="0.6661">
        <ele>461.6</ele>
        <time>2023-09-23T08:13:09Z</time>
      </trkpt>
      <trkpt lat="43.0358" lon="0.66615">
        <ele>461.6</ele>
        <time>2023-09-23T08:13:10Z</time>
      </trkpt>
      <trkpt lat="43.03568" lon="0.66621">
        <ele>460.6</ele>
        <time>2023-09-23T08:13:11Z</time>
      </trkpt>
      <trkpt lat="43.03557" lon="0.66627">
        <ele>457.8</ele>
        <time>2023-09-23T08:13:12Z</time>
      </trkpt>
      <trkpt lat="43.03545" lon="0.66632">
        <ele>457.8</ele>
        <time>2023-09-23T08:13:13Z</time>
      </trkpt>
      <trkpt lat="43.03533" lon="0.66638">
        <ele>457.8</ele>
        <time>2023-09-23T08:13:14Z</time>
      </trkpt>
      <trkpt lat="43.03521" lon="0.66644">
        <ele>456.8</ele>
        <time>2023-09-23T08:13:15Z</time>
      </trkpt>
      <trkpt lat="43.03509" lon="0.6665">
        <ele>453.2</ele>
        <time>2023-09-23T08:13:16Z</time>
      </trkpt>
      <trkpt lat="43.03496" lon="0.66656">
        <ele>453.2</ele>
        <time>2023-09-23T08:13:17Z</time>
      </trkpt>
      <trkpt lat="43.03484" lon="0.66662">
        <ele>453.2</ele>
        <time>2023-09-23T08:13:18Z</time>
      </trkpt>
      <trkpt lat="43.03472" lon="0.66667">
        <ele>452.2</ele>
        <time>2023-09-23T08:13:19Z</time>
      </trkpt>
      <trkpt lat="43.0346" lon="0.66673">
        <ele>448.4</ele>
        <time>2023-09-23T08:13:20Z</time>
      </trkpt>
      <trkpt lat="43.03448" lon="0.6668">
        <ele>448.4</ele>
        <time>2023-09-23T08:13:21Z</time>
      </trkpt>
      <trkpt lat="43.03436" lon="0.66687">
        <ele>448.4</ele>
        <time>2023-09-23T08:13:22Z</time>
      </trkpt>
      <trkpt lat="43.03425" lon="0.66694">
        <ele>447.4</ele>
        <time>2023-09-23T08:13:23Z</time>
      </trkpt>
      <trkpt lat="43.03415" lon="0.667">
        <ele>445.2</ele>
        <time>2023-09-23T08:13:24Z</time>
      </trkpt>
      <trkpt lat="43.03407" lon="0.66706">
        <ele>445.2</ele>
        <time>2023-09-23T08:13:25Z</time>
      </trkpt>
      <trkpt lat="43.034" lon="0.66711">
        <ele>445.2</ele>
        <time>2023-09-23T08:13:26Z</time>
      </trkpt>
      <trkpt lat="43.03394" lon="0.66717">
        <ele>445.2</ele>
        <time>2023-09-23T08:13:27Z</time>
      </trkpt>
      <trkpt lat="43.03389" lon="0.66724">
        <ele>444.2</ele>
        <time>2023-09-23T08:13:28Z</time>
      </trkpt>
      <trkpt lat="43.03384" lon="0.66731">
        <ele>444.2</ele>
        <time>2023-09-23T08:13:29Z</time>
      </trkpt>
      <trkpt lat="43.03379" lon="0.66739">
        <ele>444.2</ele>
        <time>2023-09-23T08:13:30Z</time>
      </trkpt>
      <trkpt lat="43.03374" lon="0.66746">
        <ele>444.2</ele>
        <time>2023-09-23T08:13:31Z</time>
      </trkpt>
      <trkpt lat="43.03369" lon="0.66754">
        <ele>443.4</ele>
        <time>2023-09-23T08:13:32Z</time>
      </trkpt>
      <trkpt lat="43.03365" lon="0.66762">
        <ele>443.4</ele>
        <time>2023-09-23T08:13:33Z</time>
      </trkpt>
      <trkpt lat="43.03361" lon="0.66769">
        <ele>443.4</ele>
        <time>2023-09-23T08:13:34Z</time>
      </trkpt>
      <trkpt lat="43.03358" lon="0.66776">
        <ele>443.4</ele>
        <time>2023-09-23T08:13:35Z</time>
      </trkpt>
      <trkpt lat="43.03356" lon="0.66782">
        <ele>443.2</ele>
        <time>2023-09-23T08:13:36Z</time>
      </trkpt>
      <trkpt lat="43.03355" lon="0.66787">
        <ele>443.2</ele>
        <time>2023-09-23T08:13:37Z</time>
      </trkpt>
      <trkpt lat="43.03353" lon="0.66791">
        <ele>443.2</ele>
        <time>2023-09-23T08:13:38Z</time>
      </trkpt>
      <trkpt lat="43.0335" lon="0.66795">
        <ele>443.2</ele>
        <time>2023-09-23T08:13:39Z</time>
      </trkpt>
      <trkpt lat="43.03348" lon="0.66798">
        <ele>443.4</ele>
        <time>2023-09-23T08:13:40Z</time>
      </trkpt>
      <trkpt lat="43.03346" lon="0.66801">
        <ele>443.4</ele>
        <time>2023-09-23T08:13:41Z</time>
      </trkpt>
      <trkpt lat="43.03344" lon="0.66803">
        <ele>443.4</ele>
        <time>2023-09-23T08:13:42Z</time>
      </trkpt>
      <trkpt lat="43.03342" lon="0.66806">
        <ele>443</ele>
        <time>2023-09-23T08:13:43Z</time>
      </trkpt>
      <trkpt lat="43.03341" lon="0.66809">
        <ele>442.4</ele>
        <time>2023-09-23T08:13:44Z</time>
      </trkpt>
      <trkpt lat="43.03339" lon="0.66811">
        <ele>442.4</ele>
        <time>2023-09-23T08:13:45Z</time>
      </trkpt>
      <trkpt lat="43.03338" lon="0.66813">
        <ele>442.4</ele>
        <time>2023-09-23T08:13:46Z</time>
      </trkpt>
      <trkpt lat="43.03336" lon="0.66814">
        <ele>442.4</ele>
        <time>2023-09-23T08:13:47Z</time>
      </trkpt>
      <trkpt lat="43.03334" lon="0.66815">
        <ele>442.4</ele>
        <time>2023-09-23T08:13:48Z</time>
      </trkpt>
      <trkpt lat="43.03334" lon="0.66815">
        <ele>442.4</ele>
        <time>2023-09-23T08:13:49Z</time>
      </trkpt>
      <trkpt lat="43.03334" lon="0.66815">
        <ele>442.4</ele>
        <time>2023-09-23T08:13:50Z</time>
      </trkpt>
      <trkpt lat="43.03334" lon="0.66815">
        <ele>442.4</ele>
        <time>2023-09-23T08:13:51Z</time>
      </trkpt>
      <trkpt lat="43.03339" lon="0.66816">
        <ele>442.4</ele>
        <time>2023-09-23T08:14:10Z</time>
      </trkpt>
      <trkpt lat="43.03341" lon="0.66815">
        <ele>442.4</ele>
        <time>2023-09-23T08:14:11Z</time>
      </trkpt>
      <trkpt lat="43.03342" lon="0.66814">
        <ele>442</ele>
        <time>2023-09-23T08:14:12Z</time>
      </trkpt>
      <trkpt lat="43.03344" lon="0.66811">
        <ele>442</ele>
        <time>2023-09-23T08:14:13Z</time>
      </trkpt>
      <trkpt lat="43.03345" lon="0.66809">
        <ele>442</ele>
        <time>2023-09-23T08:14:14Z</time>
      </trkpt>
      <trkpt lat="43.03347" lon="0.66806">
        <ele>442.6</ele>
        <time>2023-09-23T08:14:15Z</time>
      </trkpt>
      <trkpt lat="43.03349" lon="0.66803">
        <ele>442.4</ele>
        <time>2023-09-23T08:14:16Z</time>
      </trkpt>
      <trkpt lat="43.03351" lon="0.66799">
        <ele>442.4</ele>
        <time>2023-09-23T08:14:17Z</time>
      </trkpt>
      <trkpt lat="43.03352" lon="0.66796">
        <ele>442.4</ele>
        <time>2023-09-23T08:14:18Z</time>
      </trkpt>
      <trkpt lat="43.03354" lon="0.66792">
        <ele>443</ele>
        <time>2023-09-23T08:14:19Z</time>
      </trkpt>
      <trkpt lat="43.03355" lon="0.66789">
        <ele>442.8</ele>
        <time>2023-09-23T08:14:20Z</time>
      </trkpt>
      <trkpt lat="43.03358" lon="0.66789">
        <ele>442.8</ele>
        <time>2023-09-23T08:14:21Z</time>
      </trkpt>
      <trkpt lat="43.03359" lon="0.66789">
        <ele>442.8</ele>
        <time>2023-09-23T08:14:22Z</time>
      </trkpt>
      <trkpt lat="43.03361" lon="0.66791">
        <ele>443.6</ele>
        <time>2023-09-23T08:14:23Z</time>
      </trkpt>
      <trkpt lat="43.03362" lon="0.66793">
        <ele>444</ele>
        <time>2023-09-23T08:14:24Z</time>
      </trkpt>
      <trkpt lat="43.03364" lon="0.66796">
        <ele>444</ele>
        <time>2023-09-23T08:14:25Z</time>
      </trkpt>
      <trkpt lat="43.03365" lon="0.66798">
        <ele>444</ele>
        <time>2023-09-23T08:14:26Z</time>
      </trkpt>
      <trkpt lat="43.03366" lon="0.66801">
        <ele>444</ele>
        <time>2023-09-23T08:14:27Z</time>
      </trkpt>
      <trkpt lat="43.03366" lon="0.66804">
        <ele>444.8</ele>
        <time>2023-09-23T08:14:28Z</time>
      </trkpt>
      <trkpt lat="43.03366" lon="0.66807">
        <ele>444.8</ele>
        <time>2023-09-23T08:14:29Z</time>
      </trkpt>
      <trkpt lat="43.03365" lon="0.66808">
        <ele>444.8</ele>
        <time>2023-09-23T08:14:30Z</time>
      </trkpt>
      <trkpt lat="43.03365" lon="0.6681">
        <ele>445.2</ele>
        <time>2023-09-23T08:14:31Z</time>
      </trkpt>
      <trkpt lat="43.03366" lon="0.6681">
        <ele>445</ele>
        <time>2023-09-23T08:14:32Z</time>
      </trkpt>
      <trkpt lat="43.03366" lon="0.66808">
        <ele>445</ele>
        <time>2023-09-23T08:14:33Z</time>
      </trkpt>
      <trkpt lat="43.03366" lon="0.66807">
        <ele>445</ele>
        <time>2023-09-23T08:14:34Z</time>
      </trkpt>
      <trkpt lat="43.03366" lon="0.66805">
        <ele>445</ele>
        <time>2023-09-23T08:14:35Z</time>
      </trkpt>
      <trkpt lat="43.03366" lon="0.66802">
        <ele>444.8</ele>
        <time>2023-09-23T08:14:36Z</time>
      </trkpt>
      <trkpt lat="43.03365" lon="0.66799">
        <ele>444.8</ele>
        <time>2023-09-23T08:14:37Z</time>
      </trkpt>
      <trkpt lat="43.03364" lon="0.66796">
        <ele>444.8</ele>
        <time>2023-09-23T08:14:38Z</time>
      </trkpt>
      <trkpt lat="43.03362" lon="0.66794">
        <ele>444</ele>
        <time>2023-09-23T08:14:39Z</time>
      </trkpt>
      <trkpt lat="43.0336" lon="0.66792">
        <ele>444</ele>
        <time>2023-09-23T08:14:40Z</time>
      </trkpt>
      <trkpt lat="43.03359" lon="0.66791">
        <ele>444</ele>
        <time>2023-09-23T08:14:41Z</time>
      </trkpt>
      <trkpt lat="43.03358" lon="0.66792">
        <ele>444</ele>
        <time>2023-09-23T08:14:42Z</time>
      </trkpt>
      <trkpt lat="43.03356" lon="0.66793">
        <ele>443.2</ele>
        <time>2023-09-23T08:14:43Z</time>
      </trkpt>
      <trkpt lat="43.03355" lon="0.66796">
        <ele>442.8</ele>
        <time>2023-09-23T08:14:44Z</time>
      </trkpt>
      <trkpt lat="43.03353" lon="0.66799">
        <ele>442.8</ele>
        <time>2023-09-23T08:14:45Z</time>
      </trkpt>
      <trkpt lat="43.03351" lon="0.66802">
        <ele>442.8</ele>
        <time>2023-09-23T08:14:46Z</time>
      </trkpt>
      <trkpt lat="43.03348" lon="0.66805">
        <ele>441.8</ele>
        <time>2023-09-23T08:14:47Z</time>
      </trkpt>
      <trkpt lat="43.03345" lon="0.66807">
        <ele>442.6</ele>
        <time>2023-09-23T08:14:48Z</time>
      </trkpt>
      <trkpt lat="43.03342" lon="0.66811">
        <ele>442.6</ele>
        <time>2023-09-23T08:14:49Z</time>
      </trkpt>
      <trkpt lat="43.03339" lon="0.66815">
        <ele>442.6</ele>
        <time>2023-09-23T08:14:50Z</time>
      </trkpt>
      <trkpt lat="43.03336" lon="0.66819">
        <ele>442</ele>
        <time>2023-09-23T08:14:51Z</time>
      </trkpt>
      <trkpt lat="43.03333" lon="0.66825">
        <ele>441.4</ele>
        <time>2023-09-23T08:14:52Z</time>
      </trkpt>
      <trkpt lat="43.03329" lon="0.66831">
        <ele>441.4</ele>
        <time>2023-09-23T08:14:53Z</time>
      </trkpt>
      <trkpt lat="43.03326" lon="0.66837">
        <ele>441.4</ele>
        <time>2023-09-23T08:14:54Z</time>
      </trkpt>
      <trkpt lat="43.03323" lon="0.66844">
        <ele>440.6</ele>
        <time>2023-09-23T08:14:55Z</time>
      </trkpt>
      <trkpt lat="43.03319" lon="0.6685">
        <ele>441.2</ele>
        <time>2023-09-23T08:14:56Z</time>
      </trkpt>
      <trkpt lat="43.03316" lon="0.66856">
        <ele>441.2</ele>
        <time>2023-09-23T08:14:57Z</time>
      </trkpt>
      <trkpt lat="43.03312" lon="0.66862">
        <ele>441.2</ele>
        <time>2023-09-23T08:14:58Z</time>
      </trkpt>
      <trkpt lat="43.03309" lon="0.66867">
        <ele>440.2</ele>
        <time>2023-09-23T08:14:59Z</time>
      </trkpt>
      <trkpt lat="43.03305" lon="0.6687">
        <ele>440.4</ele>
        <time>2023-09-23T08:15:00Z</time>
      </trkpt>
      <trkpt lat="43.03301" lon="0.66874">
        <ele>440.4</ele>
        <time>2023-09-23T08:15:01Z</time>
      </trkpt>
      <trkpt lat="43.03299" lon="0.6688">
        <ele>440.4</ele>
        <time>2023-09-23T08:15:02Z</time>
      </trkpt>
      <trkpt lat="43.03298" lon="0.66886">
        <ele>439.6</ele>
        <time>2023-09-23T08:15:03Z</time>
      </trkpt>
      <trkpt lat="43.03297" lon="0.66892">
        <ele>439.8</ele>
        <time>2023-09-23T08:15:04Z</time>
      </trkpt>
      <trkpt lat="43.03296" lon="0.66898">
        <ele>439.8</ele>
        <time>2023-09-23T08:15:05Z</time>
      </trkpt>
      <trkpt lat="43.03295" lon="0.66905">
        <ele>439.8</ele>
        <time>2023-09-23T08:15:06Z</time>
      </trkpt>
      <trkpt lat="43.03293" lon="0.66911">
        <ele>439.8</ele>
        <time>2023-09-23T08:15:07Z</time>
      </trkpt>
      <trkpt lat="43.03291" lon="0.66918">
        <ele>439</ele>
        <time>2023-09-23T08:15:08Z</time>
      </trkpt>
      <trkpt lat="43.03288" lon="0.66924">
        <ele>439</ele>
        <time>2023-09-23T08:15:09Z</time>
      </trkpt>
      <trkpt lat="43.03286" lon="0.6693">
        <ele>439</ele>
        <time>2023-09-23T08:15:10Z</time>
      </trkpt>
      <trkpt lat="43.03284" lon="0.66936">
        <ele>439.6</ele>
        <time>2023-09-23T08:15:11Z</time>
      </trkpt>
      <trkpt lat="43.03282" lon="0.66942">
        <ele>439.4</ele>
        <time>2023-09-23T08:15:12Z</time>
      </trkpt>
      <trkpt lat="43.03278" lon="0.66947">
        <ele>439.4</ele>
        <time>2023-09-23T08:15:13Z</time>
      </trkpt>
      <trkpt lat="43.03275" lon="0.66952">
        <ele>439.4</ele>
        <time>2023-09-23T08:15:14Z</time>
      </trkpt>
      <trkpt lat="43.03272" lon="0.66958">
        <ele>438.6</ele>
        <time>2023-09-23T08:15:15Z</time>
      </trkpt>
      <trkpt lat="43.0327" lon="0.66965">
        <ele>438.8</ele>
        <time>2023-09-23T08:15:16Z</time>
      </trkpt>
      <trkpt lat="43.03267" lon="0.66972">
        <ele>438.8</ele>
        <time>2023-09-23T08:15:17Z</time>
      </trkpt>
      <trkpt lat="43.03265" lon="0.6698">
        <ele>438.8</ele>
        <time>2023-09-23T08:15:18Z</time>
      </trkpt>
      <trkpt lat="43.03263" lon="0.66989">
        <ele>437.8</ele>
        <time>2023-09-23T08:15:19Z</time>
      </trkpt>
      <trkpt lat="43.03261" lon="0.66996">
        <ele>436.4</ele>
        <time>2023-09-23T08:15:20Z</time>
      </trkpt>
      <trkpt lat="43.03257" lon="0.67001">
        <ele>436.4</ele>
        <time>2023-09-23T08:15:21Z</time>
      </trkpt>
      <trkpt lat="43.03252" lon="0.67004">
        <ele>436.4</ele>
        <time>2023-09-23T08:15:22Z</time>
      </trkpt>
      <trkpt lat="43.03246" lon="0.67005">
        <ele>435.4</ele>
        <time>2023-09-23T08:15:23Z</time>
      </trkpt>
      <trkpt lat="43.0324" lon="0.67006">
        <ele>435.6</ele>
        <time>2023-09-23T08:15:24Z</time>
      </trkpt>
      <trkpt lat="43.03233" lon="0.67007">
        <ele>435.6</ele>
        <time>2023-09-23T08:15:25Z</time>
      </trkpt>
      <trkpt lat="43.03227" lon="0.67008">
        <ele>435.6</ele>
        <time>2023-09-23T08:15:26Z</time>
      </trkpt>
      <trkpt lat="43.0322" lon="0.67009">
        <ele>434.6</ele>
        <time>2023-09-23T08:15:27Z</time>
      </trkpt>
      <trkpt lat="43.03214" lon="0.67011">
        <ele>434.6</ele>
        <time>2023-09-23T08:15:28Z</time>
      </trkpt>
      <trkpt lat="43.03207" lon="0.67012">
        <ele>434.6</ele>
        <time>2023-09-23T08:15:29Z</time>
      </trkpt>
      <trkpt lat="43.03201" lon="0.67014">
        <ele>434.6</ele>
        <time>2023-09-23T08:15:30Z</time>
      </trkpt>
      <trkpt lat="43.03195" lon="0.67017">
        <ele>434.6</ele>
        <time>2023-09-23T08:15:31Z</time>
      </trkpt>
      <trkpt lat="43.03188" lon="0.6702">
        <ele>435</ele>
        <time>2023-09-23T08:15:32Z</time>
      </trkpt>
      <trkpt lat="43.03182" lon="0.67023">
        <ele>435</ele>
        <time>2023-09-23T08:15:33Z</time>
      </trkpt>
      <trkpt lat="43.03176" lon="0.67027">
        <ele>435</ele>
        <time>2023-09-23T08:15:34Z</time>
      </trkpt>
      <trkpt lat="43.0317" lon="0.67031">
        <ele>435</ele>
        <time>2023-09-23T08:15:35Z</time>
      </trkpt>
      <trkpt lat="43.03164" lon="0.67036">
        <ele>435.2</ele>
        <time>2023-09-23T08:15:36Z</time>
      </trkpt>
      <trkpt lat="43.03159" lon="0.6704">
        <ele>435.2</ele>
        <time>2023-09-23T08:15:37Z</time>
      </trkpt>
      <trkpt lat="43.03153" lon="0.67046">
        <ele>435.2</ele>
        <time>2023-09-23T08:15:38Z</time>
      </trkpt>
      <trkpt lat="43.03148" lon="0.67051">
        <ele>435.2</ele>
        <time>2023-09-23T08:15:39Z</time>
      </trkpt>
      <trkpt lat="43.03144" lon="0.67058">
        <ele>434.8</ele>
        <time>2023-09-23T08:15:40Z</time>
      </trkpt>
      <trkpt lat="43.03139" lon="0.67064">
        <ele>434.8</ele>
        <time>2023-09-23T08:15:41Z</time>
      </trkpt>
      <trkpt lat="43.03135" lon="0.67071">
        <ele>434.8</ele>
        <time>2023-09-23T08:15:42Z</time>
      </trkpt>
      <trkpt lat="43.03131" lon="0.67078">
        <ele>434.8</ele>
        <time>2023-09-23T08:15:43Z</time>
      </trkpt>
      <trkpt lat="43.03127" lon="0.67084">
        <ele>435.2</ele>
        <time>2023-09-23T08:15:44Z</time>
      </trkpt>
      <trkpt lat="43.03123" lon="0.67091">
        <ele>435.2</ele>
        <time>2023-09-23T08:15:45Z</time>
      </trkpt>
      <trkpt lat="43.0312" lon="0.67098">
        <ele>435.2</ele>
        <time>2023-09-23T08:15:46Z</time>
      </trkpt>
      <trkpt lat="43.03117" lon="0.67105">
        <ele>435.2</ele>
        <time>2023-09-23T08:15:47Z</time>
      </trkpt>
      <trkpt lat="43.03113" lon="0.67111">
        <ele>435</ele>
        <time>2023-09-23T08:15:48Z</time>
      </trkpt>
      <trkpt lat="43.0311" lon="0.67115">
        <ele>435</ele>
        <time>2023-09-23T08:15:49Z</time>
      </trkpt>
      <trkpt lat="43.03108" lon="0.67119">
        <ele>435</ele>
        <time>2023-09-23T08:15:50Z</time>
      </trkpt>
      <trkpt lat="43.03107" lon="0.67122">
        <ele>435.8</ele>
        <time>2023-09-23T08:15:51Z</time>
      </trkpt>
      <trkpt lat="43.03105" lon="0.67124">
        <ele>436</ele>
        <time>2023-09-23T08:15:52Z</time>
      </trkpt>
      <trkpt lat="43.03103" lon="0.67125">
        <ele>436</ele>
        <time>2023-09-23T08:15:53Z</time>
      </trkpt>
      <trkpt lat="43.03101" lon="0.67126">
        <ele>436</ele>
        <time>2023-09-23T08:15:54Z</time>
      </trkpt>
      <trkpt lat="43.03098" lon="0.67127">
        <ele>436</ele>
        <time>2023-09-23T08:15:55Z</time>
      </trkpt>
      <trkpt lat="43.03096" lon="0.67129">
        <ele>435.8</ele>
        <time>2023-09-23T08:15:56Z</time>
      </trkpt>
      <trkpt lat="43.03093" lon="0.67131">
        <ele>435.8</ele>
        <time>2023-09-23T08:15:57Z</time>
      </trkpt>
      <trkpt lat="43.0309" lon="0.67131">
        <ele>435.8</ele>
        <time>2023-09-23T08:15:58Z</time>
      </trkpt>
      <trkpt lat="43.03088" lon="0.6713">
        <ele>435.8</ele>
        <time>2023-09-23T08:15:59Z</time>
      </trkpt>
      <trkpt lat="43.03085" lon="0.67127">
        <ele>435.6</ele>
        <time>2023-09-23T08:16:00Z</time>
      </trkpt>
      <trkpt lat="43.03083" lon="0.67125">
        <ele>435.6</ele>
        <time>2023-09-23T08:16:01Z</time>
      </trkpt>
      <trkpt lat="43.03081" lon="0.67123">
        <ele>435.6</ele>
        <time>2023-09-23T08:16:02Z</time>
      </trkpt>
      <trkpt lat="43.03079" lon="0.67121">
        <ele>435.6</ele>
        <time>2023-09-23T08:16:03Z</time>
      </trkpt>
      <trkpt lat="43.03076" lon="0.6712">
        <ele>435.6</ele>
        <time>2023-09-23T08:16:04Z</time>
      </trkpt>
      <trkpt lat="43.03074" lon="0.67119">
        <ele>435.6</ele>
        <time>2023-09-23T08:16:05Z</time>
      </trkpt>
      <trkpt lat="43.03071" lon="0.67119">
        <ele>435.6</ele>
        <time>2023-09-23T08:16:06Z</time>
      </trkpt>
      <trkpt lat="43.03068" lon="0.67119">
        <ele>436</ele>
        <time>2023-09-23T08:16:07Z</time>
      </trkpt>
      <trkpt lat="43.03066" lon="0.6712">
        <ele>436.2</ele>
        <time>2023-09-23T08:16:08Z</time>
      </trkpt>
      <trkpt lat="43.03063" lon="0.67121">
        <ele>436.2</ele>
        <time>2023-09-23T08:16:09Z</time>
      </trkpt>
      <trkpt lat="43.0306" lon="0.67121">
        <ele>436.2</ele>
        <time>2023-09-23T08:16:10Z</time>
      </trkpt>
      <trkpt lat="43.03058" lon="0.67123">
        <ele>436.4</ele>
        <time>2023-09-23T08:16:11Z</time>
      </trkpt>
      <trkpt lat="43.03057" lon="0.67124">
        <ele>436.2</ele>
        <time>2023-09-23T08:16:12Z</time>
      </trkpt>
      <trkpt lat="43.03055" lon="0.67126">
        <ele>436.2</ele>
        <time>2023-09-23T08:16:13Z</time>
      </trkpt>
      <trkpt lat="43.03054" lon="0.67127">
        <ele>436.2</ele>
        <time>2023-09-23T08:16:14Z</time>
      </trkpt>
      <trkpt lat="43.03052" lon="0.67128">
        <ele>436.2</ele>
        <time>2023-09-23T08:16:15Z</time>
      </trkpt>
      <trkpt lat="43.03051" lon="0.6713">
        <ele>436.4</ele>
        <time>2023-09-23T08:16:16Z</time>
      </trkpt>
      <trkpt lat="43.03051" lon="0.67132">
        <ele>436.4</ele>
        <time>2023-09-23T08:16:17Z</time>
      </trkpt>
      <trkpt lat="43.03053" lon="0.67133">
        <ele>436.4</ele>
        <time>2023-09-23T08:16:18Z</time>
      </trkpt>
      <trkpt lat="43.03055" lon="0.67132">
        <ele>436.2</ele>
        <time>2023-09-23T08:16:19Z</time>
      </trkpt>
      <trkpt lat="43.03057" lon="0.67131">
        <ele>436.2</ele>
        <time>2023-09-23T08:16:20Z</time>
      </trkpt>
      <trkpt lat="43.0306" lon="0.67128">
        <ele>436.2</ele>
        <time>2023-09-23T08:16:21Z</time>
      </trkpt>
      <trkpt lat="43.03063" lon="0.67126">
        <ele>436.2</ele>
        <time>2023-09-23T08:16:22Z</time>
      </trkpt>
      <trkpt lat="43.03066" lon="0.67124">
        <ele>436.2</ele>
        <time>2023-09-23T08:16:23Z</time>
      </trkpt>
      <trkpt lat="43.03069" lon="0.67123">
        <ele>435.8</ele>
        <time>2023-09-23T08:16:24Z</time>
      </trkpt>
      <trkpt lat="43.03071" lon="0.67122">
        <ele>435.8</ele>
        <time>2023-09-23T08:16:25Z</time>
      </trkpt>
      <trkpt lat="43.03073" lon="0.67121">
        <ele>435.8</ele>
        <time>2023-09-23T08:16:26Z</time>
      </trkpt>
      <trkpt lat="43.03073" lon="0.67121">
        <ele>436.2</ele>
        <time>2023-09-23T08:16:27Z</time>
      </trkpt>
      <trkpt lat="43.03073" lon="0.67121">
        <ele>436</ele>
        <time>2023-09-23T08:16:28Z</time>
      </trkpt>
      <trkpt lat="43.03074" lon="0.67128">
        <ele>435.4</ele>
        <time>2023-09-23T08:17:41Z</time>
      </trkpt>
      <trkpt lat="43.03074" lon="0.67131">
        <ele>435.4</ele>
        <time>2023-09-23T08:17:42Z</time>
      </trkpt>
      <trkpt lat="43.03074" lon="0.67134">
        <ele>435.4</ele>
        <time>2023-09-23T08:17:43Z</time>
      </trkpt>
      <trkpt lat="43.03075" lon="0.67137">
        <ele>435.6</ele>
        <time>2023-09-23T08:17:44Z</time>
      </trkpt>
      <trkpt lat="43.03076" lon="0.67141">
        <ele>435.6</ele>
        <time>2023-09-23T08:17:45Z</time>
      </trkpt>
      <trkpt lat="43.03076" lon="0.67144">
        <ele>435.6</ele>
        <time>2023-09-23T08:17:46Z</time>
      </trkpt>
      <trkpt lat="43.03077" lon="0.67148">
        <ele>435.6</ele>
        <time>2023-09-23T08:17:47Z</time>
      </trkpt>
      <trkpt lat="43.03079" lon="0.67151">
        <ele>435.6</ele>
        <time>2023-09-23T08:17:48Z</time>
      </trkpt>
      <trkpt lat="43.0308" lon="0.67155">
        <ele>435.6</ele>
        <time>2023-09-23T08:17:49Z</time>
      </trkpt>
      <trkpt lat="43.03081" lon="0.67159">
        <ele>435.6</ele>
        <time>2023-09-23T08:17:50Z</time>
      </trkpt>
      <trkpt lat="43.03081" lon="0.67162">
        <ele>435.6</ele>
        <time>2023-09-23T08:17:51Z</time>
      </trkpt>
      <trkpt lat="43.03082" lon="0.67167">
        <ele>435.6</ele>
        <time>2023-09-23T08:17:52Z</time>
      </trkpt>
      <trkpt lat="43.03082" lon="0.67171">
        <ele>435.6</ele>
        <time>2023-09-23T08:17:53Z</time>
      </trkpt>
      <trkpt lat="43.03082" lon="0.67174">
        <ele>435.6</ele>
        <time>2023-09-23T08:17:54Z</time>
      </trkpt>
      <trkpt lat="43.03082" lon="0.67177">
        <ele>435.6</ele>
        <time>2023-09-23T08:17:55Z</time>
      </trkpt>
      <trkpt lat="43.03083" lon="0.67179">
        <ele>435.6</ele>
        <time>2023-09-23T08:17:56Z</time>
      </trkpt>
      <trkpt lat="43.03084" lon="0.67181">
        <ele>435.6</ele>
        <time>2023-09-23T08:17:57Z</time>
      </trkpt>
      <trkpt lat="43.03085" lon="0.67182">
        <ele>435.6</ele>
        <time>2023-09-23T08:17:58Z</time>
      </trkpt>
      <trkpt lat="43.03086" lon="0.67184">
        <ele>435.6</ele>
        <time>2023-09-23T08:17:59Z</time>
      </trkpt>
      <trkpt lat="43.03085" lon="0.67186">
        <ele>435.6</ele>
        <time>2023-09-23T08:18:00Z</time>
      </trkpt>
      <trkpt lat="43.03084" lon="0.67187">
        <ele>435.6</ele>
        <time>2023-09-23T08:18:01Z</time>
      </trkpt>
      <trkpt lat="43.03083" lon="0.67188">
        <ele>435.6</ele>
        <time>2023-09-23T08:18:02Z</time>
      </trkpt>
      <trkpt lat="43.03083" lon="0.6719">
        <ele>435.6</ele>
        <time>2023-09-23T08:18:03Z</time>
      </trkpt>
      <trkpt lat="43.03084" lon="0.67191">
        <ele>435.8</ele>
        <time>2023-09-23T08:18:04Z</time>
      </trkpt>
      <trkpt lat="43.03086" lon="0.67191">
        <ele>435.8</ele>
        <time>2023-09-23T08:18:05Z</time>
      </trkpt>
      <trkpt lat="43.03087" lon="0.6719">
        <ele>435.8</ele>
        <time>2023-09-23T08:18:06Z</time>
      </trkpt>
      <trkpt lat="43.03087" lon="0.67189">
        <ele>435.8</ele>
        <time>2023-09-23T08:18:07Z</time>
      </trkpt>
      <trkpt lat="43.03088" lon="0.67186">
        <ele>435.6</ele>
        <time>2023-09-23T08:18:08Z</time>
      </trkpt>
      <trkpt lat="43.03089" lon="0.67184">
        <ele>435.6</ele>
        <time>2023-09-23T08:18:09Z</time>
      </trkpt>
      <trkpt lat="43.0309" lon="0.6718">
        <ele>435.6</ele>
        <time>2023-09-23T08:18:10Z</time>
      </trkpt>
      <trkpt lat="43.03092" lon="0.67176">
        <ele>435.4</ele>
        <time>2023-09-23T08:18:11Z</time>
      </trkpt>
      <trkpt lat="43.03093" lon="0.67172">
        <ele>435.4</ele>
        <time>2023-09-23T08:18:12Z</time>
      </trkpt>
      <trkpt lat="43.03095" lon="0.67167">
        <ele>435.4</ele>
        <time>2023-09-23T08:18:13Z</time>
      </trkpt>
      <trkpt lat="43.03097" lon="0.67162">
        <ele>435.4</ele>
        <time>2023-09-23T08:18:14Z</time>
      </trkpt>
      <trkpt lat="43.03099" lon="0.67157">
        <ele>435</ele>
        <time>2023-09-23T08:18:15Z</time>
      </trkpt>
      <trkpt lat="43.03101" lon="0.67151">
        <ele>435.6</ele>
        <time>2023-09-23T08:18:16Z</time>
      </trkpt>
      <trkpt lat="43.03102" lon="0.67145">
        <ele>435.6</ele>
        <time>2023-09-23T08:18:17Z</time>
      </trkpt>
      <trkpt lat="43.03104" lon="0.6714">
        <ele>435.6</ele>
        <time>2023-09-23T08:18:18Z</time>
      </trkpt>
      <trkpt lat="43.03106" lon="0.67134">
        <ele>435.6</ele>
        <time>2023-09-23T08:18:19Z</time>
      </trkpt>
      <trkpt lat="43.03108" lon="0.67129">
        <ele>435.4</ele>
        <time>2023-09-23T08:18:20Z</time>
      </trkpt>
      <trkpt lat="43.0311" lon="0.67123">
        <ele>435.4</ele>
        <time>2023-09-23T08:18:21Z</time>
      </trkpt>
      <trkpt lat="43.03113" lon="0.67117">
        <ele>435.4</ele>
        <time>2023-09-23T08:18:22Z</time>
      </trkpt>
      <trkpt lat="43.03115" lon="0.6711">
        <ele>435.4</ele>
        <time>2023-09-23T08:18:23Z</time>
      </trkpt>
      <trkpt lat="43.03117" lon="0.67104">
        <ele>435.6</ele>
        <time>2023-09-23T08:18:24Z</time>
      </trkpt>
      <trkpt lat="43.0312" lon="0.67098">
        <ele>435.6</ele>
        <time>2023-09-23T08:18:25Z</time>
      </trkpt>
      <trkpt lat="43.03123" lon="0.67091">
        <ele>435.6</ele>
        <time>2023-09-23T08:18:26Z</time>
      </trkpt>
      <trkpt lat="43.03126" lon="0.67086">
        <ele>434.6</ele>
        <time>2023-09-23T08:18:27Z</time>
      </trkpt>
      <trkpt lat="43.0313" lon="0.67081">
        <ele>434.6</ele>
        <time>2023-09-23T08:18:28Z</time>
      </trkpt>
      <trkpt lat="43.03133" lon="0.67075">
        <ele>434.6</ele>
        <time>2023-09-23T08:18:29Z</time>
      </trkpt>
      <trkpt lat="43.03136" lon="0.6707">
        <ele>434.6</ele>
        <time>2023-09-23T08:18:30Z</time>
      </trkpt>
      <trkpt lat="43.0314" lon="0.67065">
        <ele>434.2</ele>
        <time>2023-09-23T08:18:31Z</time>
      </trkpt>
      <trkpt lat="43.03143" lon="0.67061">
        <ele>434.6</ele>
        <time>2023-09-23T08:18:32Z</time>
      </trkpt>
      <trkpt lat="43.03146" lon="0.67056">
        <ele>434.6</ele>
        <time>2023-09-23T08:18:33Z</time>
      </trkpt>
      <trkpt lat="43.0315" lon="0.67052">
        <ele>434.6</ele>
        <time>2023-09-23T08:18:34Z</time>
      </trkpt>
      <trkpt lat="43.03154" lon="0.67048">
        <ele>434.6</ele>
        <time>2023-09-23T08:18:35Z</time>
      </trkpt>
      <trkpt lat="43.03157" lon="0.67044">
        <ele>435.4</ele>
        <time>2023-09-23T08:18:36Z</time>
      </trkpt>
      <trkpt lat="43.03162" lon="0.67041">
        <ele>435.4</ele>
        <time>2023-09-23T08:18:37Z</time>
      </trkpt>
      <trkpt lat="43.03165" lon="0.67037">
        <ele>435.4</ele>
        <time>2023-09-23T08:18:38Z</time>
      </trkpt>
      <trkpt lat="43.03169" lon="0.67034">
        <ele>434.4</ele>
        <time>2023-09-23T08:18:39Z</time>
      </trkpt>
      <trkpt lat="43.03173" lon="0.67031">
        <ele>435</ele>
        <time>2023-09-23T08:18:40Z</time>
      </trkpt>
      <trkpt lat="43.03178" lon="0.67028">
        <ele>435</ele>
        <time>2023-09-23T08:18:41Z</time>
      </trkpt>
      <trkpt lat="43.03182" lon="0.67026">
        <ele>435</ele>
        <time>2023-09-23T08:18:42Z</time>
      </trkpt>
      <trkpt lat="43.03187" lon="0.67024">
        <ele>434.4</ele>
        <time>2023-09-23T08:18:43Z</time>
      </trkpt>
      <trkpt lat="43.03192" lon="0.67022">
        <ele>434.4</ele>
        <time>2023-09-23T08:18:44Z</time>
      </trkpt>
      <trkpt lat="43.03197" lon="0.6702">
        <ele>434.4</ele>
        <time>2023-09-23T08:18:45Z</time>
      </trkpt>
      <trkpt lat="43.03203" lon="0.67017">
        <ele>434.4</ele>
        <time>2023-09-23T08:18:46Z</time>
      </trkpt>
      <trkpt lat="43.03208" lon="0.67016">
        <ele>434.4</ele>
        <time>2023-09-23T08:18:47Z</time>
      </trkpt>
      <trkpt lat="43.03214" lon="0.67014">
        <ele>434.2</ele>
        <time>2023-09-23T08:18:48Z</time>
      </trkpt>
      <trkpt lat="43.03219" lon="0.67012">
        <ele>434.2</ele>
        <time>2023-09-23T08:18:49Z</time>
      </trkpt>
      <trkpt lat="43.03224" lon="0.67011">
        <ele>434.2</ele>
        <time>2023-09-23T08:18:50Z</time>
      </trkpt>
      <trkpt lat="43.03229" lon="0.6701">
        <ele>434.2</ele>
        <time>2023-09-23T08:18:51Z</time>
      </trkpt>
      <trkpt lat="43.03234" lon="0.67009">
        <ele>434.8</ele>
        <time>2023-09-23T08:18:52Z</time>
      </trkpt>
      <trkpt lat="43.03238" lon="0.67009">
        <ele>434.8</ele>
        <time>2023-09-23T08:18:53Z</time>
      </trkpt>
      <trkpt lat="43.03242" lon="0.67009">
        <ele>434.8</ele>
        <time>2023-09-23T08:18:54Z</time>
      </trkpt>
      <trkpt lat="43.03246" lon="0.67009">
        <ele>434.8</ele>
        <time>2023-09-23T08:18:55Z</time>
      </trkpt>
      <trkpt lat="43.03248" lon="0.67008">
        <ele>435.6</ele>
        <time>2023-09-23T08:18:56Z</time>
      </trkpt>
      <trkpt lat="43.03251" lon="0.67008">
        <ele>435.6</ele>
        <time>2023-09-23T08:18:57Z</time>
      </trkpt>
      <trkpt lat="43.03252" lon="0.67008">
        <ele>435.6</ele>
        <time>2023-09-23T08:18:58Z</time>
      </trkpt>
      <trkpt lat="43.03252" lon="0.67006">
        <ele>436</ele>
        <time>2023-09-23T08:18:59Z</time>
      </trkpt>
      <trkpt lat="43.03251" lon="0.67004">
        <ele>436</ele>
        <time>2023-09-23T08:19:00Z</time>
      </trkpt>
      <trkpt lat="43.03249" lon="0.67004">
        <ele>436</ele>
        <time>2023-09-23T08:19:01Z</time>
      </trkpt>
      <trkpt lat="43.03246" lon="0.67005">
        <ele>436</ele>
        <time>2023-09-23T08:19:02Z</time>
      </trkpt>
      <trkpt lat="43.03242" lon="0.67005">
        <ele>436</ele>
        <time>2023-09-23T08:19:03Z</time>
      </trkpt>
      <trkpt lat="43.03238" lon="0.67006">
        <ele>435.2</ele>
        <time>2023-09-23T08:19:04Z</time>
      </trkpt>
      <trkpt lat="43.03233" lon="0.67007">
        <ele>435.2</ele>
        <time>2023-09-23T08:19:05Z</time>
      </trkpt>
      <trkpt lat="43.03228" lon="0.67008">
        <ele>435.2</ele>
        <time>2023-09-23T08:19:06Z</time>
      </trkpt>
      <trkpt lat="43.03222" lon="0.67009">
        <ele>434.2</ele>
        <time>2023-09-23T08:19:07Z</time>
      </trkpt>
      <trkpt lat="43.03216" lon="0.6701">
        <ele>434.4</ele>
        <time>2023-09-23T08:19:08Z</time>
      </trkpt>
      <trkpt lat="43.03211" lon="0.67011">
        <ele>434.4</ele>
        <time>2023-09-23T08:19:09Z</time>
      </trkpt>
      <trkpt lat="43.03205" lon="0.67013">
        <ele>434.4</ele>
        <time>2023-09-23T08:19:10Z</time>
      </trkpt>
      <trkpt lat="43.03199" lon="0.67015">
        <ele>434.2</ele>
        <time>2023-09-23T08:19:11Z</time>
      </trkpt>
      <trkpt lat="43.03194" lon="0.67017">
        <ele>434.2</ele>
        <time>2023-09-23T08:19:12Z</time>
      </trkpt>
      <trkpt lat="43.03188" lon="0.6702">
        <ele>434.2</ele>
        <time>2023-09-23T08:19:13Z</time>
      </trkpt>
      <trkpt lat="43.03183" lon="0.67023">
        <ele>434.2</ele>
        <time>2023-09-23T08:19:14Z</time>
      </trkpt>
      <trkpt lat="43.03177" lon="0.67026">
        <ele>433.2</ele>
        <time>2023-09-23T08:19:15Z</time>
      </trkpt>
      <trkpt lat="43.03172" lon="0.6703">
        <ele>433.8</ele>
        <time>2023-09-23T08:19:16Z</time>
      </trkpt>
      <trkpt lat="43.03166" lon="0.67033">
        <ele>433.8</ele>
        <time>2023-09-23T08:19:17Z</time>
      </trkpt>
      <trkpt lat="43.03161" lon="0.67038">
        <ele>433.8</ele>
        <time>2023-09-23T08:19:18Z</time>
      </trkpt>
      <trkpt lat="43.03156" lon="0.67042">
        <ele>433.8</ele>
        <time>2023-09-23T08:19:19Z</time>
      </trkpt>
      <trkpt lat="43.03151" lon="0.67047">
        <ele>433.8</ele>
        <time>2023-09-23T08:19:20Z</time>
      </trkpt>
      <trkpt lat="43.03147" lon="0.67052">
        <ele>433.8</ele>
        <time>2023-09-23T08:19:21Z</time>
      </trkpt>
      <trkpt lat="43.03142" lon="0.67058">
        <ele>433.8</ele>
        <time>2023-09-23T08:19:22Z</time>
      </trkpt>
      <trkpt lat="43.03138" lon="0.67065">
        <ele>433.8</ele>
        <time>2023-09-23T08:19:23Z</time>
      </trkpt>
      <trkpt lat="43.03134" lon="0.67071">
        <ele>434.2</ele>
        <time>2023-09-23T08:19:24Z</time>
      </trkpt>
      <trkpt lat="43.0313" lon="0.67077">
        <ele>434.2</ele>
        <time>2023-09-23T08:19:25Z</time>
      </trkpt>
      <trkpt lat="43.03126" lon="0.67084">
        <ele>434.2</ele>
        <time>2023-09-23T08:19:26Z</time>
      </trkpt>
      <trkpt lat="43.03122" lon="0.6709">
        <ele>434.2</ele>
        <time>2023-09-23T08:19:27Z</time>
      </trkpt>
      <trkpt lat="43.03119" lon="0.67097">
        <ele>434.8</ele>
        <time>2023-09-23T08:19:28Z</time>
      </trkpt>
      <trkpt lat="43.03116" lon="0.67104">
        <ele>434.8</ele>
        <time>2023-09-23T08:19:29Z</time>
      </trkpt>
      <trkpt lat="43.03113" lon="0.67111">
        <ele>434.8</ele>
        <time>2023-09-23T08:19:30Z</time>
      </trkpt>
      <trkpt lat="43.03111" lon="0.67118">
        <ele>434.8</ele>
        <time>2023-09-23T08:19:31Z</time>
      </trkpt>
      <trkpt lat="43.03109" lon="0.67125">
        <ele>434.4</ele>
        <time>2023-09-23T08:19:32Z</time>
      </trkpt>
      <trkpt lat="43.03107" lon="0.67132">
        <ele>434.4</ele>
        <time>2023-09-23T08:19:33Z</time>
      </trkpt>
      <trkpt lat="43.03104" lon="0.6714">
        <ele>434.4</ele>
        <time>2023-09-23T08:19:34Z</time>
      </trkpt>
      <trkpt lat="43.03102" lon="0.67147">
        <ele>434.4</ele>
        <time>2023-09-23T08:19:35Z</time>
      </trkpt>
      <trkpt lat="43.031" lon="0.67154">
        <ele>434.4</ele>
        <time>2023-09-23T08:19:36Z</time>
      </trkpt>
      <trkpt lat="43.03097" lon="0.67162">
        <ele>434.4</ele>
        <time>2023-09-23T08:19:37Z</time>
      </trkpt>
      <trkpt lat="43.03094" lon="0.67169">
        <ele>434.4</ele>
        <time>2023-09-23T08:19:38Z</time>
      </trkpt>
      <trkpt lat="43.03092" lon="0.67176">
        <ele>434.4</ele>
        <time>2023-09-23T08:19:39Z</time>
      </trkpt>
      <trkpt lat="43.03089" lon="0.67183">
        <ele>435.2</ele>
        <time>2023-09-23T08:19:40Z</time>
      </trkpt>
      <trkpt lat="43.03086" lon="0.67191">
        <ele>435.2</ele>
        <time>2023-09-23T08:19:41Z</time>
      </trkpt>
      <trkpt lat="43.03083" lon="0.67198">
        <ele>435.2</ele>
        <time>2023-09-23T08:19:42Z</time>
      </trkpt>
      <trkpt lat="43.03081" lon="0.67206">
        <ele>435.2</ele>
        <time>2023-09-23T08:19:43Z</time>
      </trkpt>
      <trkpt lat="43.03078" lon="0.67213">
        <ele>435</ele>
        <time>2023-09-23T08:19:44Z</time>
      </trkpt>
      <trkpt lat="43.03076" lon="0.67221">
        <ele>435</ele>
        <time>2023-09-23T08:19:45Z</time>
      </trkpt>
      <trkpt lat="43.03074" lon="0.67229">
        <ele>435</ele>
        <time>2023-09-23T08:19:46Z</time>
      </trkpt>
      <trkpt lat="43.03071" lon="0.67237">
        <ele>435</ele>
        <time>2023-09-23T08:19:47Z</time>
      </trkpt>
      <trkpt lat="43.03069" lon="0.67245">
        <ele>434.4</ele>
        <time>2023-09-23T08:19:48Z</time>
      </trkpt>
      <trkpt lat="43.03067" lon="0.67253">
        <ele>434.4</ele>
        <time>2023-09-23T08:19:49Z</time>
      </trkpt>
      <trkpt lat="43.03065" lon="0.67262">
        <ele>434.4</ele>
        <time>2023-09-23T08:19:50Z</time>
      </trkpt>
      <trkpt lat="43.03064" lon="0.6727">
        <ele>434.4</ele>
        <time>2023-09-23T08:19:51Z</time>
      </trkpt>
      <trkpt lat="43.03062" lon="0.67279">
        <ele>434.4</ele>
        <time>2023-09-23T08:19:52Z</time>
      </trkpt>
      <trkpt lat="43.0306" lon="0.67287">
        <ele>434.4</ele>
        <time>2023-09-23T08:19:53Z</time>
      </trkpt>
      <trkpt lat="43.03058" lon="0.67296">
        <ele>434.4</ele>
        <time>2023-09-23T08:19:54Z</time>
      </trkpt>
      <trkpt lat="43.03057" lon="0.67305">
        <ele>434.4</ele>
        <time>2023-09-23T08:19:55Z</time>
      </trkpt>
      <trkpt lat="43.03055" lon="0.67313">
        <ele>434.2</ele>
        <time>2023-09-23T08:19:56Z</time>
      </trkpt>
      <trkpt lat="43.03054" lon="0.67322">
        <ele>434.2</ele>
        <time>2023-09-23T08:19:57Z</time>
      </trkpt>
      <trkpt lat="43.03052" lon="0.6733">
        <ele>434.2</ele>
        <time>2023-09-23T08:19:58Z</time>
      </trkpt>
      <trkpt lat="43.03051" lon="0.67338">
        <ele>434.8</ele>
        <time>2023-09-23T08:19:59Z</time>
      </trkpt>
      <trkpt lat="43.03049" lon="0.67347">
        <ele>434.4</ele>
        <time>2023-09-23T08:20:00Z</time>
      </trkpt>
      <trkpt lat="43.03048" lon="0.67355">
        <ele>434.4</ele>
        <time>2023-09-23T08:20:01Z</time>
      </trkpt>
      <trkpt lat="43.03048" lon="0.67363">
        <ele>434.4</ele>
        <time>2023-09-23T08:20:02Z</time>
      </trkpt>
      <trkpt lat="43.03047" lon="0.67371">
        <ele>435.2</ele>
        <time>2023-09-23T08:20:03Z</time>
      </trkpt>
      <trkpt lat="43.03047" lon="0.67379">
        <ele>435.4</ele>
        <time>2023-09-23T08:20:04Z</time>
      </trkpt>
      <trkpt lat="43.03047" lon="0.67387">
        <ele>435.4</ele>
        <time>2023-09-23T08:20:05Z</time>
      </trkpt>
      <trkpt lat="43.03047" lon="0.67395">
        <ele>435.4</ele>
        <time>2023-09-23T08:20:06Z</time>
      </trkpt>
      <trkpt lat="43.03047" lon="0.67403">
        <ele>436.4</ele>
        <time>2023-09-23T08:20:07Z</time>
      </trkpt>
      <trkpt lat="43.03047" lon="0.67411">
        <ele>437</ele>
        <time>2023-09-23T08:20:08Z</time>
      </trkpt>
      <trkpt lat="43.03047" lon="0.67419">
        <ele>437</ele>
        <time>2023-09-23T08:20:09Z</time>
      </trkpt>
      <trkpt lat="43.03046" lon="0.67427">
        <ele>437</ele>
        <time>2023-09-23T08:20:10Z</time>
      </trkpt>
      <trkpt lat="43.03046" lon="0.67434">
        <ele>437</ele>
        <time>2023-09-23T08:20:11Z</time>
      </trkpt>
      <trkpt lat="43.03046" lon="0.67442">
        <ele>437.4</ele>
        <time>2023-09-23T08:20:12Z</time>
      </trkpt>
      <trkpt lat="43.03045" lon="0.6745">
        <ele>437.4</ele>
        <time>2023-09-23T08:20:13Z</time>
      </trkpt>
      <trkpt lat="43.03045" lon="0.67458">
        <ele>437.4</ele>
        <time>2023-09-23T08:20:14Z</time>
      </trkpt>
      <trkpt lat="43.03044" lon="0.67465">
        <ele>437.4</ele>
        <time>2023-09-23T08:20:15Z</time>
      </trkpt>
      <trkpt lat="43.03043" lon="0.67473">
        <ele>437.8</ele>
        <time>2023-09-23T08:20:16Z</time>
      </trkpt>
      <trkpt lat="43.03042" lon="0.6748">
        <ele>437.8</ele>
        <time>2023-09-23T08:20:17Z</time>
      </trkpt>
      <trkpt lat="43.0304" lon="0.67487">
        <ele>437.8</ele>
        <time>2023-09-23T08:20:18Z</time>
      </trkpt>
      <trkpt lat="43.03038" lon="0.67494">
        <ele>438.2</ele>
        <time>2023-09-23T08:20:19Z</time>
      </trkpt>
      <trkpt lat="43.03035" lon="0.67501">
        <ele>438</ele>
        <time>2023-09-23T08:20:20Z</time>
      </trkpt>
      <trkpt lat="43.03032" lon="0.67507">
        <ele>438</ele>
        <time>2023-09-23T08:20:21Z</time>
      </trkpt>
      <trkpt lat="43.03027" lon="0.67512">
        <ele>438</ele>
        <time>2023-09-23T08:20:22Z</time>
      </trkpt>
      <trkpt lat="43.03021" lon="0.67516">
        <ele>437</ele>
        <time>2023-09-23T08:20:23Z</time>
      </trkpt>
      <trkpt lat="43.03015" lon="0.67518">
        <ele>434.2</ele>
        <time>2023-09-23T08:20:24Z</time>
      </trkpt>
      <trkpt lat="43.03009" lon="0.67519">
        <ele>434.2</ele>
        <time>2023-09-23T08:20:25Z</time>
      </trkpt>
      <trkpt lat="43.03002" lon="0.6752">
        <ele>434.2</ele>
        <time>2023-09-23T08:20:26Z</time>
      </trkpt>
      <trkpt lat="43.02996" lon="0.67521">
        <ele>434.2</ele>
        <time>2023-09-23T08:20:27Z</time>
      </trkpt>
      <trkpt lat="43.02989" lon="0.67523">
        <ele>433.6</ele>
        <time>2023-09-23T08:20:28Z</time>
      </trkpt>
      <trkpt lat="43.02982" lon="0.67524">
        <ele>433.6</ele>
        <time>2023-09-23T08:20:29Z</time>
      </trkpt>
      <trkpt lat="43.02976" lon="0.67525">
        <ele>433.6</ele>
        <time>2023-09-23T08:20:30Z</time>
      </trkpt>
      <trkpt lat="43.02969" lon="0.67527">
        <ele>433.8</ele>
        <time>2023-09-23T08:20:31Z</time>
      </trkpt>
      <trkpt lat="43.02963" lon="0.67528">
        <ele>434</ele>
        <time>2023-09-23T08:20:32Z</time>
      </trkpt>
      <trkpt lat="43.02956" lon="0.67529">
        <ele>434</ele>
        <time>2023-09-23T08:20:33Z</time>
      </trkpt>
      <trkpt lat="43.0295" lon="0.6753">
        <ele>434</ele>
        <time>2023-09-23T08:20:34Z</time>
      </trkpt>
      <trkpt lat="43.02944" lon="0.67531">
        <ele>433.6</ele>
        <time>2023-09-23T08:20:35Z</time>
      </trkpt>
      <trkpt lat="43.02937" lon="0.67532">
        <ele>433</ele>
        <time>2023-09-23T08:20:36Z</time>
      </trkpt>
      <trkpt lat="43.02931" lon="0.67533">
        <ele>433</ele>
        <time>2023-09-23T08:20:37Z</time>
      </trkpt>
      <trkpt lat="43.02925" lon="0.67535">
        <ele>433</ele>
        <time>2023-09-23T08:20:38Z</time>
      </trkpt>
      <trkpt lat="43.02918" lon="0.67537">
        <ele>432</ele>
        <time>2023-09-23T08:20:39Z</time>
      </trkpt>
      <trkpt lat="43.02912" lon="0.67539">
        <ele>432</ele>
        <time>2023-09-23T08:20:40Z</time>
      </trkpt>
      <trkpt lat="43.02907" lon="0.67541">
        <ele>432</ele>
        <time>2023-09-23T08:20:41Z</time>
      </trkpt>
      <trkpt lat="43.02901" lon="0.67544">
        <ele>432</ele>
        <time>2023-09-23T08:20:42Z</time>
      </trkpt>
      <trkpt lat="43.02896" lon="0.67547">
        <ele>432.4</ele>
        <time>2023-09-23T08:20:43Z</time>
      </trkpt>
      <trkpt lat="43.02891" lon="0.6755">
        <ele>432.2</ele>
        <time>2023-09-23T08:20:44Z</time>
      </trkpt>
      <trkpt lat="43.02887" lon="0.67553">
        <ele>432.2</ele>
        <time>2023-09-23T08:20:45Z</time>
      </trkpt>
      <trkpt lat="43.02883" lon="0.67555">
        <ele>432.2</ele>
        <time>2023-09-23T08:20:46Z</time>
      </trkpt>
      <trkpt lat="43.02881" lon="0.67556">
        <ele>432.4</ele>
        <time>2023-09-23T08:20:47Z</time>
      </trkpt>
      <trkpt lat="43.02878" lon="0.67555">
        <ele>431.8</ele>
        <time>2023-09-23T08:20:48Z</time>
      </trkpt>
      <trkpt lat="43.02876" lon="0.67554">
        <ele>431.8</ele>
        <time>2023-09-23T08:20:49Z</time>
      </trkpt>
      <trkpt lat="43.02874" lon="0.67551">
        <ele>431.8</ele>
        <time>2023-09-23T08:20:50Z</time>
      </trkpt>
      <trkpt lat="43.02873" lon="0.67548">
        <ele>432.8</ele>
        <time>2023-09-23T08:20:51Z</time>
      </trkpt>
      <trkpt lat="43.02873" lon="0.67544">
        <ele>433</ele>
        <time>2023-09-23T08:20:52Z</time>
      </trkpt>
      <trkpt lat="43.02873" lon="0.67539">
        <ele>433</ele>
        <time>2023-09-23T08:20:53Z</time>
      </trkpt>
      <trkpt lat="43.02873" lon="0.67533">
        <ele>433</ele>
        <time>2023-09-23T08:20:54Z</time>
      </trkpt>
      <trkpt lat="43.02874" lon="0.67528">
        <ele>433</ele>
        <time>2023-09-23T08:20:55Z</time>
      </trkpt>
      <trkpt lat="43.02875" lon="0.67522">
        <ele>433.2</ele>
        <time>2023-09-23T08:20:56Z</time>
      </trkpt>
      <trkpt lat="43.02876" lon="0.67516">
        <ele>433.2</ele>
        <time>2023-09-23T08:20:57Z</time>
      </trkpt>
      <trkpt lat="43.02877" lon="0.67509">
        <ele>433.2</ele>
        <time>2023-09-23T08:20:58Z</time>
      </trkpt>
      <trkpt lat="43.02878" lon="0.67503">
        <ele>433.2</ele>
        <time>2023-09-23T08:20:59Z</time>
      </trkpt>
      <trkpt lat="43.0288" lon="0.67496">
        <ele>434.2</ele>
        <time>2023-09-23T08:21:00Z</time>
      </trkpt>
      <trkpt lat="43.02881" lon="0.67489">
        <ele>434.2</ele>
        <time>2023-09-23T08:21:01Z</time>
      </trkpt>
      <trkpt lat="43.02883" lon="0.67482">
        <ele>434.2</ele>
        <time>2023-09-23T08:21:02Z</time>
      </trkpt>
      <trkpt lat="43.02885" lon="0.67476">
        <ele>434.2</ele>
        <time>2023-09-23T08:21:03Z</time>
      </trkpt>
      <trkpt lat="43.02887" lon="0.67469">
        <ele>433.8</ele>
        <time>2023-09-23T08:21:04Z</time>
      </trkpt>
      <trkpt lat="43.02889" lon="0.67462">
        <ele>433.8</ele>
        <time>2023-09-23T08:21:05Z</time>
      </trkpt>
      <trkpt lat="43.02891" lon="0.67456">
        <ele>433.8</ele>
        <time>2023-09-23T08:21:06Z</time>
      </trkpt>
      <trkpt lat="43.02893" lon="0.67449">
        <ele>434.2</ele>
        <time>2023-09-23T08:21:07Z</time>
      </trkpt>
      <trkpt lat="43.02895" lon="0.67442">
        <ele>434.4</ele>
        <time>2023-09-23T08:21:08Z</time>
      </trkpt>
      <trkpt lat="43.02898" lon="0.67435">
        <ele>434.4</ele>
        <time>2023-09-23T08:21:09Z</time>
      </trkpt>
      <trkpt lat="43.029" lon="0.67428">
        <ele>434.4</ele>
        <time>2023-09-23T08:21:10Z</time>
      </trkpt>
      <trkpt lat="43.02902" lon="0.67422">
        <ele>435</ele>
        <time>2023-09-23T08:21:11Z</time>
      </trkpt>
      <trkpt lat="43.02905" lon="0.67415">
        <ele>434.6</ele>
        <time>2023-09-23T08:21:12Z</time>
      </trkpt>
      <trkpt lat="43.02907" lon="0.67408">
        <ele>434.6</ele>
        <time>2023-09-23T08:21:13Z</time>
      </trkpt>
      <trkpt lat="43.0291" lon="0.67401">
        <ele>434.6</ele>
        <time>2023-09-23T08:21:14Z</time>
      </trkpt>
      <trkpt lat="43.02912" lon="0.67394">
        <ele>434.6</ele>
        <time>2023-09-23T08:21:15Z</time>
      </trkpt>
      <trkpt lat="43.02914" lon="0.67387">
        <ele>435</ele>
        <time>2023-09-23T08:21:16Z</time>
      </trkpt>
      <trkpt lat="43.02917" lon="0.6738">
        <ele>435</ele>
        <time>2023-09-23T08:21:17Z</time>
      </trkpt>
      <trkpt lat="43.02919" lon="0.67372">
        <ele>435</ele>
        <time>2023-09-23T08:21:18Z</time>
      </trkpt>
      <trkpt lat="43.0292" lon="0.67365">
        <ele>435</ele>
        <time>2023-09-23T08:21:19Z</time>
      </trkpt>
      <trkpt lat="43.02922" lon="0.67357">
        <ele>436</ele>
        <time>2023-09-23T08:21:20Z</time>
      </trkpt>
      <trkpt lat="43.02923" lon="0.6735">
        <ele>436</ele>
        <time>2023-09-23T08:21:21Z</time>
      </trkpt>
      <trkpt lat="43.02924" lon="0.67342">
        <ele>436</ele>
        <time>2023-09-23T08:21:22Z</time>
      </trkpt>
      <trkpt lat="43.02925" lon="0.67334">
        <ele>435.6</ele>
        <time>2023-09-23T08:21:23Z</time>
      </trkpt>
      <trkpt lat="43.02925" lon="0.67327">
        <ele>435.8</ele>
        <time>2023-09-23T08:21:24Z</time>
      </trkpt>
      <trkpt lat="43.02925" lon="0.67319">
        <ele>435.8</ele>
        <time>2023-09-23T08:21:25Z</time>
      </trkpt>
      <trkpt lat="43.02925" lon="0.67311">
        <ele>435.8</ele>
        <time>2023-09-23T08:21:26Z</time>
      </trkpt>
      <trkpt lat="43.02924" lon="0.67303">
        <ele>435.8</ele>
        <time>2023-09-23T08:21:27Z</time>
      </trkpt>
      <trkpt lat="43.02924" lon="0.67295">
        <ele>435.8</ele>
        <time>2023-09-23T08:21:28Z</time>
      </trkpt>
      <trkpt lat="43.02924" lon="0.67288">
        <ele>435.8</ele>
        <time>2023-09-23T08:21:29Z</time>
      </trkpt>
      <trkpt lat="43.02923" lon="0.6728">
        <ele>435.8</ele>
        <time>2023-09-23T08:21:30Z</time>
      </trkpt>
      <trkpt lat="43.02923" lon="0.67272">
        <ele>435.8</ele>
        <time>2023-09-23T08:21:31Z</time>
      </trkpt>
      <trkpt lat="43.02922" lon="0.67265">
        <ele>435.8</ele>
        <time>2023-09-23T08:21:32Z</time>
      </trkpt>
      <trkpt lat="43.02922" lon="0.67257">
        <ele>435.8</ele>
        <time>2023-09-23T08:21:33Z</time>
      </trkpt>
      <trkpt lat="43.02921" lon="0.6725">
        <ele>435.8</ele>
        <time>2023-09-23T08:21:34Z</time>
      </trkpt>
      <trkpt lat="43.02921" lon="0.67242">
        <ele>435.8</ele>
        <time>2023-09-23T08:21:35Z</time>
      </trkpt>
      <trkpt lat="43.0292" lon="0.67235">
        <ele>436.8</ele>
        <time>2023-09-23T08:21:36Z</time>
      </trkpt>
      <trkpt lat="43.02919" lon="0.67228">
        <ele>436.8</ele>
        <time>2023-09-23T08:21:37Z</time>
      </trkpt>
      <trkpt lat="43.02919" lon="0.67221">
        <ele>436.8</ele>
        <time>2023-09-23T08:21:38Z</time>
      </trkpt>
      <trkpt lat="43.02917" lon="0.67214">
        <ele>437</ele>
        <time>2023-09-23T08:21:39Z</time>
      </trkpt>
      <trkpt lat="43.02916" lon="0.67207">
        <ele>437.4</ele>
        <time>2023-09-23T08:21:40Z</time>
      </trkpt>
      <trkpt lat="43.02915" lon="0.672">
        <ele>437.4</ele>
        <time>2023-09-23T08:21:41Z</time>
      </trkpt>
      <trkpt lat="43.02914" lon="0.67193">
        <ele>437.4</ele>
        <time>2023-09-23T08:21:42Z</time>
      </trkpt>
      <trkpt lat="43.02912" lon="0.67186">
        <ele>437.2</ele>
        <time>2023-09-23T08:21:43Z</time>
      </trkpt>
      <trkpt lat="43.02911" lon="0.6718">
        <ele>437.8</ele>
        <time>2023-09-23T08:21:44Z</time>
      </trkpt>
      <trkpt lat="43.0291" lon="0.67174">
        <ele>437.8</ele>
        <time>2023-09-23T08:21:45Z</time>
      </trkpt>
      <trkpt lat="43.02909" lon="0.67169">
        <ele>437.8</ele>
        <time>2023-09-23T08:21:46Z</time>
      </trkpt>
      <trkpt lat="43.02908" lon="0.67165">
        <ele>437.8</ele>
        <time>2023-09-23T08:21:47Z</time>
      </trkpt>
      <trkpt lat="43.0291" lon="0.67163">
        <ele>438</ele>
        <time>2023-09-23T08:21:48Z</time>
      </trkpt>
      <trkpt lat="43.02911" lon="0.67161">
        <ele>438</ele>
        <time>2023-09-23T08:21:49Z</time>
      </trkpt>
      <trkpt lat="43.02913" lon="0.67159">
        <ele>438</ele>
        <time>2023-09-23T08:21:50Z</time>
      </trkpt>
      <trkpt lat="43.02914" lon="0.67157">
        <ele>437.4</ele>
        <time>2023-09-23T08:21:51Z</time>
      </trkpt>
      <trkpt lat="43.02914" lon="0.67155">
        <ele>437.4</ele>
        <time>2023-09-23T08:21:52Z</time>
      </trkpt>
      <trkpt lat="43.02914" lon="0.67154">
        <ele>437.4</ele>
        <time>2023-09-23T08:21:53Z</time>
      </trkpt>
      <trkpt lat="43.02914" lon="0.67154">
        <ele>437.4</ele>
        <time>2023-09-23T08:21:54Z</time>
      </trkpt>
      <trkpt lat="43.02914" lon="0.67154">
        <ele>437.4</ele>
        <time>2023-09-23T08:21:55Z</time>
      </trkpt>
      <trkpt lat="43.02914" lon="0.67154">
        <ele>437.4</ele>
        <time>2023-09-23T08:21:56Z</time>
      </trkpt>
      <trkpt lat="43.02913" lon="0.6716">
        <ele>437.4</ele>
        <time>2023-09-23T08:22:03Z</time>
      </trkpt>
      <trkpt lat="43.02912" lon="0.67162">
        <ele>437.6</ele>
        <time>2023-09-23T08:22:04Z</time>
      </trkpt>
      <trkpt lat="43.0291" lon="0.67163">
        <ele>437.6</ele>
        <time>2023-09-23T08:22:05Z</time>
      </trkpt>
      <trkpt lat="43.02908" lon="0.67161">
        <ele>437.6</ele>
        <time>2023-09-23T08:22:06Z</time>
      </trkpt>
      <trkpt lat="43.02906" lon="0.67159">
        <ele>438</ele>
        <time>2023-09-23T08:22:07Z</time>
      </trkpt>
      <trkpt lat="43.02905" lon="0.67156">
        <ele>437.6</ele>
        <time>2023-09-23T08:22:08Z</time>
      </trkpt>
      <trkpt lat="43.02905" lon="0.67153">
        <ele>437.6</ele>
        <time>2023-09-23T08:22:09Z</time>
      </trkpt>
      <trkpt lat="43.02904" lon="0.67149">
        <ele>437.6</ele>
        <time>2023-09-23T08:22:10Z</time>
      </trkpt>
      <trkpt lat="43.02903" lon="0.67145">
        <ele>438</ele>
        <time>2023-09-23T08:22:11Z</time>
      </trkpt>
      <trkpt lat="43.02901" lon="0.67141">
        <ele>438</ele>
        <time>2023-09-23T08:22:12Z</time>
      </trkpt>
      <trkpt lat="43.029" lon="0.67136">
        <ele>438</ele>
        <time>2023-09-23T08:22:13Z</time>
      </trkpt>
      <trkpt lat="43.02899" lon="0.67132">
        <ele>438</ele>
        <time>2023-09-23T08:22:14Z</time>
      </trkpt>
      <trkpt lat="43.02898" lon="0.67128">
        <ele>438</ele>
        <time>2023-09-23T08:22:15Z</time>
      </trkpt>
      <trkpt lat="43.02897" lon="0.67124">
        <ele>438.2</ele>
        <time>2023-09-23T08:22:16Z</time>
      </trkpt>
      <trkpt lat="43.02897" lon="0.67121">
        <ele>438.2</ele>
        <time>2023-09-23T08:22:17Z</time>
      </trkpt>
      <trkpt lat="43.02896" lon="0.67118">
        <ele>438.2</ele>
        <time>2023-09-23T08:22:18Z</time>
      </trkpt>
      <trkpt lat="43.02894" lon="0.67116">
        <ele>438.2</ele>
        <time>2023-09-23T08:22:19Z</time>
      </trkpt>
      <trkpt lat="43.02894" lon="0.67115">
        <ele>438.4</ele>
        <time>2023-09-23T08:22:20Z</time>
      </trkpt>
      <trkpt lat="43.02894" lon="0.67115">
        <ele>438.4</ele>
        <time>2023-09-23T08:22:21Z</time>
      </trkpt>
      <trkpt lat="43.02894" lon="0.67109">
        <ele>437.8</ele>
        <time>2023-09-23T08:24:53Z</time>
      </trkpt>
      <trkpt lat="43.02893" lon="0.67105">
        <ele>437.8</ele>
        <time>2023-09-23T08:24:54Z</time>
      </trkpt>
      <trkpt lat="43.02892" lon="0.671">
        <ele>437.8</ele>
        <time>2023-09-23T08:24:55Z</time>
      </trkpt>
      <trkpt lat="43.02891" lon="0.67094">
        <ele>437.6</ele>
        <time>2023-09-23T08:24:56Z</time>
      </trkpt>
      <trkpt lat="43.0289" lon="0.67089">
        <ele>437.6</ele>
        <time>2023-09-23T08:24:57Z</time>
      </trkpt>
      <trkpt lat="43.02889" lon="0.67083">
        <ele>437.6</ele>
        <time>2023-09-23T08:24:58Z</time>
      </trkpt>
      <trkpt lat="43.02888" lon="0.67078">
        <ele>437.6</ele>
        <time>2023-09-23T08:24:59Z</time>
      </trkpt>
      <trkpt lat="43.02887" lon="0.67072">
        <ele>437</ele>
        <time>2023-09-23T08:25:00Z</time>
      </trkpt>
      <trkpt lat="43.02885" lon="0.67067">
        <ele>437</ele>
        <time>2023-09-23T08:25:01Z</time>
      </trkpt>
      <trkpt lat="43.02884" lon="0.67061">
        <ele>437</ele>
        <time>2023-09-23T08:25:02Z</time>
      </trkpt>
      <trkpt lat="43.02883" lon="0.67056">
        <ele>438</ele>
        <time>2023-09-23T08:25:03Z</time>
      </trkpt>
      <trkpt lat="43.02882" lon="0.6705">
        <ele>438</ele>
        <time>2023-09-23T08:25:04Z</time>
      </trkpt>
      <trkpt lat="43.02881" lon="0.67044">
        <ele>438</ele>
        <time>2023-09-23T08:25:05Z</time>
      </trkpt>
      <trkpt lat="43.0288" lon="0.67039">
        <ele>438</ele>
        <time>2023-09-23T08:25:06Z</time>
      </trkpt>
      <trkpt lat="43.02878" lon="0.67034">
        <ele>438</ele>
        <time>2023-09-23T08:25:07Z</time>
      </trkpt>
      <trkpt lat="43.02877" lon="0.67029">
        <ele>438.2</ele>
        <time>2023-09-23T08:25:08Z</time>
      </trkpt>
      <trkpt lat="43.02876" lon="0.67025">
        <ele>438.2</ele>
        <time>2023-09-23T08:25:09Z</time>
      </trkpt>
      <trkpt lat="43.02875" lon="0.6702">
        <ele>438.2</ele>
        <time>2023-09-23T08:25:10Z</time>
      </trkpt>
      <trkpt lat="43.02874" lon="0.67015">
        <ele>438.4</ele>
        <time>2023-09-23T08:25:11Z</time>
      </trkpt>
      <trkpt lat="43.02873" lon="0.67011">
        <ele>438.4</ele>
        <time>2023-09-23T08:25:12Z</time>
      </trkpt>
      <trkpt lat="43.02872" lon="0.67005">
        <ele>438.4</ele>
        <time>2023-09-23T08:25:13Z</time>
      </trkpt>
      <trkpt lat="43.02871" lon="0.67001">
        <ele>438.4</ele>
        <time>2023-09-23T08:25:14Z</time>
      </trkpt>
      <trkpt lat="43.0287" lon="0.66996">
        <ele>438.6</ele>
        <time>2023-09-23T08:25:15Z</time>
      </trkpt>
      <trkpt lat="43.02869" lon="0.66992">
        <ele>438.6</ele>
        <time>2023-09-23T08:25:16Z</time>
      </trkpt>
      <trkpt lat="43.02868" lon="0.66987">
        <ele>438.6</ele>
        <time>2023-09-23T08:25:17Z</time>
      </trkpt>
      <trkpt lat="43.02867" lon="0.66982">
        <ele>438.6</ele>
        <time>2023-09-23T08:25:18Z</time>
      </trkpt>
      <trkpt lat="43.02867" lon="0.66978">
        <ele>438.8</ele>
        <time>2023-09-23T08:25:19Z</time>
      </trkpt>
      <trkpt lat="43.02866" lon="0.66974">
        <ele>438.8</ele>
        <time>2023-09-23T08:25:20Z</time>
      </trkpt>
      <trkpt lat="43.02866" lon="0.6697">
        <ele>438.8</ele>
        <time>2023-09-23T08:25:21Z</time>
      </trkpt>
      <trkpt lat="43.02865" lon="0.66965">
        <ele>438.8</ele>
        <time>2023-09-23T08:25:22Z</time>
      </trkpt>
      <trkpt lat="43.02865" lon="0.66961">
        <ele>439</ele>
        <time>2023-09-23T08:25:23Z</time>
      </trkpt>
      <trkpt lat="43.02864" lon="0.66956">
        <ele>439</ele>
        <time>2023-09-23T08:25:24Z</time>
      </trkpt>
      <trkpt lat="43.02863" lon="0.66952">
        <ele>439</ele>
        <time>2023-09-23T08:25:25Z</time>
      </trkpt>
      <trkpt lat="43.02863" lon="0.66947">
        <ele>439</ele>
        <time>2023-09-23T08:25:26Z</time>
      </trkpt>
      <trkpt lat="43.02863" lon="0.66943">
        <ele>439</ele>
        <time>2023-09-23T08:25:27Z</time>
      </trkpt>
      <trkpt lat="43.02862" lon="0.66939">
        <ele>438.8</ele>
        <time>2023-09-23T08:25:28Z</time>
      </trkpt>
      <trkpt lat="43.02862" lon="0.66934">
        <ele>438.8</ele>
        <time>2023-09-23T08:25:29Z</time>
      </trkpt>
      <trkpt lat="43.02861" lon="0.66929">
        <ele>438.8</ele>
        <time>2023-09-23T08:25:30Z</time>
      </trkpt>
      <trkpt lat="43.02861" lon="0.66924">
        <ele>438.8</ele>
        <time>2023-09-23T08:25:31Z</time>
      </trkpt>
      <trkpt lat="43.0286" lon="0.66918">
        <ele>438.4</ele>
        <time>2023-09-23T08:25:32Z</time>
      </trkpt>
      <trkpt lat="43.02859" lon="0.66912">
        <ele>438.4</ele>
        <time>2023-09-23T08:25:33Z</time>
      </trkpt>
      <trkpt lat="43.02859" lon="0.66906">
        <ele>438.4</ele>
        <time>2023-09-23T08:25:34Z</time>
      </trkpt>
      <trkpt lat="43.02858" lon="0.669">
        <ele>438.4</ele>
        <time>2023-09-23T08:25:35Z</time>
      </trkpt>
      <trkpt lat="43.02857" lon="0.66894">
        <ele>438.8</ele>
        <time>2023-09-23T08:25:36Z</time>
      </trkpt>
      <trkpt lat="43.02856" lon="0.66887">
        <ele>438.8</ele>
        <time>2023-09-23T08:25:37Z</time>
      </trkpt>
      <trkpt lat="43.02855" lon="0.66881">
        <ele>438.8</ele>
        <time>2023-09-23T08:25:38Z</time>
      </trkpt>
      <trkpt lat="43.02854" lon="0.66874">
        <ele>439</ele>
        <time>2023-09-23T08:25:39Z</time>
      </trkpt>
      <trkpt lat="43.02853" lon="0.66868">
        <ele>439.2</ele>
        <time>2023-09-23T08:25:40Z</time>
      </trkpt>
      <trkpt lat="43.02852" lon="0.66862">
        <ele>439.2</ele>
        <time>2023-09-23T08:25:41Z</time>
      </trkpt>
      <trkpt lat="43.02851" lon="0.66856">
        <ele>439.2</ele>
        <time>2023-09-23T08:25:42Z</time>
      </trkpt>
      <trkpt lat="43.02849" lon="0.66849">
        <ele>439.6</ele>
        <time>2023-09-23T08:25:43Z</time>
      </trkpt>
      <trkpt lat="43.02848" lon="0.66844">
        <ele>439.4</ele>
        <time>2023-09-23T08:25:44Z</time>
      </trkpt>
      <trkpt lat="43.02847" lon="0.66839">
        <ele>439.4</ele>
        <time>2023-09-23T08:25:45Z</time>
      </trkpt>
      <trkpt lat="43.02845" lon="0.66834">
        <ele>439.4</ele>
        <time>2023-09-23T08:25:46Z</time>
      </trkpt>
      <trkpt lat="43.02844" lon="0.6683">
        <ele>440.4</ele>
        <time>2023-09-23T08:25:47Z</time>
      </trkpt>
      <trkpt lat="43.02843" lon="0.66825">
        <ele>440.4</ele>
        <time>2023-09-23T08:25:48Z</time>
      </trkpt>
      <trkpt lat="43.02842" lon="0.66821">
        <ele>440.4</ele>
        <time>2023-09-23T08:25:49Z</time>
      </trkpt>
      <trkpt lat="43.02842" lon="0.66817">
        <ele>440.4</ele>
        <time>2023-09-23T08:25:50Z</time>
      </trkpt>
      <trkpt lat="43.02842" lon="0.66814">
        <ele>440.2</ele>
        <time>2023-09-23T08:25:51Z</time>
      </trkpt>
      <trkpt lat="43.02843" lon="0.6681">
        <ele>440</ele>
        <time>2023-09-23T08:25:52Z</time>
      </trkpt>
      <trkpt lat="43.02845" lon="0.66808">
        <ele>440</ele>
        <time>2023-09-23T08:25:53Z</time>
      </trkpt>
      <trkpt lat="43.02847" lon="0.66806">
        <ele>440</ele>
        <time>2023-09-23T08:25:54Z</time>
      </trkpt>
      <trkpt lat="43.0285" lon="0.66806">
        <ele>439.8</ele>
        <time>2023-09-23T08:25:55Z</time>
      </trkpt>
      <trkpt lat="43.02854" lon="0.66806">
        <ele>439.6</ele>
        <time>2023-09-23T08:25:56Z</time>
      </trkpt>
      <trkpt lat="43.02857" lon="0.66808">
        <ele>439.6</ele>
        <time>2023-09-23T08:25:57Z</time>
      </trkpt>
      <trkpt lat="43.0286" lon="0.66809">
        <ele>439.6</ele>
        <time>2023-09-23T08:25:58Z</time>
      </trkpt>
      <trkpt lat="43.02864" lon="0.6681">
        <ele>439.6</ele>
        <time>2023-09-23T08:25:59Z</time>
      </trkpt>
      <trkpt lat="43.02868" lon="0.66812">
        <ele>439.2</ele>
        <time>2023-09-23T08:26:00Z</time>
      </trkpt>
      <trkpt lat="43.02873" lon="0.66813">
        <ele>439.2</ele>
        <time>2023-09-23T08:26:01Z</time>
      </trkpt>
      <trkpt lat="43.02877" lon="0.66815">
        <ele>439.2</ele>
        <time>2023-09-23T08:26:02Z</time>
      </trkpt>
      <trkpt lat="43.02881" lon="0.66816">
        <ele>439.2</ele>
        <time>2023-09-23T08:26:03Z</time>
      </trkpt>
      <trkpt lat="43.02885" lon="0.66817">
        <ele>439</ele>
        <time>2023-09-23T08:26:04Z</time>
      </trkpt>
      <trkpt lat="43.02889" lon="0.66818">
        <ele>439</ele>
        <time>2023-09-23T08:26:05Z</time>
      </trkpt>
      <trkpt lat="43.02893" lon="0.66819">
        <ele>439</ele>
        <time>2023-09-23T08:26:06Z</time>
      </trkpt>
      <trkpt lat="43.02898" lon="0.6682">
        <ele>439</ele>
        <time>2023-09-23T08:26:07Z</time>
      </trkpt>
      <trkpt lat="43.02902" lon="0.66821">
        <ele>438.8</ele>
        <time>2023-09-23T08:26:08Z</time>
      </trkpt>
      <trkpt lat="43.02906" lon="0.66821">
        <ele>438.8</ele>
        <time>2023-09-23T08:26:09Z</time>
      </trkpt>
      <trkpt lat="43.0291" lon="0.66822">
        <ele>438.8</ele>
        <time>2023-09-23T08:26:10Z</time>
      </trkpt>
      <trkpt lat="43.02915" lon="0.66822">
        <ele>438.4</ele>
        <time>2023-09-23T08:26:11Z</time>
      </trkpt>
      <trkpt lat="43.02919" lon="0.66822">
        <ele>438</ele>
        <time>2023-09-23T08:26:12Z</time>
      </trkpt>
      <trkpt lat="43.02924" lon="0.66823">
        <ele>438</ele>
        <time>2023-09-23T08:26:13Z</time>
      </trkpt>
      <trkpt lat="43.0293" lon="0.66823">
        <ele>438</ele>
        <time>2023-09-23T08:26:14Z</time>
      </trkpt>
      <trkpt lat="43.02935" lon="0.66823">
        <ele>438</ele>
        <time>2023-09-23T08:26:15Z</time>
      </trkpt>
      <trkpt lat="43.0294" lon="0.66822">
        <ele>437.6</ele>
        <time>2023-09-23T08:26:16Z</time>
      </trkpt>
      <trkpt lat="43.02945" lon="0.66821">
        <ele>437.6</ele>
        <time>2023-09-23T08:26:17Z</time>
      </trkpt>
      <trkpt lat="43.0295" lon="0.66821">
        <ele>437.6</ele>
        <time>2023-09-23T08:26:18Z</time>
      </trkpt>
      <trkpt lat="43.02955" lon="0.66819">
        <ele>437.4</ele>
        <time>2023-09-23T08:26:19Z</time>
      </trkpt>
      <trkpt lat="43.0296" lon="0.66818">
        <ele>437.2</ele>
        <time>2023-09-23T08:26:20Z</time>
      </trkpt>
      <trkpt lat="43.02965" lon="0.66816">
        <ele>437.2</ele>
        <time>2023-09-23T08:26:21Z</time>
      </trkpt>
      <trkpt lat="43.02971" lon="0.66815">
        <ele>437.2</ele>
        <time>2023-09-23T08:26:22Z</time>
      </trkpt>
      <trkpt lat="43.02976" lon="0.66813">
        <ele>437.2</ele>
        <time>2023-09-23T08:26:23Z</time>
      </trkpt>
      <trkpt lat="43.02981" lon="0.6681">
        <ele>437</ele>
        <time>2023-09-23T08:26:24Z</time>
      </trkpt>
      <trkpt lat="43.02987" lon="0.66808">
        <ele>437</ele>
        <time>2023-09-23T08:26:25Z</time>
      </trkpt>
      <trkpt lat="43.02992" lon="0.66805">
        <ele>437</ele>
        <time>2023-09-23T08:26:26Z</time>
      </trkpt>
      <trkpt lat="43.02997" lon="0.66803">
        <ele>437.2</ele>
        <time>2023-09-23T08:26:27Z</time>
      </trkpt>
      <trkpt lat="43.03003" lon="0.66801">
        <ele>437</ele>
        <time>2023-09-23T08:26:28Z</time>
      </trkpt>
      <trkpt lat="43.03009" lon="0.66798">
        <ele>437</ele>
        <time>2023-09-23T08:26:29Z</time>
      </trkpt>
      <trkpt lat="43.03015" lon="0.66796">
        <ele>437</ele>
        <time>2023-09-23T08:26:30Z</time>
      </trkpt>
      <trkpt lat="43.0302" lon="0.66793">
        <ele>436.8</ele>
        <time>2023-09-23T08:26:31Z</time>
      </trkpt>
      <trkpt lat="43.03026" lon="0.66791">
        <ele>436.6</ele>
        <time>2023-09-23T08:26:32Z</time>
      </trkpt>
      <trkpt lat="43.03032" lon="0.66788">
        <ele>436.6</ele>
        <time>2023-09-23T08:26:33Z</time>
      </trkpt>
      <trkpt lat="43.03038" lon="0.66786">
        <ele>436.6</ele>
        <time>2023-09-23T08:26:34Z</time>
      </trkpt>
      <trkpt lat="43.03044" lon="0.66784">
        <ele>436.6</ele>
        <time>2023-09-23T08:26:35Z</time>
      </trkpt>
      <trkpt lat="43.0305" lon="0.66783">
        <ele>436.8</ele>
        <time>2023-09-23T08:26:36Z</time>
      </trkpt>
      <trkpt lat="43.03055" lon="0.66782">
        <ele>436.8</ele>
        <time>2023-09-23T08:26:37Z</time>
      </trkpt>
      <trkpt lat="43.03061" lon="0.6678">
        <ele>436.8</ele>
        <time>2023-09-23T08:26:38Z</time>
      </trkpt>
      <trkpt lat="43.03067" lon="0.6678">
        <ele>436.2</ele>
        <time>2023-09-23T08:26:39Z</time>
      </trkpt>
      <trkpt lat="43.03072" lon="0.66779">
        <ele>436.2</ele>
        <time>2023-09-23T08:26:40Z</time>
      </trkpt>
      <trkpt lat="43.03077" lon="0.66779">
        <ele>436.2</ele>
        <time>2023-09-23T08:26:41Z</time>
      </trkpt>
      <trkpt lat="43.03083" lon="0.66778">
        <ele>436.2</ele>
        <time>2023-09-23T08:26:42Z</time>
      </trkpt>
      <trkpt lat="43.03088" lon="0.66777">
        <ele>436.2</ele>
        <time>2023-09-23T08:26:43Z</time>
      </trkpt>
      <trkpt lat="43.03093" lon="0.66776">
        <ele>436.4</ele>
        <time>2023-09-23T08:26:44Z</time>
      </trkpt>
      <trkpt lat="43.03098" lon="0.66774">
        <ele>436.4</ele>
        <time>2023-09-23T08:26:45Z</time>
      </trkpt>
      <trkpt lat="43.03102" lon="0.66771">
        <ele>436.4</ele>
        <time>2023-09-23T08:26:46Z</time>
      </trkpt>
      <trkpt lat="43.03106" lon="0.66767">
        <ele>437.4</ele>
        <time>2023-09-23T08:26:47Z</time>
      </trkpt>
      <trkpt lat="43.0311" lon="0.66762">
        <ele>436.2</ele>
        <time>2023-09-23T08:26:48Z</time>
      </trkpt>
      <trkpt lat="43.03114" lon="0.6676">
        <ele>436.2</ele>
        <time>2023-09-23T08:26:49Z</time>
      </trkpt>
      <trkpt lat="43.03119" lon="0.66758">
        <ele>436.2</ele>
        <time>2023-09-23T08:26:50Z</time>
      </trkpt>
      <trkpt lat="43.03124" lon="0.66757">
        <ele>437</ele>
        <time>2023-09-23T08:26:51Z</time>
      </trkpt>
      <trkpt lat="43.0313" lon="0.66756">
        <ele>437.6</ele>
        <time>2023-09-23T08:26:52Z</time>
      </trkpt>
      <trkpt lat="43.03136" lon="0.66754">
        <ele>437.6</ele>
        <time>2023-09-23T08:26:53Z</time>
      </trkpt>
      <trkpt lat="43.03142" lon="0.66753">
        <ele>437.6</ele>
        <time>2023-09-23T08:26:54Z</time>
      </trkpt>
      <trkpt lat="43.03148" lon="0.66752">
        <ele>437</ele>
        <time>2023-09-23T08:26:55Z</time>
      </trkpt>
      <trkpt lat="43.03154" lon="0.6675">
        <ele>437.8</ele>
        <time>2023-09-23T08:26:56Z</time>
      </trkpt>
      <trkpt lat="43.03159" lon="0.66748">
        <ele>437.8</ele>
        <time>2023-09-23T08:26:57Z</time>
      </trkpt>
      <trkpt lat="43.03165" lon="0.66746">
        <ele>437.8</ele>
        <time>2023-09-23T08:26:58Z</time>
      </trkpt>
      <trkpt lat="43.0317" lon="0.66744">
        <ele>438</ele>
        <time>2023-09-23T08:26:59Z</time>
      </trkpt>
      <trkpt lat="43.03175" lon="0.66742">
        <ele>438.2</ele>
        <time>2023-09-23T08:27:00Z</time>
      </trkpt>
      <trkpt lat="43.0318" lon="0.6674">
        <ele>438.2</ele>
        <time>2023-09-23T08:27:01Z</time>
      </trkpt>
      <trkpt lat="43.03185" lon="0.66738">
        <ele>438.2</ele>
        <time>2023-09-23T08:27:02Z</time>
      </trkpt>
      <trkpt lat="43.0319" lon="0.66736">
        <ele>438.2</ele>
        <time>2023-09-23T08:27:03Z</time>
      </trkpt>
      <trkpt lat="43.03195" lon="0.66733">
        <ele>439.2</ele>
        <time>2023-09-23T08:27:04Z</time>
      </trkpt>
      <trkpt lat="43.03199" lon="0.66731">
        <ele>439.2</ele>
        <time>2023-09-23T08:27:05Z</time>
      </trkpt>
      <trkpt lat="43.03205" lon="0.66729">
        <ele>439.2</ele>
        <time>2023-09-23T08:27:06Z</time>
      </trkpt>
      <trkpt lat="43.0321" lon="0.66728">
        <ele>439.2</ele>
        <time>2023-09-23T08:27:07Z</time>
      </trkpt>
      <trkpt lat="43.03215" lon="0.66726">
        <ele>439.6</ele>
        <time>2023-09-23T08:27:08Z</time>
      </trkpt>
      <trkpt lat="43.0322" lon="0.66724">
        <ele>439.6</ele>
        <time>2023-09-23T08:27:09Z</time>
      </trkpt>
      <trkpt lat="43.03224" lon="0.66722">
        <ele>439.6</ele>
        <time>2023-09-23T08:27:10Z</time>
      </trkpt>
      <trkpt lat="43.03229" lon="0.6672">
        <ele>439.6</ele>
        <time>2023-09-23T08:27:11Z</time>
      </trkpt>
      <trkpt lat="43.03234" lon="0.66718">
        <ele>439.6</ele>
        <time>2023-09-23T08:27:12Z</time>
      </trkpt>
      <trkpt lat="43.0324" lon="0.66717">
        <ele>439.6</ele>
        <time>2023-09-23T08:27:13Z</time>
      </trkpt>
      <trkpt lat="43.03245" lon="0.66715">
        <ele>439.6</ele>
        <time>2023-09-23T08:27:14Z</time>
      </trkpt>
      <trkpt lat="43.0325" lon="0.66714">
        <ele>439.6</ele>
        <time>2023-09-23T08:27:15Z</time>
      </trkpt>
      <trkpt lat="43.03255" lon="0.66713">
        <ele>440.2</ele>
        <time>2023-09-23T08:27:16Z</time>
      </trkpt>
      <trkpt lat="43.03261" lon="0.66711">
        <ele>440.2</ele>
        <time>2023-09-23T08:27:17Z</time>
      </trkpt>
      <trkpt lat="43.03266" lon="0.6671">
        <ele>440.2</ele>
        <time>2023-09-23T08:27:18Z</time>
      </trkpt>
      <trkpt lat="43.03271" lon="0.66709">
        <ele>439.2</ele>
        <time>2023-09-23T08:27:19Z</time>
      </trkpt>
      <trkpt lat="43.03276" lon="0.66707">
        <ele>440.2</ele>
        <time>2023-09-23T08:27:20Z</time>
      </trkpt>
      <trkpt lat="43.03281" lon="0.66705">
        <ele>440.2</ele>
        <time>2023-09-23T08:27:21Z</time>
      </trkpt>
      <trkpt lat="43.03286" lon="0.66704">
        <ele>440.2</ele>
        <time>2023-09-23T08:27:22Z</time>
      </trkpt>
      <trkpt lat="43.03291" lon="0.66702">
        <ele>440.2</ele>
        <time>2023-09-23T08:27:23Z</time>
      </trkpt>
      <trkpt lat="43.03296" lon="0.667">
        <ele>440.2</ele>
        <time>2023-09-23T08:27:24Z</time>
      </trkpt>
      <trkpt lat="43.03301" lon="0.66699">
        <ele>440.2</ele>
        <time>2023-09-23T08:27:25Z</time>
      </trkpt>
      <trkpt lat="43.03306" lon="0.66698">
        <ele>440.2</ele>
        <time>2023-09-23T08:27:26Z</time>
      </trkpt>
      <trkpt lat="43.03311" lon="0.66697">
        <ele>441</ele>
        <time>2023-09-23T08:27:27Z</time>
      </trkpt>
      <trkpt lat="43.03316" lon="0.66696">
        <ele>440.6</ele>
        <time>2023-09-23T08:27:28Z</time>
      </trkpt>
      <trkpt lat="43.03321" lon="0.66695">
        <ele>440.6</ele>
        <time>2023-09-23T08:27:29Z</time>
      </trkpt>
      <trkpt lat="43.03326" lon="0.66694">
        <ele>440.6</ele>
        <time>2023-09-23T08:27:30Z</time>
      </trkpt>
      <trkpt lat="43.03332" lon="0.66692">
        <ele>441</ele>
        <time>2023-09-23T08:27:31Z</time>
      </trkpt>
      <trkpt lat="43.03337" lon="0.66691">
        <ele>441</ele>
        <time>2023-09-23T08:27:32Z</time>
      </trkpt>
      <trkpt lat="43.03341" lon="0.66689">
        <ele>441</ele>
        <time>2023-09-23T08:27:33Z</time>
      </trkpt>
      <trkpt lat="43.03345" lon="0.66689">
        <ele>441</ele>
        <time>2023-09-23T08:27:34Z</time>
      </trkpt>
      <trkpt lat="43.03349" lon="0.66689">
        <ele>441</ele>
        <time>2023-09-23T08:27:35Z</time>
      </trkpt>
      <trkpt lat="43.03352" lon="0.6669">
        <ele>441.8</ele>
        <time>2023-09-23T08:27:36Z</time>
      </trkpt>
      <trkpt lat="43.03355" lon="0.66692">
        <ele>441.8</ele>
        <time>2023-09-23T08:27:37Z</time>
      </trkpt>
      <trkpt lat="43.03357" lon="0.66695">
        <ele>441.8</ele>
        <time>2023-09-23T08:27:38Z</time>
      </trkpt>
      <trkpt lat="43.0336" lon="0.66699">
        <ele>442.2</ele>
        <time>2023-09-23T08:27:39Z</time>
      </trkpt>
      <trkpt lat="43.03362" lon="0.66702">
        <ele>442.2</ele>
        <time>2023-09-23T08:27:40Z</time>
      </trkpt>
      <trkpt lat="43.03365" lon="0.66706">
        <ele>442.2</ele>
        <time>2023-09-23T08:27:41Z</time>
      </trkpt>
      <trkpt lat="43.03369" lon="0.66709">
        <ele>442.2</ele>
        <time>2023-09-23T08:27:42Z</time>
      </trkpt>
      <trkpt lat="43.03372" lon="0.66712">
        <ele>442.2</ele>
        <time>2023-09-23T08:27:43Z</time>
      </trkpt>
      <trkpt lat="43.03376" lon="0.66715">
        <ele>442.8</ele>
        <time>2023-09-23T08:27:44Z</time>
      </trkpt>
      <trkpt lat="43.03379" lon="0.66718">
        <ele>442.8</ele>
        <time>2023-09-23T08:27:45Z</time>
      </trkpt>
      <trkpt lat="43.03382" lon="0.6672">
        <ele>442.8</ele>
        <time>2023-09-23T08:27:46Z</time>
      </trkpt>
      <trkpt lat="43.03384" lon="0.66721">
        <ele>443.6</ele>
        <time>2023-09-23T08:27:47Z</time>
      </trkpt>
      <trkpt lat="43.03384" lon="0.66722">
        <ele>443.6</ele>
        <time>2023-09-23T08:27:48Z</time>
      </trkpt>
      <trkpt lat="43.03384" lon="0.66722">
        <ele>443.6</ele>
        <time>2023-09-23T08:27:49Z</time>
      </trkpt>
      <trkpt lat="43.03386" lon="0.66723">
        <ele>443.6</ele>
        <time>2023-09-23T08:27:50Z</time>
      </trkpt>
      <trkpt lat="43.03388" lon="0.66724">
        <ele>443.4</ele>
        <time>2023-09-23T08:27:51Z</time>
      </trkpt>
      <trkpt lat="43.03391" lon="0.66724">
        <ele>443</ele>
        <time>2023-09-23T08:27:52Z</time>
      </trkpt>
      <trkpt lat="43.03394" lon="0.66722">
        <ele>443</ele>
        <time>2023-09-23T08:27:53Z</time>
      </trkpt>
      <trkpt lat="43.03397" lon="0.6672">
        <ele>443</ele>
        <time>2023-09-23T08:27:54Z</time>
      </trkpt>
      <trkpt lat="43.034" lon="0.66717">
        <ele>443.8</ele>
        <time>2023-09-23T08:27:55Z</time>
      </trkpt>
      <trkpt lat="43.03403" lon="0.66714">
        <ele>444</ele>
        <time>2023-09-23T08:27:56Z</time>
      </trkpt>
      <trkpt lat="43.03407" lon="0.66711">
        <ele>444</ele>
        <time>2023-09-23T08:27:57Z</time>
      </trkpt>
      <trkpt lat="43.0341" lon="0.6671">
        <ele>444</ele>
        <time>2023-09-23T08:27:58Z</time>
      </trkpt>
      <trkpt lat="43.03414" lon="0.66708">
        <ele>445</ele>
        <time>2023-09-23T08:27:59Z</time>
      </trkpt>
      <trkpt lat="43.03418" lon="0.66706">
        <ele>445.2</ele>
        <time>2023-09-23T08:28:00Z</time>
      </trkpt>
      <trkpt lat="43.03421" lon="0.66703">
        <ele>445.2</ele>
        <time>2023-09-23T08:28:01Z</time>
      </trkpt>
      <trkpt lat="43.03425" lon="0.66701">
        <ele>445.2</ele>
        <time>2023-09-23T08:28:02Z</time>
      </trkpt>
      <trkpt lat="43.03429" lon="0.66699">
        <ele>446</ele>
        <time>2023-09-23T08:28:03Z</time>
      </trkpt>
      <trkpt lat="43.03432" lon="0.66696">
        <ele>446.4</ele>
        <time>2023-09-23T08:28:04Z</time>
      </trkpt>
      <trkpt lat="43.03436" lon="0.66694">
        <ele>446.4</ele>
        <time>2023-09-23T08:28:05Z</time>
      </trkpt>
      <trkpt lat="43.0344" lon="0.66692">
        <ele>446.4</ele>
        <time>2023-09-23T08:28:06Z</time>
      </trkpt>
      <trkpt lat="43.03443" lon="0.6669">
        <ele>446.4</ele>
        <time>2023-09-23T08:28:07Z</time>
      </trkpt>
      <trkpt lat="43.03447" lon="0.66688">
        <ele>447.8</ele>
        <time>2023-09-23T08:28:08Z</time>
      </trkpt>
      <trkpt lat="43.0345" lon="0.66686">
        <ele>447.8</ele>
        <time>2023-09-23T08:28:09Z</time>
      </trkpt>
      <trkpt lat="43.03454" lon="0.66684">
        <ele>447.8</ele>
        <time>2023-09-23T08:28:10Z</time>
      </trkpt>
      <trkpt lat="43.03457" lon="0.66683">
        <ele>448.4</ele>
        <time>2023-09-23T08:28:11Z</time>
      </trkpt>
      <trkpt lat="43.0346" lon="0.66681">
        <ele>448.4</ele>
        <time>2023-09-23T08:28:12Z</time>
      </trkpt>
      <trkpt lat="43.03463" lon="0.66679">
        <ele>448.4</ele>
        <time>2023-09-23T08:28:13Z</time>
      </trkpt>
      <trkpt lat="43.03466" lon="0.66678">
        <ele>448.4</ele>
        <time>2023-09-23T08:28:14Z</time>
      </trkpt>
      <trkpt lat="43.03468" lon="0.66676">
        <ele>449.4</ele>
        <time>2023-09-23T08:28:15Z</time>
      </trkpt>
      <trkpt lat="43.03469" lon="0.66674">
        <ele>449.8</ele>
        <time>2023-09-23T08:28:16Z</time>
      </trkpt>
      <trkpt lat="43.03469" lon="0.66671">
        <ele>449.8</ele>
        <time>2023-09-23T08:28:17Z</time>
      </trkpt>
      <trkpt lat="43.03468" lon="0.66668">
        <ele>449.8</ele>
        <time>2023-09-23T08:28:18Z</time>
      </trkpt>
      <trkpt lat="43.03467" lon="0.66664">
        <ele>449.8</ele>
        <time>2023-09-23T08:28:19Z</time>
      </trkpt>
      <trkpt lat="43.03466" lon="0.6666">
        <ele>449.8</ele>
        <time>2023-09-23T08:28:20Z</time>
      </trkpt>
      <trkpt lat="43.03466" lon="0.66657">
        <ele>449.8</ele>
        <time>2023-09-23T08:28:21Z</time>
      </trkpt>
      <trkpt lat="43.03467" lon="0.66653">
        <ele>449.8</ele>
        <time>2023-09-23T08:28:22Z</time>
      </trkpt>
      <trkpt lat="43.03467" lon="0.66649">
        <ele>449.8</ele>
        <time>2023-09-23T08:28:23Z</time>
      </trkpt>
      <trkpt lat="43.03467" lon="0.66645">
        <ele>449.8</ele>
        <time>2023-09-23T08:28:24Z</time>
      </trkpt>
      <trkpt lat="43.03467" lon="0.66642">
        <ele>449.8</ele>
        <time>2023-09-23T08:28:25Z</time>
      </trkpt>
      <trkpt lat="43.03467" lon="0.66638">
        <ele>449.8</ele>
        <time>2023-09-23T08:28:26Z</time>
      </trkpt>
      <trkpt lat="43.03467" lon="0.66636">
        <ele>450.2</ele>
        <time>2023-09-23T08:28:27Z</time>
      </trkpt>
      <trkpt lat="43.03467" lon="0.66636">
        <ele>450.2</ele>
        <time>2023-09-23T08:28:28Z</time>
      </trkpt>
      <trkpt lat="43.03467" lon="0.66636">
        <ele>450.2</ele>
        <time>2023-09-23T08:28:29Z</time>
      </trkpt>
      <trkpt lat="43.03467" lon="0.66636">
        <ele>450.2</ele>
        <time>2023-09-23T08:28:30Z</time>
      </trkpt>
      <trkpt lat="43.03467" lon="0.66637">
        <ele>450.6</ele>
        <time>2023-09-23T08:28:43Z</time>
      </trkpt>
      <trkpt lat="43.03467" lon="0.6664">
        <ele>450.2</ele>
        <time>2023-09-23T08:28:44Z</time>
      </trkpt>
      <trkpt lat="43.03466" lon="0.66643">
        <ele>450.2</ele>
        <time>2023-09-23T08:28:45Z</time>
      </trkpt>
      <trkpt lat="43.03466" lon="0.66646">
        <ele>450.2</ele>
        <time>2023-09-23T08:28:46Z</time>
      </trkpt>
      <trkpt lat="43.03466" lon="0.6665">
        <ele>450.2</ele>
        <time>2023-09-23T08:28:47Z</time>
      </trkpt>
      <trkpt lat="43.03467" lon="0.66654">
        <ele>450.2</ele>
        <time>2023-09-23T08:28:48Z</time>
      </trkpt>
      <trkpt lat="43.03467" lon="0.66657">
        <ele>450.2</ele>
        <time>2023-09-23T08:28:49Z</time>
      </trkpt>
      <trkpt lat="43.03468" lon="0.6666">
        <ele>450.2</ele>
        <time>2023-09-23T08:28:50Z</time>
      </trkpt>
      <trkpt lat="43.03468" lon="0.66664">
        <ele>450.2</ele>
        <time>2023-09-23T08:28:51Z</time>
      </trkpt>
      <trkpt lat="43.03469" lon="0.66667">
        <ele>450</ele>
        <time>2023-09-23T08:28:52Z</time>
      </trkpt>
      <trkpt lat="43.0347" lon="0.66669">
        <ele>450</ele>
        <time>2023-09-23T08:28:53Z</time>
      </trkpt>
      <trkpt lat="43.03471" lon="0.66671">
        <ele>450</ele>
        <time>2023-09-23T08:28:54Z</time>
      </trkpt>
      <trkpt lat="43.03473" lon="0.66672">
        <ele>450</ele>
        <time>2023-09-23T08:28:55Z</time>
      </trkpt>
      <trkpt lat="43.03475" lon="0.66673">
        <ele>450.4</ele>
        <time>2023-09-23T08:28:56Z</time>
      </trkpt>
      <trkpt lat="43.03478" lon="0.66672">
        <ele>450.4</ele>
        <time>2023-09-23T08:28:57Z</time>
      </trkpt>
      <trkpt lat="43.0348" lon="0.66671">
        <ele>450.4</ele>
        <time>2023-09-23T08:28:58Z</time>
      </trkpt>
      <trkpt lat="43.03482" lon="0.6667">
        <ele>451</ele>
        <time>2023-09-23T08:28:59Z</time>
      </trkpt>
      <trkpt lat="43.03485" lon="0.66668">
        <ele>451</ele>
        <time>2023-09-23T08:29:00Z</time>
      </trkpt>
      <trkpt lat="43.03487" lon="0.66667">
        <ele>451</ele>
        <time>2023-09-23T08:29:01Z</time>
      </trkpt>
      <trkpt lat="43.0349" lon="0.66666">
        <ele>451</ele>
        <time>2023-09-23T08:29:02Z</time>
      </trkpt>
      <trkpt lat="43.03492" lon="0.66664">
        <ele>452</ele>
        <time>2023-09-23T08:29:03Z</time>
      </trkpt>
      <trkpt lat="43.03495" lon="0.66663">
        <ele>452</ele>
        <time>2023-09-23T08:29:04Z</time>
      </trkpt>
      <trkpt lat="43.03497" lon="0.66661">
        <ele>452</ele>
        <time>2023-09-23T08:29:05Z</time>
      </trkpt>
      <trkpt lat="43.035" lon="0.6666">
        <ele>452</ele>
        <time>2023-09-23T08:29:06Z</time>
      </trkpt>
      <trkpt lat="43.03503" lon="0.66658">
        <ele>452.8</ele>
        <time>2023-09-23T08:29:07Z</time>
      </trkpt>
      <trkpt lat="43.03506" lon="0.66657">
        <ele>453.4</ele>
        <time>2023-09-23T08:29:08Z</time>
      </trkpt>
      <trkpt lat="43.03509" lon="0.66656">
        <ele>453.4</ele>
        <time>2023-09-23T08:29:09Z</time>
      </trkpt>
      <trkpt lat="43.03512" lon="0.66654">
        <ele>453.4</ele>
        <time>2023-09-23T08:29:10Z</time>
      </trkpt>
      <trkpt lat="43.03515" lon="0.66653">
        <ele>453.4</ele>
        <time>2023-09-23T08:29:11Z</time>
      </trkpt>
      <trkpt lat="43.03518" lon="0.66652">
        <ele>454.2</ele>
        <time>2023-09-23T08:29:12Z</time>
      </trkpt>
      <trkpt lat="43.0352" lon="0.66651">
        <ele>454.2</ele>
        <time>2023-09-23T08:29:13Z</time>
      </trkpt>
      <trkpt lat="43.03523" lon="0.66649">
        <ele>454.2</ele>
        <time>2023-09-23T08:29:14Z</time>
      </trkpt>
      <trkpt lat="43.03526" lon="0.66648">
        <ele>454.4</ele>
        <time>2023-09-23T08:29:15Z</time>
      </trkpt>
      <trkpt lat="43.03528" lon="0.66647">
        <ele>455</ele>
        <time>2023-09-23T08:29:16Z</time>
      </trkpt>
      <trkpt lat="43.03531" lon="0.66645">
        <ele>455</ele>
        <time>2023-09-23T08:29:17Z</time>
      </trkpt>
      <trkpt lat="43.03533" lon="0.66644">
        <ele>455</ele>
        <time>2023-09-23T08:29:18Z</time>
      </trkpt>
      <trkpt lat="43.03536" lon="0.66642">
        <ele>456</ele>
        <time>2023-09-23T08:29:19Z</time>
      </trkpt>
      <trkpt lat="43.03539" lon="0.66641">
        <ele>456.4</ele>
        <time>2023-09-23T08:29:20Z</time>
      </trkpt>
      <trkpt lat="43.03541" lon="0.66639">
        <ele>456.4</ele>
        <time>2023-09-23T08:29:21Z</time>
      </trkpt>
      <trkpt lat="43.03544" lon="0.66638">
        <ele>456.4</ele>
        <time>2023-09-23T08:29:22Z</time>
      </trkpt>
      <trkpt lat="43.03547" lon="0.66636">
        <ele>457</ele>
        <time>2023-09-23T08:29:23Z</time>
      </trkpt>
      <trkpt lat="43.03549" lon="0.66635">
        <ele>457</ele>
        <time>2023-09-23T08:29:24Z</time>
      </trkpt>
      <trkpt lat="43.03552" lon="0.66633">
        <ele>457</ele>
        <time>2023-09-23T08:29:25Z</time>
      </trkpt>
      <trkpt lat="43.03554" lon="0.66632">
        <ele>457</ele>
        <time>2023-09-23T08:29:26Z</time>
      </trkpt>
      <trkpt lat="43.03557" lon="0.66631">
        <ele>457.8</ele>
        <time>2023-09-23T08:29:27Z</time>
      </trkpt>
      <trkpt lat="43.0356" lon="0.6663">
        <ele>458.2</ele>
        <time>2023-09-23T08:29:28Z</time>
      </trkpt>
      <trkpt lat="43.03563" lon="0.66628">
        <ele>458.2</ele>
        <time>2023-09-23T08:29:29Z</time>
      </trkpt>
      <trkpt lat="43.03565" lon="0.66627">
        <ele>458.2</ele>
        <time>2023-09-23T08:29:30Z</time>
      </trkpt>
      <trkpt lat="43.03568" lon="0.66625">
        <ele>458.8</ele>
        <time>2023-09-23T08:29:31Z</time>
      </trkpt>
      <trkpt lat="43.03571" lon="0.66624">
        <ele>459</ele>
        <time>2023-09-23T08:29:32Z</time>
      </trkpt>
      <trkpt lat="43.03573" lon="0.66623">
        <ele>459</ele>
        <time>2023-09-23T08:29:33Z</time>
      </trkpt>
      <trkpt lat="43.03576" lon="0.66621">
        <ele>459</ele>
        <time>2023-09-23T08:29:34Z</time>
      </trkpt>
      <trkpt lat="43.03579" lon="0.6662">
        <ele>459.6</ele>
        <time>2023-09-23T08:29:35Z</time>
      </trkpt>
      <trkpt lat="43.03581" lon="0.66618">
        <ele>460</ele>
        <time>2023-09-23T08:29:36Z</time>
      </trkpt>
      <trkpt lat="43.03584" lon="0.66617">
        <ele>460</ele>
        <time>2023-09-23T08:29:37Z</time>
      </trkpt>
      <trkpt lat="43.03587" lon="0.66615">
        <ele>460</ele>
        <time>2023-09-23T08:29:38Z</time>
      </trkpt>
      <trkpt lat="43.0359" lon="0.66614">
        <ele>460.6</ele>
        <time>2023-09-23T08:29:39Z</time>
      </trkpt>
      <trkpt lat="43.03593" lon="0.66613">
        <ele>460.6</ele>
        <time>2023-09-23T08:29:40Z</time>
      </trkpt>
      <trkpt lat="43.03595" lon="0.66611">
        <ele>460.6</ele>
        <time>2023-09-23T08:29:41Z</time>
      </trkpt>
      <trkpt lat="43.03598" lon="0.6661">
        <ele>460.6</ele>
        <time>2023-09-23T08:29:42Z</time>
      </trkpt>
      <trkpt lat="43.03601" lon="0.66609">
        <ele>461.6</ele>
        <time>2023-09-23T08:29:43Z</time>
      </trkpt>
      <trkpt lat="43.03604" lon="0.66607">
        <ele>462</ele>
        <time>2023-09-23T08:29:44Z</time>
      </trkpt>
      <trkpt lat="43.03606" lon="0.66606">
        <ele>462</ele>
        <time>2023-09-23T08:29:45Z</time>
      </trkpt>
      <trkpt lat="43.03609" lon="0.66604">
        <ele>462</ele>
        <time>2023-09-23T08:29:46Z</time>
      </trkpt>
      <trkpt lat="43.03612" lon="0.66602">
        <ele>462</ele>
        <time>2023-09-23T08:29:47Z</time>
      </trkpt>
      <trkpt lat="43.03615" lon="0.66601">
        <ele>462.2</ele>
        <time>2023-09-23T08:29:48Z</time>
      </trkpt>
      <trkpt lat="43.03617" lon="0.66599">
        <ele>462.2</ele>
        <time>2023-09-23T08:29:49Z</time>
      </trkpt>
      <trkpt lat="43.0362" lon="0.66598">
        <ele>462.2</ele>
        <time>2023-09-23T08:29:50Z</time>
      </trkpt>
      <trkpt lat="43.03623" lon="0.66597">
        <ele>463</ele>
        <time>2023-09-23T08:29:51Z</time>
      </trkpt>
      <trkpt lat="43.03626" lon="0.66595">
        <ele>463.8</ele>
        <time>2023-09-23T08:29:52Z</time>
      </trkpt>
      <trkpt lat="43.03629" lon="0.66593">
        <ele>463.8</ele>
        <time>2023-09-23T08:29:53Z</time>
      </trkpt>
      <trkpt lat="43.03632" lon="0.66592">
        <ele>463.8</ele>
        <time>2023-09-23T08:29:54Z</time>
      </trkpt>
      <trkpt lat="43.03635" lon="0.6659">
        <ele>464.6</ele>
        <time>2023-09-23T08:29:55Z</time>
      </trkpt>
      <trkpt lat="43.03638" lon="0.66589">
        <ele>464.8</ele>
        <time>2023-09-23T08:29:56Z</time>
      </trkpt>
      <trkpt lat="43.0364" lon="0.66588">
        <ele>464.8</ele>
        <time>2023-09-23T08:29:57Z</time>
      </trkpt>
      <trkpt lat="43.03643" lon="0.66586">
        <ele>464.8</ele>
        <time>2023-09-23T08:29:58Z</time>
      </trkpt>
      <trkpt lat="43.03646" lon="0.66585">
        <ele>465.4</ele>
        <time>2023-09-23T08:29:59Z</time>
      </trkpt>
      <trkpt lat="43.03649" lon="0.66584">
        <ele>465.4</ele>
        <time>2023-09-23T08:30:00Z</time>
      </trkpt>
      <trkpt lat="43.03652" lon="0.66583">
        <ele>465.4</ele>
        <time>2023-09-23T08:30:01Z</time>
      </trkpt>
      <trkpt lat="43.03654" lon="0.66581">
        <ele>465.4</ele>
        <time>2023-09-23T08:30:02Z</time>
      </trkpt>
      <trkpt lat="43.03657" lon="0.6658">
        <ele>466.4</ele>
        <time>2023-09-23T08:30:03Z</time>
      </trkpt>
      <trkpt lat="43.0366" lon="0.6658">
        <ele>466.4</ele>
        <time>2023-09-23T08:30:04Z</time>
      </trkpt>
      <trkpt lat="43.03663" lon="0.66579">
        <ele>466.4</ele>
        <time>2023-09-23T08:30:05Z</time>
      </trkpt>
      <trkpt lat="43.03665" lon="0.66578">
        <ele>466.4</ele>
        <time>2023-09-23T08:30:06Z</time>
      </trkpt>
      <trkpt lat="43.03668" lon="0.66577">
        <ele>467.4</ele>
        <time>2023-09-23T08:30:07Z</time>
      </trkpt>
      <trkpt lat="43.0367" lon="0.66576">
        <ele>468</ele>
        <time>2023-09-23T08:30:08Z</time>
      </trkpt>
      <trkpt lat="43.03672" lon="0.66575">
        <ele>468</ele>
        <time>2023-09-23T08:30:09Z</time>
      </trkpt>
      <trkpt lat="43.03675" lon="0.66575">
        <ele>468</ele>
        <time>2023-09-23T08:30:10Z</time>
      </trkpt>
      <trkpt lat="43.03677" lon="0.66574">
        <ele>468.6</ele>
        <time>2023-09-23T08:30:11Z</time>
      </trkpt>
      <trkpt lat="43.03679" lon="0.66574">
        <ele>469.2</ele>
        <time>2023-09-23T08:30:12Z</time>
      </trkpt>
      <trkpt lat="43.03682" lon="0.66573">
        <ele>469.2</ele>
        <time>2023-09-23T08:30:13Z</time>
      </trkpt>
      <trkpt lat="43.03684" lon="0.66572">
        <ele>469.2</ele>
        <time>2023-09-23T08:30:14Z</time>
      </trkpt>
      <trkpt lat="43.03686" lon="0.6657">
        <ele>469.2</ele>
        <time>2023-09-23T08:30:15Z</time>
      </trkpt>
      <trkpt lat="43.03689" lon="0.66569">
        <ele>470.6</ele>
        <time>2023-09-23T08:30:16Z</time>
      </trkpt>
      <trkpt lat="43.03691" lon="0.66568">
        <ele>470.6</ele>
        <time>2023-09-23T08:30:17Z</time>
      </trkpt>
      <trkpt lat="43.03693" lon="0.66568">
        <ele>470.6</ele>
        <time>2023-09-23T08:30:18Z</time>
      </trkpt>
      <trkpt lat="43.03695" lon="0.66566">
        <ele>471.6</ele>
        <time>2023-09-23T08:30:19Z</time>
      </trkpt>
      <trkpt lat="43.03697" lon="0.66566">
        <ele>472.2</ele>
        <time>2023-09-23T08:30:20Z</time>
      </trkpt>
      <trkpt lat="43.03699" lon="0.66565">
        <ele>472.2</ele>
        <time>2023-09-23T08:30:21Z</time>
      </trkpt>
      <trkpt lat="43.03701" lon="0.66565">
        <ele>472.2</ele>
        <time>2023-09-23T08:30:22Z</time>
      </trkpt>
      <trkpt lat="43.03702" lon="0.66564">
        <ele>473.2</ele>
        <time>2023-09-23T08:30:23Z</time>
      </trkpt>
      <trkpt lat="43.03704" lon="0.66563">
        <ele>473.6</ele>
        <time>2023-09-23T08:30:24Z</time>
      </trkpt>
      <trkpt lat="43.03706" lon="0.66563">
        <ele>473.6</ele>
        <time>2023-09-23T08:30:25Z</time>
      </trkpt>
      <trkpt lat="43.03708" lon="0.66562">
        <ele>473.6</ele>
        <time>2023-09-23T08:30:26Z</time>
      </trkpt>
      <trkpt lat="43.03711" lon="0.66561">
        <ele>474.4</ele>
        <time>2023-09-23T08:30:27Z</time>
      </trkpt>
      <trkpt lat="43.03713" lon="0.6656">
        <ele>474.8</ele>
        <time>2023-09-23T08:30:28Z</time>
      </trkpt>
      <trkpt lat="43.03714" lon="0.66559">
        <ele>474.8</ele>
        <time>2023-09-23T08:30:29Z</time>
      </trkpt>
      <trkpt lat="43.03715" lon="0.66557">
        <ele>474.8</ele>
        <time>2023-09-23T08:30:30Z</time>
      </trkpt>
      <trkpt lat="43.03715" lon="0.66554">
        <ele>475.8</ele>
        <time>2023-09-23T08:30:31Z</time>
      </trkpt>
      <trkpt lat="43.03714" lon="0.66551">
        <ele>476.6</ele>
        <time>2023-09-23T08:30:32Z</time>
      </trkpt>
      <trkpt lat="43.03713" lon="0.66549">
        <ele>476.6</ele>
        <time>2023-09-23T08:30:33Z</time>
      </trkpt>
      <trkpt lat="43.03712" lon="0.66547">
        <ele>476.6</ele>
        <time>2023-09-23T08:30:34Z</time>
      </trkpt>
      <trkpt lat="43.03711" lon="0.66543">
        <ele>476.6</ele>
        <time>2023-09-23T08:30:35Z</time>
      </trkpt>
      <trkpt lat="43.0371" lon="0.6654">
        <ele>476.6</ele>
        <time>2023-09-23T08:30:36Z</time>
      </trkpt>
      <trkpt lat="43.03708" lon="0.66537">
        <ele>476.6</ele>
        <time>2023-09-23T08:30:37Z</time>
      </trkpt>
      <trkpt lat="43.03707" lon="0.66534">
        <ele>476.6</ele>
        <time>2023-09-23T08:30:38Z</time>
      </trkpt>
      <trkpt lat="43.03704" lon="0.6653">
        <ele>476.6</ele>
        <time>2023-09-23T08:30:39Z</time>
      </trkpt>
      <trkpt lat="43.03702" lon="0.66527">
        <ele>476</ele>
        <time>2023-09-23T08:30:40Z</time>
      </trkpt>
      <trkpt lat="43.03699" lon="0.66523">
        <ele>476</ele>
        <time>2023-09-23T08:30:41Z</time>
      </trkpt>
      <trkpt lat="43.03695" lon="0.6652">
        <ele>476</ele>
        <time>2023-09-23T08:30:42Z</time>
      </trkpt>
      <trkpt lat="43.03692" lon="0.66517">
        <ele>476</ele>
        <time>2023-09-23T08:30:43Z</time>
      </trkpt>
      <trkpt lat="43.03688" lon="0.66514">
        <ele>475.2</ele>
        <time>2023-09-23T08:30:44Z</time>
      </trkpt>
      <trkpt lat="43.03683" lon="0.66511">
        <ele>475.2</ele>
        <time>2023-09-23T08:30:45Z</time>
      </trkpt>
      <trkpt lat="43.03679" lon="0.66508">
        <ele>475.2</ele>
        <time>2023-09-23T08:30:46Z</time>
      </trkpt>
      <trkpt lat="43.03675" lon="0.66505">
        <ele>476</ele>
        <time>2023-09-23T08:30:47Z</time>
      </trkpt>
      <trkpt lat="43.03671" lon="0.66502">
        <ele>475.8</ele>
        <time>2023-09-23T08:30:48Z</time>
      </trkpt>
      <trkpt lat="43.03667" lon="0.66498">
        <ele>475.8</ele>
        <time>2023-09-23T08:30:49Z</time>
      </trkpt>
      <trkpt lat="43.03664" lon="0.66493">
        <ele>475.8</ele>
        <time>2023-09-23T08:30:50Z</time>
      </trkpt>
      <trkpt lat="43.03663" lon="0.66488">
        <ele>475.8</ele>
        <time>2023-09-23T08:30:51Z</time>
      </trkpt>
      <trkpt lat="43.03661" lon="0.66484">
        <ele>476</ele>
        <time>2023-09-23T08:30:52Z</time>
      </trkpt>
      <trkpt lat="43.0366" lon="0.66479">
        <ele>476</ele>
        <time>2023-09-23T08:30:53Z</time>
      </trkpt>
      <trkpt lat="43.03658" lon="0.66475">
        <ele>476</ele>
        <time>2023-09-23T08:30:54Z</time>
      </trkpt>
      <trkpt lat="43.03655" lon="0.66472">
        <ele>477</ele>
        <time>2023-09-23T08:30:55Z</time>
      </trkpt>
      <trkpt lat="43.03653" lon="0.66469">
        <ele>477.6</ele>
        <time>2023-09-23T08:30:56Z</time>
      </trkpt>
      <trkpt lat="43.03651" lon="0.66466">
        <ele>477.6</ele>
        <time>2023-09-23T08:30:57Z</time>
      </trkpt>
      <trkpt lat="43.03649" lon="0.66462">
        <ele>477.6</ele>
        <time>2023-09-23T08:30:58Z</time>
      </trkpt>
      <trkpt lat="43.03647" lon="0.66458">
        <ele>477.6</ele>
        <time>2023-09-23T08:30:59Z</time>
      </trkpt>
      <trkpt lat="43.03645" lon="0.66455">
        <ele>478.2</ele>
        <time>2023-09-23T08:31:00Z</time>
      </trkpt>
      <trkpt lat="43.03643" lon="0.66451">
        <ele>478.2</ele>
        <time>2023-09-23T08:31:01Z</time>
      </trkpt>
      <trkpt lat="43.03641" lon="0.66447">
        <ele>478.2</ele>
        <time>2023-09-23T08:31:02Z</time>
      </trkpt>
      <trkpt lat="43.03639" lon="0.66444">
        <ele>478.2</ele>
        <time>2023-09-23T08:31:03Z</time>
      </trkpt>
      <trkpt lat="43.03638" lon="0.6644">
        <ele>479.6</ele>
        <time>2023-09-23T08:31:04Z</time>
      </trkpt>
      <trkpt lat="43.03636" lon="0.66436">
        <ele>479.6</ele>
        <time>2023-09-23T08:31:05Z</time>
      </trkpt>
      <trkpt lat="43.03634" lon="0.66432">
        <ele>479.6</ele>
        <time>2023-09-23T08:31:06Z</time>
      </trkpt>
      <trkpt lat="43.03632" lon="0.66429">
        <ele>479.6</ele>
        <time>2023-09-23T08:31:07Z</time>
      </trkpt>
      <trkpt lat="43.0363" lon="0.66425">
        <ele>479.8</ele>
        <time>2023-09-23T08:31:08Z</time>
      </trkpt>
      <trkpt lat="43.03628" lon="0.66421">
        <ele>479.8</ele>
        <time>2023-09-23T08:31:09Z</time>
      </trkpt>
      <trkpt lat="43.03626" lon="0.66418">
        <ele>479.8</ele>
        <time>2023-09-23T08:31:10Z</time>
      </trkpt>
      <trkpt lat="43.03624" lon="0.66414">
        <ele>480.6</ele>
        <time>2023-09-23T08:31:11Z</time>
      </trkpt>
      <trkpt lat="43.03621" lon="0.66411">
        <ele>480.8</ele>
        <time>2023-09-23T08:31:12Z</time>
      </trkpt>
      <trkpt lat="43.03619" lon="0.66407">
        <ele>480.8</ele>
        <time>2023-09-23T08:31:13Z</time>
      </trkpt>
      <trkpt lat="43.03617" lon="0.66404">
        <ele>480.8</ele>
        <time>2023-09-23T08:31:14Z</time>
      </trkpt>
      <trkpt lat="43.03614" lon="0.66401">
        <ele>480.8</ele>
        <time>2023-09-23T08:31:15Z</time>
      </trkpt>
      <trkpt lat="43.0361" lon="0.66398">
        <ele>480.4</ele>
        <time>2023-09-23T08:31:16Z</time>
      </trkpt>
      <trkpt lat="43.03607" lon="0.66395">
        <ele>480.4</ele>
        <time>2023-09-23T08:31:17Z</time>
      </trkpt>
      <trkpt lat="43.03604" lon="0.66393">
        <ele>480.4</ele>
        <time>2023-09-23T08:31:18Z</time>
      </trkpt>
      <trkpt lat="43.036" lon="0.66391">
        <ele>481.2</ele>
        <time>2023-09-23T08:31:19Z</time>
      </trkpt>
      <trkpt lat="43.03596" lon="0.66388">
        <ele>481.6</ele>
        <time>2023-09-23T08:31:20Z</time>
      </trkpt>
      <trkpt lat="43.03592" lon="0.66386">
        <ele>481.6</ele>
        <time>2023-09-23T08:31:21Z</time>
      </trkpt>
      <trkpt lat="43.03588" lon="0.66384">
        <ele>481.6</ele>
        <time>2023-09-23T08:31:22Z</time>
      </trkpt>
      <trkpt lat="43.03584" lon="0.66381">
        <ele>481.2</ele>
        <time>2023-09-23T08:31:23Z</time>
      </trkpt>
      <trkpt lat="43.0358" lon="0.66379">
        <ele>481.4</ele>
        <time>2023-09-23T08:31:24Z</time>
      </trkpt>
      <trkpt lat="43.03576" lon="0.66377">
        <ele>481.4</ele>
        <time>2023-09-23T08:31:25Z</time>
      </trkpt>
      <trkpt lat="43.03572" lon="0.66374">
        <ele>481.4</ele>
        <time>2023-09-23T08:31:26Z</time>
      </trkpt>
      <trkpt lat="43.03569" lon="0.66372">
        <ele>481.6</ele>
        <time>2023-09-23T08:31:27Z</time>
      </trkpt>
      <trkpt lat="43.03565" lon="0.6637">
        <ele>482.2</ele>
        <time>2023-09-23T08:31:28Z</time>
      </trkpt>
      <trkpt lat="43.03561" lon="0.66369">
        <ele>482.2</ele>
        <time>2023-09-23T08:31:29Z</time>
      </trkpt>
      <trkpt lat="43.03558" lon="0.66367">
        <ele>482.2</ele>
        <time>2023-09-23T08:31:30Z</time>
      </trkpt>
      <trkpt lat="43.03555" lon="0.66365">
        <ele>482.8</ele>
        <time>2023-09-23T08:31:31Z</time>
      </trkpt>
      <trkpt lat="43.03553" lon="0.66364">
        <ele>482.6</ele>
        <time>2023-09-23T08:31:32Z</time>
      </trkpt>
      <trkpt lat="43.03551" lon="0.66363">
        <ele>482.6</ele>
        <time>2023-09-23T08:31:33Z</time>
      </trkpt>
      <trkpt lat="43.03549" lon="0.66361">
        <ele>482.6</ele>
        <time>2023-09-23T08:31:34Z</time>
      </trkpt>
      <trkpt lat="43.03547" lon="0.6636">
        <ele>482.6</ele>
        <time>2023-09-23T08:31:35Z</time>
      </trkpt>
      <trkpt lat="43.03544" lon="0.66358">
        <ele>483</ele>
        <time>2023-09-23T08:31:36Z</time>
      </trkpt>
      <trkpt lat="43.03542" lon="0.66357">
        <ele>483</ele>
        <time>2023-09-23T08:31:37Z</time>
      </trkpt>
      <trkpt lat="43.03541" lon="0.66354">
        <ele>483</ele>
        <time>2023-09-23T08:31:38Z</time>
      </trkpt>
      <trkpt lat="43.03541" lon="0.66351">
        <ele>483</ele>
        <time>2023-09-23T08:31:39Z</time>
      </trkpt>
      <trkpt lat="43.03542" lon="0.66347">
        <ele>483.8</ele>
        <time>2023-09-23T08:31:40Z</time>
      </trkpt>
      <trkpt lat="43.03543" lon="0.66344">
        <ele>483.8</ele>
        <time>2023-09-23T08:31:41Z</time>
      </trkpt>
      <trkpt lat="43.03544" lon="0.6634">
        <ele>483.8</ele>
        <time>2023-09-23T08:31:42Z</time>
      </trkpt>
      <trkpt lat="43.03545" lon="0.66335">
        <ele>483.2</ele>
        <time>2023-09-23T08:31:43Z</time>
      </trkpt>
      <trkpt lat="43.03546" lon="0.66329">
        <ele>483</ele>
        <time>2023-09-23T08:31:44Z</time>
      </trkpt>
      <trkpt lat="43.03547" lon="0.66324">
        <ele>483</ele>
        <time>2023-09-23T08:31:45Z</time>
      </trkpt>
      <trkpt lat="43.03549" lon="0.66318">
        <ele>483</ele>
        <time>2023-09-23T08:31:46Z</time>
      </trkpt>
      <trkpt lat="43.0355" lon="0.66312">
        <ele>482.6</ele>
        <time>2023-09-23T08:31:47Z</time>
      </trkpt>
      <trkpt lat="43.03551" lon="0.66306">
        <ele>482.6</ele>
        <time>2023-09-23T08:31:48Z</time>
      </trkpt>
      <trkpt lat="43.03552" lon="0.663">
        <ele>482.6</ele>
        <time>2023-09-23T08:31:49Z</time>
      </trkpt>
      <trkpt lat="43.03552" lon="0.66294">
        <ele>482.6</ele>
        <time>2023-09-23T08:31:50Z</time>
      </trkpt>
      <trkpt lat="43.03554" lon="0.66288">
        <ele>483.4</ele>
        <time>2023-09-23T08:31:51Z</time>
      </trkpt>
      <trkpt lat="43.03555" lon="0.66282">
        <ele>483.4</ele>
        <time>2023-09-23T08:31:52Z</time>
      </trkpt>
      <trkpt lat="43.03556" lon="0.66276">
        <ele>483.4</ele>
        <time>2023-09-23T08:31:53Z</time>
      </trkpt>
      <trkpt lat="43.03557" lon="0.6627">
        <ele>483.4</ele>
        <time>2023-09-23T08:31:54Z</time>
      </trkpt>
      <trkpt lat="43.03559" lon="0.66264">
        <ele>483</ele>
        <time>2023-09-23T08:31:55Z</time>
      </trkpt>
      <trkpt lat="43.0356" lon="0.66258">
        <ele>483.2</ele>
        <time>2023-09-23T08:31:56Z</time>
      </trkpt>
      <trkpt lat="43.03561" lon="0.66252">
        <ele>483.2</ele>
        <time>2023-09-23T08:31:57Z</time>
      </trkpt>
      <trkpt lat="43.03562" lon="0.66246">
        <ele>483.2</ele>
        <time>2023-09-23T08:31:58Z</time>
      </trkpt>
      <trkpt lat="43.03564" lon="0.6624">
        <ele>482.6</ele>
        <time>2023-09-23T08:31:59Z</time>
      </trkpt>
      <trkpt lat="43.03566" lon="0.66234">
        <ele>482.8</ele>
        <time>2023-09-23T08:32:00Z</time>
      </trkpt>
      <trkpt lat="43.03568" lon="0.66227">
        <ele>482.8</ele>
        <time>2023-09-23T08:32:01Z</time>
      </trkpt>
      <trkpt lat="43.0357" lon="0.66221">
        <ele>482.8</ele>
        <time>2023-09-23T08:32:02Z</time>
      </trkpt>
      <trkpt lat="43.03572" lon="0.66214">
        <ele>482.8</ele>
        <time>2023-09-23T08:32:03Z</time>
      </trkpt>
      <trkpt lat="43.03574" lon="0.66206">
        <ele>482.4</ele>
        <time>2023-09-23T08:32:04Z</time>
      </trkpt>
      <trkpt lat="43.03576" lon="0.66199">
        <ele>482.4</ele>
        <time>2023-09-23T08:32:05Z</time>
      </trkpt>
      <trkpt lat="43.03578" lon="0.66192">
        <ele>482.4</ele>
        <time>2023-09-23T08:32:06Z</time>
      </trkpt>
      <trkpt lat="43.0358" lon="0.66183">
        <ele>482.4</ele>
        <time>2023-09-23T08:32:07Z</time>
      </trkpt>
      <trkpt lat="43.03582" lon="0.66175">
        <ele>481.2</ele>
        <time>2023-09-23T08:32:08Z</time>
      </trkpt>
      <trkpt lat="43.03584" lon="0.66166">
        <ele>481.2</ele>
        <time>2023-09-23T08:32:09Z</time>
      </trkpt>
      <trkpt lat="43.03587" lon="0.66158">
        <ele>481.2</ele>
        <time>2023-09-23T08:32:10Z</time>
      </trkpt>
      <trkpt lat="43.03589" lon="0.66149">
        <ele>481.2</ele>
        <time>2023-09-23T08:32:11Z</time>
      </trkpt>
      <trkpt lat="43.03592" lon="0.66139">
        <ele>480.6</ele>
        <time>2023-09-23T08:32:12Z</time>
      </trkpt>
      <trkpt lat="43.03594" lon="0.66131">
        <ele>480.6</ele>
        <time>2023-09-23T08:32:13Z</time>
      </trkpt>
      <trkpt lat="43.03597" lon="0.66122">
        <ele>480.6</ele>
        <time>2023-09-23T08:32:14Z</time>
      </trkpt>
      <trkpt lat="43.036" lon="0.66114">
        <ele>480.6</ele>
        <time>2023-09-23T08:32:15Z</time>
      </trkpt>
      <trkpt lat="43.03603" lon="0.66107">
        <ele>481.6</ele>
        <time>2023-09-23T08:32:16Z</time>
      </trkpt>
      <trkpt lat="43.03606" lon="0.66101">
        <ele>481.6</ele>
        <time>2023-09-23T08:32:17Z</time>
      </trkpt>
      <trkpt lat="43.03608" lon="0.66094">
        <ele>481.6</ele>
        <time>2023-09-23T08:32:18Z</time>
      </trkpt>
      <trkpt lat="43.03611" lon="0.66089">
        <ele>482.6</ele>
        <time>2023-09-23T08:32:19Z</time>
      </trkpt>
      <trkpt lat="43.03613" lon="0.66083">
        <ele>482.6</ele>
        <time>2023-09-23T08:32:20Z</time>
      </trkpt>
      <trkpt lat="43.03615" lon="0.66078">
        <ele>482.6</ele>
        <time>2023-09-23T08:32:21Z</time>
      </trkpt>
      <trkpt lat="43.03618" lon="0.66073">
        <ele>482.6</ele>
        <time>2023-09-23T08:32:22Z</time>
      </trkpt>
      <trkpt lat="43.0362" lon="0.66068">
        <ele>483.2</ele>
        <time>2023-09-23T08:32:23Z</time>
      </trkpt>
      <trkpt lat="43.03622" lon="0.66062">
        <ele>483.6</ele>
        <time>2023-09-23T08:32:24Z</time>
      </trkpt>
      <trkpt lat="43.03624" lon="0.66056">
        <ele>483.6</ele>
        <time>2023-09-23T08:32:25Z</time>
      </trkpt>
      <trkpt lat="43.03626" lon="0.66049">
        <ele>483.6</ele>
        <time>2023-09-23T08:32:26Z</time>
      </trkpt>
      <trkpt lat="43.03628" lon="0.66042">
        <ele>483.2</ele>
        <time>2023-09-23T08:32:27Z</time>
      </trkpt>
      <trkpt lat="43.03629" lon="0.66035">
        <ele>483.4</ele>
        <time>2023-09-23T08:32:28Z</time>
      </trkpt>
      <trkpt lat="43.03631" lon="0.66028">
        <ele>483.4</ele>
        <time>2023-09-23T08:32:29Z</time>
      </trkpt>
      <trkpt lat="43.03632" lon="0.66021">
        <ele>483.4</ele>
        <time>2023-09-23T08:32:30Z</time>
      </trkpt>
      <trkpt lat="43.03632" lon="0.66014">
        <ele>484</ele>
        <time>2023-09-23T08:32:31Z</time>
      </trkpt>
      <trkpt lat="43.03633" lon="0.66006">
        <ele>483.4</ele>
        <time>2023-09-23T08:32:32Z</time>
      </trkpt>
      <trkpt lat="43.03633" lon="0.65999">
        <ele>483.4</ele>
        <time>2023-09-23T08:32:33Z</time>
      </trkpt>
      <trkpt lat="43.03634" lon="0.65992">
        <ele>483.4</ele>
        <time>2023-09-23T08:32:34Z</time>
      </trkpt>
      <trkpt lat="43.03634" lon="0.65984">
        <ele>484.4</ele>
        <time>2023-09-23T08:32:35Z</time>
      </trkpt>
      <trkpt lat="43.03635" lon="0.65977">
        <ele>484.2</ele>
        <time>2023-09-23T08:32:36Z</time>
      </trkpt>
      <trkpt lat="43.03635" lon="0.6597">
        <ele>484.2</ele>
        <time>2023-09-23T08:32:37Z</time>
      </trkpt>
      <trkpt lat="43.03635" lon="0.65963">
        <ele>484.2</ele>
        <time>2023-09-23T08:32:38Z</time>
      </trkpt>
      <trkpt lat="43.03636" lon="0.65955">
        <ele>484.2</ele>
        <time>2023-09-23T08:32:39Z</time>
      </trkpt>
      <trkpt lat="43.03636" lon="0.65948">
        <ele>485</ele>
        <time>2023-09-23T08:32:40Z</time>
      </trkpt>
      <trkpt lat="43.03637" lon="0.65941">
        <ele>485</ele>
        <time>2023-09-23T08:32:41Z</time>
      </trkpt>
      <trkpt lat="43.03637" lon="0.65933">
        <ele>485</ele>
        <time>2023-09-23T08:32:42Z</time>
      </trkpt>
      <trkpt lat="43.03638" lon="0.65926">
        <ele>485</ele>
        <time>2023-09-23T08:32:43Z</time>
      </trkpt>
      <trkpt lat="43.03638" lon="0.65918">
        <ele>485.2</ele>
        <time>2023-09-23T08:32:44Z</time>
      </trkpt>
      <trkpt lat="43.03639" lon="0.65911">
        <ele>485.2</ele>
        <time>2023-09-23T08:32:45Z</time>
      </trkpt>
      <trkpt lat="43.03639" lon="0.65904">
        <ele>485.2</ele>
        <time>2023-09-23T08:32:46Z</time>
      </trkpt>
      <trkpt lat="43.03639" lon="0.65897">
        <ele>485.2</ele>
        <time>2023-09-23T08:32:47Z</time>
      </trkpt>
      <trkpt lat="43.0364" lon="0.65889">
        <ele>485.8</ele>
        <time>2023-09-23T08:32:48Z</time>
      </trkpt>
      <trkpt lat="43.0364" lon="0.65882">
        <ele>485.8</ele>
        <time>2023-09-23T08:32:49Z</time>
      </trkpt>
      <trkpt lat="43.03641" lon="0.65875">
        <ele>485.8</ele>
        <time>2023-09-23T08:32:50Z</time>
      </trkpt>
      <trkpt lat="43.03641" lon="0.65868">
        <ele>485.8</ele>
        <time>2023-09-23T08:32:51Z</time>
      </trkpt>
      <trkpt lat="43.03641" lon="0.65861">
        <ele>486.2</ele>
        <time>2023-09-23T08:32:52Z</time>
      </trkpt>
      <trkpt lat="43.03641" lon="0.65854">
        <ele>486.2</ele>
        <time>2023-09-23T08:32:53Z</time>
      </trkpt>
      <trkpt lat="43.03642" lon="0.65847">
        <ele>486.2</ele>
        <time>2023-09-23T08:32:54Z</time>
      </trkpt>
      <trkpt lat="43.03642" lon="0.6584">
        <ele>486.4</ele>
        <time>2023-09-23T08:32:55Z</time>
      </trkpt>
      <trkpt lat="43.03643" lon="0.65833">
        <ele>486.2</ele>
        <time>2023-09-23T08:32:56Z</time>
      </trkpt>
      <trkpt lat="43.03643" lon="0.65826">
        <ele>486.2</ele>
        <time>2023-09-23T08:32:57Z</time>
      </trkpt>
      <trkpt lat="43.03643" lon="0.65819">
        <ele>486.2</ele>
        <time>2023-09-23T08:32:58Z</time>
      </trkpt>
      <trkpt lat="43.03643" lon="0.65812">
        <ele>486.6</ele>
        <time>2023-09-23T08:32:59Z</time>
      </trkpt>
      <trkpt lat="43.03644" lon="0.65805">
        <ele>486.8</ele>
        <time>2023-09-23T08:33:00Z</time>
      </trkpt>
      <trkpt lat="43.03644" lon="0.65798">
        <ele>486.8</ele>
        <time>2023-09-23T08:33:01Z</time>
      </trkpt>
      <trkpt lat="43.03644" lon="0.65791">
        <ele>486.8</ele>
        <time>2023-09-23T08:33:02Z</time>
      </trkpt>
      <trkpt lat="43.03645" lon="0.65784">
        <ele>486.8</ele>
        <time>2023-09-23T08:33:03Z</time>
      </trkpt>
      <trkpt lat="43.03645" lon="0.65777">
        <ele>486.8</ele>
        <time>2023-09-23T08:33:04Z</time>
      </trkpt>
      <trkpt lat="43.03645" lon="0.6577">
        <ele>486.8</ele>
        <time>2023-09-23T08:33:05Z</time>
      </trkpt>
      <trkpt lat="43.03645" lon="0.65763">
        <ele>486.8</ele>
        <time>2023-09-23T08:33:06Z</time>
      </trkpt>
      <trkpt lat="43.03645" lon="0.65756">
        <ele>487.2</ele>
        <time>2023-09-23T08:33:07Z</time>
      </trkpt>
      <trkpt lat="43.03645" lon="0.65749">
        <ele>487.2</ele>
        <time>2023-09-23T08:33:08Z</time>
      </trkpt>
      <trkpt lat="43.03645" lon="0.65742">
        <ele>487.2</ele>
        <time>2023-09-23T08:33:09Z</time>
      </trkpt>
      <trkpt lat="43.03645" lon="0.65735">
        <ele>487.2</ele>
        <time>2023-09-23T08:33:10Z</time>
      </trkpt>
      <trkpt lat="43.03645" lon="0.65729">
        <ele>486.8</ele>
        <time>2023-09-23T08:33:11Z</time>
      </trkpt>
      <trkpt lat="43.03646" lon="0.65723">
        <ele>487.4</ele>
        <time>2023-09-23T08:33:12Z</time>
      </trkpt>
      <trkpt lat="43.03647" lon="0.65716">
        <ele>487.4</ele>
        <time>2023-09-23T08:33:13Z</time>
      </trkpt>
      <trkpt lat="43.0365" lon="0.65711">
        <ele>487.4</ele>
        <time>2023-09-23T08:33:14Z</time>
      </trkpt>
      <trkpt lat="43.03654" lon="0.65707">
        <ele>488.2</ele>
        <time>2023-09-23T08:33:15Z</time>
      </trkpt>
      <trkpt lat="43.03659" lon="0.65705">
        <ele>488</ele>
        <time>2023-09-23T08:33:16Z</time>
      </trkpt>
      <trkpt lat="43.03664" lon="0.65705">
        <ele>488</ele>
        <time>2023-09-23T08:33:17Z</time>
      </trkpt>
      <trkpt lat="43.0367" lon="0.65705">
        <ele>488</ele>
        <time>2023-09-23T08:33:18Z</time>
      </trkpt>
      <trkpt lat="43.03676" lon="0.65704">
        <ele>487.4</ele>
        <time>2023-09-23T08:33:19Z</time>
      </trkpt>
      <trkpt lat="43.03681" lon="0.65704">
        <ele>487.2</ele>
        <time>2023-09-23T08:33:20Z</time>
      </trkpt>
      <trkpt lat="43.03687" lon="0.65702">
        <ele>487.2</ele>
        <time>2023-09-23T08:33:21Z</time>
      </trkpt>
      <trkpt lat="43.03692" lon="0.657">
        <ele>487.2</ele>
        <time>2023-09-23T08:33:22Z</time>
      </trkpt>
      <trkpt lat="43.03696" lon="0.65697">
        <ele>487.2</ele>
        <time>2023-09-23T08:33:23Z</time>
      </trkpt>
      <trkpt lat="43.037" lon="0.65692">
        <ele>486.8</ele>
        <time>2023-09-23T08:33:24Z</time>
      </trkpt>
      <trkpt lat="43.03702" lon="0.65685">
        <ele>486.8</ele>
        <time>2023-09-23T08:33:25Z</time>
      </trkpt>
      <trkpt lat="43.03704" lon="0.65679">
        <ele>486.8</ele>
        <time>2023-09-23T08:33:26Z</time>
      </trkpt>
      <trkpt lat="43.03706" lon="0.65672">
        <ele>485.8</ele>
        <time>2023-09-23T08:33:27Z</time>
      </trkpt>
      <trkpt lat="43.03707" lon="0.65665">
        <ele>486.2</ele>
        <time>2023-09-23T08:33:28Z</time>
      </trkpt>
      <trkpt lat="43.03708" lon="0.65658">
        <ele>486.2</ele>
        <time>2023-09-23T08:33:29Z</time>
      </trkpt>
      <trkpt lat="43.03709" lon="0.65652">
        <ele>486.2</ele>
        <time>2023-09-23T08:33:30Z</time>
      </trkpt>
      <trkpt lat="43.03711" lon="0.65645">
        <ele>486.8</ele>
        <time>2023-09-23T08:33:31Z</time>
      </trkpt>
      <trkpt lat="43.03712" lon="0.65639">
        <ele>486.6</ele>
        <time>2023-09-23T08:33:32Z</time>
      </trkpt>
      <trkpt lat="43.03713" lon="0.65632">
        <ele>486.6</ele>
        <time>2023-09-23T08:33:33Z</time>
      </trkpt>
      <trkpt lat="43.03714" lon="0.65626">
        <ele>486.6</ele>
        <time>2023-09-23T08:33:34Z</time>
      </trkpt>
      <trkpt lat="43.03715" lon="0.65619">
        <ele>486.6</ele>
        <time>2023-09-23T08:33:35Z</time>
      </trkpt>
      <trkpt lat="43.03717" lon="0.65613">
        <ele>486.6</ele>
        <time>2023-09-23T08:33:36Z</time>
      </trkpt>
      <trkpt lat="43.0372" lon="0.65607">
        <ele>486.6</ele>
        <time>2023-09-23T08:33:37Z</time>
      </trkpt>
      <trkpt lat="43.03723" lon="0.65602">
        <ele>486.6</ele>
        <time>2023-09-23T08:33:38Z</time>
      </trkpt>
      <trkpt lat="43.03727" lon="0.65599">
        <ele>487.6</ele>
        <time>2023-09-23T08:33:39Z</time>
      </trkpt>
      <trkpt lat="43.03732" lon="0.65597">
        <ele>488</ele>
        <time>2023-09-23T08:33:40Z</time>
      </trkpt>
      <trkpt lat="43.03736" lon="0.65596">
        <ele>488</ele>
        <time>2023-09-23T08:33:41Z</time>
      </trkpt>
      <trkpt lat="43.0374" lon="0.65594">
        <ele>488</ele>
        <time>2023-09-23T08:33:42Z</time>
      </trkpt>
      <trkpt lat="43.03744" lon="0.65593">
        <ele>489</ele>
        <time>2023-09-23T08:33:43Z</time>
      </trkpt>
      <trkpt lat="43.03748" lon="0.65592">
        <ele>489</ele>
        <time>2023-09-23T08:33:44Z</time>
      </trkpt>
      <trkpt lat="43.03751" lon="0.65591">
        <ele>489</ele>
        <time>2023-09-23T08:33:45Z</time>
      </trkpt>
      <trkpt lat="43.03754" lon="0.6559">
        <ele>489</ele>
        <time>2023-09-23T08:33:46Z</time>
      </trkpt>
      <trkpt lat="43.03758" lon="0.65588">
        <ele>490</ele>
        <time>2023-09-23T08:33:47Z</time>
      </trkpt>
      <trkpt lat="43.03761" lon="0.65587">
        <ele>490</ele>
        <time>2023-09-23T08:33:48Z</time>
      </trkpt>
      <trkpt lat="43.03765" lon="0.65586">
        <ele>490</ele>
        <time>2023-09-23T08:33:49Z</time>
      </trkpt>
      <trkpt lat="43.03768" lon="0.65584">
        <ele>490</ele>
        <time>2023-09-23T08:33:50Z</time>
      </trkpt>
      <trkpt lat="43.03771" lon="0.65583">
        <ele>491</ele>
        <time>2023-09-23T08:33:51Z</time>
      </trkpt>
      <trkpt lat="43.03774" lon="0.65582">
        <ele>492.6</ele>
        <time>2023-09-23T08:33:52Z</time>
      </trkpt>
      <trkpt lat="43.03777" lon="0.6558">
        <ele>492.6</ele>
        <time>2023-09-23T08:33:53Z</time>
      </trkpt>
      <trkpt lat="43.0378" lon="0.65578">
        <ele>492.6</ele>
        <time>2023-09-23T08:33:54Z</time>
      </trkpt>
      <trkpt lat="43.03783" lon="0.65577">
        <ele>493.6</ele>
        <time>2023-09-23T08:33:55Z</time>
      </trkpt>
      <trkpt lat="43.03785" lon="0.65575">
        <ele>494</ele>
        <time>2023-09-23T08:33:56Z</time>
      </trkpt>
      <trkpt lat="43.03788" lon="0.65573">
        <ele>494</ele>
        <time>2023-09-23T08:33:57Z</time>
      </trkpt>
      <trkpt lat="43.03791" lon="0.65571">
        <ele>494</ele>
        <time>2023-09-23T08:33:58Z</time>
      </trkpt>
      <trkpt lat="43.03794" lon="0.6557">
        <ele>495</ele>
        <time>2023-09-23T08:33:59Z</time>
      </trkpt>
      <trkpt lat="43.03796" lon="0.65568">
        <ele>496</ele>
        <time>2023-09-23T08:34:00Z</time>
      </trkpt>
      <trkpt lat="43.03799" lon="0.65566">
        <ele>496</ele>
        <time>2023-09-23T08:34:01Z</time>
      </trkpt>
      <trkpt lat="43.03802" lon="0.65565">
        <ele>496</ele>
        <time>2023-09-23T08:34:02Z</time>
      </trkpt>
      <trkpt lat="43.03804" lon="0.65563">
        <ele>497</ele>
        <time>2023-09-23T08:34:03Z</time>
      </trkpt>
      <trkpt lat="43.03807" lon="0.65561">
        <ele>497.8</ele>
        <time>2023-09-23T08:34:04Z</time>
      </trkpt>
      <trkpt lat="43.03808" lon="0.65561">
        <ele>497.8</ele>
        <time>2023-09-23T08:34:05Z</time>
      </trkpt>
      <trkpt lat="43.0381" lon="0.65559">
        <ele>497.8</ele>
        <time>2023-09-23T08:34:06Z</time>
      </trkpt>
      <trkpt lat="43.03812" lon="0.65558">
        <ele>498.8</ele>
        <time>2023-09-23T08:34:07Z</time>
      </trkpt>
      <trkpt lat="43.03814" lon="0.65556">
        <ele>499.2</ele>
        <time>2023-09-23T08:34:08Z</time>
      </trkpt>
      <trkpt lat="43.03816" lon="0.65552">
        <ele>499.2</ele>
        <time>2023-09-23T08:34:09Z</time>
      </trkpt>
      <trkpt lat="43.03817" lon="0.65549">
        <ele>499.2</ele>
        <time>2023-09-23T08:34:10Z</time>
      </trkpt>
      <trkpt lat="43.03818" lon="0.65546">
        <ele>499.2</ele>
        <time>2023-09-23T08:34:11Z</time>
      </trkpt>
      <trkpt lat="43.03819" lon="0.65541">
        <ele>499</ele>
        <time>2023-09-23T08:34:12Z</time>
      </trkpt>
      <trkpt lat="43.03819" lon="0.65536">
        <ele>499</ele>
        <time>2023-09-23T08:34:13Z</time>
      </trkpt>
      <trkpt lat="43.03819" lon="0.65532">
        <ele>499</ele>
        <time>2023-09-23T08:34:14Z</time>
      </trkpt>
      <trkpt lat="43.03819" lon="0.65527">
        <ele>499.4</ele>
        <time>2023-09-23T08:34:15Z</time>
      </trkpt>
      <trkpt lat="43.03819" lon="0.65522">
        <ele>499.6</ele>
        <time>2023-09-23T08:34:16Z</time>
      </trkpt>
      <trkpt lat="43.03819" lon="0.65517">
        <ele>499.6</ele>
        <time>2023-09-23T08:34:17Z</time>
      </trkpt>
      <trkpt lat="43.03818" lon="0.65512">
        <ele>499.6</ele>
        <time>2023-09-23T08:34:18Z</time>
      </trkpt>
      <trkpt lat="43.03819" lon="0.65506">
        <ele>499.6</ele>
        <time>2023-09-23T08:34:19Z</time>
      </trkpt>
      <trkpt lat="43.03819" lon="0.65501">
        <ele>500.6</ele>
        <time>2023-09-23T08:34:20Z</time>
      </trkpt>
      <trkpt lat="43.03819" lon="0.65496">
        <ele>500.6</ele>
        <time>2023-09-23T08:34:21Z</time>
      </trkpt>
      <trkpt lat="43.0382" lon="0.65491">
        <ele>500.6</ele>
        <time>2023-09-23T08:34:22Z</time>
      </trkpt>
      <trkpt lat="43.0382" lon="0.65486">
        <ele>500.8</ele>
        <time>2023-09-23T08:34:23Z</time>
      </trkpt>
      <trkpt lat="43.0382" lon="0.65481">
        <ele>501.4</ele>
        <time>2023-09-23T08:34:24Z</time>
      </trkpt>
      <trkpt lat="43.0382" lon="0.65476">
        <ele>501.4</ele>
        <time>2023-09-23T08:34:25Z</time>
      </trkpt>
      <trkpt lat="43.03821" lon="0.6547">
        <ele>501.4</ele>
        <time>2023-09-23T08:34:26Z</time>
      </trkpt>
      <trkpt lat="43.03821" lon="0.65465">
        <ele>502</ele>
        <time>2023-09-23T08:34:27Z</time>
      </trkpt>
      <trkpt lat="43.03822" lon="0.65459">
        <ele>502</ele>
        <time>2023-09-23T08:34:28Z</time>
      </trkpt>
      <trkpt lat="43.03822" lon="0.65453">
        <ele>502</ele>
        <time>2023-09-23T08:34:29Z</time>
      </trkpt>
      <trkpt lat="43.03823" lon="0.65447">
        <ele>502</ele>
        <time>2023-09-23T08:34:30Z</time>
      </trkpt>
      <trkpt lat="43.03824" lon="0.65441">
        <ele>502.6</ele>
        <time>2023-09-23T08:34:31Z</time>
      </trkpt>
      <trkpt lat="43.03825" lon="0.65435">
        <ele>502.4</ele>
        <time>2023-09-23T08:34:32Z</time>
      </trkpt>
      <trkpt lat="43.03825" lon="0.65428">
        <ele>502.4</ele>
        <time>2023-09-23T08:34:33Z</time>
      </trkpt>
      <trkpt lat="43.03826" lon="0.65422">
        <ele>502.4</ele>
        <time>2023-09-23T08:34:34Z</time>
      </trkpt>
      <trkpt lat="43.03826" lon="0.65416">
        <ele>502.8</ele>
        <time>2023-09-23T08:34:35Z</time>
      </trkpt>
      <trkpt lat="43.03826" lon="0.6541">
        <ele>502.8</ele>
        <time>2023-09-23T08:34:36Z</time>
      </trkpt>
      <trkpt lat="43.03826" lon="0.65403">
        <ele>502.8</ele>
        <time>2023-09-23T08:34:37Z</time>
      </trkpt>
      <trkpt lat="43.03827" lon="0.65397">
        <ele>502.8</ele>
        <time>2023-09-23T08:34:38Z</time>
      </trkpt>
      <trkpt lat="43.03827" lon="0.65392">
        <ele>502.8</ele>
        <time>2023-09-23T08:34:39Z</time>
      </trkpt>
      <trkpt lat="43.03828" lon="0.65386">
        <ele>503.4</ele>
        <time>2023-09-23T08:34:40Z</time>
      </trkpt>
      <trkpt lat="43.03829" lon="0.6538">
        <ele>503.4</ele>
        <time>2023-09-23T08:34:41Z</time>
      </trkpt>
      <trkpt lat="43.0383" lon="0.65374">
        <ele>503.4</ele>
        <time>2023-09-23T08:34:42Z</time>
      </trkpt>
      <trkpt lat="43.03831" lon="0.65368">
        <ele>503.4</ele>
        <time>2023-09-23T08:34:43Z</time>
      </trkpt>
      <trkpt lat="43.03831" lon="0.65362">
        <ele>503.8</ele>
        <time>2023-09-23T08:34:44Z</time>
      </trkpt>
      <trkpt lat="43.03832" lon="0.65356">
        <ele>503.8</ele>
        <time>2023-09-23T08:34:45Z</time>
      </trkpt>
      <trkpt lat="43.03833" lon="0.65351">
        <ele>503.8</ele>
        <time>2023-09-23T08:34:46Z</time>
      </trkpt>
      <trkpt lat="43.03833" lon="0.65344">
        <ele>503.8</ele>
        <time>2023-09-23T08:34:47Z</time>
      </trkpt>
      <trkpt lat="43.03834" lon="0.65339">
        <ele>503.8</ele>
        <time>2023-09-23T08:34:48Z</time>
      </trkpt>
      <trkpt lat="43.03836" lon="0.65333">
        <ele>503.8</ele>
        <time>2023-09-23T08:34:49Z</time>
      </trkpt>
      <trkpt lat="43.03838" lon="0.65327">
        <ele>503.8</ele>
        <time>2023-09-23T08:34:50Z</time>
      </trkpt>
      <trkpt lat="43.0384" lon="0.65322">
        <ele>503.8</ele>
        <time>2023-09-23T08:34:51Z</time>
      </trkpt>
      <trkpt lat="43.03842" lon="0.65316">
        <ele>503.8</ele>
        <time>2023-09-23T08:34:52Z</time>
      </trkpt>
      <trkpt lat="43.03844" lon="0.6531">
        <ele>503.8</ele>
        <time>2023-09-23T08:34:53Z</time>
      </trkpt>
      <trkpt lat="43.03845" lon="0.65304">
        <ele>503.8</ele>
        <time>2023-09-23T08:34:54Z</time>
      </trkpt>
      <trkpt lat="43.03846" lon="0.65298">
        <ele>503</ele>
        <time>2023-09-23T08:34:55Z</time>
      </trkpt>
      <trkpt lat="43.03846" lon="0.65293">
        <ele>503</ele>
        <time>2023-09-23T08:34:56Z</time>
      </trkpt>
      <trkpt lat="43.03847" lon="0.65288">
        <ele>503</ele>
        <time>2023-09-23T08:34:57Z</time>
      </trkpt>
      <trkpt lat="43.03846" lon="0.65284">
        <ele>503</ele>
        <time>2023-09-23T08:34:58Z</time>
      </trkpt>
      <trkpt lat="43.03846" lon="0.6528">
        <ele>503.2</ele>
        <time>2023-09-23T08:34:59Z</time>
      </trkpt>
      <trkpt lat="43.03845" lon="0.65277">
        <ele>503.4</ele>
        <time>2023-09-23T08:35:00Z</time>
      </trkpt>
      <trkpt lat="43.03845" lon="0.65273">
        <ele>503.4</ele>
        <time>2023-09-23T08:35:01Z</time>
      </trkpt>
      <trkpt lat="43.03844" lon="0.65269">
        <ele>503.4</ele>
        <time>2023-09-23T08:35:02Z</time>
      </trkpt>
      <trkpt lat="43.03844" lon="0.65265">
        <ele>504</ele>
        <time>2023-09-23T08:35:03Z</time>
      </trkpt>
      <trkpt lat="43.03844" lon="0.65262">
        <ele>503.8</ele>
        <time>2023-09-23T08:35:04Z</time>
      </trkpt>
      <trkpt lat="43.03844" lon="0.65257">
        <ele>503.8</ele>
        <time>2023-09-23T08:35:05Z</time>
      </trkpt>
      <trkpt lat="43.03843" lon="0.65254">
        <ele>503.8</ele>
        <time>2023-09-23T08:35:06Z</time>
      </trkpt>
      <trkpt lat="43.03843" lon="0.6525">
        <ele>504.8</ele>
        <time>2023-09-23T08:35:07Z</time>
      </trkpt>
      <trkpt lat="43.03843" lon="0.65247">
        <ele>505.2</ele>
        <time>2023-09-23T08:35:08Z</time>
      </trkpt>
      <trkpt lat="43.03842" lon="0.65244">
        <ele>505.2</ele>
        <time>2023-09-23T08:35:09Z</time>
      </trkpt>
      <trkpt lat="43.03843" lon="0.65241">
        <ele>505.2</ele>
        <time>2023-09-23T08:35:10Z</time>
      </trkpt>
      <trkpt lat="43.03843" lon="0.65237">
        <ele>505.8</ele>
        <time>2023-09-23T08:35:11Z</time>
      </trkpt>
      <trkpt lat="43.03842" lon="0.65232">
        <ele>505.6</ele>
        <time>2023-09-23T08:35:12Z</time>
      </trkpt>
      <trkpt lat="43.03841" lon="0.65228">
        <ele>505.6</ele>
        <time>2023-09-23T08:35:13Z</time>
      </trkpt>
      <trkpt lat="43.03841" lon="0.65225">
        <ele>505.6</ele>
        <time>2023-09-23T08:35:14Z</time>
      </trkpt>
      <trkpt lat="43.03841" lon="0.6522">
        <ele>505.6</ele>
        <time>2023-09-23T08:35:15Z</time>
      </trkpt>
      <trkpt lat="43.0384" lon="0.65216">
        <ele>506.4</ele>
        <time>2023-09-23T08:35:16Z</time>
      </trkpt>
      <trkpt lat="43.0384" lon="0.65213">
        <ele>506.4</ele>
        <time>2023-09-23T08:35:17Z</time>
      </trkpt>
      <trkpt lat="43.03839" lon="0.65208">
        <ele>506.4</ele>
        <time>2023-09-23T08:35:18Z</time>
      </trkpt>
      <trkpt lat="43.03838" lon="0.65203">
        <ele>506.2</ele>
        <time>2023-09-23T08:35:19Z</time>
      </trkpt>
      <trkpt lat="43.03836" lon="0.65197">
        <ele>506.4</ele>
        <time>2023-09-23T08:35:20Z</time>
      </trkpt>
      <trkpt lat="43.03835" lon="0.65191">
        <ele>506.4</ele>
        <time>2023-09-23T08:35:21Z</time>
      </trkpt>
      <trkpt lat="43.03834" lon="0.65186">
        <ele>506.4</ele>
        <time>2023-09-23T08:35:22Z</time>
      </trkpt>
      <trkpt lat="43.03832" lon="0.65182">
        <ele>505.8</ele>
        <time>2023-09-23T08:35:23Z</time>
      </trkpt>
      <trkpt lat="43.03831" lon="0.65176">
        <ele>505.8</ele>
        <time>2023-09-23T08:35:24Z</time>
      </trkpt>
      <trkpt lat="43.0383" lon="0.65171">
        <ele>505.8</ele>
        <time>2023-09-23T08:35:25Z</time>
      </trkpt>
      <trkpt lat="43.03828" lon="0.65165">
        <ele>505.8</ele>
        <time>2023-09-23T08:35:26Z</time>
      </trkpt>
      <trkpt lat="43.03827" lon="0.65159">
        <ele>505.8</ele>
        <time>2023-09-23T08:35:27Z</time>
      </trkpt>
      <trkpt lat="43.03825" lon="0.65154">
        <ele>506.4</ele>
        <time>2023-09-23T08:35:28Z</time>
      </trkpt>
      <trkpt lat="43.03824" lon="0.65148">
        <ele>506.4</ele>
        <time>2023-09-23T08:35:29Z</time>
      </trkpt>
      <trkpt lat="43.03823" lon="0.65142">
        <ele>506.4</ele>
        <time>2023-09-23T08:35:30Z</time>
      </trkpt>
      <trkpt lat="43.03821" lon="0.65137">
        <ele>506</ele>
        <time>2023-09-23T08:35:31Z</time>
      </trkpt>
      <trkpt lat="43.03819" lon="0.65132">
        <ele>505.8</ele>
        <time>2023-09-23T08:35:32Z</time>
      </trkpt>
      <trkpt lat="43.03818" lon="0.65125">
        <ele>505.8</ele>
        <time>2023-09-23T08:35:33Z</time>
      </trkpt>
      <trkpt lat="43.03815" lon="0.65119">
        <ele>505.8</ele>
        <time>2023-09-23T08:35:34Z</time>
      </trkpt>
      <trkpt lat="43.03813" lon="0.65113">
        <ele>506.4</ele>
        <time>2023-09-23T08:35:35Z</time>
      </trkpt>
      <trkpt lat="43.03812" lon="0.65107">
        <ele>507</ele>
        <time>2023-09-23T08:35:36Z</time>
      </trkpt>
      <trkpt lat="43.0381" lon="0.65102">
        <ele>507</ele>
        <time>2023-09-23T08:35:37Z</time>
      </trkpt>
      <trkpt lat="43.03809" lon="0.65096">
        <ele>507</ele>
        <time>2023-09-23T08:35:38Z</time>
      </trkpt>
      <trkpt lat="43.03807" lon="0.6509">
        <ele>507</ele>
        <time>2023-09-23T08:35:39Z</time>
      </trkpt>
      <trkpt lat="43.03806" lon="0.65086">
        <ele>507.2</ele>
        <time>2023-09-23T08:35:40Z</time>
      </trkpt>
      <trkpt lat="43.03804" lon="0.65082">
        <ele>507.2</ele>
        <time>2023-09-23T08:35:41Z</time>
      </trkpt>
      <trkpt lat="43.03802" lon="0.65078">
        <ele>507.2</ele>
        <time>2023-09-23T08:35:42Z</time>
      </trkpt>
      <trkpt lat="43.03799" lon="0.65075">
        <ele>507.6</ele>
        <time>2023-09-23T08:35:43Z</time>
      </trkpt>
      <trkpt lat="43.03796" lon="0.65071">
        <ele>507.6</ele>
        <time>2023-09-23T08:35:44Z</time>
      </trkpt>
      <trkpt lat="43.03793" lon="0.65067">
        <ele>507.6</ele>
        <time>2023-09-23T08:35:45Z</time>
      </trkpt>
      <trkpt lat="43.0379" lon="0.65063">
        <ele>507.6</ele>
        <time>2023-09-23T08:35:46Z</time>
      </trkpt>
      <trkpt lat="43.03788" lon="0.65059">
        <ele>507.6</ele>
        <time>2023-09-23T08:35:47Z</time>
      </trkpt>
      <trkpt lat="43.03785" lon="0.65055">
        <ele>507.4</ele>
        <time>2023-09-23T08:35:48Z</time>
      </trkpt>
      <trkpt lat="43.03783" lon="0.6505">
        <ele>507.4</ele>
        <time>2023-09-23T08:35:49Z</time>
      </trkpt>
      <trkpt lat="43.03781" lon="0.65046">
        <ele>507.4</ele>
        <time>2023-09-23T08:35:50Z</time>
      </trkpt>
      <trkpt lat="43.03779" lon="0.65041">
        <ele>507.6</ele>
        <time>2023-09-23T08:35:51Z</time>
      </trkpt>
      <trkpt lat="43.03777" lon="0.65035">
        <ele>508.4</ele>
        <time>2023-09-23T08:35:52Z</time>
      </trkpt>
      <trkpt lat="43.03776" lon="0.65031">
        <ele>508.4</ele>
        <time>2023-09-23T08:35:53Z</time>
      </trkpt>
      <trkpt lat="43.03775" lon="0.65026">
        <ele>508.4</ele>
        <time>2023-09-23T08:35:54Z</time>
      </trkpt>
      <trkpt lat="43.03774" lon="0.65021">
        <ele>507.6</ele>
        <time>2023-09-23T08:35:55Z</time>
      </trkpt>
      <trkpt lat="43.03773" lon="0.65015">
        <ele>508.4</ele>
        <time>2023-09-23T08:35:56Z</time>
      </trkpt>
      <trkpt lat="43.03773" lon="0.6501">
        <ele>508.4</ele>
        <time>2023-09-23T08:35:57Z</time>
      </trkpt>
      <trkpt lat="43.03772" lon="0.65004">
        <ele>508.4</ele>
        <time>2023-09-23T08:35:58Z</time>
      </trkpt>
      <trkpt lat="43.03772" lon="0.64998">
        <ele>508.4</ele>
        <time>2023-09-23T08:35:59Z</time>
      </trkpt>
      <trkpt lat="43.03771" lon="0.64993">
        <ele>508.6</ele>
        <time>2023-09-23T08:36:00Z</time>
      </trkpt>
      <trkpt lat="43.03771" lon="0.64987">
        <ele>508.6</ele>
        <time>2023-09-23T08:36:01Z</time>
      </trkpt>
      <trkpt lat="43.0377" lon="0.64982">
        <ele>508.6</ele>
        <time>2023-09-23T08:36:02Z</time>
      </trkpt>
      <trkpt lat="43.0377" lon="0.64978">
        <ele>508</ele>
        <time>2023-09-23T08:36:03Z</time>
      </trkpt>
      <trkpt lat="43.0377" lon="0.64972">
        <ele>508.4</ele>
        <time>2023-09-23T08:36:04Z</time>
      </trkpt>
      <trkpt lat="43.03769" lon="0.64968">
        <ele>508.4</ele>
        <time>2023-09-23T08:36:05Z</time>
      </trkpt>
      <trkpt lat="43.03769" lon="0.64965">
        <ele>508.4</ele>
        <time>2023-09-23T08:36:06Z</time>
      </trkpt>
      <trkpt lat="43.03768" lon="0.6496">
        <ele>508.4</ele>
        <time>2023-09-23T08:36:07Z</time>
      </trkpt>
      <trkpt lat="43.03767" lon="0.64955">
        <ele>508.4</ele>
        <time>2023-09-23T08:36:08Z</time>
      </trkpt>
      <trkpt lat="43.03767" lon="0.6495">
        <ele>508.4</ele>
        <time>2023-09-23T08:36:09Z</time>
      </trkpt>
      <trkpt lat="43.03766" lon="0.64945">
        <ele>508.4</ele>
        <time>2023-09-23T08:36:10Z</time>
      </trkpt>
      <trkpt lat="43.03765" lon="0.6494">
        <ele>507.8</ele>
        <time>2023-09-23T08:36:11Z</time>
      </trkpt>
      <trkpt lat="43.03764" lon="0.64935">
        <ele>507.2</ele>
        <time>2023-09-23T08:36:12Z</time>
      </trkpt>
      <trkpt lat="43.03762" lon="0.6493">
        <ele>507.2</ele>
        <time>2023-09-23T08:36:13Z</time>
      </trkpt>
      <trkpt lat="43.0376" lon="0.64926">
        <ele>507.2</ele>
        <time>2023-09-23T08:36:14Z</time>
      </trkpt>
      <trkpt lat="43.03759" lon="0.6492">
        <ele>506.2</ele>
        <time>2023-09-23T08:36:15Z</time>
      </trkpt>
      <trkpt lat="43.03758" lon="0.64915">
        <ele>506</ele>
        <time>2023-09-23T08:36:16Z</time>
      </trkpt>
      <trkpt lat="43.03756" lon="0.64909">
        <ele>506</ele>
        <time>2023-09-23T08:36:17Z</time>
      </trkpt>
      <trkpt lat="43.03754" lon="0.64904">
        <ele>506</ele>
        <time>2023-09-23T08:36:18Z</time>
      </trkpt>
      <trkpt lat="43.03751" lon="0.64897">
        <ele>506</ele>
        <time>2023-09-23T08:36:19Z</time>
      </trkpt>
      <trkpt lat="43.0375" lon="0.64891">
        <ele>504.4</ele>
        <time>2023-09-23T08:36:20Z</time>
      </trkpt>
      <trkpt lat="43.03748" lon="0.64884">
        <ele>504.4</ele>
        <time>2023-09-23T08:36:21Z</time>
      </trkpt>
      <trkpt lat="43.03747" lon="0.64879">
        <ele>504.4</ele>
        <time>2023-09-23T08:36:22Z</time>
      </trkpt>
      <trkpt lat="43.03745" lon="0.64874">
        <ele>503.4</ele>
        <time>2023-09-23T08:36:23Z</time>
      </trkpt>
      <trkpt lat="43.03744" lon="0.6487">
        <ele>501.8</ele>
        <time>2023-09-23T08:36:24Z</time>
      </trkpt>
      <trkpt lat="43.03743" lon="0.64865">
        <ele>501.8</ele>
        <time>2023-09-23T08:36:25Z</time>
      </trkpt>
      <trkpt lat="43.03742" lon="0.6486">
        <ele>501.8</ele>
        <time>2023-09-23T08:36:26Z</time>
      </trkpt>
      <trkpt lat="43.03741" lon="0.64858">
        <ele>500.8</ele>
        <time>2023-09-23T08:36:27Z</time>
      </trkpt>
      <trkpt lat="43.0374" lon="0.64856">
        <ele>500.2</ele>
        <time>2023-09-23T08:36:28Z</time>
      </trkpt>
      <trkpt lat="43.03739" lon="0.64854">
        <ele>500.2</ele>
        <time>2023-09-23T08:36:29Z</time>
      </trkpt>
      <trkpt lat="43.03738" lon="0.64851">
        <ele>500.2</ele>
        <time>2023-09-23T08:36:30Z</time>
      </trkpt>
      <trkpt lat="43.03739" lon="0.64849">
        <ele>499.2</ele>
        <time>2023-09-23T08:36:31Z</time>
      </trkpt>
      <trkpt lat="43.03741" lon="0.64847">
        <ele>498</ele>
        <time>2023-09-23T08:36:32Z</time>
      </trkpt>
      <trkpt lat="43.03743" lon="0.64846">
        <ele>498</ele>
        <time>2023-09-23T08:36:33Z</time>
      </trkpt>
      <trkpt lat="43.03745" lon="0.64845">
        <ele>498</ele>
        <time>2023-09-23T08:36:34Z</time>
      </trkpt>
      <trkpt lat="43.03748" lon="0.64843">
        <ele>498</ele>
        <time>2023-09-23T08:36:35Z</time>
      </trkpt>
      <trkpt lat="43.03751" lon="0.64841">
        <ele>497</ele>
        <time>2023-09-23T08:36:36Z</time>
      </trkpt>
      <trkpt lat="43.03755" lon="0.64839">
        <ele>497</ele>
        <time>2023-09-23T08:36:37Z</time>
      </trkpt>
      <trkpt lat="43.0376" lon="0.64836">
        <ele>497</ele>
        <time>2023-09-23T08:36:38Z</time>
      </trkpt>
      <trkpt lat="43.03765" lon="0.64832">
        <ele>496</ele>
        <time>2023-09-23T08:36:39Z</time>
      </trkpt>
      <trkpt lat="43.03769" lon="0.64828">
        <ele>491.2</ele>
        <time>2023-09-23T08:36:40Z</time>
      </trkpt>
      <trkpt lat="43.03774" lon="0.64824">
        <ele>491.2</ele>
        <time>2023-09-23T08:36:41Z</time>
      </trkpt>
      <trkpt lat="43.03779" lon="0.64821">
        <ele>491.2</ele>
        <time>2023-09-23T08:36:42Z</time>
      </trkpt>
      <trkpt lat="43.03784" lon="0.64819">
        <ele>490.2</ele>
        <time>2023-09-23T08:36:43Z</time>
      </trkpt>
      <trkpt lat="43.03788" lon="0.64815">
        <ele>491.2</ele>
        <time>2023-09-23T08:36:44Z</time>
      </trkpt>
      <trkpt lat="43.03792" lon="0.64814">
        <ele>491.2</ele>
        <time>2023-09-23T08:36:45Z</time>
      </trkpt>
      <trkpt lat="43.03796" lon="0.64813">
        <ele>491.2</ele>
        <time>2023-09-23T08:36:46Z</time>
      </trkpt>
      <trkpt lat="43.03799" lon="0.64812">
        <ele>490.2</ele>
        <time>2023-09-23T08:36:47Z</time>
      </trkpt>
      <trkpt lat="43.03802" lon="0.64813">
        <ele>488.2</ele>
        <time>2023-09-23T08:36:48Z</time>
      </trkpt>
      <trkpt lat="43.03804" lon="0.64812">
        <ele>488.2</ele>
        <time>2023-09-23T08:36:49Z</time>
      </trkpt>
      <trkpt lat="43.03807" lon="0.64811">
        <ele>488.2</ele>
        <time>2023-09-23T08:36:50Z</time>
      </trkpt>
      <trkpt lat="43.0381" lon="0.6481">
        <ele>488.2</ele>
        <time>2023-09-23T08:36:51Z</time>
      </trkpt>
      <trkpt lat="43.03813" lon="0.64807">
        <ele>486.4</ele>
        <time>2023-09-23T08:36:52Z</time>
      </trkpt>
      <trkpt lat="43.03816" lon="0.64805">
        <ele>486.4</ele>
        <time>2023-09-23T08:36:53Z</time>
      </trkpt>
      <trkpt lat="43.03819" lon="0.64802">
        <ele>486.4</ele>
        <time>2023-09-23T08:36:54Z</time>
      </trkpt>
      <trkpt lat="43.03821" lon="0.64798">
        <ele>486.4</ele>
        <time>2023-09-23T08:36:55Z</time>
      </trkpt>
      <trkpt lat="43.03823" lon="0.64795">
        <ele>487</ele>
        <time>2023-09-23T08:36:56Z</time>
      </trkpt>
      <trkpt lat="43.03823" lon="0.64792">
        <ele>487</ele>
        <time>2023-09-23T08:36:57Z</time>
      </trkpt>
      <trkpt lat="43.03825" lon="0.64789">
        <ele>487</ele>
        <time>2023-09-23T08:36:58Z</time>
      </trkpt>
      <trkpt lat="43.03827" lon="0.64786">
        <ele>487.2</ele>
        <time>2023-09-23T08:36:59Z</time>
      </trkpt>
      <trkpt lat="43.03828" lon="0.6478">
        <ele>486.6</ele>
        <time>2023-09-23T08:37:00Z</time>
      </trkpt>
      <trkpt lat="43.03831" lon="0.64775">
        <ele>486.6</ele>
        <time>2023-09-23T08:37:01Z</time>
      </trkpt>
      <trkpt lat="43.03834" lon="0.64771">
        <ele>486.6</ele>
        <time>2023-09-23T08:37:02Z</time>
      </trkpt>
      <trkpt lat="43.03837" lon="0.64765">
        <ele>485.6</ele>
        <time>2023-09-23T08:37:03Z</time>
      </trkpt>
      <trkpt lat="43.03839" lon="0.64759">
        <ele>485</ele>
        <time>2023-09-23T08:37:04Z</time>
      </trkpt>
      <trkpt lat="43.03841" lon="0.64755">
        <ele>485</ele>
        <time>2023-09-23T08:37:05Z</time>
      </trkpt>
      <trkpt lat="43.03843" lon="0.64751">
        <ele>485</ele>
        <time>2023-09-23T08:37:06Z</time>
      </trkpt>
      <trkpt lat="43.03843" lon="0.64748">
        <ele>485</ele>
        <time>2023-09-23T08:37:07Z</time>
      </trkpt>
      <trkpt lat="43.03845" lon="0.64746">
        <ele>484.8</ele>
        <time>2023-09-23T08:37:08Z</time>
      </trkpt>
      <trkpt lat="43.03847" lon="0.64745">
        <ele>484.8</ele>
        <time>2023-09-23T08:37:09Z</time>
      </trkpt>
      <trkpt lat="43.03848" lon="0.64742">
        <ele>484.8</ele>
        <time>2023-09-23T08:37:10Z</time>
      </trkpt>
      <trkpt lat="43.03849" lon="0.64739">
        <ele>484.8</ele>
        <time>2023-09-23T08:37:11Z</time>
      </trkpt>
      <trkpt lat="43.03849" lon="0.64735">
        <ele>484.4</ele>
        <time>2023-09-23T08:37:12Z</time>
      </trkpt>
      <trkpt lat="43.0385" lon="0.64733">
        <ele>484.4</ele>
        <time>2023-09-23T08:37:13Z</time>
      </trkpt>
      <trkpt lat="43.0385" lon="0.64731">
        <ele>484.4</ele>
        <time>2023-09-23T08:37:14Z</time>
      </trkpt>
      <trkpt lat="43.03851" lon="0.64729">
        <ele>484.4</ele>
        <time>2023-09-23T08:37:15Z</time>
      </trkpt>
      <trkpt lat="43.03851" lon="0.64723">
        <ele>485.2</ele>
        <time>2023-09-23T08:37:16Z</time>
      </trkpt>
      <trkpt lat="43.03851" lon="0.64721">
        <ele>485.2</ele>
        <time>2023-09-23T08:37:17Z</time>
      </trkpt>
      <trkpt lat="43.0385" lon="0.64719">
        <ele>485.2</ele>
        <time>2023-09-23T08:37:18Z</time>
      </trkpt>
      <trkpt lat="43.0385" lon="0.64716">
        <ele>486</ele>
        <time>2023-09-23T08:37:19Z</time>
      </trkpt>
      <trkpt lat="43.03851" lon="0.64713">
        <ele>486.2</ele>
        <time>2023-09-23T08:37:20Z</time>
      </trkpt>
      <trkpt lat="43.03851" lon="0.6471">
        <ele>486.2</ele>
        <time>2023-09-23T08:37:21Z</time>
      </trkpt>
      <trkpt lat="43.03851" lon="0.64707">
        <ele>486.2</ele>
        <time>2023-09-23T08:37:22Z</time>
      </trkpt>
      <trkpt lat="43.03852" lon="0.64706">
        <ele>486.2</ele>
        <time>2023-09-23T08:37:23Z</time>
      </trkpt>
      <trkpt lat="43.03851" lon="0.64703">
        <ele>487.4</ele>
        <time>2023-09-23T08:37:24Z</time>
      </trkpt>
      <trkpt lat="43.03851" lon="0.647">
        <ele>487.4</ele>
        <time>2023-09-23T08:37:25Z</time>
      </trkpt>
      <trkpt lat="43.03852" lon="0.64697">
        <ele>487.4</ele>
        <time>2023-09-23T08:37:26Z</time>
      </trkpt>
      <trkpt lat="43.03852" lon="0.64695">
        <ele>487.4</ele>
        <time>2023-09-23T08:37:27Z</time>
      </trkpt>
      <trkpt lat="43.03852" lon="0.64692">
        <ele>488.2</ele>
        <time>2023-09-23T08:37:28Z</time>
      </trkpt>
      <trkpt lat="43.03853" lon="0.64687">
        <ele>488.2</ele>
        <time>2023-09-23T08:37:29Z</time>
      </trkpt>
      <trkpt lat="43.03854" lon="0.64683">
        <ele>488.2</ele>
        <time>2023-09-23T08:37:30Z</time>
      </trkpt>
      <trkpt lat="43.03855" lon="0.64677">
        <ele>488.8</ele>
        <time>2023-09-23T08:37:31Z</time>
      </trkpt>
      <trkpt lat="43.03855" lon="0.64672">
        <ele>489.4</ele>
        <time>2023-09-23T08:37:32Z</time>
      </trkpt>
      <trkpt lat="43.03854" lon="0.64667">
        <ele>489.4</ele>
        <time>2023-09-23T08:37:33Z</time>
      </trkpt>
      <trkpt lat="43.03854" lon="0.64664">
        <ele>489.4</ele>
        <time>2023-09-23T08:37:34Z</time>
      </trkpt>
      <trkpt lat="43.03855" lon="0.64659">
        <ele>488.6</ele>
        <time>2023-09-23T08:37:35Z</time>
      </trkpt>
      <trkpt lat="43.03855" lon="0.64656">
        <ele>489</ele>
        <time>2023-09-23T08:37:36Z</time>
      </trkpt>
      <trkpt lat="43.03855" lon="0.64652">
        <ele>489</ele>
        <time>2023-09-23T08:37:37Z</time>
      </trkpt>
      <trkpt lat="43.03855" lon="0.64648">
        <ele>489</ele>
        <time>2023-09-23T08:37:38Z</time>
      </trkpt>
      <trkpt lat="43.03856" lon="0.64644">
        <ele>489.8</ele>
        <time>2023-09-23T08:37:39Z</time>
      </trkpt>
      <trkpt lat="43.03856" lon="0.6464">
        <ele>490.4</ele>
        <time>2023-09-23T08:37:40Z</time>
      </trkpt>
      <trkpt lat="43.03856" lon="0.64636">
        <ele>490.4</ele>
        <time>2023-09-23T08:37:41Z</time>
      </trkpt>
      <trkpt lat="43.03857" lon="0.64632">
        <ele>490.4</ele>
        <time>2023-09-23T08:37:42Z</time>
      </trkpt>
      <trkpt lat="43.03858" lon="0.64629">
        <ele>490.6</ele>
        <time>2023-09-23T08:37:43Z</time>
      </trkpt>
      <trkpt lat="43.03859" lon="0.64625">
        <ele>490.8</ele>
        <time>2023-09-23T08:37:44Z</time>
      </trkpt>
      <trkpt lat="43.03859" lon="0.64622">
        <ele>490.8</ele>
        <time>2023-09-23T08:37:45Z</time>
      </trkpt>
      <trkpt lat="43.0386" lon="0.64619">
        <ele>490.8</ele>
        <time>2023-09-23T08:37:46Z</time>
      </trkpt>
      <trkpt lat="43.03861" lon="0.64616">
        <ele>490.8</ele>
        <time>2023-09-23T08:37:47Z</time>
      </trkpt>
      <trkpt lat="43.03861" lon="0.64614">
        <ele>491</ele>
        <time>2023-09-23T08:37:48Z</time>
      </trkpt>
      <trkpt lat="43.03861" lon="0.6461">
        <ele>491</ele>
        <time>2023-09-23T08:37:49Z</time>
      </trkpt>
      <trkpt lat="43.03861" lon="0.64607">
        <ele>491</ele>
        <time>2023-09-23T08:37:50Z</time>
      </trkpt>
      <trkpt lat="43.03861" lon="0.64605">
        <ele>491.2</ele>
        <time>2023-09-23T08:37:51Z</time>
      </trkpt>
      <trkpt lat="43.03862" lon="0.64603">
        <ele>491.2</ele>
        <time>2023-09-23T08:37:52Z</time>
      </trkpt>
      <trkpt lat="43.03862" lon="0.64602">
        <ele>491.2</ele>
        <time>2023-09-23T08:37:53Z</time>
      </trkpt>
      <trkpt lat="43.03862" lon="0.64599">
        <ele>491.2</ele>
        <time>2023-09-23T08:37:54Z</time>
      </trkpt>
      <trkpt lat="43.03863" lon="0.64595">
        <ele>491.2</ele>
        <time>2023-09-23T08:37:55Z</time>
      </trkpt>
      <trkpt lat="43.03864" lon="0.64592">
        <ele>490.6</ele>
        <time>2023-09-23T08:37:56Z</time>
      </trkpt>
      <trkpt lat="43.03864" lon="0.6459">
        <ele>490.6</ele>
        <time>2023-09-23T08:37:57Z</time>
      </trkpt>
      <trkpt lat="43.03865" lon="0.6459">
        <ele>490.6</ele>
        <time>2023-09-23T08:37:58Z</time>
      </trkpt>
      <trkpt lat="43.03872" lon="0.6456">
        <ele>491</ele>
        <time>2023-09-23T08:38:24Z</time>
      </trkpt>
      <trkpt lat="43.03873" lon="0.64557">
        <ele>491</ele>
        <time>2023-09-23T08:38:25Z</time>
      </trkpt>
      <trkpt lat="43.03873" lon="0.64554">
        <ele>491</ele>
        <time>2023-09-23T08:38:26Z</time>
      </trkpt>
      <trkpt lat="43.03874" lon="0.64552">
        <ele>491</ele>
        <time>2023-09-23T08:38:27Z</time>
      </trkpt>
      <trkpt lat="43.03875" lon="0.64548">
        <ele>491.2</ele>
        <time>2023-09-23T08:38:28Z</time>
      </trkpt>
      <trkpt lat="43.03875" lon="0.64545">
        <ele>491.2</ele>
        <time>2023-09-23T08:38:29Z</time>
      </trkpt>
      <trkpt lat="43.03876" lon="0.64541">
        <ele>491.2</ele>
        <time>2023-09-23T08:38:30Z</time>
      </trkpt>
      <trkpt lat="43.03877" lon="0.64536">
        <ele>491.2</ele>
        <time>2023-09-23T08:38:31Z</time>
      </trkpt>
      <trkpt lat="43.03878" lon="0.64533">
        <ele>491</ele>
        <time>2023-09-23T08:38:32Z</time>
      </trkpt>
      <trkpt lat="43.03879" lon="0.64529">
        <ele>491</ele>
        <time>2023-09-23T08:38:33Z</time>
      </trkpt>
      <trkpt lat="43.0388" lon="0.64525">
        <ele>491</ele>
        <time>2023-09-23T08:38:34Z</time>
      </trkpt>
      <trkpt lat="43.0388" lon="0.64522">
        <ele>491</ele>
        <time>2023-09-23T08:38:35Z</time>
      </trkpt>
      <trkpt lat="43.03881" lon="0.64518">
        <ele>491.2</ele>
        <time>2023-09-23T08:38:36Z</time>
      </trkpt>
      <trkpt lat="43.03882" lon="0.64515">
        <ele>491.2</ele>
        <time>2023-09-23T08:38:37Z</time>
      </trkpt>
      <trkpt lat="43.03883" lon="0.6451">
        <ele>491.2</ele>
        <time>2023-09-23T08:38:38Z</time>
      </trkpt>
      <trkpt lat="43.03883" lon="0.64507">
        <ele>491.2</ele>
        <time>2023-09-23T08:38:39Z</time>
      </trkpt>
      <trkpt lat="43.03883" lon="0.64504">
        <ele>491.4</ele>
        <time>2023-09-23T08:38:40Z</time>
      </trkpt>
      <trkpt lat="43.03884" lon="0.64502">
        <ele>491.4</ele>
        <time>2023-09-23T08:38:41Z</time>
      </trkpt>
      <trkpt lat="43.03885" lon="0.64499">
        <ele>491.4</ele>
        <time>2023-09-23T08:38:42Z</time>
      </trkpt>
      <trkpt lat="43.03886" lon="0.64496">
        <ele>490.4</ele>
        <time>2023-09-23T08:38:43Z</time>
      </trkpt>
      <trkpt lat="43.03886" lon="0.64493">
        <ele>490</ele>
        <time>2023-09-23T08:38:44Z</time>
      </trkpt>
      <trkpt lat="43.03887" lon="0.64489">
        <ele>490</ele>
        <time>2023-09-23T08:38:45Z</time>
      </trkpt>
      <trkpt lat="43.03887" lon="0.64485">
        <ele>490</ele>
        <time>2023-09-23T08:38:46Z</time>
      </trkpt>
      <trkpt lat="43.03887" lon="0.64481">
        <ele>490</ele>
        <time>2023-09-23T08:38:47Z</time>
      </trkpt>
      <trkpt lat="43.03886" lon="0.64478">
        <ele>489.8</ele>
        <time>2023-09-23T08:38:48Z</time>
      </trkpt>
      <trkpt lat="43.03886" lon="0.64475">
        <ele>489.8</ele>
        <time>2023-09-23T08:38:49Z</time>
      </trkpt>
      <trkpt lat="43.03884" lon="0.64472">
        <ele>489.8</ele>
        <time>2023-09-23T08:38:50Z</time>
      </trkpt>
      <trkpt lat="43.03884" lon="0.64469">
        <ele>490.8</ele>
        <time>2023-09-23T08:38:51Z</time>
      </trkpt>
      <trkpt lat="43.03882" lon="0.64465">
        <ele>490.6</ele>
        <time>2023-09-23T08:38:52Z</time>
      </trkpt>
      <trkpt lat="43.03881" lon="0.64462">
        <ele>490.6</ele>
        <time>2023-09-23T08:38:53Z</time>
      </trkpt>
      <trkpt lat="43.03881" lon="0.64458">
        <ele>490.6</ele>
        <time>2023-09-23T08:38:54Z</time>
      </trkpt>
      <trkpt lat="43.0388" lon="0.64454">
        <ele>491.4</ele>
        <time>2023-09-23T08:38:55Z</time>
      </trkpt>
      <trkpt lat="43.0388" lon="0.6445">
        <ele>491.4</ele>
        <time>2023-09-23T08:38:56Z</time>
      </trkpt>
      <trkpt lat="43.0388" lon="0.64447">
        <ele>491.4</ele>
        <time>2023-09-23T08:38:57Z</time>
      </trkpt>
      <trkpt lat="43.03879" lon="0.64442">
        <ele>491.4</ele>
        <time>2023-09-23T08:38:58Z</time>
      </trkpt>
      <trkpt lat="43.03878" lon="0.64439">
        <ele>491.8</ele>
        <time>2023-09-23T08:38:59Z</time>
      </trkpt>
      <trkpt lat="43.03877" lon="0.64435">
        <ele>490.6</ele>
        <time>2023-09-23T08:39:00Z</time>
      </trkpt>
      <trkpt lat="43.03877" lon="0.64432">
        <ele>490.6</ele>
        <time>2023-09-23T08:39:01Z</time>
      </trkpt>
      <trkpt lat="43.03876" lon="0.64428">
        <ele>490.6</ele>
        <time>2023-09-23T08:39:02Z</time>
      </trkpt>
      <trkpt lat="43.03876" lon="0.64423">
        <ele>491</ele>
        <time>2023-09-23T08:39:03Z</time>
      </trkpt>
      <trkpt lat="43.03875" lon="0.6442">
        <ele>491</ele>
        <time>2023-09-23T08:39:04Z</time>
      </trkpt>
      <trkpt lat="43.03874" lon="0.64416">
        <ele>491</ele>
        <time>2023-09-23T08:39:05Z</time>
      </trkpt>
      <trkpt lat="43.03873" lon="0.64412">
        <ele>491</ele>
        <time>2023-09-23T08:39:06Z</time>
      </trkpt>
      <trkpt lat="43.03873" lon="0.64406">
        <ele>491</ele>
        <time>2023-09-23T08:39:07Z</time>
      </trkpt>
      <trkpt lat="43.03872" lon="0.64403">
        <ele>490.6</ele>
        <time>2023-09-23T08:39:08Z</time>
      </trkpt>
      <trkpt lat="43.03872" lon="0.64399">
        <ele>490.6</ele>
        <time>2023-09-23T08:39:09Z</time>
      </trkpt>
      <trkpt lat="43.03871" lon="0.64396">
        <ele>490.6</ele>
        <time>2023-09-23T08:39:10Z</time>
      </trkpt>
      <trkpt lat="43.03872" lon="0.64393">
        <ele>491</ele>
        <time>2023-09-23T08:39:11Z</time>
      </trkpt>
      <trkpt lat="43.03871" lon="0.64391">
        <ele>491.2</ele>
        <time>2023-09-23T08:39:12Z</time>
      </trkpt>
      <trkpt lat="43.0387" lon="0.64388">
        <ele>491.2</ele>
        <time>2023-09-23T08:39:13Z</time>
      </trkpt>
      <trkpt lat="43.03869" lon="0.64385">
        <ele>491.2</ele>
        <time>2023-09-23T08:39:14Z</time>
      </trkpt>
      <trkpt lat="43.03868" lon="0.64384">
        <ele>492.2</ele>
        <time>2023-09-23T08:39:15Z</time>
      </trkpt>
      <trkpt lat="43.03868" lon="0.64381">
        <ele>491.8</ele>
        <time>2023-09-23T08:39:16Z</time>
      </trkpt>
      <trkpt lat="43.03867" lon="0.64379">
        <ele>491.8</ele>
        <time>2023-09-23T08:39:17Z</time>
      </trkpt>
      <trkpt lat="43.03868" lon="0.64377">
        <ele>491.8</ele>
        <time>2023-09-23T08:39:18Z</time>
      </trkpt>
      <trkpt lat="43.03868" lon="0.64375">
        <ele>492</ele>
        <time>2023-09-23T08:39:19Z</time>
      </trkpt>
      <trkpt lat="43.03867" lon="0.64371">
        <ele>491.2</ele>
        <time>2023-09-23T08:39:20Z</time>
      </trkpt>
      <trkpt lat="43.03867" lon="0.64368">
        <ele>491.2</ele>
        <time>2023-09-23T08:39:21Z</time>
      </trkpt>
      <trkpt lat="43.03867" lon="0.64366">
        <ele>491.2</ele>
        <time>2023-09-23T08:39:22Z</time>
      </trkpt>
      <trkpt lat="43.03867" lon="0.64364">
        <ele>491.8</ele>
        <time>2023-09-23T08:39:23Z</time>
      </trkpt>
      <trkpt lat="43.03867" lon="0.64362">
        <ele>491.8</ele>
        <time>2023-09-23T08:39:24Z</time>
      </trkpt>
      <trkpt lat="43.03867" lon="0.64362">
        <ele>491.8</ele>
        <time>2023-09-23T08:39:25Z</time>
      </trkpt>
      <trkpt lat="43.03868" lon="0.64344">
        <ele>492.2</ele>
        <time>2023-09-23T08:39:37Z</time>
      </trkpt>
      <trkpt lat="43.03867" lon="0.64341">
        <ele>492.2</ele>
        <time>2023-09-23T08:39:38Z</time>
      </trkpt>
      <trkpt lat="43.03867" lon="0.64339">
        <ele>492.2</ele>
        <time>2023-09-23T08:39:39Z</time>
      </trkpt>
      <trkpt lat="43.03867" lon="0.64335">
        <ele>491.2</ele>
        <time>2023-09-23T08:39:40Z</time>
      </trkpt>
      <trkpt lat="43.03867" lon="0.6433">
        <ele>491.2</ele>
        <time>2023-09-23T08:39:41Z</time>
      </trkpt>
      <trkpt lat="43.03867" lon="0.64325">
        <ele>491.2</ele>
        <time>2023-09-23T08:39:42Z</time>
      </trkpt>
      <trkpt lat="43.03867" lon="0.64322">
        <ele>492.2</ele>
        <time>2023-09-23T08:39:43Z</time>
      </trkpt>
      <trkpt lat="43.03868" lon="0.64319">
        <ele>492</ele>
        <time>2023-09-23T08:39:44Z</time>
      </trkpt>
      <trkpt lat="43.03868" lon="0.64315">
        <ele>492</ele>
        <time>2023-09-23T08:39:45Z</time>
      </trkpt>
      <trkpt lat="43.03868" lon="0.64313">
        <ele>492</ele>
        <time>2023-09-23T08:39:46Z</time>
      </trkpt>
      <trkpt lat="43.03867" lon="0.64309">
        <ele>492</ele>
        <time>2023-09-23T08:39:47Z</time>
      </trkpt>
      <trkpt lat="43.03867" lon="0.64305">
        <ele>493.4</ele>
        <time>2023-09-23T08:39:48Z</time>
      </trkpt>
      <trkpt lat="43.03867" lon="0.643">
        <ele>493.4</ele>
        <time>2023-09-23T08:39:49Z</time>
      </trkpt>
      <trkpt lat="43.03866" lon="0.64296">
        <ele>493.4</ele>
        <time>2023-09-23T08:39:50Z</time>
      </trkpt>
      <trkpt lat="43.03866" lon="0.64291">
        <ele>493.8</ele>
        <time>2023-09-23T08:39:51Z</time>
      </trkpt>
      <trkpt lat="43.03866" lon="0.64287">
        <ele>494.6</ele>
        <time>2023-09-23T08:39:52Z</time>
      </trkpt>
      <trkpt lat="43.03866" lon="0.64283">
        <ele>494.6</ele>
        <time>2023-09-23T08:39:53Z</time>
      </trkpt>
      <trkpt lat="43.03866" lon="0.64279">
        <ele>494.6</ele>
        <time>2023-09-23T08:39:54Z</time>
      </trkpt>
      <trkpt lat="43.03866" lon="0.64275">
        <ele>494.6</ele>
        <time>2023-09-23T08:39:55Z</time>
      </trkpt>
      <trkpt lat="43.03867" lon="0.64271">
        <ele>494.4</ele>
        <time>2023-09-23T08:39:56Z</time>
      </trkpt>
      <trkpt lat="43.03868" lon="0.64268">
        <ele>494.4</ele>
        <time>2023-09-23T08:39:57Z</time>
      </trkpt>
      <trkpt lat="43.03869" lon="0.64265">
        <ele>494.4</ele>
        <time>2023-09-23T08:39:58Z</time>
      </trkpt>
      <trkpt lat="43.0387" lon="0.6426">
        <ele>494</ele>
        <time>2023-09-23T08:39:59Z</time>
      </trkpt>
      <trkpt lat="43.03871" lon="0.64255">
        <ele>494.4</ele>
        <time>2023-09-23T08:40:00Z</time>
      </trkpt>
      <trkpt lat="43.03873" lon="0.64251">
        <ele>494.4</ele>
        <time>2023-09-23T08:40:01Z</time>
      </trkpt>
      <trkpt lat="43.03874" lon="0.64247">
        <ele>494.4</ele>
        <time>2023-09-23T08:40:02Z</time>
      </trkpt>
      <trkpt lat="43.03876" lon="0.64242">
        <ele>494.6</ele>
        <time>2023-09-23T08:40:03Z</time>
      </trkpt>
      <trkpt lat="43.03878" lon="0.64239">
        <ele>494.4</ele>
        <time>2023-09-23T08:40:04Z</time>
      </trkpt>
      <trkpt lat="43.0388" lon="0.64236">
        <ele>494.4</ele>
        <time>2023-09-23T08:40:05Z</time>
      </trkpt>
      <trkpt lat="43.03881" lon="0.64234">
        <ele>494.4</ele>
        <time>2023-09-23T08:40:06Z</time>
      </trkpt>
      <trkpt lat="43.03883" lon="0.64228">
        <ele>494.8</ele>
        <time>2023-09-23T08:40:07Z</time>
      </trkpt>
      <trkpt lat="43.03885" lon="0.64224">
        <ele>494.2</ele>
        <time>2023-09-23T08:40:08Z</time>
      </trkpt>
      <trkpt lat="43.03887" lon="0.6422">
        <ele>494.2</ele>
        <time>2023-09-23T08:40:09Z</time>
      </trkpt>
      <trkpt lat="43.03891" lon="0.64216">
        <ele>494.2</ele>
        <time>2023-09-23T08:40:10Z</time>
      </trkpt>
      <trkpt lat="43.03893" lon="0.64213">
        <ele>493.8</ele>
        <time>2023-09-23T08:40:11Z</time>
      </trkpt>
      <trkpt lat="43.03895" lon="0.64209">
        <ele>493.8</ele>
        <time>2023-09-23T08:40:12Z</time>
      </trkpt>
      <trkpt lat="43.03897" lon="0.64205">
        <ele>493.8</ele>
        <time>2023-09-23T08:40:13Z</time>
      </trkpt>
      <trkpt lat="43.03898" lon="0.64201">
        <ele>493.8</ele>
        <time>2023-09-23T08:40:14Z</time>
      </trkpt>
      <trkpt lat="43.03899" lon="0.64197">
        <ele>493.8</ele>
        <time>2023-09-23T08:40:15Z</time>
      </trkpt>
      <trkpt lat="43.039" lon="0.64191">
        <ele>495</ele>
        <time>2023-09-23T08:40:16Z</time>
      </trkpt>
      <trkpt lat="43.03901" lon="0.64187">
        <ele>495</ele>
        <time>2023-09-23T08:40:17Z</time>
      </trkpt>
      <trkpt lat="43.03902" lon="0.64183">
        <ele>495</ele>
        <time>2023-09-23T08:40:18Z</time>
      </trkpt>
      <trkpt lat="43.03903" lon="0.64177">
        <ele>495</ele>
        <time>2023-09-23T08:40:19Z</time>
      </trkpt>
      <trkpt lat="43.03905" lon="0.64174">
        <ele>494.6</ele>
        <time>2023-09-23T08:40:20Z</time>
      </trkpt>
      <trkpt lat="43.03908" lon="0.64172">
        <ele>494.6</ele>
        <time>2023-09-23T08:40:21Z</time>
      </trkpt>
      <trkpt lat="43.03912" lon="0.64169">
        <ele>494.6</ele>
        <time>2023-09-23T08:40:22Z</time>
      </trkpt>
      <trkpt lat="43.03916" lon="0.64164">
        <ele>494.6</ele>
        <time>2023-09-23T08:40:23Z</time>
      </trkpt>
      <trkpt lat="43.03921" lon="0.64159">
        <ele>492.2</ele>
        <time>2023-09-23T08:40:24Z</time>
      </trkpt>
      <trkpt lat="43.03924" lon="0.64154">
        <ele>492.2</ele>
        <time>2023-09-23T08:40:25Z</time>
      </trkpt>
      <trkpt lat="43.03928" lon="0.64149">
        <ele>492.2</ele>
        <time>2023-09-23T08:40:26Z</time>
      </trkpt>
      <trkpt lat="43.0393" lon="0.64146">
        <ele>491.8</ele>
        <time>2023-09-23T08:40:27Z</time>
      </trkpt>
      <trkpt lat="43.03931" lon="0.64143">
        <ele>491.2</ele>
        <time>2023-09-23T08:40:28Z</time>
      </trkpt>
      <trkpt lat="43.03933" lon="0.64142">
        <ele>491.2</ele>
        <time>2023-09-23T08:40:29Z</time>
      </trkpt>
      <trkpt lat="43.03935" lon="0.64139">
        <ele>491.2</ele>
        <time>2023-09-23T08:40:30Z</time>
      </trkpt>
      <trkpt lat="43.03937" lon="0.64137">
        <ele>490.6</ele>
        <time>2023-09-23T08:40:31Z</time>
      </trkpt>
      <trkpt lat="43.03937" lon="0.64134">
        <ele>488.2</ele>
        <time>2023-09-23T08:40:32Z</time>
      </trkpt>
      <trkpt lat="43.03939" lon="0.64133">
        <ele>488.2</ele>
        <time>2023-09-23T08:40:33Z</time>
      </trkpt>
      <trkpt lat="43.03941" lon="0.64132">
        <ele>488.2</ele>
        <time>2023-09-23T08:40:34Z</time>
      </trkpt>
      <trkpt lat="43.03943" lon="0.64131">
        <ele>488.2</ele>
        <time>2023-09-23T08:40:35Z</time>
      </trkpt>
      <trkpt lat="43.03944" lon="0.6413">
        <ele>488.6</ele>
        <time>2023-09-23T08:40:36Z</time>
      </trkpt>
      <trkpt lat="43.03945" lon="0.64127">
        <ele>488.6</ele>
        <time>2023-09-23T08:40:37Z</time>
      </trkpt>
      <trkpt lat="43.03947" lon="0.64124">
        <ele>488.6</ele>
        <time>2023-09-23T08:40:38Z</time>
      </trkpt>
      <trkpt lat="43.0395" lon="0.64122">
        <ele>487.6</ele>
        <time>2023-09-23T08:40:39Z</time>
      </trkpt>
      <trkpt lat="43.03952" lon="0.64119">
        <ele>484</ele>
        <time>2023-09-23T08:40:40Z</time>
      </trkpt>
      <trkpt lat="43.03954" lon="0.64117">
        <ele>484</ele>
        <time>2023-09-23T08:40:41Z</time>
      </trkpt>
      <trkpt lat="43.03957" lon="0.64114">
        <ele>484</ele>
        <time>2023-09-23T08:40:42Z</time>
      </trkpt>
      <trkpt lat="43.03959" lon="0.64111">
        <ele>483</ele>
        <time>2023-09-23T08:40:43Z</time>
      </trkpt>
      <trkpt lat="43.03962" lon="0.64106">
        <ele>482</ele>
        <time>2023-09-23T08:40:44Z</time>
      </trkpt>
      <trkpt lat="43.03964" lon="0.64101">
        <ele>482</ele>
        <time>2023-09-23T08:40:45Z</time>
      </trkpt>
      <trkpt lat="43.03968" lon="0.64095">
        <ele>482</ele>
        <time>2023-09-23T08:40:46Z</time>
      </trkpt>
      <trkpt lat="43.03971" lon="0.64088">
        <ele>482</ele>
        <time>2023-09-23T08:40:47Z</time>
      </trkpt>
      <trkpt lat="43.03973" lon="0.64082">
        <ele>482.2</ele>
        <time>2023-09-23T08:40:48Z</time>
      </trkpt>
      <trkpt lat="43.03975" lon="0.64075">
        <ele>482.2</ele>
        <time>2023-09-23T08:40:49Z</time>
      </trkpt>
      <trkpt lat="43.03977" lon="0.64069">
        <ele>482.2</ele>
        <time>2023-09-23T08:40:50Z</time>
      </trkpt>
      <trkpt lat="43.03979" lon="0.64063">
        <ele>482.2</ele>
        <time>2023-09-23T08:40:51Z</time>
      </trkpt>
      <trkpt lat="43.0398" lon="0.64056">
        <ele>482.8</ele>
        <time>2023-09-23T08:40:52Z</time>
      </trkpt>
      <trkpt lat="43.03981" lon="0.6405">
        <ele>482.8</ele>
        <time>2023-09-23T08:40:53Z</time>
      </trkpt>
      <trkpt lat="43.03982" lon="0.64043">
        <ele>482.8</ele>
        <time>2023-09-23T08:40:54Z</time>
      </trkpt>
      <trkpt lat="43.03984" lon="0.64037">
        <ele>482.8</ele>
        <time>2023-09-23T08:40:55Z</time>
      </trkpt>
      <trkpt lat="43.03985" lon="0.6403">
        <ele>481.8</ele>
        <time>2023-09-23T08:40:56Z</time>
      </trkpt>
      <trkpt lat="43.03986" lon="0.64023">
        <ele>481.8</ele>
        <time>2023-09-23T08:40:57Z</time>
      </trkpt>
      <trkpt lat="43.03988" lon="0.64016">
        <ele>481.8</ele>
        <time>2023-09-23T08:40:58Z</time>
      </trkpt>
      <trkpt lat="43.03989" lon="0.64009">
        <ele>482.8</ele>
        <time>2023-09-23T08:40:59Z</time>
      </trkpt>
      <trkpt lat="43.0399" lon="0.64002">
        <ele>482.8</ele>
        <time>2023-09-23T08:41:00Z</time>
      </trkpt>
      <trkpt lat="43.03991" lon="0.63995">
        <ele>482.8</ele>
        <time>2023-09-23T08:41:01Z</time>
      </trkpt>
      <trkpt lat="43.03992" lon="0.63988">
        <ele>482.8</ele>
        <time>2023-09-23T08:41:02Z</time>
      </trkpt>
      <trkpt lat="43.03993" lon="0.6398">
        <ele>483.4</ele>
        <time>2023-09-23T08:41:03Z</time>
      </trkpt>
      <trkpt lat="43.03994" lon="0.63973">
        <ele>483</ele>
        <time>2023-09-23T08:41:04Z</time>
      </trkpt>
      <trkpt lat="43.03995" lon="0.63966">
        <ele>483</ele>
        <time>2023-09-23T08:41:05Z</time>
      </trkpt>
      <trkpt lat="43.03996" lon="0.63959">
        <ele>483</ele>
        <time>2023-09-23T08:41:06Z</time>
      </trkpt>
      <trkpt lat="43.03997" lon="0.63952">
        <ele>484</ele>
        <time>2023-09-23T08:41:07Z</time>
      </trkpt>
      <trkpt lat="43.03998" lon="0.63945">
        <ele>483.8</ele>
        <time>2023-09-23T08:41:08Z</time>
      </trkpt>
      <trkpt lat="43.03999" lon="0.63938">
        <ele>483.8</ele>
        <time>2023-09-23T08:41:09Z</time>
      </trkpt>
      <trkpt lat="43.04" lon="0.63931">
        <ele>483.8</ele>
        <time>2023-09-23T08:41:10Z</time>
      </trkpt>
      <trkpt lat="43.04" lon="0.63924">
        <ele>483.2</ele>
        <time>2023-09-23T08:41:11Z</time>
      </trkpt>
      <trkpt lat="43.04" lon="0.63917">
        <ele>483.6</ele>
        <time>2023-09-23T08:41:12Z</time>
      </trkpt>
      <trkpt lat="43.04" lon="0.63911">
        <ele>483.6</ele>
        <time>2023-09-23T08:41:13Z</time>
      </trkpt>
      <trkpt lat="43.04" lon="0.63904">
        <ele>483.6</ele>
        <time>2023-09-23T08:41:14Z</time>
      </trkpt>
      <trkpt lat="43.04" lon="0.63897">
        <ele>484.6</ele>
        <time>2023-09-23T08:41:15Z</time>
      </trkpt>
      <trkpt lat="43.04" lon="0.6389">
        <ele>484</ele>
        <time>2023-09-23T08:41:16Z</time>
      </trkpt>
      <trkpt lat="43.04" lon="0.63884">
        <ele>484</ele>
        <time>2023-09-23T08:41:17Z</time>
      </trkpt>
      <trkpt lat="43.04" lon="0.63877">
        <ele>484</ele>
        <time>2023-09-23T08:41:18Z</time>
      </trkpt>
      <trkpt lat="43.03999" lon="0.63871">
        <ele>484</ele>
        <time>2023-09-23T08:41:19Z</time>
      </trkpt>
      <trkpt lat="43.03999" lon="0.63865">
        <ele>484.6</ele>
        <time>2023-09-23T08:41:20Z</time>
      </trkpt>
      <trkpt lat="43.03998" lon="0.6386">
        <ele>484.6</ele>
        <time>2023-09-23T08:41:21Z</time>
      </trkpt>
      <trkpt lat="43.03997" lon="0.63855">
        <ele>484.6</ele>
        <time>2023-09-23T08:41:22Z</time>
      </trkpt>
      <trkpt lat="43.03997" lon="0.63849">
        <ele>485.6</ele>
        <time>2023-09-23T08:41:23Z</time>
      </trkpt>
      <trkpt lat="43.03996" lon="0.63844">
        <ele>485.2</ele>
        <time>2023-09-23T08:41:24Z</time>
      </trkpt>
      <trkpt lat="43.03995" lon="0.63839">
        <ele>485.2</ele>
        <time>2023-09-23T08:41:25Z</time>
      </trkpt>
      <trkpt lat="43.03994" lon="0.63834">
        <ele>485.2</ele>
        <time>2023-09-23T08:41:26Z</time>
      </trkpt>
      <trkpt lat="43.03993" lon="0.63828">
        <ele>486.2</ele>
        <time>2023-09-23T08:41:27Z</time>
      </trkpt>
      <trkpt lat="43.03992" lon="0.63823">
        <ele>486.6</ele>
        <time>2023-09-23T08:41:28Z</time>
      </trkpt>
      <trkpt lat="43.0399" lon="0.63818">
        <ele>486.6</ele>
        <time>2023-09-23T08:41:29Z</time>
      </trkpt>
      <trkpt lat="43.03989" lon="0.63812">
        <ele>486.6</ele>
        <time>2023-09-23T08:41:30Z</time>
      </trkpt>
      <trkpt lat="43.03987" lon="0.63807">
        <ele>486.6</ele>
        <time>2023-09-23T08:41:31Z</time>
      </trkpt>
      <trkpt lat="43.03986" lon="0.63801">
        <ele>486.8</ele>
        <time>2023-09-23T08:41:32Z</time>
      </trkpt>
      <trkpt lat="43.03985" lon="0.63795">
        <ele>486.8</ele>
        <time>2023-09-23T08:41:33Z</time>
      </trkpt>
      <trkpt lat="43.03983" lon="0.6379">
        <ele>486.8</ele>
        <time>2023-09-23T08:41:34Z</time>
      </trkpt>
      <trkpt lat="43.03981" lon="0.63785">
        <ele>487.6</ele>
        <time>2023-09-23T08:41:35Z</time>
      </trkpt>
      <trkpt lat="43.0398" lon="0.6378">
        <ele>488.4</ele>
        <time>2023-09-23T08:41:36Z</time>
      </trkpt>
      <trkpt lat="43.03978" lon="0.63774">
        <ele>488.4</ele>
        <time>2023-09-23T08:41:37Z</time>
      </trkpt>
      <trkpt lat="43.03976" lon="0.63769">
        <ele>488.4</ele>
        <time>2023-09-23T08:41:38Z</time>
      </trkpt>
      <trkpt lat="43.03974" lon="0.63763">
        <ele>488.4</ele>
        <time>2023-09-23T08:41:39Z</time>
      </trkpt>
      <trkpt lat="43.03973" lon="0.63758">
        <ele>488.4</ele>
        <time>2023-09-23T08:41:40Z</time>
      </trkpt>
      <trkpt lat="43.03971" lon="0.63753">
        <ele>488.4</ele>
        <time>2023-09-23T08:41:41Z</time>
      </trkpt>
      <trkpt lat="43.03969" lon="0.63747">
        <ele>488.4</ele>
        <time>2023-09-23T08:41:42Z</time>
      </trkpt>
      <trkpt lat="43.03968" lon="0.63742">
        <ele>489.2</ele>
        <time>2023-09-23T08:41:43Z</time>
      </trkpt>
      <trkpt lat="43.03966" lon="0.63737">
        <ele>489.2</ele>
        <time>2023-09-23T08:41:44Z</time>
      </trkpt>
      <trkpt lat="43.03964" lon="0.63731">
        <ele>489.2</ele>
        <time>2023-09-23T08:41:45Z</time>
      </trkpt>
      <trkpt lat="43.03963" lon="0.63726">
        <ele>489.2</ele>
        <time>2023-09-23T08:41:46Z</time>
      </trkpt>
      <trkpt lat="43.0396" lon="0.6372">
        <ele>489.2</ele>
        <time>2023-09-23T08:41:47Z</time>
      </trkpt>
      <trkpt lat="43.03959" lon="0.63715">
        <ele>489.4</ele>
        <time>2023-09-23T08:41:48Z</time>
      </trkpt>
      <trkpt lat="43.03957" lon="0.63709">
        <ele>489.4</ele>
        <time>2023-09-23T08:41:49Z</time>
      </trkpt>
      <trkpt lat="43.03955" lon="0.63703">
        <ele>489.4</ele>
        <time>2023-09-23T08:41:50Z</time>
      </trkpt>
      <trkpt lat="43.03954" lon="0.63697">
        <ele>489.4</ele>
        <time>2023-09-23T08:41:51Z</time>
      </trkpt>
      <trkpt lat="43.03952" lon="0.63691">
        <ele>489.4</ele>
        <time>2023-09-23T08:41:52Z</time>
      </trkpt>
      <trkpt lat="43.0395" lon="0.63686">
        <ele>489.4</ele>
        <time>2023-09-23T08:41:53Z</time>
      </trkpt>
      <trkpt lat="43.03948" lon="0.6368">
        <ele>489.4</ele>
        <time>2023-09-23T08:41:54Z</time>
      </trkpt>
      <trkpt lat="43.03946" lon="0.63673">
        <ele>489.4</ele>
        <time>2023-09-23T08:41:55Z</time>
      </trkpt>
      <trkpt lat="43.03944" lon="0.63667">
        <ele>489.8</ele>
        <time>2023-09-23T08:41:56Z</time>
      </trkpt>
      <trkpt lat="43.03942" lon="0.63662">
        <ele>489.8</ele>
        <time>2023-09-23T08:41:57Z</time>
      </trkpt>
      <trkpt lat="43.0394" lon="0.63655">
        <ele>489.8</ele>
        <time>2023-09-23T08:41:58Z</time>
      </trkpt>
      <trkpt lat="43.03938" lon="0.63649">
        <ele>489.4</ele>
        <time>2023-09-23T08:41:59Z</time>
      </trkpt>
      <trkpt lat="43.03935" lon="0.63643">
        <ele>489.8</ele>
        <time>2023-09-23T08:42:00Z</time>
      </trkpt>
      <trkpt lat="43.03933" lon="0.63636">
        <ele>489.8</ele>
        <time>2023-09-23T08:42:01Z</time>
      </trkpt>
      <trkpt lat="43.0393" lon="0.6363">
        <ele>489.8</ele>
        <time>2023-09-23T08:42:02Z</time>
      </trkpt>
      <trkpt lat="43.03927" lon="0.63624">
        <ele>489.8</ele>
        <time>2023-09-23T08:42:03Z</time>
      </trkpt>
      <trkpt lat="43.03924" lon="0.63618">
        <ele>489.6</ele>
        <time>2023-09-23T08:42:04Z</time>
      </trkpt>
      <trkpt lat="43.03921" lon="0.63613">
        <ele>489.6</ele>
        <time>2023-09-23T08:42:05Z</time>
      </trkpt>
      <trkpt lat="43.03918" lon="0.63608">
        <ele>489.6</ele>
        <time>2023-09-23T08:42:06Z</time>
      </trkpt>
      <trkpt lat="43.03914" lon="0.63603">
        <ele>489</ele>
        <time>2023-09-23T08:42:07Z</time>
      </trkpt>
      <trkpt lat="43.0391" lon="0.63599">
        <ele>488.6</ele>
        <time>2023-09-23T08:42:08Z</time>
      </trkpt>
      <trkpt lat="43.03906" lon="0.63594">
        <ele>488.6</ele>
        <time>2023-09-23T08:42:09Z</time>
      </trkpt>
      <trkpt lat="43.03902" lon="0.63589">
        <ele>488.6</ele>
        <time>2023-09-23T08:42:10Z</time>
      </trkpt>
      <trkpt lat="43.03898" lon="0.63584">
        <ele>488.2</ele>
        <time>2023-09-23T08:42:11Z</time>
      </trkpt>
      <trkpt lat="43.03895" lon="0.63581">
        <ele>488.8</ele>
        <time>2023-09-23T08:42:12Z</time>
      </trkpt>
      <trkpt lat="43.03892" lon="0.63577">
        <ele>488.8</ele>
        <time>2023-09-23T08:42:13Z</time>
      </trkpt>
      <trkpt lat="43.03889" lon="0.63574">
        <ele>488.8</ele>
        <time>2023-09-23T08:42:14Z</time>
      </trkpt>
      <trkpt lat="43.03885" lon="0.63571">
        <ele>488.8</ele>
        <time>2023-09-23T08:42:15Z</time>
      </trkpt>
      <trkpt lat="43.03881" lon="0.63567">
        <ele>488.6</ele>
        <time>2023-09-23T08:42:16Z</time>
      </trkpt>
      <trkpt lat="43.03877" lon="0.63564">
        <ele>488.6</ele>
        <time>2023-09-23T08:42:17Z</time>
      </trkpt>
      <trkpt lat="43.03872" lon="0.63561">
        <ele>488.6</ele>
        <time>2023-09-23T08:42:18Z</time>
      </trkpt>
      <trkpt lat="43.03868" lon="0.63558">
        <ele>488.6</ele>
        <time>2023-09-23T08:42:19Z</time>
      </trkpt>
      <trkpt lat="43.03863" lon="0.63555">
        <ele>488</ele>
        <time>2023-09-23T08:42:20Z</time>
      </trkpt>
      <trkpt lat="43.03858" lon="0.63551">
        <ele>488</ele>
        <time>2023-09-23T08:42:21Z</time>
      </trkpt>
      <trkpt lat="43.03854" lon="0.63548">
        <ele>488</ele>
        <time>2023-09-23T08:42:22Z</time>
      </trkpt>
      <trkpt lat="43.03849" lon="0.63545">
        <ele>489</ele>
        <time>2023-09-23T08:42:23Z</time>
      </trkpt>
      <trkpt lat="43.03845" lon="0.63541">
        <ele>488.8</ele>
        <time>2023-09-23T08:42:24Z</time>
      </trkpt>
      <trkpt lat="43.0384" lon="0.63538">
        <ele>488.8</ele>
        <time>2023-09-23T08:42:25Z</time>
      </trkpt>
      <trkpt lat="43.03836" lon="0.63535">
        <ele>488.8</ele>
        <time>2023-09-23T08:42:26Z</time>
      </trkpt>
      <trkpt lat="43.03832" lon="0.63532">
        <ele>488.8</ele>
        <time>2023-09-23T08:42:27Z</time>
      </trkpt>
      <trkpt lat="43.03827" lon="0.63528">
        <ele>489.4</ele>
        <time>2023-09-23T08:42:28Z</time>
      </trkpt>
      <trkpt lat="43.03823" lon="0.63525">
        <ele>489.4</ele>
        <time>2023-09-23T08:42:29Z</time>
      </trkpt>
      <trkpt lat="43.03818" lon="0.6352">
        <ele>489.4</ele>
        <time>2023-09-23T08:42:30Z</time>
      </trkpt>
      <trkpt lat="43.03814" lon="0.63516">
        <ele>489.4</ele>
        <time>2023-09-23T08:42:31Z</time>
      </trkpt>
      <trkpt lat="43.0381" lon="0.63511">
        <ele>489</ele>
        <time>2023-09-23T08:42:32Z</time>
      </trkpt>
      <trkpt lat="43.03806" lon="0.63506">
        <ele>489</ele>
        <time>2023-09-23T08:42:33Z</time>
      </trkpt>
      <trkpt lat="43.03803" lon="0.63502">
        <ele>489</ele>
        <time>2023-09-23T08:42:34Z</time>
      </trkpt>
      <trkpt lat="43.03799" lon="0.63496">
        <ele>489</ele>
        <time>2023-09-23T08:42:35Z</time>
      </trkpt>
      <trkpt lat="43.03796" lon="0.63491">
        <ele>490.4</ele>
        <time>2023-09-23T08:42:36Z</time>
      </trkpt>
      <trkpt lat="43.03793" lon="0.63485">
        <ele>490.4</ele>
        <time>2023-09-23T08:42:37Z</time>
      </trkpt>
      <trkpt lat="43.0379" lon="0.6348">
        <ele>490.4</ele>
        <time>2023-09-23T08:42:38Z</time>
      </trkpt>
      <trkpt lat="43.03787" lon="0.63474">
        <ele>490.4</ele>
        <time>2023-09-23T08:42:39Z</time>
      </trkpt>
      <trkpt lat="43.03784" lon="0.63468">
        <ele>490.8</ele>
        <time>2023-09-23T08:42:40Z</time>
      </trkpt>
      <trkpt lat="43.03782" lon="0.63462">
        <ele>490.8</ele>
        <time>2023-09-23T08:42:41Z</time>
      </trkpt>
      <trkpt lat="43.03779" lon="0.63456">
        <ele>490.8</ele>
        <time>2023-09-23T08:42:42Z</time>
      </trkpt>
      <trkpt lat="43.03777" lon="0.63451">
        <ele>491.4</ele>
        <time>2023-09-23T08:42:43Z</time>
      </trkpt>
      <trkpt lat="43.03774" lon="0.63445">
        <ele>490.6</ele>
        <time>2023-09-23T08:42:44Z</time>
      </trkpt>
      <trkpt lat="43.03772" lon="0.63439">
        <ele>490.6</ele>
        <time>2023-09-23T08:42:45Z</time>
      </trkpt>
      <trkpt lat="43.0377" lon="0.63433">
        <ele>490.6</ele>
        <time>2023-09-23T08:42:46Z</time>
      </trkpt>
      <trkpt lat="43.03767" lon="0.63427">
        <ele>491.2</ele>
        <time>2023-09-23T08:42:47Z</time>
      </trkpt>
      <trkpt lat="43.03765" lon="0.63421">
        <ele>492</ele>
        <time>2023-09-23T08:42:48Z</time>
      </trkpt>
      <trkpt lat="43.03762" lon="0.63415">
        <ele>492</ele>
        <time>2023-09-23T08:42:49Z</time>
      </trkpt>
      <trkpt lat="43.0376" lon="0.63409">
        <ele>492</ele>
        <time>2023-09-23T08:42:50Z</time>
      </trkpt>
      <trkpt lat="43.03757" lon="0.63403">
        <ele>492</ele>
        <time>2023-09-23T08:42:51Z</time>
      </trkpt>
      <trkpt lat="43.03755" lon="0.63398">
        <ele>492</ele>
        <time>2023-09-23T08:42:52Z</time>
      </trkpt>
      <trkpt lat="43.03753" lon="0.63392">
        <ele>492</ele>
        <time>2023-09-23T08:42:53Z</time>
      </trkpt>
      <trkpt lat="43.0375" lon="0.63386">
        <ele>492</ele>
        <time>2023-09-23T08:42:54Z</time>
      </trkpt>
      <trkpt lat="43.03748" lon="0.63381">
        <ele>492</ele>
        <time>2023-09-23T08:42:55Z</time>
      </trkpt>
      <trkpt lat="43.03746" lon="0.63375">
        <ele>492.8</ele>
        <time>2023-09-23T08:42:56Z</time>
      </trkpt>
      <trkpt lat="43.03743" lon="0.63369">
        <ele>492.8</ele>
        <time>2023-09-23T08:42:57Z</time>
      </trkpt>
      <trkpt lat="43.03741" lon="0.63364">
        <ele>492.8</ele>
        <time>2023-09-23T08:42:58Z</time>
      </trkpt>
      <trkpt lat="43.03738" lon="0.63359">
        <ele>492</ele>
        <time>2023-09-23T08:42:59Z</time>
      </trkpt>
      <trkpt lat="43.03736" lon="0.63353">
        <ele>493.2</ele>
        <time>2023-09-23T08:43:00Z</time>
      </trkpt>
      <trkpt lat="43.03733" lon="0.63348">
        <ele>493.2</ele>
        <time>2023-09-23T08:43:01Z</time>
      </trkpt>
      <trkpt lat="43.0373" lon="0.63343">
        <ele>493.2</ele>
        <time>2023-09-23T08:43:02Z</time>
      </trkpt>
      <trkpt lat="43.03727" lon="0.63338">
        <ele>493.2</ele>
        <time>2023-09-23T08:43:03Z</time>
      </trkpt>
      <trkpt lat="43.03724" lon="0.63333">
        <ele>493.4</ele>
        <time>2023-09-23T08:43:04Z</time>
      </trkpt>
      <trkpt lat="43.03721" lon="0.63328">
        <ele>493.4</ele>
        <time>2023-09-23T08:43:05Z</time>
      </trkpt>
      <trkpt lat="43.03718" lon="0.63322">
        <ele>493.4</ele>
        <time>2023-09-23T08:43:06Z</time>
      </trkpt>
      <trkpt lat="43.03715" lon="0.63317">
        <ele>493.4</ele>
        <time>2023-09-23T08:43:07Z</time>
      </trkpt>
      <trkpt lat="43.03712" lon="0.63312">
        <ele>493.8</ele>
        <time>2023-09-23T08:43:08Z</time>
      </trkpt>
      <trkpt lat="43.03709" lon="0.63307">
        <ele>493.8</ele>
        <time>2023-09-23T08:43:09Z</time>
      </trkpt>
      <trkpt lat="43.03706" lon="0.63303">
        <ele>493.8</ele>
        <time>2023-09-23T08:43:10Z</time>
      </trkpt>
      <trkpt lat="43.03703" lon="0.63298">
        <ele>493.8</ele>
        <time>2023-09-23T08:43:11Z</time>
      </trkpt>
      <trkpt lat="43.03701" lon="0.63293">
        <ele>495</ele>
        <time>2023-09-23T08:43:12Z</time>
      </trkpt>
      <trkpt lat="43.03698" lon="0.63289">
        <ele>495</ele>
        <time>2023-09-23T08:43:13Z</time>
      </trkpt>
      <trkpt lat="43.03695" lon="0.63285">
        <ele>495</ele>
        <time>2023-09-23T08:43:14Z</time>
      </trkpt>
      <trkpt lat="43.03692" lon="0.63281">
        <ele>495.6</ele>
        <time>2023-09-23T08:43:15Z</time>
      </trkpt>
      <trkpt lat="43.0369" lon="0.63276">
        <ele>495.6</ele>
        <time>2023-09-23T08:43:16Z</time>
      </trkpt>
      <trkpt lat="43.03687" lon="0.63272">
        <ele>495.6</ele>
        <time>2023-09-23T08:43:17Z</time>
      </trkpt>
      <trkpt lat="43.03684" lon="0.63268">
        <ele>495.6</ele>
        <time>2023-09-23T08:43:18Z</time>
      </trkpt>
      <trkpt lat="43.03682" lon="0.63264">
        <ele>496.2</ele>
        <time>2023-09-23T08:43:19Z</time>
      </trkpt>
      <trkpt lat="43.03679" lon="0.63261">
        <ele>496.4</ele>
        <time>2023-09-23T08:43:20Z</time>
      </trkpt>
      <trkpt lat="43.03677" lon="0.63256">
        <ele>496.4</ele>
        <time>2023-09-23T08:43:21Z</time>
      </trkpt>
      <trkpt lat="43.03674" lon="0.63252">
        <ele>496.4</ele>
        <time>2023-09-23T08:43:22Z</time>
      </trkpt>
      <trkpt lat="43.03672" lon="0.63248">
        <ele>496.8</ele>
        <time>2023-09-23T08:43:23Z</time>
      </trkpt>
      <trkpt lat="43.0367" lon="0.63244">
        <ele>497</ele>
        <time>2023-09-23T08:43:24Z</time>
      </trkpt>
      <trkpt lat="43.03667" lon="0.63239">
        <ele>497</ele>
        <time>2023-09-23T08:43:25Z</time>
      </trkpt>
      <trkpt lat="43.03665" lon="0.63236">
        <ele>497</ele>
        <time>2023-09-23T08:43:26Z</time>
      </trkpt>
      <trkpt lat="43.03663" lon="0.63233">
        <ele>497.8</ele>
        <time>2023-09-23T08:43:27Z</time>
      </trkpt>
      <trkpt lat="43.03661" lon="0.6323">
        <ele>498.4</ele>
        <time>2023-09-23T08:43:28Z</time>
      </trkpt>
      <trkpt lat="43.03659" lon="0.63227">
        <ele>498.4</ele>
        <time>2023-09-23T08:43:29Z</time>
      </trkpt>
      <trkpt lat="43.03657" lon="0.63223">
        <ele>498.4</ele>
        <time>2023-09-23T08:43:30Z</time>
      </trkpt>
      <trkpt lat="43.03655" lon="0.6322">
        <ele>498.4</ele>
        <time>2023-09-23T08:43:31Z</time>
      </trkpt>
      <trkpt lat="43.03653" lon="0.63216">
        <ele>500</ele>
        <time>2023-09-23T08:43:32Z</time>
      </trkpt>
      <trkpt lat="43.03651" lon="0.63214">
        <ele>500</ele>
        <time>2023-09-23T08:43:33Z</time>
      </trkpt>
      <trkpt lat="43.03649" lon="0.63212">
        <ele>500</ele>
        <time>2023-09-23T08:43:34Z</time>
      </trkpt>
      <trkpt lat="43.03646" lon="0.63208">
        <ele>500</ele>
        <time>2023-09-23T08:43:35Z</time>
      </trkpt>
      <trkpt lat="43.03644" lon="0.63205">
        <ele>500.8</ele>
        <time>2023-09-23T08:43:36Z</time>
      </trkpt>
      <trkpt lat="43.03641" lon="0.63202">
        <ele>500.8</ele>
        <time>2023-09-23T08:43:37Z</time>
      </trkpt>
      <trkpt lat="43.0364" lon="0.63199">
        <ele>500.8</ele>
        <time>2023-09-23T08:43:38Z</time>
      </trkpt>
      <trkpt lat="43.03636" lon="0.63196">
        <ele>501.8</ele>
        <time>2023-09-23T08:43:39Z</time>
      </trkpt>
      <trkpt lat="43.03633" lon="0.63191">
        <ele>502</ele>
        <time>2023-09-23T08:43:40Z</time>
      </trkpt>
      <trkpt lat="43.0363" lon="0.63187">
        <ele>502</ele>
        <time>2023-09-23T08:43:41Z</time>
      </trkpt>
      <trkpt lat="43.03627" lon="0.63183">
        <ele>502</ele>
        <time>2023-09-23T08:43:42Z</time>
      </trkpt>
      <trkpt lat="43.03624" lon="0.63178">
        <ele>502.6</ele>
        <time>2023-09-23T08:43:43Z</time>
      </trkpt>
      <trkpt lat="43.03621" lon="0.63174">
        <ele>502.8</ele>
        <time>2023-09-23T08:43:44Z</time>
      </trkpt>
      <trkpt lat="43.03619" lon="0.63169">
        <ele>502.8</ele>
        <time>2023-09-23T08:43:45Z</time>
      </trkpt>
      <trkpt lat="43.03617" lon="0.63165">
        <ele>502.8</ele>
        <time>2023-09-23T08:43:46Z</time>
      </trkpt>
      <trkpt lat="43.03614" lon="0.6316">
        <ele>503.8</ele>
        <time>2023-09-23T08:43:47Z</time>
      </trkpt>
      <trkpt lat="43.03612" lon="0.63156">
        <ele>503.2</ele>
        <time>2023-09-23T08:43:48Z</time>
      </trkpt>
      <trkpt lat="43.0361" lon="0.63153">
        <ele>503.2</ele>
        <time>2023-09-23T08:43:49Z</time>
      </trkpt>
      <trkpt lat="43.03609" lon="0.63149">
        <ele>503.2</ele>
        <time>2023-09-23T08:43:50Z</time>
      </trkpt>
      <trkpt lat="43.03606" lon="0.63145">
        <ele>503.8</ele>
        <time>2023-09-23T08:43:51Z</time>
      </trkpt>
      <trkpt lat="43.03604" lon="0.63141">
        <ele>504.4</ele>
        <time>2023-09-23T08:43:52Z</time>
      </trkpt>
      <trkpt lat="43.03601" lon="0.63138">
        <ele>504.4</ele>
        <time>2023-09-23T08:43:53Z</time>
      </trkpt>
      <trkpt lat="43.03599" lon="0.63133">
        <ele>504.4</ele>
        <time>2023-09-23T08:43:54Z</time>
      </trkpt>
      <trkpt lat="43.03597" lon="0.63129">
        <ele>504.4</ele>
        <time>2023-09-23T08:43:55Z</time>
      </trkpt>
      <trkpt lat="43.03595" lon="0.63124">
        <ele>505</ele>
        <time>2023-09-23T08:43:56Z</time>
      </trkpt>
      <trkpt lat="43.03593" lon="0.63119">
        <ele>505</ele>
        <time>2023-09-23T08:43:57Z</time>
      </trkpt>
      <trkpt lat="43.0359" lon="0.63116">
        <ele>505</ele>
        <time>2023-09-23T08:43:58Z</time>
      </trkpt>
      <trkpt lat="43.03587" lon="0.63112">
        <ele>505.2</ele>
        <time>2023-09-23T08:43:59Z</time>
      </trkpt>
      <trkpt lat="43.03585" lon="0.63107">
        <ele>505.2</ele>
        <time>2023-09-23T08:44:00Z</time>
      </trkpt>
      <trkpt lat="43.03583" lon="0.63102">
        <ele>505.2</ele>
        <time>2023-09-23T08:44:01Z</time>
      </trkpt>
      <trkpt lat="43.0358" lon="0.63097">
        <ele>505.2</ele>
        <time>2023-09-23T08:44:02Z</time>
      </trkpt>
      <trkpt lat="43.03578" lon="0.63092">
        <ele>505.2</ele>
        <time>2023-09-23T08:44:03Z</time>
      </trkpt>
      <trkpt lat="43.03575" lon="0.63087">
        <ele>505</ele>
        <time>2023-09-23T08:44:04Z</time>
      </trkpt>
      <trkpt lat="43.03572" lon="0.63082">
        <ele>505</ele>
        <time>2023-09-23T08:44:05Z</time>
      </trkpt>
      <trkpt lat="43.03569" lon="0.63076">
        <ele>505</ele>
        <time>2023-09-23T08:44:06Z</time>
      </trkpt>
      <trkpt lat="43.03567" lon="0.6307">
        <ele>505</ele>
        <time>2023-09-23T08:44:07Z</time>
      </trkpt>
      <trkpt lat="43.03563" lon="0.63064">
        <ele>505</ele>
        <time>2023-09-23T08:44:08Z</time>
      </trkpt>
      <trkpt lat="43.0356" lon="0.63059">
        <ele>505</ele>
        <time>2023-09-23T08:44:09Z</time>
      </trkpt>
      <trkpt lat="43.03557" lon="0.63052">
        <ele>505</ele>
        <time>2023-09-23T08:44:10Z</time>
      </trkpt>
      <trkpt lat="43.03554" lon="0.63046">
        <ele>505.6</ele>
        <time>2023-09-23T08:44:11Z</time>
      </trkpt>
      <trkpt lat="43.03551" lon="0.6304">
        <ele>505.4</ele>
        <time>2023-09-23T08:44:12Z</time>
      </trkpt>
      <trkpt lat="43.03549" lon="0.63035">
        <ele>505.4</ele>
        <time>2023-09-23T08:44:13Z</time>
      </trkpt>
      <trkpt lat="43.03546" lon="0.63029">
        <ele>505.4</ele>
        <time>2023-09-23T08:44:14Z</time>
      </trkpt>
      <trkpt lat="43.03544" lon="0.63023">
        <ele>505.8</ele>
        <time>2023-09-23T08:44:15Z</time>
      </trkpt>
      <trkpt lat="43.03542" lon="0.63017">
        <ele>505.8</ele>
        <time>2023-09-23T08:44:16Z</time>
      </trkpt>
      <trkpt lat="43.0354" lon="0.63011">
        <ele>505.8</ele>
        <time>2023-09-23T08:44:17Z</time>
      </trkpt>
      <trkpt lat="43.03538" lon="0.63006">
        <ele>505.8</ele>
        <time>2023-09-23T08:44:18Z</time>
      </trkpt>
      <trkpt lat="43.03536" lon="0.63">
        <ele>506.6</ele>
        <time>2023-09-23T08:44:19Z</time>
      </trkpt>
      <trkpt lat="43.03534" lon="0.62995">
        <ele>506.6</ele>
        <time>2023-09-23T08:44:20Z</time>
      </trkpt>
      <trkpt lat="43.03532" lon="0.6299">
        <ele>506.6</ele>
        <time>2023-09-23T08:44:21Z</time>
      </trkpt>
      <trkpt lat="43.0353" lon="0.62985">
        <ele>506.6</ele>
        <time>2023-09-23T08:44:22Z</time>
      </trkpt>
      <trkpt lat="43.03529" lon="0.6298">
        <ele>507.6</ele>
        <time>2023-09-23T08:44:23Z</time>
      </trkpt>
      <trkpt lat="43.03527" lon="0.62975">
        <ele>507.8</ele>
        <time>2023-09-23T08:44:24Z</time>
      </trkpt>
      <trkpt lat="43.03525" lon="0.62971">
        <ele>507.8</ele>
        <time>2023-09-23T08:44:25Z</time>
      </trkpt>
      <trkpt lat="43.03524" lon="0.62967">
        <ele>507.8</ele>
        <time>2023-09-23T08:44:26Z</time>
      </trkpt>
      <trkpt lat="43.03523" lon="0.62963">
        <ele>508.8</ele>
        <time>2023-09-23T08:44:27Z</time>
      </trkpt>
      <trkpt lat="43.03521" lon="0.62958">
        <ele>509.4</ele>
        <time>2023-09-23T08:44:28Z</time>
      </trkpt>
      <trkpt lat="43.0352" lon="0.62954">
        <ele>509.4</ele>
        <time>2023-09-23T08:44:29Z</time>
      </trkpt>
      <trkpt lat="43.03519" lon="0.6295">
        <ele>509.4</ele>
        <time>2023-09-23T08:44:30Z</time>
      </trkpt>
      <trkpt lat="43.03518" lon="0.62946">
        <ele>510</ele>
        <time>2023-09-23T08:44:31Z</time>
      </trkpt>
      <trkpt lat="43.03517" lon="0.6294">
        <ele>510.2</ele>
        <time>2023-09-23T08:44:32Z</time>
      </trkpt>
      <trkpt lat="43.03516" lon="0.62936">
        <ele>510.2</ele>
        <time>2023-09-23T08:44:33Z</time>
      </trkpt>
      <trkpt lat="43.03515" lon="0.62932">
        <ele>510.2</ele>
        <time>2023-09-23T08:44:34Z</time>
      </trkpt>
      <trkpt lat="43.03514" lon="0.62929">
        <ele>510.8</ele>
        <time>2023-09-23T08:44:35Z</time>
      </trkpt>
      <trkpt lat="43.03512" lon="0.62924">
        <ele>510.8</ele>
        <time>2023-09-23T08:44:36Z</time>
      </trkpt>
      <trkpt lat="43.03511" lon="0.6292">
        <ele>510.8</ele>
        <time>2023-09-23T08:44:37Z</time>
      </trkpt>
      <trkpt lat="43.03511" lon="0.62915">
        <ele>510.8</ele>
        <time>2023-09-23T08:44:38Z</time>
      </trkpt>
      <trkpt lat="43.0351" lon="0.62911">
        <ele>511.2</ele>
        <time>2023-09-23T08:44:39Z</time>
      </trkpt>
      <trkpt lat="43.03509" lon="0.62906">
        <ele>512</ele>
        <time>2023-09-23T08:44:40Z</time>
      </trkpt>
      <trkpt lat="43.03508" lon="0.62902">
        <ele>512</ele>
        <time>2023-09-23T08:44:41Z</time>
      </trkpt>
      <trkpt lat="43.03507" lon="0.62898">
        <ele>512</ele>
        <time>2023-09-23T08:44:42Z</time>
      </trkpt>
      <trkpt lat="43.03506" lon="0.62893">
        <ele>512</ele>
        <time>2023-09-23T08:44:43Z</time>
      </trkpt>
      <trkpt lat="43.03506" lon="0.62887">
        <ele>512.2</ele>
        <time>2023-09-23T08:44:44Z</time>
      </trkpt>
      <trkpt lat="43.03505" lon="0.62882">
        <ele>512.2</ele>
        <time>2023-09-23T08:44:45Z</time>
      </trkpt>
      <trkpt lat="43.03504" lon="0.62877">
        <ele>512.2</ele>
        <time>2023-09-23T08:44:46Z</time>
      </trkpt>
      <trkpt lat="43.03503" lon="0.62872">
        <ele>513</ele>
        <time>2023-09-23T08:44:47Z</time>
      </trkpt>
      <trkpt lat="43.03503" lon="0.62866">
        <ele>513</ele>
        <time>2023-09-23T08:44:48Z</time>
      </trkpt>
      <trkpt lat="43.03502" lon="0.62861">
        <ele>513</ele>
        <time>2023-09-23T08:44:49Z</time>
      </trkpt>
      <trkpt lat="43.03501" lon="0.62857">
        <ele>513</ele>
        <time>2023-09-23T08:44:50Z</time>
      </trkpt>
      <trkpt lat="43.035" lon="0.62852">
        <ele>514</ele>
        <time>2023-09-23T08:44:51Z</time>
      </trkpt>
      <trkpt lat="43.035" lon="0.62848">
        <ele>513.8</ele>
        <time>2023-09-23T08:44:52Z</time>
      </trkpt>
      <trkpt lat="43.03499" lon="0.62843">
        <ele>513.8</ele>
        <time>2023-09-23T08:44:53Z</time>
      </trkpt>
      <trkpt lat="43.03498" lon="0.62838">
        <ele>513.8</ele>
        <time>2023-09-23T08:44:54Z</time>
      </trkpt>
      <trkpt lat="43.03496" lon="0.62832">
        <ele>513.8</ele>
        <time>2023-09-23T08:44:55Z</time>
      </trkpt>
      <trkpt lat="43.03495" lon="0.62827">
        <ele>513</ele>
        <time>2023-09-23T08:44:56Z</time>
      </trkpt>
      <trkpt lat="43.03494" lon="0.62821">
        <ele>513</ele>
        <time>2023-09-23T08:44:57Z</time>
      </trkpt>
      <trkpt lat="43.03493" lon="0.62815">
        <ele>513</ele>
        <time>2023-09-23T08:44:58Z</time>
      </trkpt>
      <trkpt lat="43.0349" lon="0.62808">
        <ele>512</ele>
        <time>2023-09-23T08:44:59Z</time>
      </trkpt>
      <trkpt lat="43.03487" lon="0.62802">
        <ele>511</ele>
        <time>2023-09-23T08:45:00Z</time>
      </trkpt>
      <trkpt lat="43.03483" lon="0.62795">
        <ele>511</ele>
        <time>2023-09-23T08:45:01Z</time>
      </trkpt>
      <trkpt lat="43.03478" lon="0.62788">
        <ele>511</ele>
        <time>2023-09-23T08:45:02Z</time>
      </trkpt>
      <trkpt lat="43.03474" lon="0.6278">
        <ele>510</ele>
        <time>2023-09-23T08:45:03Z</time>
      </trkpt>
      <trkpt lat="43.03469" lon="0.62774">
        <ele>507</ele>
        <time>2023-09-23T08:45:04Z</time>
      </trkpt>
      <trkpt lat="43.03465" lon="0.62764">
        <ele>507</ele>
        <time>2023-09-23T08:45:05Z</time>
      </trkpt>
      <trkpt lat="43.0346" lon="0.62754">
        <ele>507</ele>
        <time>2023-09-23T08:45:06Z</time>
      </trkpt>
      <trkpt lat="43.03457" lon="0.62743">
        <ele>506</ele>
        <time>2023-09-23T08:45:07Z</time>
      </trkpt>
      <trkpt lat="43.03454" lon="0.62731">
        <ele>504</ele>
        <time>2023-09-23T08:45:08Z</time>
      </trkpt>
      <trkpt lat="43.03452" lon="0.62719">
        <ele>504</ele>
        <time>2023-09-23T08:45:09Z</time>
      </trkpt>
      <trkpt lat="43.03449" lon="0.62706">
        <ele>504</ele>
        <time>2023-09-23T08:45:10Z</time>
      </trkpt>
      <trkpt lat="43.03446" lon="0.62695">
        <ele>503</ele>
        <time>2023-09-23T08:45:11Z</time>
      </trkpt>
      <trkpt lat="43.03442" lon="0.62684">
        <ele>500.8</ele>
        <time>2023-09-23T08:45:12Z</time>
      </trkpt>
      <trkpt lat="43.03439" lon="0.62672">
        <ele>500.8</ele>
        <time>2023-09-23T08:45:13Z</time>
      </trkpt>
      <trkpt lat="43.03434" lon="0.62661">
        <ele>500.8</ele>
        <time>2023-09-23T08:45:14Z</time>
      </trkpt>
      <trkpt lat="43.0343" lon="0.6265">
        <ele>499.8</ele>
        <time>2023-09-23T08:45:15Z</time>
      </trkpt>
      <trkpt lat="43.03426" lon="0.6264">
        <ele>498.4</ele>
        <time>2023-09-23T08:45:16Z</time>
      </trkpt>
      <trkpt lat="43.03422" lon="0.62629">
        <ele>498.4</ele>
        <time>2023-09-23T08:45:17Z</time>
      </trkpt>
      <trkpt lat="43.03417" lon="0.62619">
        <ele>498.4</ele>
        <time>2023-09-23T08:45:18Z</time>
      </trkpt>
      <trkpt lat="43.03412" lon="0.62609">
        <ele>497.4</ele>
        <time>2023-09-23T08:45:19Z</time>
      </trkpt>
      <trkpt lat="43.03408" lon="0.62599">
        <ele>496</ele>
        <time>2023-09-23T08:45:20Z</time>
      </trkpt>
      <trkpt lat="43.03404" lon="0.62591">
        <ele>496</ele>
        <time>2023-09-23T08:45:21Z</time>
      </trkpt>
      <trkpt lat="43.03401" lon="0.62585">
        <ele>496</ele>
        <time>2023-09-23T08:45:22Z</time>
      </trkpt>
      <trkpt lat="43.03399" lon="0.6258">
        <ele>495.4</ele>
        <time>2023-09-23T08:45:23Z</time>
      </trkpt>
      <trkpt lat="43.03397" lon="0.62577">
        <ele>495.4</ele>
        <time>2023-09-23T08:45:24Z</time>
      </trkpt>
      <trkpt lat="43.03396" lon="0.62573">
        <ele>495.4</ele>
        <time>2023-09-23T08:45:25Z</time>
      </trkpt>
      <trkpt lat="43.03393" lon="0.6257">
        <ele>495.4</ele>
        <time>2023-09-23T08:45:26Z</time>
      </trkpt>
      <trkpt lat="43.0339" lon="0.62568">
        <ele>494.4</ele>
        <time>2023-09-23T08:45:27Z</time>
      </trkpt>
      <trkpt lat="43.03386" lon="0.62567">
        <ele>494.4</ele>
        <time>2023-09-23T08:45:28Z</time>
      </trkpt>
      <trkpt lat="43.03382" lon="0.62565">
        <ele>494.4</ele>
        <time>2023-09-23T08:45:29Z</time>
      </trkpt>
      <trkpt lat="43.03378" lon="0.62564">
        <ele>494.4</ele>
        <time>2023-09-23T08:45:30Z</time>
      </trkpt>
      <trkpt lat="43.03373" lon="0.62563">
        <ele>493.4</ele>
        <time>2023-09-23T08:45:31Z</time>
      </trkpt>
      <trkpt lat="43.03368" lon="0.62562">
        <ele>491.6</ele>
        <time>2023-09-23T08:45:32Z</time>
      </trkpt>
      <trkpt lat="43.03362" lon="0.62562">
        <ele>491.6</ele>
        <time>2023-09-23T08:45:33Z</time>
      </trkpt>
      <trkpt lat="43.03358" lon="0.6256">
        <ele>491.6</ele>
        <time>2023-09-23T08:45:34Z</time>
      </trkpt>
      <trkpt lat="43.03354" lon="0.62555">
        <ele>491.6</ele>
        <time>2023-09-23T08:45:35Z</time>
      </trkpt>
      <trkpt lat="43.0335" lon="0.62549">
        <ele>490.6</ele>
        <time>2023-09-23T08:45:36Z</time>
      </trkpt>
      <trkpt lat="43.03347" lon="0.62543">
        <ele>490.6</ele>
        <time>2023-09-23T08:45:37Z</time>
      </trkpt>
      <trkpt lat="43.03344" lon="0.62537">
        <ele>490.6</ele>
        <time>2023-09-23T08:45:38Z</time>
      </trkpt>
      <trkpt lat="43.0334" lon="0.62532">
        <ele>489.6</ele>
        <time>2023-09-23T08:45:39Z</time>
      </trkpt>
      <trkpt lat="43.03336" lon="0.62527">
        <ele>487.8</ele>
        <time>2023-09-23T08:45:40Z</time>
      </trkpt>
      <trkpt lat="43.03331" lon="0.62521">
        <ele>487.8</ele>
        <time>2023-09-23T08:45:41Z</time>
      </trkpt>
      <trkpt lat="43.03327" lon="0.62516">
        <ele>487.8</ele>
        <time>2023-09-23T08:45:42Z</time>
      </trkpt>
      <trkpt lat="43.03323" lon="0.6251">
        <ele>487.4</ele>
        <time>2023-09-23T08:45:43Z</time>
      </trkpt>
      <trkpt lat="43.03319" lon="0.62505">
        <ele>487.4</ele>
        <time>2023-09-23T08:45:44Z</time>
      </trkpt>
      <trkpt lat="43.03316" lon="0.62499">
        <ele>487.4</ele>
        <time>2023-09-23T08:45:45Z</time>
      </trkpt>
      <trkpt lat="43.03313" lon="0.62494">
        <ele>487.4</ele>
        <time>2023-09-23T08:45:46Z</time>
      </trkpt>
      <trkpt lat="43.0331" lon="0.62489">
        <ele>487.4</ele>
        <time>2023-09-23T08:45:47Z</time>
      </trkpt>
      <trkpt lat="43.03306" lon="0.62484">
        <ele>487.2</ele>
        <time>2023-09-23T08:45:48Z</time>
      </trkpt>
      <trkpt lat="43.03303" lon="0.62479">
        <ele>487.2</ele>
        <time>2023-09-23T08:45:49Z</time>
      </trkpt>
      <trkpt lat="43.033" lon="0.62474">
        <ele>487.2</ele>
        <time>2023-09-23T08:45:50Z</time>
      </trkpt>
      <trkpt lat="43.03298" lon="0.62468">
        <ele>487</ele>
        <time>2023-09-23T08:45:51Z</time>
      </trkpt>
      <trkpt lat="43.03295" lon="0.62462">
        <ele>486.4</ele>
        <time>2023-09-23T08:45:52Z</time>
      </trkpt>
      <trkpt lat="43.03293" lon="0.62456">
        <ele>486.4</ele>
        <time>2023-09-23T08:45:53Z</time>
      </trkpt>
      <trkpt lat="43.03291" lon="0.6245">
        <ele>486.4</ele>
        <time>2023-09-23T08:45:54Z</time>
      </trkpt>
      <trkpt lat="43.03289" lon="0.62444">
        <ele>486.8</ele>
        <time>2023-09-23T08:45:55Z</time>
      </trkpt>
      <trkpt lat="43.03287" lon="0.62438">
        <ele>486.8</ele>
        <time>2023-09-23T08:45:56Z</time>
      </trkpt>
      <trkpt lat="43.03286" lon="0.62432">
        <ele>486.8</ele>
        <time>2023-09-23T08:45:57Z</time>
      </trkpt>
      <trkpt lat="43.03284" lon="0.62427">
        <ele>486.8</ele>
        <time>2023-09-23T08:45:58Z</time>
      </trkpt>
      <trkpt lat="43.03283" lon="0.62421">
        <ele>486.4</ele>
        <time>2023-09-23T08:45:59Z</time>
      </trkpt>
      <trkpt lat="43.03282" lon="0.62415">
        <ele>486.4</ele>
        <time>2023-09-23T08:46:00Z</time>
      </trkpt>
      <trkpt lat="43.0328" lon="0.62408">
        <ele>486.4</ele>
        <time>2023-09-23T08:46:01Z</time>
      </trkpt>
      <trkpt lat="43.03278" lon="0.62402">
        <ele>486.4</ele>
        <time>2023-09-23T08:46:02Z</time>
      </trkpt>
      <trkpt lat="43.03277" lon="0.62395">
        <ele>486.4</ele>
        <time>2023-09-23T08:46:03Z</time>
      </trkpt>
      <trkpt lat="43.03276" lon="0.62388">
        <ele>485</ele>
        <time>2023-09-23T08:46:04Z</time>
      </trkpt>
      <trkpt lat="43.03276" lon="0.62379">
        <ele>485</ele>
        <time>2023-09-23T08:46:05Z</time>
      </trkpt>
      <trkpt lat="43.03276" lon="0.6237">
        <ele>485</ele>
        <time>2023-09-23T08:46:06Z</time>
      </trkpt>
      <trkpt lat="43.03277" lon="0.62361">
        <ele>484</ele>
        <time>2023-09-23T08:46:07Z</time>
      </trkpt>
      <trkpt lat="43.03278" lon="0.62351">
        <ele>481.8</ele>
        <time>2023-09-23T08:46:08Z</time>
      </trkpt>
      <trkpt lat="43.0328" lon="0.62341">
        <ele>481.8</ele>
        <time>2023-09-23T08:46:09Z</time>
      </trkpt>
      <trkpt lat="43.03281" lon="0.6233">
        <ele>481.8</ele>
        <time>2023-09-23T08:46:10Z</time>
      </trkpt>
      <trkpt lat="43.03282" lon="0.62321">
        <ele>480.8</ele>
        <time>2023-09-23T08:46:11Z</time>
      </trkpt>
      <trkpt lat="43.03282" lon="0.62312">
        <ele>479.2</ele>
        <time>2023-09-23T08:46:12Z</time>
      </trkpt>
      <trkpt lat="43.03281" lon="0.62304">
        <ele>479.2</ele>
        <time>2023-09-23T08:46:13Z</time>
      </trkpt>
      <trkpt lat="43.03279" lon="0.62295">
        <ele>479.2</ele>
        <time>2023-09-23T08:46:14Z</time>
      </trkpt>
      <trkpt lat="43.03277" lon="0.62285">
        <ele>478.2</ele>
        <time>2023-09-23T08:46:15Z</time>
      </trkpt>
      <trkpt lat="43.03274" lon="0.62274">
        <ele>474.2</ele>
        <time>2023-09-23T08:46:16Z</time>
      </trkpt>
      <trkpt lat="43.03272" lon="0.62263">
        <ele>474.2</ele>
        <time>2023-09-23T08:46:17Z</time>
      </trkpt>
      <trkpt lat="43.0327" lon="0.62251">
        <ele>474.2</ele>
        <time>2023-09-23T08:46:18Z</time>
      </trkpt>
      <trkpt lat="43.03267" lon="0.62239">
        <ele>473.2</ele>
        <time>2023-09-23T08:46:19Z</time>
      </trkpt>
      <trkpt lat="43.03265" lon="0.62227">
        <ele>470</ele>
        <time>2023-09-23T08:46:20Z</time>
      </trkpt>
      <trkpt lat="43.03263" lon="0.62216">
        <ele>470</ele>
        <time>2023-09-23T08:46:21Z</time>
      </trkpt>
      <trkpt lat="43.03263" lon="0.62207">
        <ele>470</ele>
        <time>2023-09-23T08:46:22Z</time>
      </trkpt>
      <trkpt lat="43.03264" lon="0.62199">
        <ele>469</ele>
        <time>2023-09-23T08:46:23Z</time>
      </trkpt>
      <trkpt lat="43.03265" lon="0.62193">
        <ele>468.2</ele>
        <time>2023-09-23T08:46:24Z</time>
      </trkpt>
      <trkpt lat="43.03267" lon="0.62187">
        <ele>468.2</ele>
        <time>2023-09-23T08:46:25Z</time>
      </trkpt>
      <trkpt lat="43.03269" lon="0.62181">
        <ele>468.2</ele>
        <time>2023-09-23T08:46:26Z</time>
      </trkpt>
      <trkpt lat="43.03272" lon="0.62175">
        <ele>468.2</ele>
        <time>2023-09-23T08:46:27Z</time>
      </trkpt>
      <trkpt lat="43.03276" lon="0.6217">
        <ele>467.6</ele>
        <time>2023-09-23T08:46:28Z</time>
      </trkpt>
      <trkpt lat="43.03281" lon="0.62166">
        <ele>467.6</ele>
        <time>2023-09-23T08:46:29Z</time>
      </trkpt>
      <trkpt lat="43.03286" lon="0.62163">
        <ele>467.6</ele>
        <time>2023-09-23T08:46:30Z</time>
      </trkpt>
      <trkpt lat="43.0329" lon="0.6216">
        <ele>467.4</ele>
        <time>2023-09-23T08:46:31Z</time>
      </trkpt>
      <trkpt lat="43.03295" lon="0.62156">
        <ele>467.4</ele>
        <time>2023-09-23T08:46:32Z</time>
      </trkpt>
      <trkpt lat="43.03298" lon="0.62153">
        <ele>467.4</ele>
        <time>2023-09-23T08:46:33Z</time>
      </trkpt>
      <trkpt lat="43.03303" lon="0.6215">
        <ele>467.4</ele>
        <time>2023-09-23T08:46:34Z</time>
      </trkpt>
      <trkpt lat="43.03307" lon="0.62147">
        <ele>466.4</ele>
        <time>2023-09-23T08:46:35Z</time>
      </trkpt>
      <trkpt lat="43.03312" lon="0.62144">
        <ele>466.4</ele>
        <time>2023-09-23T08:46:36Z</time>
      </trkpt>
      <trkpt lat="43.03316" lon="0.6214">
        <ele>466.4</ele>
        <time>2023-09-23T08:46:37Z</time>
      </trkpt>
      <trkpt lat="43.03321" lon="0.62137">
        <ele>466.4</ele>
        <time>2023-09-23T08:46:38Z</time>
      </trkpt>
      <trkpt lat="43.03325" lon="0.62133">
        <ele>465.8</ele>
        <time>2023-09-23T08:46:39Z</time>
      </trkpt>
      <trkpt lat="43.0333" lon="0.62129">
        <ele>465.4</ele>
        <time>2023-09-23T08:46:40Z</time>
      </trkpt>
      <trkpt lat="43.03335" lon="0.62125">
        <ele>465.4</ele>
        <time>2023-09-23T08:46:41Z</time>
      </trkpt>
      <trkpt lat="43.0334" lon="0.62121">
        <ele>465.4</ele>
        <time>2023-09-23T08:46:42Z</time>
      </trkpt>
      <trkpt lat="43.03344" lon="0.62116">
        <ele>465</ele>
        <time>2023-09-23T08:46:43Z</time>
      </trkpt>
      <trkpt lat="43.03348" lon="0.62111">
        <ele>464.6</ele>
        <time>2023-09-23T08:46:44Z</time>
      </trkpt>
      <trkpt lat="43.03352" lon="0.62105">
        <ele>464.6</ele>
        <time>2023-09-23T08:46:45Z</time>
      </trkpt>
      <trkpt lat="43.03355" lon="0.62099">
        <ele>464.6</ele>
        <time>2023-09-23T08:46:46Z</time>
      </trkpt>
      <trkpt lat="43.03358" lon="0.62093">
        <ele>464.6</ele>
        <time>2023-09-23T08:46:47Z</time>
      </trkpt>
      <trkpt lat="43.03361" lon="0.62087">
        <ele>464.4</ele>
        <time>2023-09-23T08:46:48Z</time>
      </trkpt>
      <trkpt lat="43.03365" lon="0.62082">
        <ele>464.4</ele>
        <time>2023-09-23T08:46:49Z</time>
      </trkpt>
      <trkpt lat="43.03369" lon="0.62077">
        <ele>464.4</ele>
        <time>2023-09-23T08:46:50Z</time>
      </trkpt>
      <trkpt lat="43.03374" lon="0.62072">
        <ele>464.4</ele>
        <time>2023-09-23T08:46:51Z</time>
      </trkpt>
      <trkpt lat="43.03378" lon="0.62068">
        <ele>463.8</ele>
        <time>2023-09-23T08:46:52Z</time>
      </trkpt>
      <trkpt lat="43.03383" lon="0.62063">
        <ele>463.8</ele>
        <time>2023-09-23T08:46:53Z</time>
      </trkpt>
      <trkpt lat="43.03389" lon="0.62058">
        <ele>463.8</ele>
        <time>2023-09-23T08:46:54Z</time>
      </trkpt>
      <trkpt lat="43.03394" lon="0.62053">
        <ele>462.8</ele>
        <time>2023-09-23T08:46:55Z</time>
      </trkpt>
      <trkpt lat="43.034" lon="0.62047">
        <ele>461.8</ele>
        <time>2023-09-23T08:46:56Z</time>
      </trkpt>
      <trkpt lat="43.03406" lon="0.62041">
        <ele>461.8</ele>
        <time>2023-09-23T08:46:57Z</time>
      </trkpt>
      <trkpt lat="43.03412" lon="0.62034">
        <ele>461.8</ele>
        <time>2023-09-23T08:46:58Z</time>
      </trkpt>
      <trkpt lat="43.03418" lon="0.62027">
        <ele>460.8</ele>
        <time>2023-09-23T08:46:59Z</time>
      </trkpt>
      <trkpt lat="43.03424" lon="0.62019">
        <ele>458.4</ele>
        <time>2023-09-23T08:47:00Z</time>
      </trkpt>
      <trkpt lat="43.03431" lon="0.62011">
        <ele>458.4</ele>
        <time>2023-09-23T08:47:01Z</time>
      </trkpt>
      <trkpt lat="43.03437" lon="0.62002">
        <ele>458.4</ele>
        <time>2023-09-23T08:47:02Z</time>
      </trkpt>
      <trkpt lat="43.03443" lon="0.61993">
        <ele>457.4</ele>
        <time>2023-09-23T08:47:03Z</time>
      </trkpt>
      <trkpt lat="43.03447" lon="0.61983">
        <ele>456.4</ele>
        <time>2023-09-23T08:47:04Z</time>
      </trkpt>
      <trkpt lat="43.03452" lon="0.61972">
        <ele>456.4</ele>
        <time>2023-09-23T08:47:05Z</time>
      </trkpt>
      <trkpt lat="43.03457" lon="0.61961">
        <ele>456.4</ele>
        <time>2023-09-23T08:47:06Z</time>
      </trkpt>
      <trkpt lat="43.03461" lon="0.6195">
        <ele>455.4</ele>
        <time>2023-09-23T08:47:07Z</time>
      </trkpt>
      <trkpt lat="43.03465" lon="0.61939">
        <ele>454</ele>
        <time>2023-09-23T08:47:08Z</time>
      </trkpt>
      <trkpt lat="43.03468" lon="0.61928">
        <ele>454</ele>
        <time>2023-09-23T08:47:09Z</time>
      </trkpt>
      <trkpt lat="43.03472" lon="0.61918">
        <ele>454</ele>
        <time>2023-09-23T08:47:10Z</time>
      </trkpt>
      <trkpt lat="43.03475" lon="0.61908">
        <ele>454</ele>
        <time>2023-09-23T08:47:11Z</time>
      </trkpt>
      <trkpt lat="43.03479" lon="0.61898">
        <ele>454</ele>
        <time>2023-09-23T08:47:12Z</time>
      </trkpt>
      <trkpt lat="43.03482" lon="0.61889">
        <ele>454</ele>
        <time>2023-09-23T08:47:13Z</time>
      </trkpt>
      <trkpt lat="43.03485" lon="0.6188">
        <ele>454</ele>
        <time>2023-09-23T08:47:14Z</time>
      </trkpt>
      <trkpt lat="43.03488" lon="0.61872">
        <ele>454</ele>
        <time>2023-09-23T08:47:15Z</time>
      </trkpt>
      <trkpt lat="43.03491" lon="0.61864">
        <ele>454.2</ele>
        <time>2023-09-23T08:47:16Z</time>
      </trkpt>
      <trkpt lat="43.03494" lon="0.61857">
        <ele>454.2</ele>
        <time>2023-09-23T08:47:17Z</time>
      </trkpt>
      <trkpt lat="43.03497" lon="0.61851">
        <ele>454.2</ele>
        <time>2023-09-23T08:47:18Z</time>
      </trkpt>
      <trkpt lat="43.03499" lon="0.61845">
        <ele>454.2</ele>
        <time>2023-09-23T08:47:19Z</time>
      </trkpt>
      <trkpt lat="43.03501" lon="0.61839">
        <ele>454.4</ele>
        <time>2023-09-23T08:47:20Z</time>
      </trkpt>
      <trkpt lat="43.03503" lon="0.61834">
        <ele>454.4</ele>
        <time>2023-09-23T08:47:21Z</time>
      </trkpt>
      <trkpt lat="43.03504" lon="0.6183">
        <ele>454.4</ele>
        <time>2023-09-23T08:47:22Z</time>
      </trkpt>
      <trkpt lat="43.03505" lon="0.61826">
        <ele>454.2</ele>
        <time>2023-09-23T08:47:23Z</time>
      </trkpt>
      <trkpt lat="43.03505" lon="0.61825">
        <ele>454.4</ele>
        <time>2023-09-23T08:47:24Z</time>
      </trkpt>
      <trkpt lat="43.03505" lon="0.61824">
        <ele>454.4</ele>
        <time>2023-09-23T08:47:25Z</time>
      </trkpt>
      <trkpt lat="43.03505" lon="0.61824">
        <ele>454.4</ele>
        <time>2023-09-23T08:47:26Z</time>
      </trkpt>
      <trkpt lat="43.03508" lon="0.61818">
        <ele>454</ele>
        <time>2023-09-23T08:47:32Z</time>
      </trkpt>
      <trkpt lat="43.0351" lon="0.61814">
        <ele>454</ele>
        <time>2023-09-23T08:47:33Z</time>
      </trkpt>
      <trkpt lat="43.03512" lon="0.61809">
        <ele>454</ele>
        <time>2023-09-23T08:47:34Z</time>
      </trkpt>
      <trkpt lat="43.03515" lon="0.61804">
        <ele>454</ele>
        <time>2023-09-23T08:47:35Z</time>
      </trkpt>
      <trkpt lat="43.03518" lon="0.61798">
        <ele>453.2</ele>
        <time>2023-09-23T08:47:36Z</time>
      </trkpt>
      <trkpt lat="43.0352" lon="0.61792">
        <ele>453.2</ele>
        <time>2023-09-23T08:47:37Z</time>
      </trkpt>
      <trkpt lat="43.03523" lon="0.61786">
        <ele>453.2</ele>
        <time>2023-09-23T08:47:38Z</time>
      </trkpt>
      <trkpt lat="43.03526" lon="0.61779">
        <ele>452.2</ele>
        <time>2023-09-23T08:47:39Z</time>
      </trkpt>
      <trkpt lat="43.03528" lon="0.61773">
        <ele>452.6</ele>
        <time>2023-09-23T08:47:40Z</time>
      </trkpt>
      <trkpt lat="43.03531" lon="0.61766">
        <ele>452.6</ele>
        <time>2023-09-23T08:47:41Z</time>
      </trkpt>
      <trkpt lat="43.03534" lon="0.6176">
        <ele>452.6</ele>
        <time>2023-09-23T08:47:42Z</time>
      </trkpt>
      <trkpt lat="43.03537" lon="0.61754">
        <ele>453</ele>
        <time>2023-09-23T08:47:43Z</time>
      </trkpt>
      <trkpt lat="43.03539" lon="0.61748">
        <ele>452.2</ele>
        <time>2023-09-23T08:47:44Z</time>
      </trkpt>
      <trkpt lat="43.03542" lon="0.61742">
        <ele>452.2</ele>
        <time>2023-09-23T08:47:45Z</time>
      </trkpt>
      <trkpt lat="43.03544" lon="0.61736">
        <ele>452.2</ele>
        <time>2023-09-23T08:47:46Z</time>
      </trkpt>
      <trkpt lat="43.03545" lon="0.6173">
        <ele>452.6</ele>
        <time>2023-09-23T08:47:47Z</time>
      </trkpt>
      <trkpt lat="43.03547" lon="0.61724">
        <ele>451.8</ele>
        <time>2023-09-23T08:47:48Z</time>
      </trkpt>
      <trkpt lat="43.03548" lon="0.61717">
        <ele>451.8</ele>
        <time>2023-09-23T08:47:49Z</time>
      </trkpt>
      <trkpt lat="43.03548" lon="0.61709">
        <ele>451.8</ele>
        <time>2023-09-23T08:47:50Z</time>
      </trkpt>
      <trkpt lat="43.03549" lon="0.61701">
        <ele>451.8</ele>
        <time>2023-09-23T08:47:51Z</time>
      </trkpt>
      <trkpt lat="43.03549" lon="0.61693">
        <ele>451.4</ele>
        <time>2023-09-23T08:47:52Z</time>
      </trkpt>
      <trkpt lat="43.03549" lon="0.61685">
        <ele>451.4</ele>
        <time>2023-09-23T08:47:53Z</time>
      </trkpt>
      <trkpt lat="43.03549" lon="0.61677">
        <ele>451.4</ele>
        <time>2023-09-23T08:47:54Z</time>
      </trkpt>
      <trkpt lat="43.03549" lon="0.61668">
        <ele>451.4</ele>
        <time>2023-09-23T08:47:55Z</time>
      </trkpt>
      <trkpt lat="43.03549" lon="0.6166">
        <ele>450.6</ele>
        <time>2023-09-23T08:47:56Z</time>
      </trkpt>
      <trkpt lat="43.03549" lon="0.61651">
        <ele>450.6</ele>
        <time>2023-09-23T08:47:57Z</time>
      </trkpt>
      <trkpt lat="43.0355" lon="0.61642">
        <ele>450.6</ele>
        <time>2023-09-23T08:47:58Z</time>
      </trkpt>
      <trkpt lat="43.0355" lon="0.61633">
        <ele>449.8</ele>
        <time>2023-09-23T08:47:59Z</time>
      </trkpt>
      <trkpt lat="43.0355" lon="0.61624">
        <ele>450.2</ele>
        <time>2023-09-23T08:48:00Z</time>
      </trkpt>
      <trkpt lat="43.03551" lon="0.61615">
        <ele>450.2</ele>
        <time>2023-09-23T08:48:01Z</time>
      </trkpt>
      <trkpt lat="43.03551" lon="0.61606">
        <ele>450.2</ele>
        <time>2023-09-23T08:48:02Z</time>
      </trkpt>
      <trkpt lat="43.03552" lon="0.61598">
        <ele>450.2</ele>
        <time>2023-09-23T08:48:03Z</time>
      </trkpt>
      <trkpt lat="43.03552" lon="0.61589">
        <ele>448.4</ele>
        <time>2023-09-23T08:48:04Z</time>
      </trkpt>
      <trkpt lat="43.03553" lon="0.6158">
        <ele>448.4</ele>
        <time>2023-09-23T08:48:05Z</time>
      </trkpt>
      <trkpt lat="43.03554" lon="0.61572">
        <ele>448.4</ele>
        <time>2023-09-23T08:48:06Z</time>
      </trkpt>
      <trkpt lat="43.03556" lon="0.61565">
        <ele>448.8</ele>
        <time>2023-09-23T08:48:07Z</time>
      </trkpt>
      <trkpt lat="43.0356" lon="0.61561">
        <ele>448.8</ele>
        <time>2023-09-23T08:48:08Z</time>
      </trkpt>
      <trkpt lat="43.03563" lon="0.61558">
        <ele>448.8</ele>
        <time>2023-09-23T08:48:09Z</time>
      </trkpt>
      <trkpt lat="43.03568" lon="0.61558">
        <ele>448.8</ele>
        <time>2023-09-23T08:48:10Z</time>
      </trkpt>
      <trkpt lat="43.03572" lon="0.61558">
        <ele>449.2</ele>
        <time>2023-09-23T08:48:11Z</time>
      </trkpt>
      <trkpt lat="43.03577" lon="0.61559">
        <ele>449.4</ele>
        <time>2023-09-23T08:48:12Z</time>
      </trkpt>
      <trkpt lat="43.03582" lon="0.61561">
        <ele>449.4</ele>
        <time>2023-09-23T08:48:13Z</time>
      </trkpt>
      <trkpt lat="43.03587" lon="0.61564">
        <ele>449.4</ele>
        <time>2023-09-23T08:48:14Z</time>
      </trkpt>
      <trkpt lat="43.03592" lon="0.61566">
        <ele>448.8</ele>
        <time>2023-09-23T08:48:15Z</time>
      </trkpt>
      <trkpt lat="43.03598" lon="0.61568">
        <ele>447.8</ele>
        <time>2023-09-23T08:48:16Z</time>
      </trkpt>
      <trkpt lat="43.03604" lon="0.61571">
        <ele>447.8</ele>
        <time>2023-09-23T08:48:17Z</time>
      </trkpt>
      <trkpt lat="43.0361" lon="0.61572">
        <ele>447.8</ele>
        <time>2023-09-23T08:48:18Z</time>
      </trkpt>
      <trkpt lat="43.03616" lon="0.61572">
        <ele>447.8</ele>
        <time>2023-09-23T08:48:19Z</time>
      </trkpt>
      <trkpt lat="43.03622" lon="0.6157">
        <ele>447.8</ele>
        <time>2023-09-23T08:48:20Z</time>
      </trkpt>
      <trkpt lat="43.03627" lon="0.61567">
        <ele>447.8</ele>
        <time>2023-09-23T08:48:21Z</time>
      </trkpt>
      <trkpt lat="43.03632" lon="0.61563">
        <ele>447.8</ele>
        <time>2023-09-23T08:48:22Z</time>
      </trkpt>
      <trkpt lat="43.03638" lon="0.61559">
        <ele>448.6</ele>
        <time>2023-09-23T08:48:23Z</time>
      </trkpt>
      <trkpt lat="43.03643" lon="0.61555">
        <ele>447.8</ele>
        <time>2023-09-23T08:48:24Z</time>
      </trkpt>
      <trkpt lat="43.03648" lon="0.6155">
        <ele>447.8</ele>
        <time>2023-09-23T08:48:25Z</time>
      </trkpt>
      <trkpt lat="43.03654" lon="0.61546">
        <ele>447.8</ele>
        <time>2023-09-23T08:48:26Z</time>
      </trkpt>
      <trkpt lat="43.0366" lon="0.61542">
        <ele>447.8</ele>
        <time>2023-09-23T08:48:27Z</time>
      </trkpt>
      <trkpt lat="43.03665" lon="0.61538">
        <ele>447</ele>
        <time>2023-09-23T08:48:28Z</time>
      </trkpt>
      <trkpt lat="43.03671" lon="0.61534">
        <ele>447</ele>
        <time>2023-09-23T08:48:29Z</time>
      </trkpt>
      <trkpt lat="43.03677" lon="0.6153">
        <ele>447</ele>
        <time>2023-09-23T08:48:30Z</time>
      </trkpt>
      <trkpt lat="43.03682" lon="0.61526">
        <ele>447.8</ele>
        <time>2023-09-23T08:48:31Z</time>
      </trkpt>
      <trkpt lat="43.03687" lon="0.61523">
        <ele>447.2</ele>
        <time>2023-09-23T08:48:32Z</time>
      </trkpt>
      <trkpt lat="43.03692" lon="0.61519">
        <ele>447.2</ele>
        <time>2023-09-23T08:48:33Z</time>
      </trkpt>
      <trkpt lat="43.03698" lon="0.61516">
        <ele>447.2</ele>
        <time>2023-09-23T08:48:34Z</time>
      </trkpt>
      <trkpt lat="43.03703" lon="0.61513">
        <ele>447.2</ele>
        <time>2023-09-23T08:48:35Z</time>
      </trkpt>
      <trkpt lat="43.03709" lon="0.6151">
        <ele>446.8</ele>
        <time>2023-09-23T08:48:36Z</time>
      </trkpt>
      <trkpt lat="43.03714" lon="0.61506">
        <ele>446.8</ele>
        <time>2023-09-23T08:48:37Z</time>
      </trkpt>
      <trkpt lat="43.0372" lon="0.61503">
        <ele>446.8</ele>
        <time>2023-09-23T08:48:38Z</time>
      </trkpt>
      <trkpt lat="43.03725" lon="0.61499">
        <ele>446.8</ele>
        <time>2023-09-23T08:48:39Z</time>
      </trkpt>
      <trkpt lat="43.03731" lon="0.61495">
        <ele>446.8</ele>
        <time>2023-09-23T08:48:40Z</time>
      </trkpt>
      <trkpt lat="43.03736" lon="0.61491">
        <ele>446.8</ele>
        <time>2023-09-23T08:48:41Z</time>
      </trkpt>
      <trkpt lat="43.03741" lon="0.61487">
        <ele>446.8</ele>
        <time>2023-09-23T08:48:42Z</time>
      </trkpt>
      <trkpt lat="43.03746" lon="0.61484">
        <ele>446.8</ele>
        <time>2023-09-23T08:48:43Z</time>
      </trkpt>
      <trkpt lat="43.0375" lon="0.6148">
        <ele>447.8</ele>
        <time>2023-09-23T08:48:44Z</time>
      </trkpt>
      <trkpt lat="43.03755" lon="0.61477">
        <ele>447.8</ele>
        <time>2023-09-23T08:48:45Z</time>
      </trkpt>
      <trkpt lat="43.03759" lon="0.61475">
        <ele>447.8</ele>
        <time>2023-09-23T08:48:46Z</time>
      </trkpt>
      <trkpt lat="43.03763" lon="0.61473">
        <ele>447.8</ele>
        <time>2023-09-23T08:48:47Z</time>
      </trkpt>
      <trkpt lat="43.03768" lon="0.6147">
        <ele>447.4</ele>
        <time>2023-09-23T08:48:48Z</time>
      </trkpt>
      <trkpt lat="43.03772" lon="0.61468">
        <ele>447.4</ele>
        <time>2023-09-23T08:48:49Z</time>
      </trkpt>
      <trkpt lat="43.03775" lon="0.61466">
        <ele>447.4</ele>
        <time>2023-09-23T08:48:50Z</time>
      </trkpt>
      <trkpt lat="43.03779" lon="0.61463">
        <ele>447.8</ele>
        <time>2023-09-23T08:48:51Z</time>
      </trkpt>
      <trkpt lat="43.03783" lon="0.6146">
        <ele>448.2</ele>
        <time>2023-09-23T08:48:52Z</time>
      </trkpt>
      <trkpt lat="43.03786" lon="0.61458">
        <ele>448.2</ele>
        <time>2023-09-23T08:48:53Z</time>
      </trkpt>
      <trkpt lat="43.03789" lon="0.61455">
        <ele>448.2</ele>
        <time>2023-09-23T08:48:54Z</time>
      </trkpt>
      <trkpt lat="43.03792" lon="0.61453">
        <ele>447.8</ele>
        <time>2023-09-23T08:48:55Z</time>
      </trkpt>
      <trkpt lat="43.03795" lon="0.61451">
        <ele>448</ele>
        <time>2023-09-23T08:48:56Z</time>
      </trkpt>
      <trkpt lat="43.03797" lon="0.6145">
        <ele>448</ele>
        <time>2023-09-23T08:48:57Z</time>
      </trkpt>
      <trkpt lat="43.03798" lon="0.61449">
        <ele>448</ele>
        <time>2023-09-23T08:48:58Z</time>
      </trkpt>
      <trkpt lat="43.03799" lon="0.61449">
        <ele>448</ele>
        <time>2023-09-23T08:48:59Z</time>
      </trkpt>
      <trkpt lat="43.03799" lon="0.61449">
        <ele>448.2</ele>
        <time>2023-09-23T08:49:00Z</time>
      </trkpt>
      <trkpt lat="43.03808" lon="0.61449">
        <ele>448</ele>
        <time>2023-09-23T08:50:50Z</time>
      </trkpt>
      <trkpt lat="43.03811" lon="0.6145">
        <ele>448.4</ele>
        <time>2023-09-23T08:50:51Z</time>
      </trkpt>
      <trkpt lat="43.03814" lon="0.61451">
        <ele>448.4</ele>
        <time>2023-09-23T08:50:52Z</time>
      </trkpt>
      <trkpt lat="43.03816" lon="0.61453">
        <ele>448.4</ele>
        <time>2023-09-23T08:50:53Z</time>
      </trkpt>
      <trkpt lat="43.03819" lon="0.61456">
        <ele>448.4</ele>
        <time>2023-09-23T08:50:54Z</time>
      </trkpt>
      <trkpt lat="43.0382" lon="0.61459">
        <ele>448.4</ele>
        <time>2023-09-23T08:50:55Z</time>
      </trkpt>
      <trkpt lat="43.03822" lon="0.61463">
        <ele>448.2</ele>
        <time>2023-09-23T08:50:56Z</time>
      </trkpt>
      <trkpt lat="43.03824" lon="0.61467">
        <ele>448.2</ele>
        <time>2023-09-23T08:50:57Z</time>
      </trkpt>
      <trkpt lat="43.03826" lon="0.61471">
        <ele>448.2</ele>
        <time>2023-09-23T08:50:58Z</time>
      </trkpt>
      <trkpt lat="43.03828" lon="0.61475">
        <ele>448.2</ele>
        <time>2023-09-23T08:50:59Z</time>
      </trkpt>
      <trkpt lat="43.0383" lon="0.61477">
        <ele>448.4</ele>
        <time>2023-09-23T08:51:00Z</time>
      </trkpt>
      <trkpt lat="43.03833" lon="0.61479">
        <ele>448.4</ele>
        <time>2023-09-23T08:51:01Z</time>
      </trkpt>
      <trkpt lat="43.03836" lon="0.61481">
        <ele>448.4</ele>
        <time>2023-09-23T08:51:02Z</time>
      </trkpt>
      <trkpt lat="43.03838" lon="0.61484">
        <ele>448.6</ele>
        <time>2023-09-23T08:51:03Z</time>
      </trkpt>
      <trkpt lat="43.03841" lon="0.61486">
        <ele>448.4</ele>
        <time>2023-09-23T08:51:04Z</time>
      </trkpt>
      <trkpt lat="43.03844" lon="0.61489">
        <ele>448.4</ele>
        <time>2023-09-23T08:51:05Z</time>
      </trkpt>
      <trkpt lat="43.03847" lon="0.61492">
        <ele>448.4</ele>
        <time>2023-09-23T08:51:06Z</time>
      </trkpt>
      <trkpt lat="43.0385" lon="0.61494">
        <ele>448.4</ele>
        <time>2023-09-23T08:51:07Z</time>
      </trkpt>
      <trkpt lat="43.03853" lon="0.61496">
        <ele>448.4</ele>
        <time>2023-09-23T08:51:08Z</time>
      </trkpt>
      <trkpt lat="43.03856" lon="0.61498">
        <ele>448.4</ele>
        <time>2023-09-23T08:51:09Z</time>
      </trkpt>
      <trkpt lat="43.03859" lon="0.615">
        <ele>448.4</ele>
        <time>2023-09-23T08:51:10Z</time>
      </trkpt>
      <trkpt lat="43.03862" lon="0.61502">
        <ele>448.4</ele>
        <time>2023-09-23T08:51:11Z</time>
      </trkpt>
      <trkpt lat="43.03865" lon="0.61504">
        <ele>448.4</ele>
        <time>2023-09-23T08:51:12Z</time>
      </trkpt>
      <trkpt lat="43.03868" lon="0.61506">
        <ele>448.4</ele>
        <time>2023-09-23T08:51:13Z</time>
      </trkpt>
      <trkpt lat="43.03872" lon="0.61506">
        <ele>448.4</ele>
        <time>2023-09-23T08:51:14Z</time>
      </trkpt>
      <trkpt lat="43.03875" lon="0.61506">
        <ele>449.2</ele>
        <time>2023-09-23T08:51:15Z</time>
      </trkpt>
      <trkpt lat="43.03878" lon="0.61506">
        <ele>449.4</ele>
        <time>2023-09-23T08:51:16Z</time>
      </trkpt>
      <trkpt lat="43.0388" lon="0.61506">
        <ele>449.4</ele>
        <time>2023-09-23T08:51:17Z</time>
      </trkpt>
      <trkpt lat="43.03883" lon="0.61506">
        <ele>449.4</ele>
        <time>2023-09-23T08:51:18Z</time>
      </trkpt>
      <trkpt lat="43.03886" lon="0.61506">
        <ele>449.6</ele>
        <time>2023-09-23T08:51:19Z</time>
      </trkpt>
      <trkpt lat="43.03889" lon="0.61507">
        <ele>450.2</ele>
        <time>2023-09-23T08:51:20Z</time>
      </trkpt>
      <trkpt lat="43.03892" lon="0.61507">
        <ele>450.2</ele>
        <time>2023-09-23T08:51:21Z</time>
      </trkpt>
      <trkpt lat="43.03895" lon="0.61508">
        <ele>450.2</ele>
        <time>2023-09-23T08:51:22Z</time>
      </trkpt>
      <trkpt lat="43.03898" lon="0.61509">
        <ele>450.2</ele>
        <time>2023-09-23T08:51:23Z</time>
      </trkpt>
      <trkpt lat="43.039" lon="0.6151">
        <ele>451.4</ele>
        <time>2023-09-23T08:51:24Z</time>
      </trkpt>
      <trkpt lat="43.03903" lon="0.61511">
        <ele>451.4</ele>
        <time>2023-09-23T08:51:25Z</time>
      </trkpt>
      <trkpt lat="43.03905" lon="0.61513">
        <ele>451.4</ele>
        <time>2023-09-23T08:51:26Z</time>
      </trkpt>
      <trkpt lat="43.03906" lon="0.61516">
        <ele>451</ele>
        <time>2023-09-23T08:51:27Z</time>
      </trkpt>
      <trkpt lat="43.03907" lon="0.61519">
        <ele>450.6</ele>
        <time>2023-09-23T08:51:28Z</time>
      </trkpt>
      <trkpt lat="43.03907" lon="0.61523">
        <ele>450.6</ele>
        <time>2023-09-23T08:51:29Z</time>
      </trkpt>
      <trkpt lat="43.03908" lon="0.61526">
        <ele>450.6</ele>
        <time>2023-09-23T08:51:30Z</time>
      </trkpt>
      <trkpt lat="43.03908" lon="0.61527">
        <ele>451</ele>
        <time>2023-09-23T08:51:31Z</time>
      </trkpt>
      <trkpt lat="43.03908" lon="0.61528">
        <ele>450.8</ele>
        <time>2023-09-23T08:51:32Z</time>
      </trkpt>
      <trkpt lat="43.03908" lon="0.61528">
        <ele>450.8</ele>
        <time>2023-09-23T08:51:33Z</time>
      </trkpt>
      <trkpt lat="43.03908" lon="0.61528">
        <ele>450.8</ele>
        <time>2023-09-23T08:51:34Z</time>
      </trkpt>
    </trkseg>
  </trk>
</gpx>